<?xml version="1.0" encoding="UTF-8" standalone="no" ?>
<gpx xmlns="http://www.topografix.com/GPX/1/1" xmlns:xsi="http://www.w3.org/2001/XMLSchema-instance" xsi:schemaLocation="http://www.topografix.com/GPX/1/1 http://www.topografix.com/GPX/1/1/gpx.xsd" version="1.1" creator="VisuGPX - https://www.visugpx.com">
  <metadata>
    <name>Sortie vélo le matin</name>
  </metadata>
  <trk>
    <name><![CDATA[Sortie vélo le matin_1]]></name>
    <trkseg>
      <trkpt lat="43.58687" lon="1.32228">
        <ele>237.4</ele>
        <time>2022-11-20T07:40:48Z</time>
      </trkpt>
      <trkpt lat="43.58687" lon="1.32228">
        <ele>184.4</ele>
        <time>2022-11-20T07:41:03Z</time>
      </trkpt>
      <trkpt lat="43.58687" lon="1.32228">
        <ele>185.4</ele>
        <time>2022-11-20T07:41:06Z</time>
      </trkpt>
      <trkpt lat="43.58687" lon="1.32228">
        <ele>186.6</ele>
        <time>2022-11-20T07:41:10Z</time>
      </trkpt>
      <trkpt lat="43.58687" lon="1.32228">
        <ele>187.8</ele>
        <time>2022-11-20T07:41:17Z</time>
      </trkpt>
      <trkpt lat="43.58687" lon="1.32228">
        <ele>188.8</ele>
        <time>2022-11-20T07:41:32Z</time>
      </trkpt>
      <trkpt lat="43.58687" lon="1.32228">
        <ele>187.8</ele>
        <time>2022-11-20T07:41:35Z</time>
      </trkpt>
      <trkpt lat="43.58692" lon="1.32198">
        <ele>187.6</ele>
        <time>2022-11-20T07:41:51Z</time>
      </trkpt>
      <trkpt lat="43.58691" lon="1.32189">
        <ele>187.8</ele>
        <time>2022-11-20T07:41:53Z</time>
      </trkpt>
      <trkpt lat="43.58691" lon="1.32185">
        <ele>188.2</ele>
        <time>2022-11-20T07:41:54Z</time>
      </trkpt>
      <trkpt lat="43.5869" lon="1.32157">
        <ele>189</ele>
        <time>2022-11-20T07:41:59Z</time>
      </trkpt>
      <trkpt lat="43.5869" lon="1.32144">
        <ele>189.2</ele>
        <time>2022-11-20T07:42:01Z</time>
      </trkpt>
      <trkpt lat="43.5869" lon="1.32137">
        <ele>189.4</ele>
        <time>2022-11-20T07:42:02Z</time>
      </trkpt>
      <trkpt lat="43.5869" lon="1.32116">
        <ele>190</ele>
        <time>2022-11-20T07:42:05Z</time>
      </trkpt>
      <trkpt lat="43.58691" lon="1.32097">
        <ele>190.2</ele>
        <time>2022-11-20T07:42:08Z</time>
      </trkpt>
      <trkpt lat="43.58691" lon="1.32095">
        <ele>190.4</ele>
        <time>2022-11-20T07:42:09Z</time>
      </trkpt>
      <trkpt lat="43.5869" lon="1.32094">
        <ele>190.6</ele>
        <time>2022-11-20T07:42:10Z</time>
      </trkpt>
      <trkpt lat="43.58689" lon="1.32099">
        <ele>191</ele>
        <time>2022-11-20T07:42:13Z</time>
      </trkpt>
      <trkpt lat="43.58688" lon="1.32101">
        <ele>191</ele>
        <time>2022-11-20T07:42:14Z</time>
      </trkpt>
      <trkpt lat="43.58688" lon="1.3212">
        <ele>191.2</ele>
        <time>2022-11-20T07:42:18Z</time>
      </trkpt>
      <trkpt lat="43.58684" lon="1.32163">
        <ele>191.2</ele>
        <time>2022-11-20T07:42:24Z</time>
      </trkpt>
      <trkpt lat="43.58684" lon="1.3217">
        <ele>191.2</ele>
        <time>2022-11-20T07:42:25Z</time>
      </trkpt>
      <trkpt lat="43.5868" lon="1.32204">
        <ele>191.8</ele>
        <time>2022-11-20T07:42:30Z</time>
      </trkpt>
      <trkpt lat="43.5868" lon="1.3221">
        <ele>191.8</ele>
        <time>2022-11-20T07:42:31Z</time>
      </trkpt>
      <trkpt lat="43.5868" lon="1.32216">
        <ele>191.8</ele>
        <time>2022-11-20T07:42:32Z</time>
      </trkpt>
      <trkpt lat="43.58681" lon="1.32224">
        <ele>192</ele>
        <time>2022-11-20T07:42:34Z</time>
      </trkpt>
      <trkpt lat="43.58682" lon="1.32225">
        <ele>192</ele>
        <time>2022-11-20T07:42:35Z</time>
      </trkpt>
      <trkpt lat="43.58682" lon="1.32225">
        <ele>192</ele>
        <time>2022-11-20T07:42:37Z</time>
      </trkpt>
      <trkpt lat="43.5868" lon="1.32212">
        <ele>189.4</ele>
        <time>2022-11-20T07:43:42Z</time>
      </trkpt>
      <trkpt lat="43.58681" lon="1.32193">
        <ele>189.4</ele>
        <time>2022-11-20T07:43:46Z</time>
      </trkpt>
      <trkpt lat="43.58684" lon="1.32168">
        <ele>189.4</ele>
        <time>2022-11-20T07:43:50Z</time>
      </trkpt>
      <trkpt lat="43.58685" lon="1.32154">
        <ele>189.6</ele>
        <time>2022-11-20T07:43:52Z</time>
      </trkpt>
      <trkpt lat="43.58685" lon="1.32147">
        <ele>189.8</ele>
        <time>2022-11-20T07:43:53Z</time>
      </trkpt>
      <trkpt lat="43.58687" lon="1.32116">
        <ele>190.2</ele>
        <time>2022-11-20T07:43:57Z</time>
      </trkpt>
      <trkpt lat="43.58687" lon="1.32108">
        <ele>190.4</ele>
        <time>2022-11-20T07:43:58Z</time>
      </trkpt>
      <trkpt lat="43.58688" lon="1.32065">
        <ele>190.8</ele>
        <time>2022-11-20T07:44:03Z</time>
      </trkpt>
      <trkpt lat="43.58687" lon="1.32016">
        <ele>191</ele>
        <time>2022-11-20T07:44:09Z</time>
      </trkpt>
      <trkpt lat="43.58685" lon="1.31993">
        <ele>191</ele>
        <time>2022-11-20T07:44:12Z</time>
      </trkpt>
      <trkpt lat="43.58683" lon="1.31985">
        <ele>191</ele>
        <time>2022-11-20T07:44:13Z</time>
      </trkpt>
      <trkpt lat="43.5868" lon="1.31979">
        <ele>191</ele>
        <time>2022-11-20T07:44:14Z</time>
      </trkpt>
      <trkpt lat="43.58677" lon="1.31974">
        <ele>191.2</ele>
        <time>2022-11-20T07:44:15Z</time>
      </trkpt>
      <trkpt lat="43.58671" lon="1.31964">
        <ele>191.2</ele>
        <time>2022-11-20T07:44:17Z</time>
      </trkpt>
      <trkpt lat="43.58664" lon="1.31954">
        <ele>191.4</ele>
        <time>2022-11-20T07:44:19Z</time>
      </trkpt>
      <trkpt lat="43.58661" lon="1.31948">
        <ele>191.4</ele>
        <time>2022-11-20T07:44:20Z</time>
      </trkpt>
      <trkpt lat="43.58657" lon="1.31943">
        <ele>191.4</ele>
        <time>2022-11-20T07:44:21Z</time>
      </trkpt>
      <trkpt lat="43.58635" lon="1.31905">
        <ele>191.6</ele>
        <time>2022-11-20T07:44:27Z</time>
      </trkpt>
      <trkpt lat="43.58622" lon="1.31888">
        <ele>191.8</ele>
        <time>2022-11-20T07:44:30Z</time>
      </trkpt>
      <trkpt lat="43.58607" lon="1.31874">
        <ele>192</ele>
        <time>2022-11-20T07:44:33Z</time>
      </trkpt>
      <trkpt lat="43.58577" lon="1.31848">
        <ele>192.6</ele>
        <time>2022-11-20T07:44:39Z</time>
      </trkpt>
      <trkpt lat="43.58567" lon="1.31839">
        <ele>192.6</ele>
        <time>2022-11-20T07:44:41Z</time>
      </trkpt>
      <trkpt lat="43.58558" lon="1.31831">
        <ele>192.8</ele>
        <time>2022-11-20T07:44:43Z</time>
      </trkpt>
      <trkpt lat="43.5852" lon="1.31792">
        <ele>193.4</ele>
        <time>2022-11-20T07:44:51Z</time>
      </trkpt>
      <trkpt lat="43.58515" lon="1.31787">
        <ele>193.6</ele>
        <time>2022-11-20T07:44:52Z</time>
      </trkpt>
      <trkpt lat="43.58484" lon="1.31748">
        <ele>193.8</ele>
        <time>2022-11-20T07:44:59Z</time>
      </trkpt>
      <trkpt lat="43.58444" lon="1.317">
        <ele>194.4</ele>
        <time>2022-11-20T07:45:08Z</time>
      </trkpt>
      <trkpt lat="43.58435" lon="1.31689">
        <ele>194.6</ele>
        <time>2022-11-20T07:45:10Z</time>
      </trkpt>
      <trkpt lat="43.58404" lon="1.31654">
        <ele>194.6</ele>
        <time>2022-11-20T07:45:17Z</time>
      </trkpt>
      <trkpt lat="43.584" lon="1.3165">
        <ele>194.6</ele>
        <time>2022-11-20T07:45:19Z</time>
      </trkpt>
      <trkpt lat="43.58399" lon="1.31649">
        <ele>194.6</ele>
        <time>2022-11-20T07:45:20Z</time>
      </trkpt>
      <trkpt lat="43.58384" lon="1.31636">
        <ele>194.2</ele>
        <time>2022-11-20T07:45:25Z</time>
      </trkpt>
      <trkpt lat="43.58364" lon="1.31615">
        <ele>193.2</ele>
        <time>2022-11-20T07:45:29Z</time>
      </trkpt>
      <trkpt lat="43.58358" lon="1.31608">
        <ele>193</ele>
        <time>2022-11-20T07:45:30Z</time>
      </trkpt>
      <trkpt lat="43.58345" lon="1.31597">
        <ele>192.2</ele>
        <time>2022-11-20T07:45:32Z</time>
      </trkpt>
      <trkpt lat="43.58339" lon="1.31592">
        <ele>191.8</ele>
        <time>2022-11-20T07:45:33Z</time>
      </trkpt>
      <trkpt lat="43.58334" lon="1.31587">
        <ele>191.2</ele>
        <time>2022-11-20T07:45:34Z</time>
      </trkpt>
      <trkpt lat="43.58329" lon="1.31582">
        <ele>189.8</ele>
        <time>2022-11-20T07:45:35Z</time>
      </trkpt>
      <trkpt lat="43.58323" lon="1.31574">
        <ele>188.8</ele>
        <time>2022-11-20T07:45:37Z</time>
      </trkpt>
      <trkpt lat="43.5832" lon="1.31571">
        <ele>188.6</ele>
        <time>2022-11-20T07:45:38Z</time>
      </trkpt>
      <trkpt lat="43.58318" lon="1.3157">
        <ele>187.6</ele>
        <time>2022-11-20T07:45:39Z</time>
      </trkpt>
      <trkpt lat="43.58316" lon="1.31569">
        <ele>187.2</ele>
        <time>2022-11-20T07:45:40Z</time>
      </trkpt>
      <trkpt lat="43.58312" lon="1.31565">
        <ele>185.6</ele>
        <time>2022-11-20T07:45:41Z</time>
      </trkpt>
      <trkpt lat="43.58304" lon="1.31557">
        <ele>184</ele>
        <time>2022-11-20T07:45:43Z</time>
      </trkpt>
      <trkpt lat="43.58299" lon="1.31552">
        <ele>183.4</ele>
        <time>2022-11-20T07:45:44Z</time>
      </trkpt>
      <trkpt lat="43.58293" lon="1.31547">
        <ele>183</ele>
        <time>2022-11-20T07:45:45Z</time>
      </trkpt>
      <trkpt lat="43.58282" lon="1.31537">
        <ele>181.8</ele>
        <time>2022-11-20T07:45:47Z</time>
      </trkpt>
      <trkpt lat="43.58277" lon="1.31532">
        <ele>180.8</ele>
        <time>2022-11-20T07:45:48Z</time>
      </trkpt>
      <trkpt lat="43.58271" lon="1.31526">
        <ele>180.4</ele>
        <time>2022-11-20T07:45:49Z</time>
      </trkpt>
      <trkpt lat="43.58265" lon="1.31521">
        <ele>179.6</ele>
        <time>2022-11-20T07:45:50Z</time>
      </trkpt>
      <trkpt lat="43.58259" lon="1.31515">
        <ele>179.4</ele>
        <time>2022-11-20T07:45:51Z</time>
      </trkpt>
      <trkpt lat="43.58239" lon="1.315">
        <ele>178.6</ele>
        <time>2022-11-20T07:45:54Z</time>
      </trkpt>
      <trkpt lat="43.58233" lon="1.31496">
        <ele>178</ele>
        <time>2022-11-20T07:45:55Z</time>
      </trkpt>
      <trkpt lat="43.58227" lon="1.3149">
        <ele>177.6</ele>
        <time>2022-11-20T07:45:56Z</time>
      </trkpt>
      <trkpt lat="43.58216" lon="1.31476">
        <ele>177</ele>
        <time>2022-11-20T07:45:58Z</time>
      </trkpt>
      <trkpt lat="43.58211" lon="1.31468">
        <ele>176.6</ele>
        <time>2022-11-20T07:45:59Z</time>
      </trkpt>
      <trkpt lat="43.582" lon="1.31453">
        <ele>175.8</ele>
        <time>2022-11-20T07:46:01Z</time>
      </trkpt>
      <trkpt lat="43.58195" lon="1.31446">
        <ele>175.6</ele>
        <time>2022-11-20T07:46:02Z</time>
      </trkpt>
      <trkpt lat="43.58184" lon="1.31431">
        <ele>174.4</ele>
        <time>2022-11-20T07:46:04Z</time>
      </trkpt>
      <trkpt lat="43.58179" lon="1.31423">
        <ele>174.2</ele>
        <time>2022-11-20T07:46:05Z</time>
      </trkpt>
      <trkpt lat="43.58158" lon="1.31394">
        <ele>173.4</ele>
        <time>2022-11-20T07:46:09Z</time>
      </trkpt>
      <trkpt lat="43.58131" lon="1.31356">
        <ele>172.2</ele>
        <time>2022-11-20T07:46:14Z</time>
      </trkpt>
      <trkpt lat="43.58103" lon="1.31319">
        <ele>171.4</ele>
        <time>2022-11-20T07:46:19Z</time>
      </trkpt>
      <trkpt lat="43.58091" lon="1.31304">
        <ele>171.2</ele>
        <time>2022-11-20T07:46:21Z</time>
      </trkpt>
      <trkpt lat="43.58086" lon="1.31297">
        <ele>171.2</ele>
        <time>2022-11-20T07:46:22Z</time>
      </trkpt>
      <trkpt lat="43.58049" lon="1.31243">
        <ele>170.6</ele>
        <time>2022-11-20T07:46:29Z</time>
      </trkpt>
      <trkpt lat="43.58021" lon="1.31207">
        <ele>170.2</ele>
        <time>2022-11-20T07:46:34Z</time>
      </trkpt>
      <trkpt lat="43.57994" lon="1.31172">
        <ele>169.6</ele>
        <time>2022-11-20T07:46:39Z</time>
      </trkpt>
      <trkpt lat="43.57953" lon="1.31124">
        <ele>169.4</ele>
        <time>2022-11-20T07:46:46Z</time>
      </trkpt>
      <trkpt lat="43.57947" lon="1.31117">
        <ele>169.4</ele>
        <time>2022-11-20T07:46:47Z</time>
      </trkpt>
      <trkpt lat="43.5791" lon="1.31078">
        <ele>169</ele>
        <time>2022-11-20T07:46:53Z</time>
      </trkpt>
      <trkpt lat="43.57873" lon="1.31041">
        <ele>168.6</ele>
        <time>2022-11-20T07:46:59Z</time>
      </trkpt>
      <trkpt lat="43.5786" lon="1.31029">
        <ele>168.6</ele>
        <time>2022-11-20T07:47:01Z</time>
      </trkpt>
      <trkpt lat="43.57817" lon="1.30986">
        <ele>168.6</ele>
        <time>2022-11-20T07:47:08Z</time>
      </trkpt>
      <trkpt lat="43.57771" lon="1.30938">
        <ele>168.6</ele>
        <time>2022-11-20T07:47:16Z</time>
      </trkpt>
      <trkpt lat="43.57726" lon="1.30889">
        <ele>168.6</ele>
        <time>2022-11-20T07:47:24Z</time>
      </trkpt>
      <trkpt lat="43.57714" lon="1.30877">
        <ele>168.6</ele>
        <time>2022-11-20T07:47:26Z</time>
      </trkpt>
      <trkpt lat="43.57669" lon="1.30831">
        <ele>168.6</ele>
        <time>2022-11-20T07:47:34Z</time>
      </trkpt>
      <trkpt lat="43.57654" lon="1.30814">
        <ele>168.4</ele>
        <time>2022-11-20T07:47:37Z</time>
      </trkpt>
      <trkpt lat="43.57633" lon="1.30789">
        <ele>168.2</ele>
        <time>2022-11-20T07:47:41Z</time>
      </trkpt>
      <trkpt lat="43.57607" lon="1.30756">
        <ele>168.2</ele>
        <time>2022-11-20T07:47:46Z</time>
      </trkpt>
      <trkpt lat="43.57589" lon="1.30731">
        <ele>168.2</ele>
        <time>2022-11-20T07:47:50Z</time>
      </trkpt>
      <trkpt lat="43.5755" lon="1.30679">
        <ele>168</ele>
        <time>2022-11-20T07:47:58Z</time>
      </trkpt>
      <trkpt lat="43.57514" lon="1.30638">
        <ele>168</ele>
        <time>2022-11-20T07:48:05Z</time>
      </trkpt>
      <trkpt lat="43.57487" lon="1.30611">
        <ele>168.2</ele>
        <time>2022-11-20T07:48:10Z</time>
      </trkpt>
      <trkpt lat="43.57472" lon="1.30594">
        <ele>168.4</ele>
        <time>2022-11-20T07:48:13Z</time>
      </trkpt>
      <trkpt lat="43.57424" lon="1.30545">
        <ele>168.8</ele>
        <time>2022-11-20T07:48:22Z</time>
      </trkpt>
      <trkpt lat="43.57413" lon="1.30533">
        <ele>169</ele>
        <time>2022-11-20T07:48:24Z</time>
      </trkpt>
      <trkpt lat="43.57365" lon="1.30484">
        <ele>169</ele>
        <time>2022-11-20T07:48:33Z</time>
      </trkpt>
      <trkpt lat="43.57361" lon="1.30479">
        <ele>169</ele>
        <time>2022-11-20T07:48:34Z</time>
      </trkpt>
      <trkpt lat="43.5734" lon="1.30455">
        <ele>168.8</ele>
        <time>2022-11-20T07:48:38Z</time>
      </trkpt>
      <trkpt lat="43.57325" lon="1.30439">
        <ele>168.8</ele>
        <time>2022-11-20T07:48:41Z</time>
      </trkpt>
      <trkpt lat="43.57305" lon="1.30417">
        <ele>168.8</ele>
        <time>2022-11-20T07:48:46Z</time>
      </trkpt>
      <trkpt lat="43.57285" lon="1.30393">
        <ele>168.4</ele>
        <time>2022-11-20T07:48:51Z</time>
      </trkpt>
      <trkpt lat="43.57281" lon="1.3039">
        <ele>168.6</ele>
        <time>2022-11-20T07:48:52Z</time>
      </trkpt>
      <trkpt lat="43.57271" lon="1.30379">
        <ele>168.6</ele>
        <time>2022-11-20T07:48:54Z</time>
      </trkpt>
      <trkpt lat="43.57256" lon="1.30362">
        <ele>168.4</ele>
        <time>2022-11-20T07:48:57Z</time>
      </trkpt>
      <trkpt lat="43.57226" lon="1.30329">
        <ele>168.2</ele>
        <time>2022-11-20T07:49:03Z</time>
      </trkpt>
      <trkpt lat="43.5718" lon="1.30278">
        <ele>168.4</ele>
        <time>2022-11-20T07:49:12Z</time>
      </trkpt>
      <trkpt lat="43.5717" lon="1.30267">
        <ele>168.4</ele>
        <time>2022-11-20T07:49:14Z</time>
      </trkpt>
      <trkpt lat="43.5713" lon="1.30221">
        <ele>168.4</ele>
        <time>2022-11-20T07:49:22Z</time>
      </trkpt>
      <trkpt lat="43.57108" lon="1.30187">
        <ele>168.4</ele>
        <time>2022-11-20T07:49:27Z</time>
      </trkpt>
      <trkpt lat="43.57083" lon="1.30124">
        <ele>168.8</ele>
        <time>2022-11-20T07:49:35Z</time>
      </trkpt>
      <trkpt lat="43.57062" lon="1.30049">
        <ele>168.8</ele>
        <time>2022-11-20T07:49:44Z</time>
      </trkpt>
      <trkpt lat="43.57059" lon="1.30041">
        <ele>168.8</ele>
        <time>2022-11-20T07:49:45Z</time>
      </trkpt>
      <trkpt lat="43.57037" lon="1.29968">
        <ele>169.2</ele>
        <time>2022-11-20T07:49:54Z</time>
      </trkpt>
      <trkpt lat="43.57018" lon="1.29903">
        <ele>169.4</ele>
        <time>2022-11-20T07:50:02Z</time>
      </trkpt>
      <trkpt lat="43.57004" lon="1.29854">
        <ele>168.8</ele>
        <time>2022-11-20T07:50:08Z</time>
      </trkpt>
      <trkpt lat="43.56999" lon="1.29837">
        <ele>168.8</ele>
        <time>2022-11-20T07:50:10Z</time>
      </trkpt>
      <trkpt lat="43.56992" lon="1.29814">
        <ele>169.2</ele>
        <time>2022-11-20T07:50:13Z</time>
      </trkpt>
      <trkpt lat="43.56981" lon="1.29777">
        <ele>169.8</ele>
        <time>2022-11-20T07:50:18Z</time>
      </trkpt>
      <trkpt lat="43.56962" lon="1.29711">
        <ele>170</ele>
        <time>2022-11-20T07:50:26Z</time>
      </trkpt>
      <trkpt lat="43.56939" lon="1.29641">
        <ele>170</ele>
        <time>2022-11-20T07:50:35Z</time>
      </trkpt>
      <trkpt lat="43.56919" lon="1.29582">
        <ele>170.4</ele>
        <time>2022-11-20T07:50:43Z</time>
      </trkpt>
      <trkpt lat="43.56917" lon="1.29576">
        <ele>170.4</ele>
        <time>2022-11-20T07:50:44Z</time>
      </trkpt>
      <trkpt lat="43.56912" lon="1.29559">
        <ele>170.4</ele>
        <time>2022-11-20T07:50:48Z</time>
      </trkpt>
      <trkpt lat="43.56909" lon="1.2955">
        <ele>170.4</ele>
        <time>2022-11-20T07:50:53Z</time>
      </trkpt>
      <trkpt lat="43.56904" lon="1.29533">
        <ele>170.4</ele>
        <time>2022-11-20T07:50:57Z</time>
      </trkpt>
      <trkpt lat="43.56903" lon="1.29529">
        <ele>170.2</ele>
        <time>2022-11-20T07:50:58Z</time>
      </trkpt>
      <trkpt lat="43.56895" lon="1.29503">
        <ele>170.2</ele>
        <time>2022-11-20T07:51:02Z</time>
      </trkpt>
      <trkpt lat="43.56883" lon="1.29456">
        <ele>170</ele>
        <time>2022-11-20T07:51:08Z</time>
      </trkpt>
      <trkpt lat="43.56871" lon="1.2941">
        <ele>170</ele>
        <time>2022-11-20T07:51:14Z</time>
      </trkpt>
      <trkpt lat="43.56869" lon="1.29405">
        <ele>170</ele>
        <time>2022-11-20T07:51:15Z</time>
      </trkpt>
      <trkpt lat="43.56851" lon="1.29332">
        <ele>170.2</ele>
        <time>2022-11-20T07:51:24Z</time>
      </trkpt>
      <trkpt lat="43.56849" lon="1.29324">
        <ele>170.2</ele>
        <time>2022-11-20T07:51:25Z</time>
      </trkpt>
      <trkpt lat="43.5683" lon="1.29245">
        <ele>171</ele>
        <time>2022-11-20T07:51:34Z</time>
      </trkpt>
      <trkpt lat="43.5681" lon="1.29173">
        <ele>171.2</ele>
        <time>2022-11-20T07:51:43Z</time>
      </trkpt>
      <trkpt lat="43.56798" lon="1.29125">
        <ele>171.4</ele>
        <time>2022-11-20T07:51:49Z</time>
      </trkpt>
      <trkpt lat="43.56794" lon="1.2911">
        <ele>171.6</ele>
        <time>2022-11-20T07:51:51Z</time>
      </trkpt>
      <trkpt lat="43.56778" lon="1.29054">
        <ele>172</ele>
        <time>2022-11-20T07:51:59Z</time>
      </trkpt>
      <trkpt lat="43.56773" lon="1.29037">
        <ele>172.6</ele>
        <time>2022-11-20T07:52:02Z</time>
      </trkpt>
      <trkpt lat="43.5677" lon="1.29028">
        <ele>172.8</ele>
        <time>2022-11-20T07:52:04Z</time>
      </trkpt>
      <trkpt lat="43.56761" lon="1.29018">
        <ele>173.2</ele>
        <time>2022-11-20T07:52:09Z</time>
      </trkpt>
      <trkpt lat="43.56757" lon="1.29019">
        <ele>173.4</ele>
        <time>2022-11-20T07:52:10Z</time>
      </trkpt>
      <trkpt lat="43.56749" lon="1.29025">
        <ele>173.4</ele>
        <time>2022-11-20T07:52:12Z</time>
      </trkpt>
      <trkpt lat="43.56745" lon="1.29029">
        <ele>173.4</ele>
        <time>2022-11-20T07:52:13Z</time>
      </trkpt>
      <trkpt lat="43.56726" lon="1.2905">
        <ele>173.4</ele>
        <time>2022-11-20T07:52:17Z</time>
      </trkpt>
      <trkpt lat="43.5669" lon="1.29091">
        <ele>172.6</ele>
        <time>2022-11-20T07:52:24Z</time>
      </trkpt>
      <trkpt lat="43.56676" lon="1.29106">
        <ele>172.4</ele>
        <time>2022-11-20T07:52:27Z</time>
      </trkpt>
      <trkpt lat="43.56668" lon="1.29107">
        <ele>172.2</ele>
        <time>2022-11-20T07:52:28Z</time>
      </trkpt>
      <trkpt lat="43.56663" lon="1.29104">
        <ele>172</ele>
        <time>2022-11-20T07:52:29Z</time>
      </trkpt>
      <trkpt lat="43.56658" lon="1.29099">
        <ele>172</ele>
        <time>2022-11-20T07:52:30Z</time>
      </trkpt>
      <trkpt lat="43.56638" lon="1.29067">
        <ele>171.4</ele>
        <time>2022-11-20T07:52:35Z</time>
      </trkpt>
      <trkpt lat="43.56623" lon="1.29047">
        <ele>171.2</ele>
        <time>2022-11-20T07:52:38Z</time>
      </trkpt>
      <trkpt lat="43.56592" lon="1.29001">
        <ele>170.8</ele>
        <time>2022-11-20T07:52:45Z</time>
      </trkpt>
      <trkpt lat="43.56563" lon="1.28957">
        <ele>170.4</ele>
        <time>2022-11-20T07:52:51Z</time>
      </trkpt>
      <trkpt lat="43.56545" lon="1.28929">
        <ele>170.4</ele>
        <time>2022-11-20T07:52:55Z</time>
      </trkpt>
      <trkpt lat="43.56511" lon="1.28878">
        <ele>170.2</ele>
        <time>2022-11-20T07:53:03Z</time>
      </trkpt>
      <trkpt lat="43.56507" lon="1.28873">
        <ele>170.2</ele>
        <time>2022-11-20T07:53:04Z</time>
      </trkpt>
      <trkpt lat="43.56499" lon="1.28867">
        <ele>170.2</ele>
        <time>2022-11-20T07:53:06Z</time>
      </trkpt>
      <trkpt lat="43.5649" lon="1.28872">
        <ele>170.2</ele>
        <time>2022-11-20T07:53:08Z</time>
      </trkpt>
      <trkpt lat="43.56488" lon="1.28894">
        <ele>170.2</ele>
        <time>2022-11-20T07:53:11Z</time>
      </trkpt>
      <trkpt lat="43.56485" lon="1.28904">
        <ele>170.2</ele>
        <time>2022-11-20T07:53:12Z</time>
      </trkpt>
      <trkpt lat="43.56478" lon="1.28919">
        <ele>170.2</ele>
        <time>2022-11-20T07:53:14Z</time>
      </trkpt>
      <trkpt lat="43.5645" lon="1.28981">
        <ele>170</ele>
        <time>2022-11-20T07:53:22Z</time>
      </trkpt>
      <trkpt lat="43.56421" lon="1.29045">
        <ele>169.4</ele>
        <time>2022-11-20T07:53:30Z</time>
      </trkpt>
      <trkpt lat="43.5641" lon="1.29069">
        <ele>169.4</ele>
        <time>2022-11-20T07:53:33Z</time>
      </trkpt>
      <trkpt lat="43.56402" lon="1.29085">
        <ele>169.4</ele>
        <time>2022-11-20T07:53:35Z</time>
      </trkpt>
      <trkpt lat="43.5639" lon="1.29098">
        <ele>169.2</ele>
        <time>2022-11-20T07:53:37Z</time>
      </trkpt>
      <trkpt lat="43.56385" lon="1.29101">
        <ele>169.2</ele>
        <time>2022-11-20T07:53:38Z</time>
      </trkpt>
      <trkpt lat="43.56367" lon="1.29114">
        <ele>169.2</ele>
        <time>2022-11-20T07:53:41Z</time>
      </trkpt>
      <trkpt lat="43.56356" lon="1.29117">
        <ele>169.2</ele>
        <time>2022-11-20T07:53:43Z</time>
      </trkpt>
      <trkpt lat="43.56344" lon="1.2912">
        <ele>169.2</ele>
        <time>2022-11-20T07:53:45Z</time>
      </trkpt>
      <trkpt lat="43.5634" lon="1.29124">
        <ele>169.2</ele>
        <time>2022-11-20T07:53:46Z</time>
      </trkpt>
      <trkpt lat="43.56333" lon="1.29133">
        <ele>169.2</ele>
        <time>2022-11-20T07:53:48Z</time>
      </trkpt>
      <trkpt lat="43.56323" lon="1.29134">
        <ele>169.2</ele>
        <time>2022-11-20T07:53:50Z</time>
      </trkpt>
      <trkpt lat="43.56318" lon="1.29133">
        <ele>169.2</ele>
        <time>2022-11-20T07:53:51Z</time>
      </trkpt>
      <trkpt lat="43.56311" lon="1.29125">
        <ele>169.6</ele>
        <time>2022-11-20T07:53:53Z</time>
      </trkpt>
      <trkpt lat="43.56307" lon="1.29113">
        <ele>169.6</ele>
        <time>2022-11-20T07:53:55Z</time>
      </trkpt>
      <trkpt lat="43.56298" lon="1.2909">
        <ele>169.4</ele>
        <time>2022-11-20T07:53:59Z</time>
      </trkpt>
      <trkpt lat="43.56289" lon="1.29081">
        <ele>169.4</ele>
        <time>2022-11-20T07:54:02Z</time>
      </trkpt>
      <trkpt lat="43.56286" lon="1.29081">
        <ele>169.4</ele>
        <time>2022-11-20T07:54:03Z</time>
      </trkpt>
      <trkpt lat="43.5628" lon="1.29087">
        <ele>169.4</ele>
        <time>2022-11-20T07:54:05Z</time>
      </trkpt>
      <trkpt lat="43.56277" lon="1.2909">
        <ele>169.4</ele>
        <time>2022-11-20T07:54:06Z</time>
      </trkpt>
      <trkpt lat="43.5626" lon="1.291">
        <ele>169.2</ele>
        <time>2022-11-20T07:54:10Z</time>
      </trkpt>
      <trkpt lat="43.56233" lon="1.2912">
        <ele>169.2</ele>
        <time>2022-11-20T07:54:17Z</time>
      </trkpt>
      <trkpt lat="43.56225" lon="1.29128">
        <ele>169.2</ele>
        <time>2022-11-20T07:54:21Z</time>
      </trkpt>
      <trkpt lat="43.56225" lon="1.2913">
        <ele>169.2</ele>
        <time>2022-11-20T07:54:22Z</time>
      </trkpt>
      <trkpt lat="43.56225" lon="1.2913">
        <ele>169.2</ele>
        <time>2022-11-20T07:54:25Z</time>
      </trkpt>
      <trkpt lat="43.56229" lon="1.29126">
        <ele>168.4</ele>
        <time>2022-11-20T08:01:22Z</time>
      </trkpt>
      <trkpt lat="43.56227" lon="1.29116">
        <ele>168.2</ele>
        <time>2022-11-20T08:01:24Z</time>
      </trkpt>
      <trkpt lat="43.56216" lon="1.29087">
        <ele>168.2</ele>
        <time>2022-11-20T08:01:30Z</time>
      </trkpt>
      <trkpt lat="43.56204" lon="1.29058">
        <ele>168</ele>
        <time>2022-11-20T08:01:36Z</time>
      </trkpt>
      <trkpt lat="43.562" lon="1.29054">
        <ele>168</ele>
        <time>2022-11-20T08:01:37Z</time>
      </trkpt>
      <trkpt lat="43.56196" lon="1.29053">
        <ele>168.2</ele>
        <time>2022-11-20T08:01:38Z</time>
      </trkpt>
      <trkpt lat="43.56186" lon="1.29059">
        <ele>168.2</ele>
        <time>2022-11-20T08:01:40Z</time>
      </trkpt>
      <trkpt lat="43.56158" lon="1.29077">
        <ele>168.4</ele>
        <time>2022-11-20T08:01:45Z</time>
      </trkpt>
      <trkpt lat="43.56153" lon="1.29081">
        <ele>168.4</ele>
        <time>2022-11-20T08:01:46Z</time>
      </trkpt>
      <trkpt lat="43.5612" lon="1.29103">
        <ele>168.6</ele>
        <time>2022-11-20T08:01:52Z</time>
      </trkpt>
      <trkpt lat="43.56107" lon="1.29117">
        <ele>168.6</ele>
        <time>2022-11-20T08:01:55Z</time>
      </trkpt>
      <trkpt lat="43.56105" lon="1.29123">
        <ele>168.6</ele>
        <time>2022-11-20T08:01:56Z</time>
      </trkpt>
      <trkpt lat="43.56105" lon="1.29129">
        <ele>168.6</ele>
        <time>2022-11-20T08:01:57Z</time>
      </trkpt>
      <trkpt lat="43.56107" lon="1.29142">
        <ele>168.6</ele>
        <time>2022-11-20T08:01:59Z</time>
      </trkpt>
      <trkpt lat="43.56113" lon="1.29159">
        <ele>168.6</ele>
        <time>2022-11-20T08:02:02Z</time>
      </trkpt>
      <trkpt lat="43.56112" lon="1.29171">
        <ele>168.6</ele>
        <time>2022-11-20T08:02:04Z</time>
      </trkpt>
      <trkpt lat="43.56106" lon="1.29179">
        <ele>168.6</ele>
        <time>2022-11-20T08:02:06Z</time>
      </trkpt>
      <trkpt lat="43.56102" lon="1.29182">
        <ele>168.6</ele>
        <time>2022-11-20T08:02:07Z</time>
      </trkpt>
      <trkpt lat="43.56098" lon="1.29184">
        <ele>168.6</ele>
        <time>2022-11-20T08:02:08Z</time>
      </trkpt>
      <trkpt lat="43.56093" lon="1.29191">
        <ele>168.6</ele>
        <time>2022-11-20T08:02:10Z</time>
      </trkpt>
      <trkpt lat="43.56095" lon="1.29201">
        <ele>168.6</ele>
        <time>2022-11-20T08:02:12Z</time>
      </trkpt>
      <trkpt lat="43.56098" lon="1.29207">
        <ele>168.4</ele>
        <time>2022-11-20T08:02:13Z</time>
      </trkpt>
      <trkpt lat="43.56109" lon="1.29225">
        <ele>168.2</ele>
        <time>2022-11-20T08:02:16Z</time>
      </trkpt>
      <trkpt lat="43.56115" lon="1.29239">
        <ele>168.2</ele>
        <time>2022-11-20T08:02:18Z</time>
      </trkpt>
      <trkpt lat="43.56133" lon="1.29278">
        <ele>168</ele>
        <time>2022-11-20T08:02:24Z</time>
      </trkpt>
      <trkpt lat="43.56136" lon="1.29285">
        <ele>168.2</ele>
        <time>2022-11-20T08:02:25Z</time>
      </trkpt>
      <trkpt lat="43.56154" lon="1.29332">
        <ele>168.2</ele>
        <time>2022-11-20T08:02:31Z</time>
      </trkpt>
      <trkpt lat="43.5618" lon="1.29385">
        <ele>167.8</ele>
        <time>2022-11-20T08:02:38Z</time>
      </trkpt>
      <trkpt lat="43.56193" lon="1.29405">
        <ele>167.6</ele>
        <time>2022-11-20T08:02:41Z</time>
      </trkpt>
      <trkpt lat="43.56226" lon="1.29452">
        <ele>167.4</ele>
        <time>2022-11-20T08:02:48Z</time>
      </trkpt>
      <trkpt lat="43.56264" lon="1.29492">
        <ele>167</ele>
        <time>2022-11-20T08:02:55Z</time>
      </trkpt>
      <trkpt lat="43.56292" lon="1.29521">
        <ele>166.6</ele>
        <time>2022-11-20T08:03:01Z</time>
      </trkpt>
      <trkpt lat="43.56299" lon="1.2953">
        <ele>166.6</ele>
        <time>2022-11-20T08:03:03Z</time>
      </trkpt>
      <trkpt lat="43.56304" lon="1.29539">
        <ele>166.6</ele>
        <time>2022-11-20T08:03:05Z</time>
      </trkpt>
      <trkpt lat="43.56305" lon="1.29544">
        <ele>166.6</ele>
        <time>2022-11-20T08:03:06Z</time>
      </trkpt>
      <trkpt lat="43.56304" lon="1.2955">
        <ele>166.8</ele>
        <time>2022-11-20T08:03:07Z</time>
      </trkpt>
      <trkpt lat="43.56297" lon="1.2956">
        <ele>166.8</ele>
        <time>2022-11-20T08:03:09Z</time>
      </trkpt>
      <trkpt lat="43.56287" lon="1.2957">
        <ele>167</ele>
        <time>2022-11-20T08:03:11Z</time>
      </trkpt>
      <trkpt lat="43.56271" lon="1.29583">
        <ele>166.8</ele>
        <time>2022-11-20T08:03:14Z</time>
      </trkpt>
      <trkpt lat="43.56239" lon="1.2961">
        <ele>166.8</ele>
        <time>2022-11-20T08:03:19Z</time>
      </trkpt>
      <trkpt lat="43.56195" lon="1.29644">
        <ele>167</ele>
        <time>2022-11-20T08:03:26Z</time>
      </trkpt>
      <trkpt lat="43.56176" lon="1.29658">
        <ele>167.2</ele>
        <time>2022-11-20T08:03:29Z</time>
      </trkpt>
      <trkpt lat="43.56165" lon="1.29667">
        <ele>167.2</ele>
        <time>2022-11-20T08:03:31Z</time>
      </trkpt>
      <trkpt lat="43.56159" lon="1.29672">
        <ele>167.4</ele>
        <time>2022-11-20T08:03:32Z</time>
      </trkpt>
      <trkpt lat="43.56128" lon="1.29696">
        <ele>168.2</ele>
        <time>2022-11-20T08:03:37Z</time>
      </trkpt>
      <trkpt lat="43.56117" lon="1.29705">
        <ele>168.6</ele>
        <time>2022-11-20T08:03:39Z</time>
      </trkpt>
      <trkpt lat="43.56077" lon="1.2974">
        <ele>168.8</ele>
        <time>2022-11-20T08:03:46Z</time>
      </trkpt>
      <trkpt lat="43.56065" lon="1.29746">
        <ele>168.8</ele>
        <time>2022-11-20T08:03:48Z</time>
      </trkpt>
      <trkpt lat="43.56059" lon="1.2975">
        <ele>168.8</ele>
        <time>2022-11-20T08:03:49Z</time>
      </trkpt>
      <trkpt lat="43.56049" lon="1.29761">
        <ele>168.4</ele>
        <time>2022-11-20T08:03:51Z</time>
      </trkpt>
      <trkpt lat="43.5603" lon="1.29777">
        <ele>168.2</ele>
        <time>2022-11-20T08:03:54Z</time>
      </trkpt>
      <trkpt lat="43.55997" lon="1.29804">
        <ele>167.6</ele>
        <time>2022-11-20T08:03:59Z</time>
      </trkpt>
      <trkpt lat="43.55982" lon="1.29813">
        <ele>167.4</ele>
        <time>2022-11-20T08:04:01Z</time>
      </trkpt>
      <trkpt lat="43.55945" lon="1.29824">
        <ele>167.2</ele>
        <time>2022-11-20T08:04:06Z</time>
      </trkpt>
      <trkpt lat="43.5593" lon="1.29826">
        <ele>167</ele>
        <time>2022-11-20T08:04:08Z</time>
      </trkpt>
      <trkpt lat="43.55869" lon="1.29831">
        <ele>167</ele>
        <time>2022-11-20T08:04:16Z</time>
      </trkpt>
      <trkpt lat="43.55814" lon="1.29836">
        <ele>167.6</ele>
        <time>2022-11-20T08:04:24Z</time>
      </trkpt>
      <trkpt lat="43.55807" lon="1.29837">
        <ele>167.6</ele>
        <time>2022-11-20T08:04:25Z</time>
      </trkpt>
      <trkpt lat="43.55801" lon="1.29838">
        <ele>167.6</ele>
        <time>2022-11-20T08:04:26Z</time>
      </trkpt>
      <trkpt lat="43.55783" lon="1.29838">
        <ele>167.6</ele>
        <time>2022-11-20T08:04:29Z</time>
      </trkpt>
      <trkpt lat="43.55777" lon="1.29836">
        <ele>167.6</ele>
        <time>2022-11-20T08:04:30Z</time>
      </trkpt>
      <trkpt lat="43.55769" lon="1.2983">
        <ele>167.6</ele>
        <time>2022-11-20T08:04:31Z</time>
      </trkpt>
      <trkpt lat="43.55755" lon="1.29813">
        <ele>167.6</ele>
        <time>2022-11-20T08:04:34Z</time>
      </trkpt>
      <trkpt lat="43.55712" lon="1.29763">
        <ele>167.8</ele>
        <time>2022-11-20T08:04:42Z</time>
      </trkpt>
      <trkpt lat="43.55662" lon="1.29721">
        <ele>168.2</ele>
        <time>2022-11-20T08:04:50Z</time>
      </trkpt>
      <trkpt lat="43.55655" lon="1.29716">
        <ele>168.4</ele>
        <time>2022-11-20T08:04:51Z</time>
      </trkpt>
      <trkpt lat="43.55603" lon="1.29675">
        <ele>168.8</ele>
        <time>2022-11-20T08:04:59Z</time>
      </trkpt>
      <trkpt lat="43.5559" lon="1.29663">
        <ele>169</ele>
        <time>2022-11-20T08:05:01Z</time>
      </trkpt>
      <trkpt lat="43.55542" lon="1.2962">
        <ele>169</ele>
        <time>2022-11-20T08:05:08Z</time>
      </trkpt>
      <trkpt lat="43.555" lon="1.29593">
        <ele>169</ele>
        <time>2022-11-20T08:05:14Z</time>
      </trkpt>
      <trkpt lat="43.55455" lon="1.29577">
        <ele>169</ele>
        <time>2022-11-20T08:05:20Z</time>
      </trkpt>
      <trkpt lat="43.55402" lon="1.29554">
        <ele>168.8</ele>
        <time>2022-11-20T08:05:27Z</time>
      </trkpt>
      <trkpt lat="43.55395" lon="1.29549">
        <ele>168.8</ele>
        <time>2022-11-20T08:05:28Z</time>
      </trkpt>
      <trkpt lat="43.55354" lon="1.29516">
        <ele>169</ele>
        <time>2022-11-20T08:05:34Z</time>
      </trkpt>
      <trkpt lat="43.55302" lon="1.29476">
        <ele>169.2</ele>
        <time>2022-11-20T08:05:42Z</time>
      </trkpt>
      <trkpt lat="43.55297" lon="1.29471">
        <ele>169.2</ele>
        <time>2022-11-20T08:05:43Z</time>
      </trkpt>
      <trkpt lat="43.55262" lon="1.29445">
        <ele>169.4</ele>
        <time>2022-11-20T08:05:49Z</time>
      </trkpt>
      <trkpt lat="43.5521" lon="1.29403">
        <ele>169.8</ele>
        <time>2022-11-20T08:05:58Z</time>
      </trkpt>
      <trkpt lat="43.55192" lon="1.29391">
        <ele>169.6</ele>
        <time>2022-11-20T08:06:01Z</time>
      </trkpt>
      <trkpt lat="43.55143" lon="1.29362">
        <ele>169.6</ele>
        <time>2022-11-20T08:06:09Z</time>
      </trkpt>
      <trkpt lat="43.55131" lon="1.29356">
        <ele>169.8</ele>
        <time>2022-11-20T08:06:11Z</time>
      </trkpt>
      <trkpt lat="43.55096" lon="1.29337">
        <ele>169.8</ele>
        <time>2022-11-20T08:06:17Z</time>
      </trkpt>
      <trkpt lat="43.55046" lon="1.29307">
        <ele>169.8</ele>
        <time>2022-11-20T08:06:25Z</time>
      </trkpt>
      <trkpt lat="43.54994" lon="1.29267">
        <ele>170.2</ele>
        <time>2022-11-20T08:06:34Z</time>
      </trkpt>
      <trkpt lat="43.54989" lon="1.29263">
        <ele>170.2</ele>
        <time>2022-11-20T08:06:35Z</time>
      </trkpt>
      <trkpt lat="43.54945" lon="1.29228">
        <ele>170.2</ele>
        <time>2022-11-20T08:06:43Z</time>
      </trkpt>
      <trkpt lat="43.54892" lon="1.29188">
        <ele>170.6</ele>
        <time>2022-11-20T08:06:52Z</time>
      </trkpt>
      <trkpt lat="43.54844" lon="1.29151">
        <ele>170.6</ele>
        <time>2022-11-20T08:07:00Z</time>
      </trkpt>
      <trkpt lat="43.54795" lon="1.29113">
        <ele>170.6</ele>
        <time>2022-11-20T08:07:08Z</time>
      </trkpt>
      <trkpt lat="43.54743" lon="1.29075">
        <ele>170.6</ele>
        <time>2022-11-20T08:07:16Z</time>
      </trkpt>
      <trkpt lat="43.5473" lon="1.29066">
        <ele>170.6</ele>
        <time>2022-11-20T08:07:18Z</time>
      </trkpt>
      <trkpt lat="43.5468" lon="1.2903">
        <ele>170.4</ele>
        <time>2022-11-20T08:07:26Z</time>
      </trkpt>
      <trkpt lat="43.5463" lon="1.2899">
        <ele>170.6</ele>
        <time>2022-11-20T08:07:34Z</time>
      </trkpt>
      <trkpt lat="43.54624" lon="1.28985">
        <ele>170.6</ele>
        <time>2022-11-20T08:07:35Z</time>
      </trkpt>
      <trkpt lat="43.54573" lon="1.28942">
        <ele>170.6</ele>
        <time>2022-11-20T08:07:43Z</time>
      </trkpt>
      <trkpt lat="43.54566" lon="1.28935">
        <ele>170.6</ele>
        <time>2022-11-20T08:07:44Z</time>
      </trkpt>
      <trkpt lat="43.54521" lon="1.2888">
        <ele>170.8</ele>
        <time>2022-11-20T08:07:52Z</time>
      </trkpt>
      <trkpt lat="43.54515" lon="1.28873">
        <ele>171</ele>
        <time>2022-11-20T08:07:53Z</time>
      </trkpt>
      <trkpt lat="43.5447" lon="1.28816">
        <ele>171.2</ele>
        <time>2022-11-20T08:08:01Z</time>
      </trkpt>
      <trkpt lat="43.54459" lon="1.28802">
        <ele>171.2</ele>
        <time>2022-11-20T08:08:03Z</time>
      </trkpt>
      <trkpt lat="43.54429" lon="1.28758">
        <ele>171.4</ele>
        <time>2022-11-20T08:08:09Z</time>
      </trkpt>
      <trkpt lat="43.54392" lon="1.28703">
        <ele>171.4</ele>
        <time>2022-11-20T08:08:16Z</time>
      </trkpt>
      <trkpt lat="43.54345" lon="1.2865">
        <ele>171.8</ele>
        <time>2022-11-20T08:08:24Z</time>
      </trkpt>
      <trkpt lat="43.54309" lon="1.2861">
        <ele>171.6</ele>
        <time>2022-11-20T08:08:30Z</time>
      </trkpt>
      <trkpt lat="43.54303" lon="1.28604">
        <ele>172</ele>
        <time>2022-11-20T08:08:31Z</time>
      </trkpt>
      <trkpt lat="43.5427" lon="1.28561">
        <ele>172</ele>
        <time>2022-11-20T08:08:37Z</time>
      </trkpt>
      <trkpt lat="43.54228" lon="1.28501">
        <ele>172.4</ele>
        <time>2022-11-20T08:08:45Z</time>
      </trkpt>
      <trkpt lat="43.54222" lon="1.28493">
        <ele>172.6</ele>
        <time>2022-11-20T08:08:46Z</time>
      </trkpt>
      <trkpt lat="43.54185" lon="1.28454">
        <ele>172.4</ele>
        <time>2022-11-20T08:08:52Z</time>
      </trkpt>
      <trkpt lat="43.54134" lon="1.28425">
        <ele>172.6</ele>
        <time>2022-11-20T08:08:59Z</time>
      </trkpt>
      <trkpt lat="43.54119" lon="1.28418">
        <ele>172.8</ele>
        <time>2022-11-20T08:09:01Z</time>
      </trkpt>
      <trkpt lat="43.54091" lon="1.28404">
        <ele>173</ele>
        <time>2022-11-20T08:09:05Z</time>
      </trkpt>
      <trkpt lat="43.54077" lon="1.28398">
        <ele>173.2</ele>
        <time>2022-11-20T08:09:07Z</time>
      </trkpt>
      <trkpt lat="43.54029" lon="1.28372">
        <ele>173.2</ele>
        <time>2022-11-20T08:09:14Z</time>
      </trkpt>
      <trkpt lat="43.5399" lon="1.2834">
        <ele>173.4</ele>
        <time>2022-11-20T08:09:20Z</time>
      </trkpt>
      <trkpt lat="43.5394" lon="1.28293">
        <ele>173.2</ele>
        <time>2022-11-20T08:09:28Z</time>
      </trkpt>
      <trkpt lat="43.53922" lon="1.28274">
        <ele>173.4</ele>
        <time>2022-11-20T08:09:31Z</time>
      </trkpt>
      <trkpt lat="43.53875" lon="1.28223">
        <ele>173.4</ele>
        <time>2022-11-20T08:09:39Z</time>
      </trkpt>
      <trkpt lat="43.53869" lon="1.28217">
        <ele>173.6</ele>
        <time>2022-11-20T08:09:40Z</time>
      </trkpt>
      <trkpt lat="43.53823" lon="1.28169">
        <ele>173.8</ele>
        <time>2022-11-20T08:09:48Z</time>
      </trkpt>
      <trkpt lat="43.53775" lon="1.28126">
        <ele>173.6</ele>
        <time>2022-11-20T08:09:56Z</time>
      </trkpt>
      <trkpt lat="43.53756" lon="1.28109">
        <ele>174</ele>
        <time>2022-11-20T08:09:59Z</time>
      </trkpt>
      <trkpt lat="43.53713" lon="1.28066">
        <ele>173.8</ele>
        <time>2022-11-20T08:10:06Z</time>
      </trkpt>
      <trkpt lat="43.53672" lon="1.28009">
        <ele>174</ele>
        <time>2022-11-20T08:10:14Z</time>
      </trkpt>
      <trkpt lat="43.53667" lon="1.28002">
        <ele>174</ele>
        <time>2022-11-20T08:10:15Z</time>
      </trkpt>
      <trkpt lat="43.53627" lon="1.27946">
        <ele>174.2</ele>
        <time>2022-11-20T08:10:23Z</time>
      </trkpt>
      <trkpt lat="43.53622" lon="1.27939">
        <ele>174</ele>
        <time>2022-11-20T08:10:24Z</time>
      </trkpt>
      <trkpt lat="43.53588" lon="1.27887">
        <ele>174.4</ele>
        <time>2022-11-20T08:10:31Z</time>
      </trkpt>
      <trkpt lat="43.53553" lon="1.2782">
        <ele>174.6</ele>
        <time>2022-11-20T08:10:39Z</time>
      </trkpt>
      <trkpt lat="43.53522" lon="1.27751">
        <ele>174.2</ele>
        <time>2022-11-20T08:10:47Z</time>
      </trkpt>
      <trkpt lat="43.53517" lon="1.27742">
        <ele>174.2</ele>
        <time>2022-11-20T08:10:48Z</time>
      </trkpt>
      <trkpt lat="43.53512" lon="1.27734">
        <ele>174.2</ele>
        <time>2022-11-20T08:10:49Z</time>
      </trkpt>
      <trkpt lat="43.53495" lon="1.27714">
        <ele>174</ele>
        <time>2022-11-20T08:10:52Z</time>
      </trkpt>
      <trkpt lat="43.53456" lon="1.2768">
        <ele>174</ele>
        <time>2022-11-20T08:10:58Z</time>
      </trkpt>
      <trkpt lat="43.5341" lon="1.2765">
        <ele>174</ele>
        <time>2022-11-20T08:11:05Z</time>
      </trkpt>
      <trkpt lat="43.53359" lon="1.27614">
        <ele>174.2</ele>
        <time>2022-11-20T08:11:13Z</time>
      </trkpt>
      <trkpt lat="43.53347" lon="1.27604">
        <ele>174.2</ele>
        <time>2022-11-20T08:11:15Z</time>
      </trkpt>
      <trkpt lat="43.533" lon="1.27559">
        <ele>174.2</ele>
        <time>2022-11-20T08:11:23Z</time>
      </trkpt>
      <trkpt lat="43.53258" lon="1.27506">
        <ele>174.2</ele>
        <time>2022-11-20T08:11:31Z</time>
      </trkpt>
      <trkpt lat="43.53224" lon="1.27457">
        <ele>171</ele>
        <time>2022-11-20T08:11:38Z</time>
      </trkpt>
      <trkpt lat="43.53185" lon="1.27402">
        <ele>174.8</ele>
        <time>2022-11-20T08:11:46Z</time>
      </trkpt>
      <trkpt lat="43.5318" lon="1.27395">
        <ele>174.8</ele>
        <time>2022-11-20T08:11:47Z</time>
      </trkpt>
      <trkpt lat="43.53142" lon="1.27338">
        <ele>175</ele>
        <time>2022-11-20T08:11:55Z</time>
      </trkpt>
      <trkpt lat="43.53137" lon="1.2733">
        <ele>175</ele>
        <time>2022-11-20T08:11:56Z</time>
      </trkpt>
      <trkpt lat="43.531" lon="1.27271">
        <ele>175.2</ele>
        <time>2022-11-20T08:12:04Z</time>
      </trkpt>
      <trkpt lat="43.53085" lon="1.2725">
        <ele>175.4</ele>
        <time>2022-11-20T08:12:07Z</time>
      </trkpt>
      <trkpt lat="43.53041" lon="1.27195">
        <ele>175.4</ele>
        <time>2022-11-20T08:12:15Z</time>
      </trkpt>
      <trkpt lat="43.53036" lon="1.2719">
        <ele>175.6</ele>
        <time>2022-11-20T08:12:16Z</time>
      </trkpt>
      <trkpt lat="43.52996" lon="1.27147">
        <ele>175.4</ele>
        <time>2022-11-20T08:12:23Z</time>
      </trkpt>
      <trkpt lat="43.52953" lon="1.271">
        <ele>175.4</ele>
        <time>2022-11-20T08:12:30Z</time>
      </trkpt>
      <trkpt lat="43.52937" lon="1.2708">
        <ele>175.4</ele>
        <time>2022-11-20T08:12:33Z</time>
      </trkpt>
      <trkpt lat="43.52895" lon="1.27022">
        <ele>175.6</ele>
        <time>2022-11-20T08:12:41Z</time>
      </trkpt>
      <trkpt lat="43.5289" lon="1.27014">
        <ele>175.6</ele>
        <time>2022-11-20T08:12:42Z</time>
      </trkpt>
      <trkpt lat="43.52848" lon="1.26952">
        <ele>175.8</ele>
        <time>2022-11-20T08:12:50Z</time>
      </trkpt>
      <trkpt lat="43.52838" lon="1.26935">
        <ele>175.8</ele>
        <time>2022-11-20T08:12:52Z</time>
      </trkpt>
      <trkpt lat="43.52801" lon="1.2688">
        <ele>176</ele>
        <time>2022-11-20T08:12:59Z</time>
      </trkpt>
      <trkpt lat="43.5279" lon="1.26863">
        <ele>176</ele>
        <time>2022-11-20T08:13:01Z</time>
      </trkpt>
      <trkpt lat="43.52744" lon="1.26808">
        <ele>175.6</ele>
        <time>2022-11-20T08:13:09Z</time>
      </trkpt>
      <trkpt lat="43.52697" lon="1.26778">
        <ele>175.8</ele>
        <time>2022-11-20T08:13:16Z</time>
      </trkpt>
      <trkpt lat="43.52658" lon="1.26756">
        <ele>175.8</ele>
        <time>2022-11-20T08:13:22Z</time>
      </trkpt>
      <trkpt lat="43.52604" lon="1.26724">
        <ele>175.8</ele>
        <time>2022-11-20T08:13:31Z</time>
      </trkpt>
      <trkpt lat="43.52599" lon="1.26721">
        <ele>175.8</ele>
        <time>2022-11-20T08:13:32Z</time>
      </trkpt>
      <trkpt lat="43.52582" lon="1.26711">
        <ele>175.6</ele>
        <time>2022-11-20T08:13:36Z</time>
      </trkpt>
      <trkpt lat="43.52556" lon="1.26692">
        <ele>175.6</ele>
        <time>2022-11-20T08:13:42Z</time>
      </trkpt>
      <trkpt lat="43.52542" lon="1.26682">
        <ele>175.6</ele>
        <time>2022-11-20T08:13:45Z</time>
      </trkpt>
      <trkpt lat="43.5253" lon="1.26675">
        <ele>175.6</ele>
        <time>2022-11-20T08:13:47Z</time>
      </trkpt>
      <trkpt lat="43.52524" lon="1.26673">
        <ele>175.6</ele>
        <time>2022-11-20T08:13:48Z</time>
      </trkpt>
      <trkpt lat="43.5251" lon="1.26667">
        <ele>175.6</ele>
        <time>2022-11-20T08:13:50Z</time>
      </trkpt>
      <trkpt lat="43.52499" lon="1.26661">
        <ele>175.6</ele>
        <time>2022-11-20T08:13:52Z</time>
      </trkpt>
      <trkpt lat="43.52486" lon="1.26654">
        <ele>175.8</ele>
        <time>2022-11-20T08:13:54Z</time>
      </trkpt>
      <trkpt lat="43.52465" lon="1.26642">
        <ele>176</ele>
        <time>2022-11-20T08:13:57Z</time>
      </trkpt>
      <trkpt lat="43.52415" lon="1.26611">
        <ele>176</ele>
        <time>2022-11-20T08:14:04Z</time>
      </trkpt>
      <trkpt lat="43.5236" lon="1.26579">
        <ele>176</ele>
        <time>2022-11-20T08:14:12Z</time>
      </trkpt>
      <trkpt lat="43.5233" lon="1.26562">
        <ele>176</ele>
        <time>2022-11-20T08:14:16Z</time>
      </trkpt>
      <trkpt lat="43.52311" lon="1.26551">
        <ele>176</ele>
        <time>2022-11-20T08:14:19Z</time>
      </trkpt>
      <trkpt lat="43.52257" lon="1.26518">
        <ele>176.4</ele>
        <time>2022-11-20T08:14:27Z</time>
      </trkpt>
      <trkpt lat="43.52202" lon="1.26489">
        <ele>176.4</ele>
        <time>2022-11-20T08:14:35Z</time>
      </trkpt>
      <trkpt lat="43.52148" lon="1.26462">
        <ele>176.6</ele>
        <time>2022-11-20T08:14:43Z</time>
      </trkpt>
      <trkpt lat="43.5214" lon="1.26458">
        <ele>176.6</ele>
        <time>2022-11-20T08:14:44Z</time>
      </trkpt>
      <trkpt lat="43.52085" lon="1.26425">
        <ele>176.4</ele>
        <time>2022-11-20T08:14:52Z</time>
      </trkpt>
      <trkpt lat="43.52033" lon="1.26391">
        <ele>176.4</ele>
        <time>2022-11-20T08:15:00Z</time>
      </trkpt>
      <trkpt lat="43.52025" lon="1.26385">
        <ele>176.4</ele>
        <time>2022-11-20T08:15:01Z</time>
      </trkpt>
      <trkpt lat="43.51975" lon="1.26354">
        <ele>176.8</ele>
        <time>2022-11-20T08:15:09Z</time>
      </trkpt>
      <trkpt lat="43.51967" lon="1.2635">
        <ele>176.8</ele>
        <time>2022-11-20T08:15:10Z</time>
      </trkpt>
      <trkpt lat="43.51911" lon="1.26325">
        <ele>176.8</ele>
        <time>2022-11-20T08:15:18Z</time>
      </trkpt>
      <trkpt lat="43.51895" lon="1.26318">
        <ele>177</ele>
        <time>2022-11-20T08:15:20Z</time>
      </trkpt>
      <trkpt lat="43.51853" lon="1.26302">
        <ele>177</ele>
        <time>2022-11-20T08:15:26Z</time>
      </trkpt>
      <trkpt lat="43.51815" lon="1.26281">
        <ele>177.2</ele>
        <time>2022-11-20T08:15:31Z</time>
      </trkpt>
      <trkpt lat="43.5181" lon="1.26276">
        <ele>177.2</ele>
        <time>2022-11-20T08:15:32Z</time>
      </trkpt>
      <trkpt lat="43.51772" lon="1.26237">
        <ele>177.2</ele>
        <time>2022-11-20T08:15:38Z</time>
      </trkpt>
      <trkpt lat="43.51739" lon="1.262">
        <ele>177.4</ele>
        <time>2022-11-20T08:15:44Z</time>
      </trkpt>
      <trkpt lat="43.51694" lon="1.26149">
        <ele>177.6</ele>
        <time>2022-11-20T08:15:52Z</time>
      </trkpt>
      <trkpt lat="43.51689" lon="1.26143">
        <ele>177.8</ele>
        <time>2022-11-20T08:15:53Z</time>
      </trkpt>
      <trkpt lat="43.51667" lon="1.26118">
        <ele>178</ele>
        <time>2022-11-20T08:15:57Z</time>
      </trkpt>
      <trkpt lat="43.51629" lon="1.26073">
        <ele>178.2</ele>
        <time>2022-11-20T08:16:04Z</time>
      </trkpt>
      <trkpt lat="43.51585" lon="1.26021">
        <ele>178.2</ele>
        <time>2022-11-20T08:16:12Z</time>
      </trkpt>
      <trkpt lat="43.51574" lon="1.26007">
        <ele>178</ele>
        <time>2022-11-20T08:16:14Z</time>
      </trkpt>
      <trkpt lat="43.51539" lon="1.25953">
        <ele>178</ele>
        <time>2022-11-20T08:16:21Z</time>
      </trkpt>
      <trkpt lat="43.5151" lon="1.25899">
        <ele>178.2</ele>
        <time>2022-11-20T08:16:28Z</time>
      </trkpt>
      <trkpt lat="43.51497" lon="1.25875">
        <ele>178.2</ele>
        <time>2022-11-20T08:16:31Z</time>
      </trkpt>
      <trkpt lat="43.51457" lon="1.25803">
        <ele>178.2</ele>
        <time>2022-11-20T08:16:40Z</time>
      </trkpt>
      <trkpt lat="43.51435" lon="1.25763">
        <ele>178.2</ele>
        <time>2022-11-20T08:16:45Z</time>
      </trkpt>
      <trkpt lat="43.514" lon="1.25699">
        <ele>178.2</ele>
        <time>2022-11-20T08:16:52Z</time>
      </trkpt>
      <trkpt lat="43.51367" lon="1.25645">
        <ele>178.4</ele>
        <time>2022-11-20T08:16:59Z</time>
      </trkpt>
      <trkpt lat="43.51328" lon="1.25592">
        <ele>178.8</ele>
        <time>2022-11-20T08:17:07Z</time>
      </trkpt>
      <trkpt lat="43.51305" lon="1.2556">
        <ele>178.8</ele>
        <time>2022-11-20T08:17:12Z</time>
      </trkpt>
      <trkpt lat="43.51271" lon="1.25526">
        <ele>178.8</ele>
        <time>2022-11-20T08:17:18Z</time>
      </trkpt>
      <trkpt lat="43.51253" lon="1.25516">
        <ele>178.8</ele>
        <time>2022-11-20T08:17:21Z</time>
      </trkpt>
      <trkpt lat="43.51226" lon="1.25502">
        <ele>179</ele>
        <time>2022-11-20T08:17:25Z</time>
      </trkpt>
      <trkpt lat="43.51215" lon="1.25496">
        <ele>179</ele>
        <time>2022-11-20T08:17:27Z</time>
      </trkpt>
      <trkpt lat="43.51177" lon="1.25476">
        <ele>179</ele>
        <time>2022-11-20T08:17:33Z</time>
      </trkpt>
      <trkpt lat="43.51121" lon="1.25445">
        <ele>179</ele>
        <time>2022-11-20T08:17:42Z</time>
      </trkpt>
      <trkpt lat="43.51067" lon="1.25417">
        <ele>179.2</ele>
        <time>2022-11-20T08:17:50Z</time>
      </trkpt>
      <trkpt lat="43.51062" lon="1.25413">
        <ele>179.2</ele>
        <time>2022-11-20T08:17:51Z</time>
      </trkpt>
      <trkpt lat="43.51023" lon="1.25387">
        <ele>179.2</ele>
        <time>2022-11-20T08:17:57Z</time>
      </trkpt>
      <trkpt lat="43.51018" lon="1.2538">
        <ele>179.2</ele>
        <time>2022-11-20T08:17:58Z</time>
      </trkpt>
      <trkpt lat="43.51014" lon="1.25372">
        <ele>179.2</ele>
        <time>2022-11-20T08:17:59Z</time>
      </trkpt>
      <trkpt lat="43.51006" lon="1.25345">
        <ele>179.2</ele>
        <time>2022-11-20T08:18:02Z</time>
      </trkpt>
      <trkpt lat="43.50988" lon="1.2527">
        <ele>179.2</ele>
        <time>2022-11-20T08:18:10Z</time>
      </trkpt>
      <trkpt lat="43.50983" lon="1.25251">
        <ele>179.4</ele>
        <time>2022-11-20T08:18:12Z</time>
      </trkpt>
      <trkpt lat="43.50963" lon="1.25165">
        <ele>179.4</ele>
        <time>2022-11-20T08:18:21Z</time>
      </trkpt>
      <trkpt lat="43.50962" lon="1.25157">
        <ele>179.4</ele>
        <time>2022-11-20T08:18:22Z</time>
      </trkpt>
      <trkpt lat="43.50944" lon="1.25082">
        <ele>179.4</ele>
        <time>2022-11-20T08:18:30Z</time>
      </trkpt>
      <trkpt lat="43.50933" lon="1.25033">
        <ele>179.6</ele>
        <time>2022-11-20T08:18:35Z</time>
      </trkpt>
      <trkpt lat="43.50931" lon="1.25027">
        <ele>179.6</ele>
        <time>2022-11-20T08:18:36Z</time>
      </trkpt>
      <trkpt lat="43.50914" lon="1.25005">
        <ele>179.6</ele>
        <time>2022-11-20T08:18:39Z</time>
      </trkpt>
      <trkpt lat="43.50879" lon="1.24991">
        <ele>179.6</ele>
        <time>2022-11-20T08:18:44Z</time>
      </trkpt>
      <trkpt lat="43.50824" lon="1.24972">
        <ele>179.6</ele>
        <time>2022-11-20T08:18:52Z</time>
      </trkpt>
      <trkpt lat="43.50817" lon="1.2497">
        <ele>179.6</ele>
        <time>2022-11-20T08:18:53Z</time>
      </trkpt>
      <trkpt lat="43.50764" lon="1.2495">
        <ele>179.8</ele>
        <time>2022-11-20T08:19:01Z</time>
      </trkpt>
      <trkpt lat="43.50736" lon="1.24939">
        <ele>179.8</ele>
        <time>2022-11-20T08:19:05Z</time>
      </trkpt>
      <trkpt lat="43.50695" lon="1.24923">
        <ele>180</ele>
        <time>2022-11-20T08:19:11Z</time>
      </trkpt>
      <trkpt lat="43.50663" lon="1.2491">
        <ele>180</ele>
        <time>2022-11-20T08:19:16Z</time>
      </trkpt>
      <trkpt lat="43.50609" lon="1.24889">
        <ele>180</ele>
        <time>2022-11-20T08:19:24Z</time>
      </trkpt>
      <trkpt lat="43.50604" lon="1.24887">
        <ele>180</ele>
        <time>2022-11-20T08:19:25Z</time>
      </trkpt>
      <trkpt lat="43.50552" lon="1.24868">
        <ele>180</ele>
        <time>2022-11-20T08:19:33Z</time>
      </trkpt>
      <trkpt lat="43.50545" lon="1.24865">
        <ele>180</ele>
        <time>2022-11-20T08:19:34Z</time>
      </trkpt>
      <trkpt lat="43.50493" lon="1.24846">
        <ele>180</ele>
        <time>2022-11-20T08:19:42Z</time>
      </trkpt>
      <trkpt lat="43.50487" lon="1.24844">
        <ele>180</ele>
        <time>2022-11-20T08:19:43Z</time>
      </trkpt>
      <trkpt lat="43.50459" lon="1.24832">
        <ele>180</ele>
        <time>2022-11-20T08:19:49Z</time>
      </trkpt>
      <trkpt lat="43.50437" lon="1.24822">
        <ele>180</ele>
        <time>2022-11-20T08:19:55Z</time>
      </trkpt>
      <trkpt lat="43.50433" lon="1.24822">
        <ele>180</ele>
        <time>2022-11-20T08:19:56Z</time>
      </trkpt>
      <trkpt lat="43.50418" lon="1.24819">
        <ele>180</ele>
        <time>2022-11-20T08:19:59Z</time>
      </trkpt>
      <trkpt lat="43.50408" lon="1.24819">
        <ele>180</ele>
        <time>2022-11-20T08:20:01Z</time>
      </trkpt>
      <trkpt lat="43.50394" lon="1.24817">
        <ele>180</ele>
        <time>2022-11-20T08:20:03Z</time>
      </trkpt>
      <trkpt lat="43.50365" lon="1.2481">
        <ele>180</ele>
        <time>2022-11-20T08:20:07Z</time>
      </trkpt>
      <trkpt lat="43.50309" lon="1.24793">
        <ele>180.6</ele>
        <time>2022-11-20T08:20:15Z</time>
      </trkpt>
      <trkpt lat="43.50258" lon="1.24776">
        <ele>180.6</ele>
        <time>2022-11-20T08:20:23Z</time>
      </trkpt>
      <trkpt lat="43.50203" lon="1.2476">
        <ele>180.6</ele>
        <time>2022-11-20T08:20:30Z</time>
      </trkpt>
      <trkpt lat="43.50166" lon="1.24748">
        <ele>180.8</ele>
        <time>2022-11-20T08:20:35Z</time>
      </trkpt>
      <trkpt lat="43.50107" lon="1.24729">
        <ele>180.6</ele>
        <time>2022-11-20T08:20:43Z</time>
      </trkpt>
      <trkpt lat="43.50085" lon="1.24723">
        <ele>180.8</ele>
        <time>2022-11-20T08:20:46Z</time>
      </trkpt>
      <trkpt lat="43.5004" lon="1.24709">
        <ele>181</ele>
        <time>2022-11-20T08:20:52Z</time>
      </trkpt>
      <trkpt lat="43.49997" lon="1.24695">
        <ele>181.2</ele>
        <time>2022-11-20T08:20:58Z</time>
      </trkpt>
      <trkpt lat="43.4994" lon="1.24677">
        <ele>181</ele>
        <time>2022-11-20T08:21:06Z</time>
      </trkpt>
      <trkpt lat="43.49913" lon="1.24667">
        <ele>181</ele>
        <time>2022-11-20T08:21:10Z</time>
      </trkpt>
      <trkpt lat="43.49864" lon="1.24639">
        <ele>181.2</ele>
        <time>2022-11-20T08:21:17Z</time>
      </trkpt>
      <trkpt lat="43.49811" lon="1.24602">
        <ele>181.4</ele>
        <time>2022-11-20T08:21:25Z</time>
      </trkpt>
      <trkpt lat="43.49804" lon="1.24597">
        <ele>181.4</ele>
        <time>2022-11-20T08:21:27Z</time>
      </trkpt>
      <trkpt lat="43.49753" lon="1.2456">
        <ele>181.4</ele>
        <time>2022-11-20T08:21:34Z</time>
      </trkpt>
      <trkpt lat="43.49746" lon="1.24557">
        <ele>181.6</ele>
        <time>2022-11-20T08:21:35Z</time>
      </trkpt>
      <trkpt lat="43.49711" lon="1.24545">
        <ele>181.6</ele>
        <time>2022-11-20T08:21:40Z</time>
      </trkpt>
      <trkpt lat="43.49704" lon="1.24542">
        <ele>181.6</ele>
        <time>2022-11-20T08:21:41Z</time>
      </trkpt>
      <trkpt lat="43.49654" lon="1.24529">
        <ele>181.6</ele>
        <time>2022-11-20T08:21:48Z</time>
      </trkpt>
      <trkpt lat="43.49647" lon="1.24527">
        <ele>181.6</ele>
        <time>2022-11-20T08:21:49Z</time>
      </trkpt>
      <trkpt lat="43.49617" lon="1.2452">
        <ele>182</ele>
        <time>2022-11-20T08:21:53Z</time>
      </trkpt>
      <trkpt lat="43.4957" lon="1.24513">
        <ele>182.6</ele>
        <time>2022-11-20T08:22:00Z</time>
      </trkpt>
      <trkpt lat="43.49528" lon="1.24513">
        <ele>182.4</ele>
        <time>2022-11-20T08:22:06Z</time>
      </trkpt>
      <trkpt lat="43.49471" lon="1.24521">
        <ele>182.6</ele>
        <time>2022-11-20T08:22:14Z</time>
      </trkpt>
      <trkpt lat="43.49416" lon="1.24529">
        <ele>182.8</ele>
        <time>2022-11-20T08:22:22Z</time>
      </trkpt>
      <trkpt lat="43.4941" lon="1.2453">
        <ele>183</ele>
        <time>2022-11-20T08:22:23Z</time>
      </trkpt>
      <trkpt lat="43.49397" lon="1.24533">
        <ele>183.2</ele>
        <time>2022-11-20T08:22:25Z</time>
      </trkpt>
      <trkpt lat="43.49344" lon="1.24546">
        <ele>183.8</ele>
        <time>2022-11-20T08:22:33Z</time>
      </trkpt>
      <trkpt lat="43.49291" lon="1.24562">
        <ele>184.2</ele>
        <time>2022-11-20T08:22:41Z</time>
      </trkpt>
      <trkpt lat="43.49251" lon="1.24579">
        <ele>184.4</ele>
        <time>2022-11-20T08:22:47Z</time>
      </trkpt>
      <trkpt lat="43.49194" lon="1.24601">
        <ele>184</ele>
        <time>2022-11-20T08:22:55Z</time>
      </trkpt>
      <trkpt lat="43.49144" lon="1.24629">
        <ele>184</ele>
        <time>2022-11-20T08:23:02Z</time>
      </trkpt>
      <trkpt lat="43.49138" lon="1.24634">
        <ele>184.2</ele>
        <time>2022-11-20T08:23:03Z</time>
      </trkpt>
      <trkpt lat="43.49086" lon="1.2467">
        <ele>184.6</ele>
        <time>2022-11-20T08:23:11Z</time>
      </trkpt>
      <trkpt lat="43.49073" lon="1.24678">
        <ele>184.6</ele>
        <time>2022-11-20T08:23:13Z</time>
      </trkpt>
      <trkpt lat="43.49045" lon="1.24687">
        <ele>184.6</ele>
        <time>2022-11-20T08:23:18Z</time>
      </trkpt>
      <trkpt lat="43.49011" lon="1.24687">
        <ele>184.6</ele>
        <time>2022-11-20T08:23:23Z</time>
      </trkpt>
      <trkpt lat="43.48955" lon="1.24678">
        <ele>184.6</ele>
        <time>2022-11-20T08:23:30Z</time>
      </trkpt>
      <trkpt lat="43.48919" lon="1.24671">
        <ele>184.6</ele>
        <time>2022-11-20T08:23:35Z</time>
      </trkpt>
      <trkpt lat="43.48896" lon="1.24664">
        <ele>184.6</ele>
        <time>2022-11-20T08:23:38Z</time>
      </trkpt>
      <trkpt lat="43.48867" lon="1.24652">
        <ele>184.8</ele>
        <time>2022-11-20T08:23:42Z</time>
      </trkpt>
      <trkpt lat="43.48814" lon="1.24629">
        <ele>184.8</ele>
        <time>2022-11-20T08:23:49Z</time>
      </trkpt>
      <trkpt lat="43.48792" lon="1.24618">
        <ele>184.8</ele>
        <time>2022-11-20T08:23:52Z</time>
      </trkpt>
      <trkpt lat="43.48742" lon="1.24592">
        <ele>185.2</ele>
        <time>2022-11-20T08:23:59Z</time>
      </trkpt>
      <trkpt lat="43.48735" lon="1.24588">
        <ele>185.2</ele>
        <time>2022-11-20T08:24:00Z</time>
      </trkpt>
      <trkpt lat="43.48687" lon="1.24551">
        <ele>185.6</ele>
        <time>2022-11-20T08:24:07Z</time>
      </trkpt>
      <trkpt lat="43.48642" lon="1.24506">
        <ele>185.4</ele>
        <time>2022-11-20T08:24:14Z</time>
      </trkpt>
      <trkpt lat="43.48623" lon="1.24486">
        <ele>185.4</ele>
        <time>2022-11-20T08:24:17Z</time>
      </trkpt>
      <trkpt lat="43.48577" lon="1.24444">
        <ele>185.6</ele>
        <time>2022-11-20T08:24:24Z</time>
      </trkpt>
      <trkpt lat="43.48564" lon="1.24433">
        <ele>185.8</ele>
        <time>2022-11-20T08:24:26Z</time>
      </trkpt>
      <trkpt lat="43.4851" lon="1.24391">
        <ele>186.2</ele>
        <time>2022-11-20T08:24:34Z</time>
      </trkpt>
      <trkpt lat="43.48497" lon="1.24381">
        <ele>186.2</ele>
        <time>2022-11-20T08:24:36Z</time>
      </trkpt>
      <trkpt lat="43.48483" lon="1.24371">
        <ele>186.2</ele>
        <time>2022-11-20T08:24:38Z</time>
      </trkpt>
      <trkpt lat="43.48431" lon="1.24332">
        <ele>186.2</ele>
        <time>2022-11-20T08:24:46Z</time>
      </trkpt>
      <trkpt lat="43.48425" lon="1.24328">
        <ele>186.2</ele>
        <time>2022-11-20T08:24:47Z</time>
      </trkpt>
      <trkpt lat="43.48415" lon="1.24323">
        <ele>186.2</ele>
        <time>2022-11-20T08:24:49Z</time>
      </trkpt>
      <trkpt lat="43.48405" lon="1.24314">
        <ele>186.2</ele>
        <time>2022-11-20T08:24:51Z</time>
      </trkpt>
      <trkpt lat="43.484" lon="1.24311">
        <ele>186.2</ele>
        <time>2022-11-20T08:24:52Z</time>
      </trkpt>
      <trkpt lat="43.48388" lon="1.24309">
        <ele>186.4</ele>
        <time>2022-11-20T08:24:54Z</time>
      </trkpt>
      <trkpt lat="43.48382" lon="1.24308">
        <ele>186.4</ele>
        <time>2022-11-20T08:24:55Z</time>
      </trkpt>
      <trkpt lat="43.4837" lon="1.243">
        <ele>186.4</ele>
        <time>2022-11-20T08:24:57Z</time>
      </trkpt>
      <trkpt lat="43.48322" lon="1.24257">
        <ele>186.8</ele>
        <time>2022-11-20T08:25:05Z</time>
      </trkpt>
      <trkpt lat="43.48279" lon="1.24219">
        <ele>187</ele>
        <time>2022-11-20T08:25:12Z</time>
      </trkpt>
      <trkpt lat="43.48233" lon="1.24179">
        <ele>187.2</ele>
        <time>2022-11-20T08:25:19Z</time>
      </trkpt>
      <trkpt lat="43.48214" lon="1.24163">
        <ele>187.2</ele>
        <time>2022-11-20T08:25:22Z</time>
      </trkpt>
      <trkpt lat="43.48194" lon="1.24151">
        <ele>187.2</ele>
        <time>2022-11-20T08:25:25Z</time>
      </trkpt>
      <trkpt lat="43.48188" lon="1.24145">
        <ele>187.2</ele>
        <time>2022-11-20T08:25:27Z</time>
      </trkpt>
      <trkpt lat="43.48181" lon="1.24135">
        <ele>187.2</ele>
        <time>2022-11-20T08:25:28Z</time>
      </trkpt>
      <trkpt lat="43.48167" lon="1.24116">
        <ele>187.4</ele>
        <time>2022-11-20T08:25:30Z</time>
      </trkpt>
      <trkpt lat="43.48161" lon="1.24109">
        <ele>187.4</ele>
        <time>2022-11-20T08:25:31Z</time>
      </trkpt>
      <trkpt lat="43.4812" lon="1.24075">
        <ele>187.4</ele>
        <time>2022-11-20T08:25:37Z</time>
      </trkpt>
      <trkpt lat="43.4807" lon="1.24048">
        <ele>187.8</ele>
        <time>2022-11-20T08:25:44Z</time>
      </trkpt>
      <trkpt lat="43.48048" lon="1.24037">
        <ele>188</ele>
        <time>2022-11-20T08:25:47Z</time>
      </trkpt>
      <trkpt lat="43.48005" lon="1.24015">
        <ele>187.8</ele>
        <time>2022-11-20T08:25:53Z</time>
      </trkpt>
      <trkpt lat="43.47969" lon="1.23995">
        <ele>188</ele>
        <time>2022-11-20T08:25:58Z</time>
      </trkpt>
      <trkpt lat="43.47914" lon="1.23963">
        <ele>187.8</ele>
        <time>2022-11-20T08:26:06Z</time>
      </trkpt>
      <trkpt lat="43.47899" lon="1.23956">
        <ele>187.8</ele>
        <time>2022-11-20T08:26:08Z</time>
      </trkpt>
      <trkpt lat="43.47842" lon="1.23928">
        <ele>188</ele>
        <time>2022-11-20T08:26:16Z</time>
      </trkpt>
      <trkpt lat="43.47835" lon="1.23924">
        <ele>188</ele>
        <time>2022-11-20T08:26:17Z</time>
      </trkpt>
      <trkpt lat="43.47785" lon="1.23891">
        <ele>187.8</ele>
        <time>2022-11-20T08:26:24Z</time>
      </trkpt>
      <trkpt lat="43.47734" lon="1.2385">
        <ele>188</ele>
        <time>2022-11-20T08:26:32Z</time>
      </trkpt>
      <trkpt lat="43.47707" lon="1.23828">
        <ele>188.2</ele>
        <time>2022-11-20T08:26:36Z</time>
      </trkpt>
      <trkpt lat="43.47687" lon="1.23813">
        <ele>188.2</ele>
        <time>2022-11-20T08:26:39Z</time>
      </trkpt>
      <trkpt lat="43.47633" lon="1.23774">
        <ele>188.4</ele>
        <time>2022-11-20T08:26:47Z</time>
      </trkpt>
      <trkpt lat="43.47626" lon="1.2377">
        <ele>188.4</ele>
        <time>2022-11-20T08:26:48Z</time>
      </trkpt>
      <trkpt lat="43.47576" lon="1.23753">
        <ele>188.6</ele>
        <time>2022-11-20T08:26:55Z</time>
      </trkpt>
      <trkpt lat="43.47517" lon="1.23737">
        <ele>188.6</ele>
        <time>2022-11-20T08:27:03Z</time>
      </trkpt>
      <trkpt lat="43.47486" lon="1.23729">
        <ele>188.8</ele>
        <time>2022-11-20T08:27:07Z</time>
      </trkpt>
      <trkpt lat="43.47433" lon="1.23714">
        <ele>188.8</ele>
        <time>2022-11-20T08:27:14Z</time>
      </trkpt>
      <trkpt lat="43.47403" lon="1.23706">
        <ele>188.8</ele>
        <time>2022-11-20T08:27:18Z</time>
      </trkpt>
      <trkpt lat="43.47344" lon="1.23689">
        <ele>188.8</ele>
        <time>2022-11-20T08:27:26Z</time>
      </trkpt>
      <trkpt lat="43.47322" lon="1.2368">
        <ele>189</ele>
        <time>2022-11-20T08:27:29Z</time>
      </trkpt>
      <trkpt lat="43.4727" lon="1.23659">
        <ele>189.2</ele>
        <time>2022-11-20T08:27:36Z</time>
      </trkpt>
      <trkpt lat="43.4727" lon="1.23659">
        <ele>189.2</ele>
        <time>2022-11-20T08:27:37Z</time>
      </trkpt>
      <trkpt lat="43.47225" lon="1.2364">
        <ele>189.4</ele>
        <time>2022-11-20T08:27:42Z</time>
      </trkpt>
      <trkpt lat="43.47167" lon="1.23611">
        <ele>189.4</ele>
        <time>2022-11-20T08:27:50Z</time>
      </trkpt>
      <trkpt lat="43.47154" lon="1.23601">
        <ele>189.4</ele>
        <time>2022-11-20T08:27:52Z</time>
      </trkpt>
      <trkpt lat="43.4712" lon="1.23578">
        <ele>189.4</ele>
        <time>2022-11-20T08:27:57Z</time>
      </trkpt>
      <trkpt lat="43.47074" lon="1.23559">
        <ele>189.6</ele>
        <time>2022-11-20T08:28:03Z</time>
      </trkpt>
      <trkpt lat="43.47021" lon="1.23537">
        <ele>189.8</ele>
        <time>2022-11-20T08:28:10Z</time>
      </trkpt>
      <trkpt lat="43.46985" lon="1.23523">
        <ele>189.6</ele>
        <time>2022-11-20T08:28:15Z</time>
      </trkpt>
      <trkpt lat="43.46928" lon="1.23499">
        <ele>189.8</ele>
        <time>2022-11-20T08:28:23Z</time>
      </trkpt>
      <trkpt lat="43.46899" lon="1.23488">
        <ele>189.8</ele>
        <time>2022-11-20T08:28:27Z</time>
      </trkpt>
      <trkpt lat="43.46852" lon="1.23469">
        <ele>189.8</ele>
        <time>2022-11-20T08:28:34Z</time>
      </trkpt>
      <trkpt lat="43.4682" lon="1.23456">
        <ele>190.2</ele>
        <time>2022-11-20T08:28:40Z</time>
      </trkpt>
      <trkpt lat="43.46809" lon="1.23453">
        <ele>190.2</ele>
        <time>2022-11-20T08:28:44Z</time>
      </trkpt>
      <trkpt lat="43.46807" lon="1.23456">
        <ele>190.2</ele>
        <time>2022-11-20T08:28:45Z</time>
      </trkpt>
      <trkpt lat="43.46804" lon="1.23466">
        <ele>190.4</ele>
        <time>2022-11-20T08:28:47Z</time>
      </trkpt>
      <trkpt lat="43.46802" lon="1.23503">
        <ele>190.6</ele>
        <time>2022-11-20T08:28:52Z</time>
      </trkpt>
      <trkpt lat="43.468" lon="1.23551">
        <ele>190.8</ele>
        <time>2022-11-20T08:28:59Z</time>
      </trkpt>
      <trkpt lat="43.46799" lon="1.23562">
        <ele>190.8</ele>
        <time>2022-11-20T08:29:01Z</time>
      </trkpt>
      <trkpt lat="43.46796" lon="1.23565">
        <ele>190.8</ele>
        <time>2022-11-20T08:29:02Z</time>
      </trkpt>
      <trkpt lat="43.46787" lon="1.23565">
        <ele>190.8</ele>
        <time>2022-11-20T08:29:04Z</time>
      </trkpt>
      <trkpt lat="43.46782" lon="1.23563">
        <ele>190.8</ele>
        <time>2022-11-20T08:29:05Z</time>
      </trkpt>
      <trkpt lat="43.46765" lon="1.23555">
        <ele>190.8</ele>
        <time>2022-11-20T08:29:08Z</time>
      </trkpt>
      <trkpt lat="43.46753" lon="1.23551">
        <ele>190.8</ele>
        <time>2022-11-20T08:29:10Z</time>
      </trkpt>
      <trkpt lat="43.46714" lon="1.23536">
        <ele>190.8</ele>
        <time>2022-11-20T08:29:17Z</time>
      </trkpt>
      <trkpt lat="43.4666" lon="1.23515">
        <ele>191</ele>
        <time>2022-11-20T08:29:24Z</time>
      </trkpt>
      <trkpt lat="43.46646" lon="1.2351">
        <ele>191</ele>
        <time>2022-11-20T08:29:26Z</time>
      </trkpt>
      <trkpt lat="43.46586" lon="1.23487">
        <ele>191.2</ele>
        <time>2022-11-20T08:29:34Z</time>
      </trkpt>
      <trkpt lat="43.46579" lon="1.23484">
        <ele>191.2</ele>
        <time>2022-11-20T08:29:35Z</time>
      </trkpt>
      <trkpt lat="43.4652" lon="1.2346">
        <ele>191.2</ele>
        <time>2022-11-20T08:29:43Z</time>
      </trkpt>
      <trkpt lat="43.46506" lon="1.23455">
        <ele>191.2</ele>
        <time>2022-11-20T08:29:46Z</time>
      </trkpt>
      <trkpt lat="43.46449" lon="1.23429">
        <ele>191.2</ele>
        <time>2022-11-20T08:29:53Z</time>
      </trkpt>
      <trkpt lat="43.46442" lon="1.23424">
        <ele>191.2</ele>
        <time>2022-11-20T08:29:54Z</time>
      </trkpt>
      <trkpt lat="43.46387" lon="1.23392">
        <ele>191</ele>
        <time>2022-11-20T08:30:02Z</time>
      </trkpt>
      <trkpt lat="43.4638" lon="1.23389">
        <ele>191</ele>
        <time>2022-11-20T08:30:03Z</time>
      </trkpt>
      <trkpt lat="43.46358" lon="1.23384">
        <ele>191</ele>
        <time>2022-11-20T08:30:06Z</time>
      </trkpt>
      <trkpt lat="43.46351" lon="1.23384">
        <ele>191</ele>
        <time>2022-11-20T08:30:07Z</time>
      </trkpt>
      <trkpt lat="43.46303" lon="1.23389">
        <ele>191</ele>
        <time>2022-11-20T08:30:14Z</time>
      </trkpt>
      <trkpt lat="43.46297" lon="1.23392">
        <ele>191</ele>
        <time>2022-11-20T08:30:15Z</time>
      </trkpt>
      <trkpt lat="43.46292" lon="1.23397">
        <ele>191</ele>
        <time>2022-11-20T08:30:16Z</time>
      </trkpt>
      <trkpt lat="43.46288" lon="1.23405">
        <ele>191</ele>
        <time>2022-11-20T08:30:17Z</time>
      </trkpt>
      <trkpt lat="43.46287" lon="1.23414">
        <ele>191</ele>
        <time>2022-11-20T08:30:18Z</time>
      </trkpt>
      <trkpt lat="43.46287" lon="1.23433">
        <ele>191</ele>
        <time>2022-11-20T08:30:20Z</time>
      </trkpt>
      <trkpt lat="43.4629" lon="1.23495">
        <ele>191.2</ele>
        <time>2022-11-20T08:30:26Z</time>
      </trkpt>
      <trkpt lat="43.46292" lon="1.23579">
        <ele>191.2</ele>
        <time>2022-11-20T08:30:34Z</time>
      </trkpt>
      <trkpt lat="43.46283" lon="1.2366">
        <ele>191.4</ele>
        <time>2022-11-20T08:30:42Z</time>
      </trkpt>
      <trkpt lat="43.46281" lon="1.23679">
        <ele>191.4</ele>
        <time>2022-11-20T08:30:44Z</time>
      </trkpt>
      <trkpt lat="43.46272" lon="1.23756">
        <ele>190.8</ele>
        <time>2022-11-20T08:30:52Z</time>
      </trkpt>
      <trkpt lat="43.46263" lon="1.23839">
        <ele>190.8</ele>
        <time>2022-11-20T08:31:00Z</time>
      </trkpt>
      <trkpt lat="43.4626" lon="1.23918">
        <ele>190.6</ele>
        <time>2022-11-20T08:31:07Z</time>
      </trkpt>
      <trkpt lat="43.46258" lon="1.23997">
        <ele>190.6</ele>
        <time>2022-11-20T08:31:14Z</time>
      </trkpt>
      <trkpt lat="43.46257" lon="1.24029">
        <ele>190.6</ele>
        <time>2022-11-20T08:31:17Z</time>
      </trkpt>
      <trkpt lat="43.46256" lon="1.24097">
        <ele>190.4</ele>
        <time>2022-11-20T08:31:24Z</time>
      </trkpt>
      <trkpt lat="43.46255" lon="1.24164">
        <ele>190.4</ele>
        <time>2022-11-20T08:31:31Z</time>
      </trkpt>
      <trkpt lat="43.46253" lon="1.24245">
        <ele>190.6</ele>
        <time>2022-11-20T08:31:39Z</time>
      </trkpt>
      <trkpt lat="43.46253" lon="1.24266">
        <ele>190.4</ele>
        <time>2022-11-20T08:31:41Z</time>
      </trkpt>
      <trkpt lat="43.46252" lon="1.24347">
        <ele>190.4</ele>
        <time>2022-11-20T08:31:49Z</time>
      </trkpt>
      <trkpt lat="43.46251" lon="1.24387">
        <ele>190.2</ele>
        <time>2022-11-20T08:31:54Z</time>
      </trkpt>
      <trkpt lat="43.46251" lon="1.24395">
        <ele>190.2</ele>
        <time>2022-11-20T08:31:55Z</time>
      </trkpt>
      <trkpt lat="43.46249" lon="1.24438">
        <ele>190</ele>
        <time>2022-11-20T08:32:00Z</time>
      </trkpt>
      <trkpt lat="43.46247" lon="1.24519">
        <ele>190</ele>
        <time>2022-11-20T08:32:09Z</time>
      </trkpt>
      <trkpt lat="43.46245" lon="1.24594">
        <ele>190</ele>
        <time>2022-11-20T08:32:17Z</time>
      </trkpt>
      <trkpt lat="43.46244" lon="1.2461">
        <ele>190</ele>
        <time>2022-11-20T08:32:19Z</time>
      </trkpt>
      <trkpt lat="43.46242" lon="1.2466">
        <ele>190</ele>
        <time>2022-11-20T08:32:25Z</time>
      </trkpt>
      <trkpt lat="43.46241" lon="1.24679">
        <ele>190</ele>
        <time>2022-11-20T08:32:28Z</time>
      </trkpt>
      <trkpt lat="43.46237" lon="1.24688">
        <ele>189.8</ele>
        <time>2022-11-20T08:32:30Z</time>
      </trkpt>
      <trkpt lat="43.46228" lon="1.2469">
        <ele>189.8</ele>
        <time>2022-11-20T08:32:32Z</time>
      </trkpt>
      <trkpt lat="43.46224" lon="1.24687">
        <ele>189.8</ele>
        <time>2022-11-20T08:32:33Z</time>
      </trkpt>
      <trkpt lat="43.46194" lon="1.2466">
        <ele>189.8</ele>
        <time>2022-11-20T08:32:39Z</time>
      </trkpt>
      <trkpt lat="43.46148" lon="1.24619">
        <ele>189.8</ele>
        <time>2022-11-20T08:32:47Z</time>
      </trkpt>
      <trkpt lat="43.46101" lon="1.24578">
        <ele>189.8</ele>
        <time>2022-11-20T08:32:55Z</time>
      </trkpt>
      <trkpt lat="43.46095" lon="1.24572">
        <ele>189.8</ele>
        <time>2022-11-20T08:32:56Z</time>
      </trkpt>
      <trkpt lat="43.46047" lon="1.24531">
        <ele>189.8</ele>
        <time>2022-11-20T08:33:04Z</time>
      </trkpt>
      <trkpt lat="43.46041" lon="1.24527">
        <ele>190</ele>
        <time>2022-11-20T08:33:05Z</time>
      </trkpt>
      <trkpt lat="43.46009" lon="1.24507">
        <ele>190</ele>
        <time>2022-11-20T08:33:11Z</time>
      </trkpt>
      <trkpt lat="43.46001" lon="1.24503">
        <ele>190</ele>
        <time>2022-11-20T08:33:13Z</time>
      </trkpt>
      <trkpt lat="43.45993" lon="1.24501">
        <ele>190.2</ele>
        <time>2022-11-20T08:33:15Z</time>
      </trkpt>
      <trkpt lat="43.45987" lon="1.24506">
        <ele>190.2</ele>
        <time>2022-11-20T08:33:17Z</time>
      </trkpt>
      <trkpt lat="43.45985" lon="1.24512">
        <ele>190.2</ele>
        <time>2022-11-20T08:33:18Z</time>
      </trkpt>
      <trkpt lat="43.45973" lon="1.24561">
        <ele>190.2</ele>
        <time>2022-11-20T08:33:25Z</time>
      </trkpt>
      <trkpt lat="43.45962" lon="1.24621">
        <ele>190.2</ele>
        <time>2022-11-20T08:33:33Z</time>
      </trkpt>
      <trkpt lat="43.45949" lon="1.24685">
        <ele>190.2</ele>
        <time>2022-11-20T08:33:41Z</time>
      </trkpt>
      <trkpt lat="43.45941" lon="1.2473">
        <ele>190.2</ele>
        <time>2022-11-20T08:33:46Z</time>
      </trkpt>
      <trkpt lat="43.45928" lon="1.24797">
        <ele>190.2</ele>
        <time>2022-11-20T08:33:53Z</time>
      </trkpt>
      <trkpt lat="43.45912" lon="1.24869">
        <ele>190.6</ele>
        <time>2022-11-20T08:34:01Z</time>
      </trkpt>
      <trkpt lat="43.4591" lon="1.24878">
        <ele>190.6</ele>
        <time>2022-11-20T08:34:02Z</time>
      </trkpt>
      <trkpt lat="43.45899" lon="1.24953">
        <ele>190.8</ele>
        <time>2022-11-20T08:34:10Z</time>
      </trkpt>
      <trkpt lat="43.45901" lon="1.25033">
        <ele>190.8</ele>
        <time>2022-11-20T08:34:18Z</time>
      </trkpt>
      <trkpt lat="43.459" lon="1.25111">
        <ele>190.4</ele>
        <time>2022-11-20T08:34:26Z</time>
      </trkpt>
      <trkpt lat="43.459" lon="1.25131">
        <ele>190.2</ele>
        <time>2022-11-20T08:34:28Z</time>
      </trkpt>
      <trkpt lat="43.45895" lon="1.25161">
        <ele>190.2</ele>
        <time>2022-11-20T08:34:31Z</time>
      </trkpt>
      <trkpt lat="43.45878" lon="1.25221">
        <ele>190</ele>
        <time>2022-11-20T08:34:37Z</time>
      </trkpt>
      <trkpt lat="43.4585" lon="1.25287">
        <ele>190</ele>
        <time>2022-11-20T08:34:44Z</time>
      </trkpt>
      <trkpt lat="43.45837" lon="1.25314">
        <ele>189.8</ele>
        <time>2022-11-20T08:34:47Z</time>
      </trkpt>
      <trkpt lat="43.45809" lon="1.2538">
        <ele>189.8</ele>
        <time>2022-11-20T08:34:54Z</time>
      </trkpt>
      <trkpt lat="43.45793" lon="1.25417">
        <ele>189.8</ele>
        <time>2022-11-20T08:34:58Z</time>
      </trkpt>
      <trkpt lat="43.45763" lon="1.25483">
        <ele>189.8</ele>
        <time>2022-11-20T08:35:05Z</time>
      </trkpt>
      <trkpt lat="43.45759" lon="1.25492">
        <ele>189.6</ele>
        <time>2022-11-20T08:35:06Z</time>
      </trkpt>
      <trkpt lat="43.45731" lon="1.2556">
        <ele>189.8</ele>
        <time>2022-11-20T08:35:13Z</time>
      </trkpt>
      <trkpt lat="43.45712" lon="1.25607">
        <ele>189.8</ele>
        <time>2022-11-20T08:35:18Z</time>
      </trkpt>
      <trkpt lat="43.45684" lon="1.25671">
        <ele>190</ele>
        <time>2022-11-20T08:35:25Z</time>
      </trkpt>
      <trkpt lat="43.45668" lon="1.25708">
        <ele>190</ele>
        <time>2022-11-20T08:35:29Z</time>
      </trkpt>
      <trkpt lat="43.45637" lon="1.2578">
        <ele>189.8</ele>
        <time>2022-11-20T08:35:37Z</time>
      </trkpt>
      <trkpt lat="43.45626" lon="1.25806">
        <ele>189.8</ele>
        <time>2022-11-20T08:35:40Z</time>
      </trkpt>
      <trkpt lat="43.45597" lon="1.25874">
        <ele>190</ele>
        <time>2022-11-20T08:35:48Z</time>
      </trkpt>
      <trkpt lat="43.45588" lon="1.25898">
        <ele>190.2</ele>
        <time>2022-11-20T08:35:51Z</time>
      </trkpt>
      <trkpt lat="43.45559" lon="1.25972">
        <ele>190</ele>
        <time>2022-11-20T08:35:59Z</time>
      </trkpt>
      <trkpt lat="43.45552" lon="1.25991">
        <ele>190</ele>
        <time>2022-11-20T08:36:01Z</time>
      </trkpt>
      <trkpt lat="43.45522" lon="1.26064">
        <ele>189.6</ele>
        <time>2022-11-20T08:36:09Z</time>
      </trkpt>
      <trkpt lat="43.4551" lon="1.26092">
        <ele>189.6</ele>
        <time>2022-11-20T08:36:12Z</time>
      </trkpt>
      <trkpt lat="43.45479" lon="1.26164">
        <ele>189.6</ele>
        <time>2022-11-20T08:36:20Z</time>
      </trkpt>
      <trkpt lat="43.45471" lon="1.26181">
        <ele>189.8</ele>
        <time>2022-11-20T08:36:22Z</time>
      </trkpt>
      <trkpt lat="43.45438" lon="1.26249">
        <ele>189.8</ele>
        <time>2022-11-20T08:36:30Z</time>
      </trkpt>
      <trkpt lat="43.45433" lon="1.26256">
        <ele>189.8</ele>
        <time>2022-11-20T08:36:31Z</time>
      </trkpt>
      <trkpt lat="43.454" lon="1.26321">
        <ele>189.4</ele>
        <time>2022-11-20T08:36:39Z</time>
      </trkpt>
      <trkpt lat="43.45397" lon="1.2633">
        <ele>189.4</ele>
        <time>2022-11-20T08:36:40Z</time>
      </trkpt>
      <trkpt lat="43.45368" lon="1.26399">
        <ele>189.6</ele>
        <time>2022-11-20T08:36:48Z</time>
      </trkpt>
      <trkpt lat="43.45357" lon="1.26425">
        <ele>189.6</ele>
        <time>2022-11-20T08:36:51Z</time>
      </trkpt>
      <trkpt lat="43.45329" lon="1.2649">
        <ele>189.6</ele>
        <time>2022-11-20T08:36:59Z</time>
      </trkpt>
      <trkpt lat="43.45325" lon="1.26499">
        <ele>189.6</ele>
        <time>2022-11-20T08:37:00Z</time>
      </trkpt>
      <trkpt lat="43.45296" lon="1.26564">
        <ele>189.8</ele>
        <time>2022-11-20T08:37:08Z</time>
      </trkpt>
      <trkpt lat="43.45284" lon="1.26587">
        <ele>189.8</ele>
        <time>2022-11-20T08:37:11Z</time>
      </trkpt>
      <trkpt lat="43.45245" lon="1.26643">
        <ele>190</ele>
        <time>2022-11-20T08:37:19Z</time>
      </trkpt>
      <trkpt lat="43.45199" lon="1.26687">
        <ele>189.8</ele>
        <time>2022-11-20T08:37:27Z</time>
      </trkpt>
      <trkpt lat="43.45192" lon="1.26692">
        <ele>189.8</ele>
        <time>2022-11-20T08:37:28Z</time>
      </trkpt>
      <trkpt lat="43.45156" lon="1.26724">
        <ele>189.6</ele>
        <time>2022-11-20T08:37:34Z</time>
      </trkpt>
      <trkpt lat="43.4513" lon="1.26747">
        <ele>189.6</ele>
        <time>2022-11-20T08:37:38Z</time>
      </trkpt>
      <trkpt lat="43.45079" lon="1.26793">
        <ele>189.6</ele>
        <time>2022-11-20T08:37:46Z</time>
      </trkpt>
      <trkpt lat="43.4506" lon="1.26811">
        <ele>189.6</ele>
        <time>2022-11-20T08:37:49Z</time>
      </trkpt>
      <trkpt lat="43.45008" lon="1.26857">
        <ele>189.8</ele>
        <time>2022-11-20T08:37:57Z</time>
      </trkpt>
      <trkpt lat="43.44989" lon="1.26873">
        <ele>190.2</ele>
        <time>2022-11-20T08:38:00Z</time>
      </trkpt>
      <trkpt lat="43.44977" lon="1.26884">
        <ele>190.2</ele>
        <time>2022-11-20T08:38:02Z</time>
      </trkpt>
      <trkpt lat="43.44953" lon="1.26907">
        <ele>190.2</ele>
        <time>2022-11-20T08:38:06Z</time>
      </trkpt>
      <trkpt lat="43.44902" lon="1.26952">
        <ele>190</ele>
        <time>2022-11-20T08:38:14Z</time>
      </trkpt>
      <trkpt lat="43.4489" lon="1.26963">
        <ele>190.2</ele>
        <time>2022-11-20T08:38:16Z</time>
      </trkpt>
      <trkpt lat="43.44848" lon="1.27009">
        <ele>190.2</ele>
        <time>2022-11-20T08:38:23Z</time>
      </trkpt>
      <trkpt lat="43.44843" lon="1.27017">
        <ele>190.2</ele>
        <time>2022-11-20T08:38:24Z</time>
      </trkpt>
      <trkpt lat="43.44823" lon="1.27064">
        <ele>190.4</ele>
        <time>2022-11-20T08:38:29Z</time>
      </trkpt>
      <trkpt lat="43.44795" lon="1.27137">
        <ele>190.4</ele>
        <time>2022-11-20T08:38:37Z</time>
      </trkpt>
      <trkpt lat="43.44791" lon="1.27145">
        <ele>190.4</ele>
        <time>2022-11-20T08:38:38Z</time>
      </trkpt>
      <trkpt lat="43.44776" lon="1.27173">
        <ele>190.4</ele>
        <time>2022-11-20T08:38:42Z</time>
      </trkpt>
      <trkpt lat="43.44748" lon="1.27217">
        <ele>190.6</ele>
        <time>2022-11-20T08:38:49Z</time>
      </trkpt>
      <trkpt lat="43.44725" lon="1.2725">
        <ele>190.8</ele>
        <time>2022-11-20T08:38:55Z</time>
      </trkpt>
      <trkpt lat="43.44721" lon="1.27254">
        <ele>190.8</ele>
        <time>2022-11-20T08:38:56Z</time>
      </trkpt>
      <trkpt lat="43.44716" lon="1.27255">
        <ele>190.8</ele>
        <time>2022-11-20T08:38:57Z</time>
      </trkpt>
      <trkpt lat="43.44707" lon="1.2725">
        <ele>190.8</ele>
        <time>2022-11-20T08:38:59Z</time>
      </trkpt>
      <trkpt lat="43.44683" lon="1.27225">
        <ele>190.8</ele>
        <time>2022-11-20T08:39:04Z</time>
      </trkpt>
      <trkpt lat="43.44651" lon="1.27187">
        <ele>190.2</ele>
        <time>2022-11-20T08:39:10Z</time>
      </trkpt>
      <trkpt lat="43.4461" lon="1.27129">
        <ele>190.2</ele>
        <time>2022-11-20T08:39:18Z</time>
      </trkpt>
      <trkpt lat="43.44604" lon="1.27121">
        <ele>190.2</ele>
        <time>2022-11-20T08:39:19Z</time>
      </trkpt>
      <trkpt lat="43.44561" lon="1.27061">
        <ele>190.6</ele>
        <time>2022-11-20T08:39:27Z</time>
      </trkpt>
      <trkpt lat="43.4454" lon="1.27031">
        <ele>190.8</ele>
        <time>2022-11-20T08:39:31Z</time>
      </trkpt>
      <trkpt lat="43.44499" lon="1.26979">
        <ele>190.6</ele>
        <time>2022-11-20T08:39:38Z</time>
      </trkpt>
      <trkpt lat="43.44475" lon="1.2695">
        <ele>190.6</ele>
        <time>2022-11-20T08:39:42Z</time>
      </trkpt>
      <trkpt lat="43.4443" lon="1.26893">
        <ele>191</ele>
        <time>2022-11-20T08:39:50Z</time>
      </trkpt>
      <trkpt lat="43.44421" lon="1.26881">
        <ele>191</ele>
        <time>2022-11-20T08:39:52Z</time>
      </trkpt>
      <trkpt lat="43.44386" lon="1.26831">
        <ele>191.2</ele>
        <time>2022-11-20T08:39:59Z</time>
      </trkpt>
      <trkpt lat="43.44353" lon="1.26766">
        <ele>191.4</ele>
        <time>2022-11-20T08:40:07Z</time>
      </trkpt>
      <trkpt lat="43.44345" lon="1.2675">
        <ele>191.4</ele>
        <time>2022-11-20T08:40:09Z</time>
      </trkpt>
      <trkpt lat="43.4431" lon="1.26684">
        <ele>191.4</ele>
        <time>2022-11-20T08:40:17Z</time>
      </trkpt>
      <trkpt lat="43.44301" lon="1.26667">
        <ele>191.4</ele>
        <time>2022-11-20T08:40:19Z</time>
      </trkpt>
      <trkpt lat="43.44266" lon="1.26599">
        <ele>191.8</ele>
        <time>2022-11-20T08:40:27Z</time>
      </trkpt>
      <trkpt lat="43.44258" lon="1.26583">
        <ele>191.8</ele>
        <time>2022-11-20T08:40:29Z</time>
      </trkpt>
      <trkpt lat="43.44228" lon="1.26516">
        <ele>192</ele>
        <time>2022-11-20T08:40:37Z</time>
      </trkpt>
      <trkpt lat="43.44221" lon="1.265">
        <ele>192</ele>
        <time>2022-11-20T08:40:39Z</time>
      </trkpt>
      <trkpt lat="43.44208" lon="1.26471">
        <ele>192</ele>
        <time>2022-11-20T08:40:43Z</time>
      </trkpt>
      <trkpt lat="43.44204" lon="1.26465">
        <ele>192</ele>
        <time>2022-11-20T08:40:44Z</time>
      </trkpt>
      <trkpt lat="43.44199" lon="1.26461">
        <ele>192</ele>
        <time>2022-11-20T08:40:45Z</time>
      </trkpt>
      <trkpt lat="43.44186" lon="1.26453">
        <ele>192.2</ele>
        <time>2022-11-20T08:40:48Z</time>
      </trkpt>
      <trkpt lat="43.44174" lon="1.26438">
        <ele>192.4</ele>
        <time>2022-11-20T08:40:52Z</time>
      </trkpt>
      <trkpt lat="43.44169" lon="1.26431">
        <ele>192.4</ele>
        <time>2022-11-20T08:40:54Z</time>
      </trkpt>
      <trkpt lat="43.44152" lon="1.26405">
        <ele>192.4</ele>
        <time>2022-11-20T08:41:00Z</time>
      </trkpt>
      <trkpt lat="43.44142" lon="1.26396">
        <ele>192.4</ele>
        <time>2022-11-20T08:41:02Z</time>
      </trkpt>
      <trkpt lat="43.44132" lon="1.26387">
        <ele>192.4</ele>
        <time>2022-11-20T08:41:04Z</time>
      </trkpt>
      <trkpt lat="43.44098" lon="1.26366">
        <ele>192.4</ele>
        <time>2022-11-20T08:41:10Z</time>
      </trkpt>
      <trkpt lat="43.44049" lon="1.26343">
        <ele>192.8</ele>
        <time>2022-11-20T08:41:18Z</time>
      </trkpt>
      <trkpt lat="43.44002" lon="1.26321">
        <ele>193</ele>
        <time>2022-11-20T08:41:26Z</time>
      </trkpt>
      <trkpt lat="43.43994" lon="1.26325">
        <ele>193</ele>
        <time>2022-11-20T08:41:28Z</time>
      </trkpt>
      <trkpt lat="43.43991" lon="1.2633">
        <ele>193</ele>
        <time>2022-11-20T08:41:29Z</time>
      </trkpt>
      <trkpt lat="43.4399" lon="1.26336">
        <ele>193.2</ele>
        <time>2022-11-20T08:41:30Z</time>
      </trkpt>
      <trkpt lat="43.43987" lon="1.26357">
        <ele>193.2</ele>
        <time>2022-11-20T08:41:33Z</time>
      </trkpt>
      <trkpt lat="43.43986" lon="1.26364">
        <ele>193.2</ele>
        <time>2022-11-20T08:41:34Z</time>
      </trkpt>
      <trkpt lat="43.43975" lon="1.26418">
        <ele>193.4</ele>
        <time>2022-11-20T08:41:41Z</time>
      </trkpt>
      <trkpt lat="43.43973" lon="1.26427">
        <ele>193.4</ele>
        <time>2022-11-20T08:41:42Z</time>
      </trkpt>
      <trkpt lat="43.43962" lon="1.26486">
        <ele>193.4</ele>
        <time>2022-11-20T08:41:49Z</time>
      </trkpt>
      <trkpt lat="43.43957" lon="1.26519">
        <ele>193.4</ele>
        <time>2022-11-20T08:41:53Z</time>
      </trkpt>
      <trkpt lat="43.43952" lon="1.2654">
        <ele>193.2</ele>
        <time>2022-11-20T08:41:56Z</time>
      </trkpt>
      <trkpt lat="43.43941" lon="1.26601">
        <ele>193</ele>
        <time>2022-11-20T08:42:03Z</time>
      </trkpt>
      <trkpt lat="43.4393" lon="1.26676">
        <ele>193</ele>
        <time>2022-11-20T08:42:11Z</time>
      </trkpt>
      <trkpt lat="43.43916" lon="1.26751">
        <ele>192.6</ele>
        <time>2022-11-20T08:42:19Z</time>
      </trkpt>
      <trkpt lat="43.43914" lon="1.26761">
        <ele>192.6</ele>
        <time>2022-11-20T08:42:20Z</time>
      </trkpt>
      <trkpt lat="43.439" lon="1.26837">
        <ele>192.6</ele>
        <time>2022-11-20T08:42:28Z</time>
      </trkpt>
      <trkpt lat="43.43891" lon="1.26886">
        <ele>192.6</ele>
        <time>2022-11-20T08:42:33Z</time>
      </trkpt>
      <trkpt lat="43.43877" lon="1.26965">
        <ele>192.6</ele>
        <time>2022-11-20T08:42:41Z</time>
      </trkpt>
      <trkpt lat="43.43877" lon="1.26975">
        <ele>192.6</ele>
        <time>2022-11-20T08:42:42Z</time>
      </trkpt>
      <trkpt lat="43.43879" lon="1.27037">
        <ele>192.6</ele>
        <time>2022-11-20T08:42:48Z</time>
      </trkpt>
      <trkpt lat="43.43884" lon="1.27109">
        <ele>192.2</ele>
        <time>2022-11-20T08:42:55Z</time>
      </trkpt>
      <trkpt lat="43.43887" lon="1.27139">
        <ele>191.8</ele>
        <time>2022-11-20T08:42:58Z</time>
      </trkpt>
      <trkpt lat="43.43891" lon="1.27201">
        <ele>191.8</ele>
        <time>2022-11-20T08:43:04Z</time>
      </trkpt>
      <trkpt lat="43.43894" lon="1.2724">
        <ele>192.2</ele>
        <time>2022-11-20T08:43:08Z</time>
      </trkpt>
      <trkpt lat="43.43899" lon="1.2732">
        <ele>192</ele>
        <time>2022-11-20T08:43:16Z</time>
      </trkpt>
      <trkpt lat="43.439" lon="1.2733">
        <ele>192</ele>
        <time>2022-11-20T08:43:17Z</time>
      </trkpt>
      <trkpt lat="43.43897" lon="1.27401">
        <ele>191.8</ele>
        <time>2022-11-20T08:43:24Z</time>
      </trkpt>
      <trkpt lat="43.43897" lon="1.27421">
        <ele>191.8</ele>
        <time>2022-11-20T08:43:26Z</time>
      </trkpt>
      <trkpt lat="43.439" lon="1.27441">
        <ele>192</ele>
        <time>2022-11-20T08:43:28Z</time>
      </trkpt>
      <trkpt lat="43.43914" lon="1.27476">
        <ele>191.8</ele>
        <time>2022-11-20T08:43:32Z</time>
      </trkpt>
      <trkpt lat="43.43927" lon="1.27502">
        <ele>191.8</ele>
        <time>2022-11-20T08:43:35Z</time>
      </trkpt>
      <trkpt lat="43.43936" lon="1.2753">
        <ele>191.8</ele>
        <time>2022-11-20T08:43:38Z</time>
      </trkpt>
      <trkpt lat="43.43949" lon="1.27601">
        <ele>191.6</ele>
        <time>2022-11-20T08:43:45Z</time>
      </trkpt>
      <trkpt lat="43.43957" lon="1.27665">
        <ele>191.6</ele>
        <time>2022-11-20T08:43:51Z</time>
      </trkpt>
      <trkpt lat="43.43956" lon="1.27686">
        <ele>191.6</ele>
        <time>2022-11-20T08:43:53Z</time>
      </trkpt>
      <trkpt lat="43.43942" lon="1.27748">
        <ele>191.6</ele>
        <time>2022-11-20T08:43:59Z</time>
      </trkpt>
      <trkpt lat="43.43924" lon="1.27826">
        <ele>191.4</ele>
        <time>2022-11-20T08:44:07Z</time>
      </trkpt>
      <trkpt lat="43.43918" lon="1.27855">
        <ele>191.2</ele>
        <time>2022-11-20T08:44:10Z</time>
      </trkpt>
      <trkpt lat="43.43901" lon="1.27933">
        <ele>191.6</ele>
        <time>2022-11-20T08:44:18Z</time>
      </trkpt>
      <trkpt lat="43.43899" lon="1.27942">
        <ele>191.8</ele>
        <time>2022-11-20T08:44:19Z</time>
      </trkpt>
      <trkpt lat="43.4388" lon="1.28019">
        <ele>192</ele>
        <time>2022-11-20T08:44:27Z</time>
      </trkpt>
      <trkpt lat="43.43875" lon="1.28038">
        <ele>191.8</ele>
        <time>2022-11-20T08:44:29Z</time>
      </trkpt>
      <trkpt lat="43.43854" lon="1.28114">
        <ele>191.6</ele>
        <time>2022-11-20T08:44:37Z</time>
      </trkpt>
      <trkpt lat="43.43844" lon="1.28151">
        <ele>191.6</ele>
        <time>2022-11-20T08:44:41Z</time>
      </trkpt>
      <trkpt lat="43.43821" lon="1.28225">
        <ele>191.6</ele>
        <time>2022-11-20T08:44:49Z</time>
      </trkpt>
      <trkpt lat="43.438" lon="1.28298">
        <ele>191</ele>
        <time>2022-11-20T08:44:57Z</time>
      </trkpt>
      <trkpt lat="43.43792" lon="1.28326">
        <ele>190.8</ele>
        <time>2022-11-20T08:45:00Z</time>
      </trkpt>
      <trkpt lat="43.43771" lon="1.28399">
        <ele>190.8</ele>
        <time>2022-11-20T08:45:08Z</time>
      </trkpt>
      <trkpt lat="43.43757" lon="1.28444">
        <ele>191</ele>
        <time>2022-11-20T08:45:13Z</time>
      </trkpt>
      <trkpt lat="43.43738" lon="1.28509">
        <ele>191.2</ele>
        <time>2022-11-20T08:45:21Z</time>
      </trkpt>
      <trkpt lat="43.43721" lon="1.28567">
        <ele>191.6</ele>
        <time>2022-11-20T08:45:28Z</time>
      </trkpt>
      <trkpt lat="43.43703" lon="1.2863">
        <ele>191.8</ele>
        <time>2022-11-20T08:45:36Z</time>
      </trkpt>
      <trkpt lat="43.43695" lon="1.28665">
        <ele>191.6</ele>
        <time>2022-11-20T08:45:41Z</time>
      </trkpt>
      <trkpt lat="43.43695" lon="1.28671">
        <ele>191.6</ele>
        <time>2022-11-20T08:45:42Z</time>
      </trkpt>
      <trkpt lat="43.43696" lon="1.28686">
        <ele>191.4</ele>
        <time>2022-11-20T08:45:46Z</time>
      </trkpt>
      <trkpt lat="43.43695" lon="1.2869">
        <ele>191.2</ele>
        <time>2022-11-20T08:45:48Z</time>
      </trkpt>
      <trkpt lat="43.43692" lon="1.28692">
        <ele>191</ele>
        <time>2022-11-20T08:45:51Z</time>
      </trkpt>
      <trkpt lat="43.43679" lon="1.28686">
        <ele>190.8</ele>
        <time>2022-11-20T08:45:57Z</time>
      </trkpt>
      <trkpt lat="43.43663" lon="1.28674">
        <ele>190.8</ele>
        <time>2022-11-20T08:46:01Z</time>
      </trkpt>
      <trkpt lat="43.43636" lon="1.28657">
        <ele>190.8</ele>
        <time>2022-11-20T08:46:06Z</time>
      </trkpt>
      <trkpt lat="43.43594" lon="1.28629">
        <ele>191</ele>
        <time>2022-11-20T08:46:13Z</time>
      </trkpt>
      <trkpt lat="43.43546" lon="1.28598">
        <ele>191.6</ele>
        <time>2022-11-20T08:46:21Z</time>
      </trkpt>
      <trkpt lat="43.43497" lon="1.28566">
        <ele>191.8</ele>
        <time>2022-11-20T08:46:29Z</time>
      </trkpt>
      <trkpt lat="43.43472" lon="1.2855">
        <ele>192</ele>
        <time>2022-11-20T08:46:33Z</time>
      </trkpt>
      <trkpt lat="43.43419" lon="1.28516">
        <ele>192.2</ele>
        <time>2022-11-20T08:46:41Z</time>
      </trkpt>
      <trkpt lat="43.43406" lon="1.28507">
        <ele>192</ele>
        <time>2022-11-20T08:46:43Z</time>
      </trkpt>
      <trkpt lat="43.43392" lon="1.28499">
        <ele>192</ele>
        <time>2022-11-20T08:46:45Z</time>
      </trkpt>
      <trkpt lat="43.43338" lon="1.28464">
        <ele>192</ele>
        <time>2022-11-20T08:46:53Z</time>
      </trkpt>
      <trkpt lat="43.43331" lon="1.28459">
        <ele>192</ele>
        <time>2022-11-20T08:46:54Z</time>
      </trkpt>
      <trkpt lat="43.43275" lon="1.28426">
        <ele>191.8</ele>
        <time>2022-11-20T08:47:02Z</time>
      </trkpt>
      <trkpt lat="43.43253" lon="1.28414">
        <ele>191.8</ele>
        <time>2022-11-20T08:47:05Z</time>
      </trkpt>
      <trkpt lat="43.43198" lon="1.28382">
        <ele>191.8</ele>
        <time>2022-11-20T08:47:13Z</time>
      </trkpt>
      <trkpt lat="43.4317" lon="1.28367">
        <ele>191.8</ele>
        <time>2022-11-20T08:47:17Z</time>
      </trkpt>
      <trkpt lat="43.43115" lon="1.28336">
        <ele>192</ele>
        <time>2022-11-20T08:47:25Z</time>
      </trkpt>
      <trkpt lat="43.43093" lon="1.28323">
        <ele>192.2</ele>
        <time>2022-11-20T08:47:28Z</time>
      </trkpt>
      <trkpt lat="43.4304" lon="1.28293">
        <ele>192.4</ele>
        <time>2022-11-20T08:47:36Z</time>
      </trkpt>
      <trkpt lat="43.43021" lon="1.28282">
        <ele>192.4</ele>
        <time>2022-11-20T08:47:39Z</time>
      </trkpt>
      <trkpt lat="43.42967" lon="1.28251">
        <ele>192.6</ele>
        <time>2022-11-20T08:47:47Z</time>
      </trkpt>
      <trkpt lat="43.42953" lon="1.28243">
        <ele>192.6</ele>
        <time>2022-11-20T08:47:49Z</time>
      </trkpt>
      <trkpt lat="43.42902" lon="1.28215">
        <ele>192.2</ele>
        <time>2022-11-20T08:47:56Z</time>
      </trkpt>
      <trkpt lat="43.42895" lon="1.28211">
        <ele>192.2</ele>
        <time>2022-11-20T08:47:57Z</time>
      </trkpt>
      <trkpt lat="43.42837" lon="1.28181">
        <ele>192.2</ele>
        <time>2022-11-20T08:48:05Z</time>
      </trkpt>
      <trkpt lat="43.4283" lon="1.28177">
        <ele>192.2</ele>
        <time>2022-11-20T08:48:06Z</time>
      </trkpt>
      <trkpt lat="43.42778" lon="1.28153">
        <ele>191.8</ele>
        <time>2022-11-20T08:48:13Z</time>
      </trkpt>
      <trkpt lat="43.42757" lon="1.28145">
        <ele>191.8</ele>
        <time>2022-11-20T08:48:16Z</time>
      </trkpt>
      <trkpt lat="43.42698" lon="1.28125">
        <ele>191.8</ele>
        <time>2022-11-20T08:48:24Z</time>
      </trkpt>
      <trkpt lat="43.42684" lon="1.2812">
        <ele>191.8</ele>
        <time>2022-11-20T08:48:26Z</time>
      </trkpt>
      <trkpt lat="43.4263" lon="1.28093">
        <ele>192.4</ele>
        <time>2022-11-20T08:48:34Z</time>
      </trkpt>
      <trkpt lat="43.42577" lon="1.28058">
        <ele>192.8</ele>
        <time>2022-11-20T08:48:42Z</time>
      </trkpt>
      <trkpt lat="43.42564" lon="1.28049">
        <ele>193</ele>
        <time>2022-11-20T08:48:44Z</time>
      </trkpt>
      <trkpt lat="43.42552" lon="1.28041">
        <ele>193</ele>
        <time>2022-11-20T08:48:46Z</time>
      </trkpt>
      <trkpt lat="43.42499" lon="1.28006">
        <ele>193.6</ele>
        <time>2022-11-20T08:48:54Z</time>
      </trkpt>
      <trkpt lat="43.42461" lon="1.27979">
        <ele>194</ele>
        <time>2022-11-20T08:49:00Z</time>
      </trkpt>
      <trkpt lat="43.42442" lon="1.27963">
        <ele>194.4</ele>
        <time>2022-11-20T08:49:03Z</time>
      </trkpt>
      <trkpt lat="43.42436" lon="1.27957">
        <ele>194.4</ele>
        <time>2022-11-20T08:49:04Z</time>
      </trkpt>
      <trkpt lat="43.42417" lon="1.27943">
        <ele>194.4</ele>
        <time>2022-11-20T08:49:07Z</time>
      </trkpt>
      <trkpt lat="43.4241" lon="1.27937">
        <ele>194.4</ele>
        <time>2022-11-20T08:49:08Z</time>
      </trkpt>
      <trkpt lat="43.42358" lon="1.27897">
        <ele>194.4</ele>
        <time>2022-11-20T08:49:16Z</time>
      </trkpt>
      <trkpt lat="43.42305" lon="1.2786">
        <ele>194.2</ele>
        <time>2022-11-20T08:49:24Z</time>
      </trkpt>
      <trkpt lat="43.42284" lon="1.27847">
        <ele>194.2</ele>
        <time>2022-11-20T08:49:27Z</time>
      </trkpt>
      <trkpt lat="43.42241" lon="1.27831">
        <ele>194.2</ele>
        <time>2022-11-20T08:49:33Z</time>
      </trkpt>
      <trkpt lat="43.42207" lon="1.27817">
        <ele>194.2</ele>
        <time>2022-11-20T08:49:38Z</time>
      </trkpt>
      <trkpt lat="43.4215" lon="1.27795">
        <ele>194.2</ele>
        <time>2022-11-20T08:49:46Z</time>
      </trkpt>
      <trkpt lat="43.42092" lon="1.27778">
        <ele>194.2</ele>
        <time>2022-11-20T08:49:54Z</time>
      </trkpt>
      <trkpt lat="43.42078" lon="1.27774">
        <ele>194.2</ele>
        <time>2022-11-20T08:49:56Z</time>
      </trkpt>
      <trkpt lat="43.42024" lon="1.27758">
        <ele>194.2</ele>
        <time>2022-11-20T08:50:03Z</time>
      </trkpt>
      <trkpt lat="43.42009" lon="1.27753">
        <ele>194.2</ele>
        <time>2022-11-20T08:50:05Z</time>
      </trkpt>
      <trkpt lat="43.41966" lon="1.27741">
        <ele>194.2</ele>
        <time>2022-11-20T08:50:11Z</time>
      </trkpt>
      <trkpt lat="43.41921" lon="1.27726">
        <ele>194.2</ele>
        <time>2022-11-20T08:50:17Z</time>
      </trkpt>
      <trkpt lat="43.41868" lon="1.27711">
        <ele>194.2</ele>
        <time>2022-11-20T08:50:24Z</time>
      </trkpt>
      <trkpt lat="43.41847" lon="1.27704">
        <ele>194.2</ele>
        <time>2022-11-20T08:50:27Z</time>
      </trkpt>
      <trkpt lat="43.41797" lon="1.27687">
        <ele>194</ele>
        <time>2022-11-20T08:50:34Z</time>
      </trkpt>
      <trkpt lat="43.41743" lon="1.27664">
        <ele>193.8</ele>
        <time>2022-11-20T08:50:42Z</time>
      </trkpt>
      <trkpt lat="43.41736" lon="1.2766">
        <ele>194</ele>
        <time>2022-11-20T08:50:43Z</time>
      </trkpt>
      <trkpt lat="43.41682" lon="1.2763">
        <ele>194.6</ele>
        <time>2022-11-20T08:50:51Z</time>
      </trkpt>
      <trkpt lat="43.41633" lon="1.27599">
        <ele>194.8</ele>
        <time>2022-11-20T08:50:58Z</time>
      </trkpt>
      <trkpt lat="43.4162" lon="1.27588">
        <ele>194.8</ele>
        <time>2022-11-20T08:51:00Z</time>
      </trkpt>
      <trkpt lat="43.41583" lon="1.27549">
        <ele>194.8</ele>
        <time>2022-11-20T08:51:06Z</time>
      </trkpt>
      <trkpt lat="43.41546" lon="1.27498">
        <ele>195</ele>
        <time>2022-11-20T08:51:13Z</time>
      </trkpt>
      <trkpt lat="43.41505" lon="1.27438">
        <ele>195.4</ele>
        <time>2022-11-20T08:51:21Z</time>
      </trkpt>
      <trkpt lat="43.41494" lon="1.27423">
        <ele>195.4</ele>
        <time>2022-11-20T08:51:23Z</time>
      </trkpt>
      <trkpt lat="43.41452" lon="1.27363">
        <ele>195</ele>
        <time>2022-11-20T08:51:31Z</time>
      </trkpt>
      <trkpt lat="43.41447" lon="1.27355">
        <ele>195</ele>
        <time>2022-11-20T08:51:32Z</time>
      </trkpt>
      <trkpt lat="43.41405" lon="1.27297">
        <ele>195</ele>
        <time>2022-11-20T08:51:40Z</time>
      </trkpt>
      <trkpt lat="43.41383" lon="1.27265">
        <ele>195.4</ele>
        <time>2022-11-20T08:51:44Z</time>
      </trkpt>
      <trkpt lat="43.41346" lon="1.27211">
        <ele>195.4</ele>
        <time>2022-11-20T08:51:51Z</time>
      </trkpt>
      <trkpt lat="43.41319" lon="1.27173">
        <ele>195.4</ele>
        <time>2022-11-20T08:51:56Z</time>
      </trkpt>
      <trkpt lat="43.41275" lon="1.27114">
        <ele>195.4</ele>
        <time>2022-11-20T08:52:04Z</time>
      </trkpt>
      <trkpt lat="43.41258" lon="1.27094">
        <ele>195.4</ele>
        <time>2022-11-20T08:52:07Z</time>
      </trkpt>
      <trkpt lat="43.4121" lon="1.27043">
        <ele>195.4</ele>
        <time>2022-11-20T08:52:15Z</time>
      </trkpt>
      <trkpt lat="43.41198" lon="1.27031">
        <ele>195.6</ele>
        <time>2022-11-20T08:52:17Z</time>
      </trkpt>
      <trkpt lat="43.41149" lon="1.26982">
        <ele>195.8</ele>
        <time>2022-11-20T08:52:25Z</time>
      </trkpt>
      <trkpt lat="43.4113" lon="1.26963">
        <ele>196</ele>
        <time>2022-11-20T08:52:28Z</time>
      </trkpt>
      <trkpt lat="43.41084" lon="1.26922">
        <ele>196</ele>
        <time>2022-11-20T08:52:35Z</time>
      </trkpt>
      <trkpt lat="43.41078" lon="1.26917">
        <ele>196</ele>
        <time>2022-11-20T08:52:36Z</time>
      </trkpt>
      <trkpt lat="43.41024" lon="1.26876">
        <ele>196</ele>
        <time>2022-11-20T08:52:44Z</time>
      </trkpt>
      <trkpt lat="43.41017" lon="1.2687">
        <ele>196</ele>
        <time>2022-11-20T08:52:45Z</time>
      </trkpt>
      <trkpt lat="43.4097" lon="1.26829">
        <ele>196</ele>
        <time>2022-11-20T08:52:52Z</time>
      </trkpt>
      <trkpt lat="43.40944" lon="1.26805">
        <ele>196</ele>
        <time>2022-11-20T08:52:56Z</time>
      </trkpt>
      <trkpt lat="43.40903" lon="1.26756">
        <ele>196.2</ele>
        <time>2022-11-20T08:53:03Z</time>
      </trkpt>
      <trkpt lat="43.40898" lon="1.26749">
        <ele>196.4</ele>
        <time>2022-11-20T08:53:04Z</time>
      </trkpt>
      <trkpt lat="43.40857" lon="1.26686">
        <ele>196.4</ele>
        <time>2022-11-20T08:53:12Z</time>
      </trkpt>
      <trkpt lat="43.4082" lon="1.26643">
        <ele>196.4</ele>
        <time>2022-11-20T08:53:18Z</time>
      </trkpt>
      <trkpt lat="43.40808" lon="1.26629">
        <ele>196.8</ele>
        <time>2022-11-20T08:53:20Z</time>
      </trkpt>
      <trkpt lat="43.40801" lon="1.26622">
        <ele>196.8</ele>
        <time>2022-11-20T08:53:21Z</time>
      </trkpt>
      <trkpt lat="43.40756" lon="1.26574">
        <ele>197</ele>
        <time>2022-11-20T08:53:28Z</time>
      </trkpt>
      <trkpt lat="43.40742" lon="1.26561">
        <ele>197</ele>
        <time>2022-11-20T08:53:30Z</time>
      </trkpt>
      <trkpt lat="43.40696" lon="1.26517">
        <ele>197.2</ele>
        <time>2022-11-20T08:53:37Z</time>
      </trkpt>
      <trkpt lat="43.40674" lon="1.26502">
        <ele>197.2</ele>
        <time>2022-11-20T08:53:40Z</time>
      </trkpt>
      <trkpt lat="43.40626" lon="1.26483">
        <ele>197.2</ele>
        <time>2022-11-20T08:53:46Z</time>
      </trkpt>
      <trkpt lat="43.40602" lon="1.26473">
        <ele>197</ele>
        <time>2022-11-20T08:53:49Z</time>
      </trkpt>
      <trkpt lat="43.40588" lon="1.26462">
        <ele>197</ele>
        <time>2022-11-20T08:53:51Z</time>
      </trkpt>
      <trkpt lat="43.4054" lon="1.26422">
        <ele>196.8</ele>
        <time>2022-11-20T08:53:58Z</time>
      </trkpt>
      <trkpt lat="43.40527" lon="1.26409">
        <ele>196.6</ele>
        <time>2022-11-20T08:54:00Z</time>
      </trkpt>
      <trkpt lat="43.40492" lon="1.26363">
        <ele>197.2</ele>
        <time>2022-11-20T08:54:06Z</time>
      </trkpt>
      <trkpt lat="43.40464" lon="1.26307">
        <ele>197.2</ele>
        <time>2022-11-20T08:54:12Z</time>
      </trkpt>
      <trkpt lat="43.40442" lon="1.26238">
        <ele>196.6</ele>
        <time>2022-11-20T08:54:19Z</time>
      </trkpt>
      <trkpt lat="43.40425" lon="1.26164">
        <ele>196.4</ele>
        <time>2022-11-20T08:54:26Z</time>
      </trkpt>
      <trkpt lat="43.40402" lon="1.26103">
        <ele>196.2</ele>
        <time>2022-11-20T08:54:32Z</time>
      </trkpt>
      <trkpt lat="43.40383" lon="1.26042">
        <ele>196.2</ele>
        <time>2022-11-20T08:54:38Z</time>
      </trkpt>
      <trkpt lat="43.40363" lon="1.2597">
        <ele>196.2</ele>
        <time>2022-11-20T08:54:45Z</time>
      </trkpt>
      <trkpt lat="43.40358" lon="1.2596">
        <ele>196.2</ele>
        <time>2022-11-20T08:54:46Z</time>
      </trkpt>
      <trkpt lat="43.40352" lon="1.25951">
        <ele>196</ele>
        <time>2022-11-20T08:54:47Z</time>
      </trkpt>
      <trkpt lat="43.40339" lon="1.25936">
        <ele>195.6</ele>
        <time>2022-11-20T08:54:49Z</time>
      </trkpt>
      <trkpt lat="43.40331" lon="1.25929">
        <ele>195.4</ele>
        <time>2022-11-20T08:54:50Z</time>
      </trkpt>
      <trkpt lat="43.40299" lon="1.25903">
        <ele>194.2</ele>
        <time>2022-11-20T08:54:54Z</time>
      </trkpt>
      <trkpt lat="43.40276" lon="1.25881">
        <ele>193.4</ele>
        <time>2022-11-20T08:54:57Z</time>
      </trkpt>
      <trkpt lat="43.40268" lon="1.25873">
        <ele>192.8</ele>
        <time>2022-11-20T08:54:58Z</time>
      </trkpt>
      <trkpt lat="43.40245" lon="1.25852">
        <ele>191.8</ele>
        <time>2022-11-20T08:55:01Z</time>
      </trkpt>
      <trkpt lat="43.4023" lon="1.25839">
        <ele>191.4</ele>
        <time>2022-11-20T08:55:03Z</time>
      </trkpt>
      <trkpt lat="43.40221" lon="1.25835">
        <ele>191</ele>
        <time>2022-11-20T08:55:04Z</time>
      </trkpt>
      <trkpt lat="43.40213" lon="1.25832">
        <ele>190.8</ele>
        <time>2022-11-20T08:55:05Z</time>
      </trkpt>
      <trkpt lat="43.40204" lon="1.2583">
        <ele>190.6</ele>
        <time>2022-11-20T08:55:06Z</time>
      </trkpt>
      <trkpt lat="43.40196" lon="1.25829">
        <ele>190.6</ele>
        <time>2022-11-20T08:55:07Z</time>
      </trkpt>
      <trkpt lat="43.40164" lon="1.25827">
        <ele>189.8</ele>
        <time>2022-11-20T08:55:11Z</time>
      </trkpt>
      <trkpt lat="43.40156" lon="1.25824">
        <ele>189.8</ele>
        <time>2022-11-20T08:55:12Z</time>
      </trkpt>
      <trkpt lat="43.40148" lon="1.2582">
        <ele>189.6</ele>
        <time>2022-11-20T08:55:13Z</time>
      </trkpt>
      <trkpt lat="43.40127" lon="1.25803">
        <ele>189.6</ele>
        <time>2022-11-20T08:55:16Z</time>
      </trkpt>
      <trkpt lat="43.40084" lon="1.25753">
        <ele>189.2</ele>
        <time>2022-11-20T08:55:23Z</time>
      </trkpt>
      <trkpt lat="43.40043" lon="1.25718">
        <ele>189</ele>
        <time>2022-11-20T08:55:29Z</time>
      </trkpt>
      <trkpt lat="43.39992" lon="1.25689">
        <ele>189.2</ele>
        <time>2022-11-20T08:55:36Z</time>
      </trkpt>
      <trkpt lat="43.39939" lon="1.25663">
        <ele>189.2</ele>
        <time>2022-11-20T08:55:43Z</time>
      </trkpt>
      <trkpt lat="43.39918" lon="1.25653">
        <ele>189.4</ele>
        <time>2022-11-20T08:55:46Z</time>
      </trkpt>
      <trkpt lat="43.39865" lon="1.25628">
        <ele>189.8</ele>
        <time>2022-11-20T08:55:53Z</time>
      </trkpt>
      <trkpt lat="43.39835" lon="1.25614">
        <ele>190</ele>
        <time>2022-11-20T08:55:57Z</time>
      </trkpt>
      <trkpt lat="43.39779" lon="1.25587">
        <ele>190</ele>
        <time>2022-11-20T08:56:05Z</time>
      </trkpt>
      <trkpt lat="43.39765" lon="1.2558">
        <ele>190</ele>
        <time>2022-11-20T08:56:07Z</time>
      </trkpt>
      <trkpt lat="43.39728" lon="1.25556">
        <ele>190</ele>
        <time>2022-11-20T08:56:13Z</time>
      </trkpt>
      <trkpt lat="43.39705" lon="1.25535">
        <ele>190.2</ele>
        <time>2022-11-20T08:56:18Z</time>
      </trkpt>
      <trkpt lat="43.39701" lon="1.2553">
        <ele>190.4</ele>
        <time>2022-11-20T08:56:19Z</time>
      </trkpt>
      <trkpt lat="43.39696" lon="1.25527">
        <ele>190.4</ele>
        <time>2022-11-20T08:56:20Z</time>
      </trkpt>
      <trkpt lat="43.39691" lon="1.25527">
        <ele>190.6</ele>
        <time>2022-11-20T08:56:21Z</time>
      </trkpt>
      <trkpt lat="43.39686" lon="1.25529">
        <ele>190.8</ele>
        <time>2022-11-20T08:56:22Z</time>
      </trkpt>
      <trkpt lat="43.39678" lon="1.25539">
        <ele>191</ele>
        <time>2022-11-20T08:56:24Z</time>
      </trkpt>
      <trkpt lat="43.39677" lon="1.25545">
        <ele>191.2</ele>
        <time>2022-11-20T08:56:25Z</time>
      </trkpt>
      <trkpt lat="43.39675" lon="1.25552">
        <ele>191.4</ele>
        <time>2022-11-20T08:56:26Z</time>
      </trkpt>
      <trkpt lat="43.39668" lon="1.25561">
        <ele>191.8</ele>
        <time>2022-11-20T08:56:28Z</time>
      </trkpt>
      <trkpt lat="43.39659" lon="1.2557">
        <ele>192.2</ele>
        <time>2022-11-20T08:56:30Z</time>
      </trkpt>
      <trkpt lat="43.39646" lon="1.25586">
        <ele>192.8</ele>
        <time>2022-11-20T08:56:33Z</time>
      </trkpt>
      <trkpt lat="43.39642" lon="1.25592">
        <ele>193.2</ele>
        <time>2022-11-20T08:56:34Z</time>
      </trkpt>
      <trkpt lat="43.39634" lon="1.25607">
        <ele>193.8</ele>
        <time>2022-11-20T08:56:36Z</time>
      </trkpt>
      <trkpt lat="43.39631" lon="1.25615">
        <ele>193.8</ele>
        <time>2022-11-20T08:56:37Z</time>
      </trkpt>
      <trkpt lat="43.39629" lon="1.25623">
        <ele>194.2</ele>
        <time>2022-11-20T08:56:38Z</time>
      </trkpt>
      <trkpt lat="43.39625" lon="1.2564">
        <ele>194.4</ele>
        <time>2022-11-20T08:56:40Z</time>
      </trkpt>
      <trkpt lat="43.39622" lon="1.25654">
        <ele>194.6</ele>
        <time>2022-11-20T08:56:42Z</time>
      </trkpt>
      <trkpt lat="43.39614" lon="1.25662">
        <ele>194.8</ele>
        <time>2022-11-20T08:56:44Z</time>
      </trkpt>
      <trkpt lat="43.39609" lon="1.25662">
        <ele>195</ele>
        <time>2022-11-20T08:56:45Z</time>
      </trkpt>
      <trkpt lat="43.39604" lon="1.25659">
        <ele>195</ele>
        <time>2022-11-20T08:56:46Z</time>
      </trkpt>
      <trkpt lat="43.39595" lon="1.25652">
        <ele>195.4</ele>
        <time>2022-11-20T08:56:48Z</time>
      </trkpt>
      <trkpt lat="43.39591" lon="1.25647">
        <ele>195.8</ele>
        <time>2022-11-20T08:56:49Z</time>
      </trkpt>
      <trkpt lat="43.39586" lon="1.25642">
        <ele>196</ele>
        <time>2022-11-20T08:56:50Z</time>
      </trkpt>
      <trkpt lat="43.39577" lon="1.25631">
        <ele>196.4</ele>
        <time>2022-11-20T08:56:52Z</time>
      </trkpt>
      <trkpt lat="43.39568" lon="1.25618">
        <ele>197</ele>
        <time>2022-11-20T08:56:54Z</time>
      </trkpt>
      <trkpt lat="43.39564" lon="1.25612">
        <ele>197.2</ele>
        <time>2022-11-20T08:56:55Z</time>
      </trkpt>
      <trkpt lat="43.39533" lon="1.25563">
        <ele>198.2</ele>
        <time>2022-11-20T08:57:02Z</time>
      </trkpt>
      <trkpt lat="43.39524" lon="1.25549">
        <ele>198.2</ele>
        <time>2022-11-20T08:57:04Z</time>
      </trkpt>
      <trkpt lat="43.3949" lon="1.25498">
        <ele>198.8</ele>
        <time>2022-11-20T08:57:11Z</time>
      </trkpt>
      <trkpt lat="43.39451" lon="1.25442">
        <ele>198.8</ele>
        <time>2022-11-20T08:57:19Z</time>
      </trkpt>
      <trkpt lat="43.39416" lon="1.25406">
        <ele>199</ele>
        <time>2022-11-20T08:57:25Z</time>
      </trkpt>
      <trkpt lat="43.39409" lon="1.25401">
        <ele>199</ele>
        <time>2022-11-20T08:57:26Z</time>
      </trkpt>
      <trkpt lat="43.39358" lon="1.25374">
        <ele>199.4</ele>
        <time>2022-11-20T08:57:33Z</time>
      </trkpt>
      <trkpt lat="43.39306" lon="1.25351">
        <ele>200</ele>
        <time>2022-11-20T08:57:40Z</time>
      </trkpt>
      <trkpt lat="43.39291" lon="1.25344">
        <ele>200</ele>
        <time>2022-11-20T08:57:42Z</time>
      </trkpt>
      <trkpt lat="43.39262" lon="1.25329">
        <ele>200</ele>
        <time>2022-11-20T08:57:46Z</time>
      </trkpt>
      <trkpt lat="43.39235" lon="1.25313">
        <ele>200</ele>
        <time>2022-11-20T08:57:50Z</time>
      </trkpt>
      <trkpt lat="43.39182" lon="1.25281">
        <ele>200.2</ele>
        <time>2022-11-20T08:57:58Z</time>
      </trkpt>
      <trkpt lat="43.39136" lon="1.25252">
        <ele>200</ele>
        <time>2022-11-20T08:58:05Z</time>
      </trkpt>
      <trkpt lat="43.39105" lon="1.25232">
        <ele>200.6</ele>
        <time>2022-11-20T08:58:10Z</time>
      </trkpt>
      <trkpt lat="43.39092" lon="1.25227">
        <ele>200.6</ele>
        <time>2022-11-20T08:58:12Z</time>
      </trkpt>
      <trkpt lat="43.39081" lon="1.25216">
        <ele>200.6</ele>
        <time>2022-11-20T08:58:14Z</time>
      </trkpt>
      <trkpt lat="43.39077" lon="1.25208">
        <ele>200.6</ele>
        <time>2022-11-20T08:58:15Z</time>
      </trkpt>
      <trkpt lat="43.39055" lon="1.25163">
        <ele>200.4</ele>
        <time>2022-11-20T08:58:20Z</time>
      </trkpt>
      <trkpt lat="43.39024" lon="1.2511">
        <ele>200.2</ele>
        <time>2022-11-20T08:58:26Z</time>
      </trkpt>
      <trkpt lat="43.38983" lon="1.2506">
        <ele>200</ele>
        <time>2022-11-20T08:58:33Z</time>
      </trkpt>
      <trkpt lat="43.38977" lon="1.25054">
        <ele>200</ele>
        <time>2022-11-20T08:58:34Z</time>
      </trkpt>
      <trkpt lat="43.38943" lon="1.25017">
        <ele>199.4</ele>
        <time>2022-11-20T08:58:40Z</time>
      </trkpt>
      <trkpt lat="43.38934" lon="1.25003">
        <ele>199.4</ele>
        <time>2022-11-20T08:58:42Z</time>
      </trkpt>
      <trkpt lat="43.38929" lon="1.24996">
        <ele>199.4</ele>
        <time>2022-11-20T08:58:43Z</time>
      </trkpt>
      <trkpt lat="43.38916" lon="1.24989">
        <ele>199.4</ele>
        <time>2022-11-20T08:58:45Z</time>
      </trkpt>
      <trkpt lat="43.38871" lon="1.24972">
        <ele>199.6</ele>
        <time>2022-11-20T08:58:51Z</time>
      </trkpt>
      <trkpt lat="43.38818" lon="1.24944">
        <ele>199.8</ele>
        <time>2022-11-20T08:58:58Z</time>
      </trkpt>
      <trkpt lat="43.3881" lon="1.24941">
        <ele>199.8</ele>
        <time>2022-11-20T08:58:59Z</time>
      </trkpt>
      <trkpt lat="43.38753" lon="1.24928">
        <ele>200</ele>
        <time>2022-11-20T08:59:06Z</time>
      </trkpt>
      <trkpt lat="43.38691" lon="1.24917">
        <ele>200.4</ele>
        <time>2022-11-20T08:59:14Z</time>
      </trkpt>
      <trkpt lat="43.38683" lon="1.24915">
        <ele>200.4</ele>
        <time>2022-11-20T08:59:15Z</time>
      </trkpt>
      <trkpt lat="43.38635" lon="1.24896">
        <ele>200.4</ele>
        <time>2022-11-20T08:59:21Z</time>
      </trkpt>
      <trkpt lat="43.38597" lon="1.24877">
        <ele>200.4</ele>
        <time>2022-11-20T08:59:26Z</time>
      </trkpt>
      <trkpt lat="43.3859" lon="1.24872">
        <ele>200.4</ele>
        <time>2022-11-20T08:59:27Z</time>
      </trkpt>
      <trkpt lat="43.38539" lon="1.24831">
        <ele>199.8</ele>
        <time>2022-11-20T08:59:34Z</time>
      </trkpt>
      <trkpt lat="43.38526" lon="1.2482">
        <ele>199.8</ele>
        <time>2022-11-20T08:59:36Z</time>
      </trkpt>
      <trkpt lat="43.38479" lon="1.24781">
        <ele>200.2</ele>
        <time>2022-11-20T08:59:43Z</time>
      </trkpt>
      <trkpt lat="43.38473" lon="1.24775">
        <ele>200.2</ele>
        <time>2022-11-20T08:59:44Z</time>
      </trkpt>
      <trkpt lat="43.38426" lon="1.24737">
        <ele>200.4</ele>
        <time>2022-11-20T08:59:51Z</time>
      </trkpt>
      <trkpt lat="43.38398" lon="1.24713">
        <ele>200.6</ele>
        <time>2022-11-20T08:59:55Z</time>
      </trkpt>
      <trkpt lat="43.38348" lon="1.24663">
        <ele>200.6</ele>
        <time>2022-11-20T09:00:03Z</time>
      </trkpt>
      <trkpt lat="43.38336" lon="1.24651">
        <ele>200.6</ele>
        <time>2022-11-20T09:00:05Z</time>
      </trkpt>
      <trkpt lat="43.38316" lon="1.24633">
        <ele>200.8</ele>
        <time>2022-11-20T09:00:08Z</time>
      </trkpt>
      <trkpt lat="43.38281" lon="1.24609">
        <ele>201</ele>
        <time>2022-11-20T09:00:13Z</time>
      </trkpt>
      <trkpt lat="43.38226" lon="1.24579">
        <ele>201.4</ele>
        <time>2022-11-20T09:00:21Z</time>
      </trkpt>
      <trkpt lat="43.38205" lon="1.24569">
        <ele>201.4</ele>
        <time>2022-11-20T09:00:24Z</time>
      </trkpt>
      <trkpt lat="43.38152" lon="1.24542">
        <ele>201.8</ele>
        <time>2022-11-20T09:00:31Z</time>
      </trkpt>
      <trkpt lat="43.38129" lon="1.2453">
        <ele>201.8</ele>
        <time>2022-11-20T09:00:34Z</time>
      </trkpt>
      <trkpt lat="43.38114" lon="1.24522">
        <ele>201.8</ele>
        <time>2022-11-20T09:00:36Z</time>
      </trkpt>
      <trkpt lat="43.38062" lon="1.24495">
        <ele>202.2</ele>
        <time>2022-11-20T09:00:43Z</time>
      </trkpt>
      <trkpt lat="43.38048" lon="1.24487">
        <ele>202.6</ele>
        <time>2022-11-20T09:00:45Z</time>
      </trkpt>
      <trkpt lat="43.38019" lon="1.24473">
        <ele>203</ele>
        <time>2022-11-20T09:00:49Z</time>
      </trkpt>
      <trkpt lat="43.37996" lon="1.24465">
        <ele>203</ele>
        <time>2022-11-20T09:00:52Z</time>
      </trkpt>
      <trkpt lat="43.37942" lon="1.24441">
        <ele>203</ele>
        <time>2022-11-20T09:00:59Z</time>
      </trkpt>
      <trkpt lat="43.37935" lon="1.24437">
        <ele>203</ele>
        <time>2022-11-20T09:01:00Z</time>
      </trkpt>
      <trkpt lat="43.37902" lon="1.24406">
        <ele>203.2</ele>
        <time>2022-11-20T09:01:05Z</time>
      </trkpt>
      <trkpt lat="43.37859" lon="1.24356">
        <ele>203.4</ele>
        <time>2022-11-20T09:01:12Z</time>
      </trkpt>
      <trkpt lat="43.3781" lon="1.24305">
        <ele>203.8</ele>
        <time>2022-11-20T09:01:20Z</time>
      </trkpt>
      <trkpt lat="43.37804" lon="1.24301">
        <ele>203.8</ele>
        <time>2022-11-20T09:01:21Z</time>
      </trkpt>
      <trkpt lat="43.37765" lon="1.24281">
        <ele>203.6</ele>
        <time>2022-11-20T09:01:27Z</time>
      </trkpt>
      <trkpt lat="43.37713" lon="1.24259">
        <ele>203.6</ele>
        <time>2022-11-20T09:01:35Z</time>
      </trkpt>
      <trkpt lat="43.37693" lon="1.2425">
        <ele>203.8</ele>
        <time>2022-11-20T09:01:38Z</time>
      </trkpt>
      <trkpt lat="43.37639" lon="1.24224">
        <ele>203.8</ele>
        <time>2022-11-20T09:01:46Z</time>
      </trkpt>
      <trkpt lat="43.37626" lon="1.24217">
        <ele>203.8</ele>
        <time>2022-11-20T09:01:48Z</time>
      </trkpt>
      <trkpt lat="43.37571" lon="1.24185">
        <ele>204</ele>
        <time>2022-11-20T09:01:56Z</time>
      </trkpt>
      <trkpt lat="43.37564" lon="1.2418">
        <ele>204.2</ele>
        <time>2022-11-20T09:01:57Z</time>
      </trkpt>
      <trkpt lat="43.37512" lon="1.24138">
        <ele>204.4</ele>
        <time>2022-11-20T09:02:05Z</time>
      </trkpt>
      <trkpt lat="43.37467" lon="1.24096">
        <ele>204.4</ele>
        <time>2022-11-20T09:02:12Z</time>
      </trkpt>
      <trkpt lat="43.37447" lon="1.2408">
        <ele>204.4</ele>
        <time>2022-11-20T09:02:15Z</time>
      </trkpt>
      <trkpt lat="43.3744" lon="1.24074">
        <ele>204.4</ele>
        <time>2022-11-20T09:02:16Z</time>
      </trkpt>
      <trkpt lat="43.37392" lon="1.24035">
        <ele>204.8</ele>
        <time>2022-11-20T09:02:23Z</time>
      </trkpt>
      <trkpt lat="43.37379" lon="1.24025">
        <ele>205</ele>
        <time>2022-11-20T09:02:25Z</time>
      </trkpt>
      <trkpt lat="43.3733" lon="1.23991">
        <ele>205</ele>
        <time>2022-11-20T09:02:32Z</time>
      </trkpt>
      <trkpt lat="43.37301" lon="1.23971">
        <ele>205</ele>
        <time>2022-11-20T09:02:36Z</time>
      </trkpt>
      <trkpt lat="43.37247" lon="1.23935">
        <ele>205</ele>
        <time>2022-11-20T09:02:44Z</time>
      </trkpt>
      <trkpt lat="43.37241" lon="1.2393">
        <ele>205</ele>
        <time>2022-11-20T09:02:45Z</time>
      </trkpt>
      <trkpt lat="43.372" lon="1.23896">
        <ele>205</ele>
        <time>2022-11-20T09:02:52Z</time>
      </trkpt>
      <trkpt lat="43.3715" lon="1.23851">
        <ele>205.4</ele>
        <time>2022-11-20T09:03:01Z</time>
      </trkpt>
      <trkpt lat="43.37133" lon="1.23835">
        <ele>205.4</ele>
        <time>2022-11-20T09:03:04Z</time>
      </trkpt>
      <trkpt lat="43.37086" lon="1.2379">
        <ele>205.6</ele>
        <time>2022-11-20T09:03:12Z</time>
      </trkpt>
      <trkpt lat="43.37081" lon="1.23784">
        <ele>205.6</ele>
        <time>2022-11-20T09:03:13Z</time>
      </trkpt>
      <trkpt lat="43.37035" lon="1.23736">
        <ele>205.4</ele>
        <time>2022-11-20T09:03:21Z</time>
      </trkpt>
      <trkpt lat="43.3703" lon="1.23729">
        <ele>205.4</ele>
        <time>2022-11-20T09:03:22Z</time>
      </trkpt>
      <trkpt lat="43.36986" lon="1.23678">
        <ele>205.6</ele>
        <time>2022-11-20T09:03:30Z</time>
      </trkpt>
      <trkpt lat="43.3697" lon="1.23657">
        <ele>205.6</ele>
        <time>2022-11-20T09:03:33Z</time>
      </trkpt>
      <trkpt lat="43.3693" lon="1.23598">
        <ele>205.8</ele>
        <time>2022-11-20T09:03:41Z</time>
      </trkpt>
      <trkpt lat="43.36915" lon="1.23575">
        <ele>206</ele>
        <time>2022-11-20T09:03:44Z</time>
      </trkpt>
      <trkpt lat="43.36876" lon="1.23517">
        <ele>206</ele>
        <time>2022-11-20T09:03:52Z</time>
      </trkpt>
      <trkpt lat="43.36871" lon="1.23509">
        <ele>206</ele>
        <time>2022-11-20T09:03:53Z</time>
      </trkpt>
      <trkpt lat="43.36833" lon="1.23448">
        <ele>206.4</ele>
        <time>2022-11-20T09:04:01Z</time>
      </trkpt>
      <trkpt lat="43.36801" lon="1.23379">
        <ele>206.4</ele>
        <time>2022-11-20T09:04:09Z</time>
      </trkpt>
      <trkpt lat="43.36777" lon="1.23303">
        <ele>206.8</ele>
        <time>2022-11-20T09:04:17Z</time>
      </trkpt>
      <trkpt lat="43.36773" lon="1.23293">
        <ele>206.8</ele>
        <time>2022-11-20T09:04:18Z</time>
      </trkpt>
      <trkpt lat="43.36761" lon="1.23265">
        <ele>207</ele>
        <time>2022-11-20T09:04:21Z</time>
      </trkpt>
      <trkpt lat="43.36741" lon="1.23231">
        <ele>207</ele>
        <time>2022-11-20T09:04:25Z</time>
      </trkpt>
      <trkpt lat="43.36698" lon="1.23171">
        <ele>207.4</ele>
        <time>2022-11-20T09:04:33Z</time>
      </trkpt>
      <trkpt lat="43.36692" lon="1.23164">
        <ele>207.4</ele>
        <time>2022-11-20T09:04:34Z</time>
      </trkpt>
      <trkpt lat="43.36646" lon="1.2311">
        <ele>207.6</ele>
        <time>2022-11-20T09:04:42Z</time>
      </trkpt>
      <trkpt lat="43.3664" lon="1.23104">
        <ele>207.6</ele>
        <time>2022-11-20T09:04:43Z</time>
      </trkpt>
      <trkpt lat="43.36594" lon="1.23055">
        <ele>207.6</ele>
        <time>2022-11-20T09:04:51Z</time>
      </trkpt>
      <trkpt lat="43.36582" lon="1.23043">
        <ele>207.6</ele>
        <time>2022-11-20T09:04:53Z</time>
      </trkpt>
      <trkpt lat="43.36538" lon="1.22992">
        <ele>207.8</ele>
        <time>2022-11-20T09:05:01Z</time>
      </trkpt>
      <trkpt lat="43.36527" lon="1.22978">
        <ele>207.8</ele>
        <time>2022-11-20T09:05:03Z</time>
      </trkpt>
      <trkpt lat="43.36483" lon="1.22921">
        <ele>207.4</ele>
        <time>2022-11-20T09:05:11Z</time>
      </trkpt>
      <trkpt lat="43.36472" lon="1.22907">
        <ele>207.6</ele>
        <time>2022-11-20T09:05:13Z</time>
      </trkpt>
      <trkpt lat="43.3643" lon="1.22849">
        <ele>207.8</ele>
        <time>2022-11-20T09:05:21Z</time>
      </trkpt>
      <trkpt lat="43.36424" lon="1.22842">
        <ele>208</ele>
        <time>2022-11-20T09:05:22Z</time>
      </trkpt>
      <trkpt lat="43.36375" lon="1.22794">
        <ele>208</ele>
        <time>2022-11-20T09:05:30Z</time>
      </trkpt>
      <trkpt lat="43.36363" lon="1.22782">
        <ele>208</ele>
        <time>2022-11-20T09:05:32Z</time>
      </trkpt>
      <trkpt lat="43.36315" lon="1.22733">
        <ele>208.4</ele>
        <time>2022-11-20T09:05:40Z</time>
      </trkpt>
      <trkpt lat="43.36296" lon="1.22713">
        <ele>208.4</ele>
        <time>2022-11-20T09:05:43Z</time>
      </trkpt>
      <trkpt lat="43.36267" lon="1.22678">
        <ele>208.8</ele>
        <time>2022-11-20T09:05:48Z</time>
      </trkpt>
      <trkpt lat="43.36238" lon="1.22644">
        <ele>209.2</ele>
        <time>2022-11-20T09:05:53Z</time>
      </trkpt>
      <trkpt lat="43.36193" lon="1.22587">
        <ele>209.8</ele>
        <time>2022-11-20T09:06:01Z</time>
      </trkpt>
      <trkpt lat="43.36176" lon="1.22566">
        <ele>209.6</ele>
        <time>2022-11-20T09:06:04Z</time>
      </trkpt>
      <trkpt lat="43.36143" lon="1.22525">
        <ele>209.8</ele>
        <time>2022-11-20T09:06:10Z</time>
      </trkpt>
      <trkpt lat="43.36121" lon="1.22498">
        <ele>209.8</ele>
        <time>2022-11-20T09:06:14Z</time>
      </trkpt>
      <trkpt lat="43.36078" lon="1.22445">
        <ele>209.4</ele>
        <time>2022-11-20T09:06:22Z</time>
      </trkpt>
      <trkpt lat="43.36067" lon="1.22431">
        <ele>209.4</ele>
        <time>2022-11-20T09:06:24Z</time>
      </trkpt>
      <trkpt lat="43.36061" lon="1.22425">
        <ele>209.4</ele>
        <time>2022-11-20T09:06:25Z</time>
      </trkpt>
      <trkpt lat="43.36017" lon="1.2237">
        <ele>209.6</ele>
        <time>2022-11-20T09:06:33Z</time>
      </trkpt>
      <trkpt lat="43.36001" lon="1.22349">
        <ele>209.8</ele>
        <time>2022-11-20T09:06:36Z</time>
      </trkpt>
      <trkpt lat="43.35956" lon="1.22296">
        <ele>210</ele>
        <time>2022-11-20T09:06:44Z</time>
      </trkpt>
      <trkpt lat="43.35944" lon="1.22284">
        <ele>210.2</ele>
        <time>2022-11-20T09:06:46Z</time>
      </trkpt>
      <trkpt lat="43.35896" lon="1.22233">
        <ele>210.4</ele>
        <time>2022-11-20T09:06:54Z</time>
      </trkpt>
      <trkpt lat="43.35877" lon="1.22213">
        <ele>210.6</ele>
        <time>2022-11-20T09:06:57Z</time>
      </trkpt>
      <trkpt lat="43.35831" lon="1.22166">
        <ele>210.6</ele>
        <time>2022-11-20T09:07:05Z</time>
      </trkpt>
      <trkpt lat="43.3579" lon="1.22123">
        <ele>211</ele>
        <time>2022-11-20T09:07:12Z</time>
      </trkpt>
      <trkpt lat="43.35785" lon="1.22116">
        <ele>211</ele>
        <time>2022-11-20T09:07:13Z</time>
      </trkpt>
      <trkpt lat="43.35766" lon="1.22079">
        <ele>211.2</ele>
        <time>2022-11-20T09:07:18Z</time>
      </trkpt>
      <trkpt lat="43.35753" lon="1.22062">
        <ele>211.2</ele>
        <time>2022-11-20T09:07:21Z</time>
      </trkpt>
      <trkpt lat="43.35749" lon="1.22056">
        <ele>211.2</ele>
        <time>2022-11-20T09:07:22Z</time>
      </trkpt>
      <trkpt lat="43.35742" lon="1.22044">
        <ele>210.8</ele>
        <time>2022-11-20T09:07:24Z</time>
      </trkpt>
      <trkpt lat="43.3574" lon="1.2203">
        <ele>210.6</ele>
        <time>2022-11-20T09:07:26Z</time>
      </trkpt>
      <trkpt lat="43.3574" lon="1.22013">
        <ele>210.6</ele>
        <time>2022-11-20T09:07:29Z</time>
      </trkpt>
      <trkpt lat="43.35738" lon="1.22011">
        <ele>210.6</ele>
        <time>2022-11-20T09:07:30Z</time>
      </trkpt>
      <trkpt lat="43.35736" lon="1.22015">
        <ele>210.6</ele>
        <time>2022-11-20T09:07:32Z</time>
      </trkpt>
      <trkpt lat="43.35734" lon="1.2203">
        <ele>210.6</ele>
        <time>2022-11-20T09:07:35Z</time>
      </trkpt>
      <trkpt lat="43.35732" lon="1.22036">
        <ele>210.6</ele>
        <time>2022-11-20T09:07:36Z</time>
      </trkpt>
      <trkpt lat="43.35729" lon="1.22041">
        <ele>210.6</ele>
        <time>2022-11-20T09:07:37Z</time>
      </trkpt>
      <trkpt lat="43.35719" lon="1.22046">
        <ele>210.6</ele>
        <time>2022-11-20T09:07:39Z</time>
      </trkpt>
      <trkpt lat="43.35708" lon="1.22041">
        <ele>210.6</ele>
        <time>2022-11-20T09:07:41Z</time>
      </trkpt>
      <trkpt lat="43.35703" lon="1.22034">
        <ele>210.6</ele>
        <time>2022-11-20T09:07:42Z</time>
      </trkpt>
      <trkpt lat="43.35669" lon="1.21985">
        <ele>210.8</ele>
        <time>2022-11-20T09:07:49Z</time>
      </trkpt>
      <trkpt lat="43.35625" lon="1.21941">
        <ele>211</ele>
        <time>2022-11-20T09:07:56Z</time>
      </trkpt>
      <trkpt lat="43.35578" lon="1.21898">
        <ele>211</ele>
        <time>2022-11-20T09:08:03Z</time>
      </trkpt>
      <trkpt lat="43.35571" lon="1.21893">
        <ele>211</ele>
        <time>2022-11-20T09:08:04Z</time>
      </trkpt>
      <trkpt lat="43.35519" lon="1.21853">
        <ele>211.4</ele>
        <time>2022-11-20T09:08:11Z</time>
      </trkpt>
      <trkpt lat="43.35496" lon="1.21836">
        <ele>211.6</ele>
        <time>2022-11-20T09:08:14Z</time>
      </trkpt>
      <trkpt lat="43.35445" lon="1.21791">
        <ele>211.8</ele>
        <time>2022-11-20T09:08:21Z</time>
      </trkpt>
      <trkpt lat="43.35432" lon="1.21778">
        <ele>211.8</ele>
        <time>2022-11-20T09:08:23Z</time>
      </trkpt>
      <trkpt lat="43.35392" lon="1.21728">
        <ele>211.8</ele>
        <time>2022-11-20T09:08:30Z</time>
      </trkpt>
      <trkpt lat="43.35386" lon="1.21721">
        <ele>211.8</ele>
        <time>2022-11-20T09:08:31Z</time>
      </trkpt>
      <trkpt lat="43.35347" lon="1.21669">
        <ele>212</ele>
        <time>2022-11-20T09:08:38Z</time>
      </trkpt>
      <trkpt lat="43.35331" lon="1.21647">
        <ele>212</ele>
        <time>2022-11-20T09:08:41Z</time>
      </trkpt>
      <trkpt lat="43.35287" lon="1.21589">
        <ele>212.2</ele>
        <time>2022-11-20T09:08:49Z</time>
      </trkpt>
      <trkpt lat="43.35276" lon="1.21574">
        <ele>212.2</ele>
        <time>2022-11-20T09:08:51Z</time>
      </trkpt>
      <trkpt lat="43.35237" lon="1.21522">
        <ele>212.4</ele>
        <time>2022-11-20T09:08:58Z</time>
      </trkpt>
      <trkpt lat="43.35219" lon="1.215">
        <ele>212.4</ele>
        <time>2022-11-20T09:09:01Z</time>
      </trkpt>
      <trkpt lat="43.35171" lon="1.2145">
        <ele>212.2</ele>
        <time>2022-11-20T09:09:09Z</time>
      </trkpt>
      <trkpt lat="43.35165" lon="1.21444">
        <ele>212</ele>
        <time>2022-11-20T09:09:10Z</time>
      </trkpt>
      <trkpt lat="43.35117" lon="1.21411">
        <ele>212</ele>
        <time>2022-11-20T09:09:17Z</time>
      </trkpt>
      <trkpt lat="43.35065" lon="1.21384">
        <ele>212.2</ele>
        <time>2022-11-20T09:09:24Z</time>
      </trkpt>
      <trkpt lat="43.35026" lon="1.21366">
        <ele>212.6</ele>
        <time>2022-11-20T09:09:30Z</time>
      </trkpt>
      <trkpt lat="43.34969" lon="1.21337">
        <ele>212.6</ele>
        <time>2022-11-20T09:09:38Z</time>
      </trkpt>
      <trkpt lat="43.34963" lon="1.21333">
        <ele>212.8</ele>
        <time>2022-11-20T09:09:39Z</time>
      </trkpt>
      <trkpt lat="43.34949" lon="1.21323">
        <ele>212.8</ele>
        <time>2022-11-20T09:09:41Z</time>
      </trkpt>
      <trkpt lat="43.34908" lon="1.21293">
        <ele>213</ele>
        <time>2022-11-20T09:09:47Z</time>
      </trkpt>
      <trkpt lat="43.34854" lon="1.21257">
        <ele>213</ele>
        <time>2022-11-20T09:09:55Z</time>
      </trkpt>
      <trkpt lat="43.34848" lon="1.21252">
        <ele>213</ele>
        <time>2022-11-20T09:09:56Z</time>
      </trkpt>
      <trkpt lat="43.34796" lon="1.21207">
        <ele>213.2</ele>
        <time>2022-11-20T09:10:04Z</time>
      </trkpt>
      <trkpt lat="43.34789" lon="1.21201">
        <ele>213.4</ele>
        <time>2022-11-20T09:10:05Z</time>
      </trkpt>
      <trkpt lat="43.34743" lon="1.2116">
        <ele>213.8</ele>
        <time>2022-11-20T09:10:12Z</time>
      </trkpt>
      <trkpt lat="43.34725" lon="1.21143">
        <ele>214</ele>
        <time>2022-11-20T09:10:15Z</time>
      </trkpt>
      <trkpt lat="43.34712" lon="1.21132">
        <ele>214</ele>
        <time>2022-11-20T09:10:17Z</time>
      </trkpt>
      <trkpt lat="43.34666" lon="1.2109">
        <ele>214.4</ele>
        <time>2022-11-20T09:10:24Z</time>
      </trkpt>
      <trkpt lat="43.34628" lon="1.21056">
        <ele>214.6</ele>
        <time>2022-11-20T09:10:30Z</time>
      </trkpt>
      <trkpt lat="43.34585" lon="1.21018">
        <ele>214.8</ele>
        <time>2022-11-20T09:10:37Z</time>
      </trkpt>
      <trkpt lat="43.34566" lon="1.21001">
        <ele>215</ele>
        <time>2022-11-20T09:10:40Z</time>
      </trkpt>
      <trkpt lat="43.34517" lon="1.20958">
        <ele>215.4</ele>
        <time>2022-11-20T09:10:48Z</time>
      </trkpt>
      <trkpt lat="43.34466" lon="1.20912">
        <ele>215.6</ele>
        <time>2022-11-20T09:10:56Z</time>
      </trkpt>
      <trkpt lat="43.34449" lon="1.20896">
        <ele>215.6</ele>
        <time>2022-11-20T09:10:59Z</time>
      </trkpt>
      <trkpt lat="43.344" lon="1.20853">
        <ele>215.8</ele>
        <time>2022-11-20T09:11:07Z</time>
      </trkpt>
      <trkpt lat="43.34394" lon="1.20847">
        <ele>215.8</ele>
        <time>2022-11-20T09:11:08Z</time>
      </trkpt>
      <trkpt lat="43.34344" lon="1.20803">
        <ele>215.6</ele>
        <time>2022-11-20T09:11:16Z</time>
      </trkpt>
      <trkpt lat="43.34338" lon="1.20798">
        <ele>215.6</ele>
        <time>2022-11-20T09:11:17Z</time>
      </trkpt>
      <trkpt lat="43.34292" lon="1.20757">
        <ele>215.8</ele>
        <time>2022-11-20T09:11:24Z</time>
      </trkpt>
      <trkpt lat="43.34264" lon="1.20733">
        <ele>215.8</ele>
        <time>2022-11-20T09:11:28Z</time>
      </trkpt>
      <trkpt lat="43.34218" lon="1.20691">
        <ele>215.8</ele>
        <time>2022-11-20T09:11:35Z</time>
      </trkpt>
      <trkpt lat="43.34206" lon="1.20679">
        <ele>216</ele>
        <time>2022-11-20T09:11:37Z</time>
      </trkpt>
      <trkpt lat="43.34185" lon="1.20661">
        <ele>216</ele>
        <time>2022-11-20T09:11:40Z</time>
      </trkpt>
      <trkpt lat="43.34146" lon="1.20627">
        <ele>216</ele>
        <time>2022-11-20T09:11:46Z</time>
      </trkpt>
      <trkpt lat="43.34098" lon="1.20591">
        <ele>216.2</ele>
        <time>2022-11-20T09:11:53Z</time>
      </trkpt>
      <trkpt lat="43.34064" lon="1.20563">
        <ele>216.2</ele>
        <time>2022-11-20T09:11:58Z</time>
      </trkpt>
      <trkpt lat="43.34014" lon="1.20522">
        <ele>216.6</ele>
        <time>2022-11-20T09:12:05Z</time>
      </trkpt>
      <trkpt lat="43.33994" lon="1.20507">
        <ele>216.6</ele>
        <time>2022-11-20T09:12:08Z</time>
      </trkpt>
      <trkpt lat="43.33943" lon="1.20466">
        <ele>216.4</ele>
        <time>2022-11-20T09:12:16Z</time>
      </trkpt>
      <trkpt lat="43.33936" lon="1.2046">
        <ele>216.4</ele>
        <time>2022-11-20T09:12:17Z</time>
      </trkpt>
      <trkpt lat="43.33887" lon="1.20414">
        <ele>216.6</ele>
        <time>2022-11-20T09:12:25Z</time>
      </trkpt>
      <trkpt lat="43.33863" lon="1.20393">
        <ele>216.4</ele>
        <time>2022-11-20T09:12:29Z</time>
      </trkpt>
      <trkpt lat="43.33813" lon="1.20347">
        <ele>215.8</ele>
        <time>2022-11-20T09:12:37Z</time>
      </trkpt>
      <trkpt lat="43.33793" lon="1.20329">
        <ele>215.8</ele>
        <time>2022-11-20T09:12:40Z</time>
      </trkpt>
      <trkpt lat="43.33747" lon="1.20289">
        <ele>216</ele>
        <time>2022-11-20T09:12:47Z</time>
      </trkpt>
      <trkpt lat="43.33719" lon="1.20267">
        <ele>216</ele>
        <time>2022-11-20T09:12:51Z</time>
      </trkpt>
      <trkpt lat="43.33667" lon="1.20226">
        <ele>216</ele>
        <time>2022-11-20T09:12:58Z</time>
      </trkpt>
      <trkpt lat="43.33613" lon="1.20188">
        <ele>216.4</ele>
        <time>2022-11-20T09:13:05Z</time>
      </trkpt>
      <trkpt lat="43.33585" lon="1.20168">
        <ele>216.4</ele>
        <time>2022-11-20T09:13:09Z</time>
      </trkpt>
      <trkpt lat="43.33536" lon="1.20135">
        <ele>216.6</ele>
        <time>2022-11-20T09:13:16Z</time>
      </trkpt>
      <trkpt lat="43.33522" lon="1.20125">
        <ele>216.6</ele>
        <time>2022-11-20T09:13:18Z</time>
      </trkpt>
      <trkpt lat="43.33477" lon="1.20095">
        <ele>217</ele>
        <time>2022-11-20T09:13:25Z</time>
      </trkpt>
      <trkpt lat="43.33472" lon="1.20091">
        <ele>217</ele>
        <time>2022-11-20T09:13:26Z</time>
      </trkpt>
      <trkpt lat="43.33457" lon="1.20079">
        <ele>217.2</ele>
        <time>2022-11-20T09:13:29Z</time>
      </trkpt>
      <trkpt lat="43.33453" lon="1.20074">
        <ele>217.2</ele>
        <time>2022-11-20T09:13:30Z</time>
      </trkpt>
      <trkpt lat="43.33449" lon="1.20068">
        <ele>217</ele>
        <time>2022-11-20T09:13:31Z</time>
      </trkpt>
      <trkpt lat="43.33441" lon="1.20056">
        <ele>217</ele>
        <time>2022-11-20T09:13:33Z</time>
      </trkpt>
      <trkpt lat="43.3343" lon="1.2005">
        <ele>216.8</ele>
        <time>2022-11-20T09:13:35Z</time>
      </trkpt>
      <trkpt lat="43.33423" lon="1.20048">
        <ele>216.8</ele>
        <time>2022-11-20T09:13:36Z</time>
      </trkpt>
      <trkpt lat="43.33417" lon="1.20045">
        <ele>216.8</ele>
        <time>2022-11-20T09:13:37Z</time>
      </trkpt>
      <trkpt lat="43.33397" lon="1.20031">
        <ele>216.8</ele>
        <time>2022-11-20T09:13:40Z</time>
      </trkpt>
      <trkpt lat="43.33351" lon="1.19989">
        <ele>217.4</ele>
        <time>2022-11-20T09:13:47Z</time>
      </trkpt>
      <trkpt lat="43.33307" lon="1.19941">
        <ele>217.8</ele>
        <time>2022-11-20T09:13:54Z</time>
      </trkpt>
      <trkpt lat="43.33281" lon="1.19911">
        <ele>217.8</ele>
        <time>2022-11-20T09:13:59Z</time>
      </trkpt>
      <trkpt lat="43.3327" lon="1.19899">
        <ele>218</ele>
        <time>2022-11-20T09:14:01Z</time>
      </trkpt>
      <trkpt lat="43.33234" lon="1.19858">
        <ele>218.2</ele>
        <time>2022-11-20T09:14:07Z</time>
      </trkpt>
      <trkpt lat="43.33191" lon="1.19808">
        <ele>218.2</ele>
        <time>2022-11-20T09:14:14Z</time>
      </trkpt>
      <trkpt lat="43.33185" lon="1.19801">
        <ele>218.2</ele>
        <time>2022-11-20T09:14:15Z</time>
      </trkpt>
      <trkpt lat="43.33142" lon="1.19746">
        <ele>218</ele>
        <time>2022-11-20T09:14:23Z</time>
      </trkpt>
      <trkpt lat="43.33104" lon="1.19693">
        <ele>217.8</ele>
        <time>2022-11-20T09:14:30Z</time>
      </trkpt>
      <trkpt lat="43.33061" lon="1.19634">
        <ele>218</ele>
        <time>2022-11-20T09:14:38Z</time>
      </trkpt>
      <trkpt lat="43.3305" lon="1.19621">
        <ele>218</ele>
        <time>2022-11-20T09:14:40Z</time>
      </trkpt>
      <trkpt lat="43.33002" lon="1.19571">
        <ele>218.4</ele>
        <time>2022-11-20T09:14:48Z</time>
      </trkpt>
      <trkpt lat="43.32996" lon="1.19564">
        <ele>218.4</ele>
        <time>2022-11-20T09:14:49Z</time>
      </trkpt>
      <trkpt lat="43.32949" lon="1.19515">
        <ele>218.8</ele>
        <time>2022-11-20T09:14:56Z</time>
      </trkpt>
      <trkpt lat="43.32943" lon="1.19508">
        <ele>219</ele>
        <time>2022-11-20T09:14:57Z</time>
      </trkpt>
      <trkpt lat="43.32899" lon="1.19461">
        <ele>219.4</ele>
        <time>2022-11-20T09:15:04Z</time>
      </trkpt>
      <trkpt lat="43.32893" lon="1.19454">
        <ele>219.4</ele>
        <time>2022-11-20T09:15:05Z</time>
      </trkpt>
      <trkpt lat="43.32881" lon="1.19441">
        <ele>219.4</ele>
        <time>2022-11-20T09:15:07Z</time>
      </trkpt>
      <trkpt lat="43.32845" lon="1.19402">
        <ele>219.2</ele>
        <time>2022-11-20T09:15:13Z</time>
      </trkpt>
      <trkpt lat="43.32798" lon="1.1935">
        <ele>219</ele>
        <time>2022-11-20T09:15:21Z</time>
      </trkpt>
      <trkpt lat="43.32758" lon="1.19303">
        <ele>219.2</ele>
        <time>2022-11-20T09:15:28Z</time>
      </trkpt>
      <trkpt lat="43.32747" lon="1.19288">
        <ele>219.2</ele>
        <time>2022-11-20T09:15:30Z</time>
      </trkpt>
      <trkpt lat="43.32707" lon="1.19237">
        <ele>219.4</ele>
        <time>2022-11-20T09:15:37Z</time>
      </trkpt>
      <trkpt lat="43.32693" lon="1.19222">
        <ele>219.4</ele>
        <time>2022-11-20T09:15:39Z</time>
      </trkpt>
      <trkpt lat="43.32671" lon="1.19194">
        <ele>219.4</ele>
        <time>2022-11-20T09:15:43Z</time>
      </trkpt>
      <trkpt lat="43.32658" lon="1.19181">
        <ele>219.6</ele>
        <time>2022-11-20T09:15:45Z</time>
      </trkpt>
      <trkpt lat="43.3264" lon="1.19161">
        <ele>219.8</ele>
        <time>2022-11-20T09:15:48Z</time>
      </trkpt>
      <trkpt lat="43.32603" lon="1.19117">
        <ele>219.6</ele>
        <time>2022-11-20T09:15:54Z</time>
      </trkpt>
      <trkpt lat="43.32562" lon="1.19064">
        <ele>219.6</ele>
        <time>2022-11-20T09:16:01Z</time>
      </trkpt>
      <trkpt lat="43.32556" lon="1.19056">
        <ele>219.6</ele>
        <time>2022-11-20T09:16:02Z</time>
      </trkpt>
      <trkpt lat="43.32519" lon="1.19006">
        <ele>219.6</ele>
        <time>2022-11-20T09:16:09Z</time>
      </trkpt>
      <trkpt lat="43.32505" lon="1.18985">
        <ele>219.6</ele>
        <time>2022-11-20T09:16:13Z</time>
      </trkpt>
      <trkpt lat="43.32501" lon="1.18973">
        <ele>219.4</ele>
        <time>2022-11-20T09:16:15Z</time>
      </trkpt>
      <trkpt lat="43.32502" lon="1.18955">
        <ele>219.4</ele>
        <time>2022-11-20T09:16:17Z</time>
      </trkpt>
      <trkpt lat="43.32505" lon="1.18936">
        <ele>219.4</ele>
        <time>2022-11-20T09:16:19Z</time>
      </trkpt>
      <trkpt lat="43.3252" lon="1.18857">
        <ele>219.4</ele>
        <time>2022-11-20T09:16:27Z</time>
      </trkpt>
      <trkpt lat="43.3253" lon="1.18793">
        <ele>219.6</ele>
        <time>2022-11-20T09:16:33Z</time>
      </trkpt>
      <trkpt lat="43.32541" lon="1.18711">
        <ele>220.2</ele>
        <time>2022-11-20T09:16:40Z</time>
      </trkpt>
      <trkpt lat="43.32546" lon="1.18628">
        <ele>220.8</ele>
        <time>2022-11-20T09:16:47Z</time>
      </trkpt>
      <trkpt lat="43.32553" lon="1.1855">
        <ele>221.2</ele>
        <time>2022-11-20T09:16:54Z</time>
      </trkpt>
      <trkpt lat="43.32554" lon="1.18539">
        <ele>221.2</ele>
        <time>2022-11-20T09:16:55Z</time>
      </trkpt>
      <trkpt lat="43.32562" lon="1.18461">
        <ele>221.6</ele>
        <time>2022-11-20T09:17:02Z</time>
      </trkpt>
      <trkpt lat="43.32563" lon="1.1845">
        <ele>221.8</ele>
        <time>2022-11-20T09:17:03Z</time>
      </trkpt>
      <trkpt lat="43.32575" lon="1.18371">
        <ele>222</ele>
        <time>2022-11-20T09:17:10Z</time>
      </trkpt>
      <trkpt lat="43.32583" lon="1.18328">
        <ele>222.2</ele>
        <time>2022-11-20T09:17:14Z</time>
      </trkpt>
      <trkpt lat="43.32596" lon="1.18253">
        <ele>222.2</ele>
        <time>2022-11-20T09:17:21Z</time>
      </trkpt>
      <trkpt lat="43.32597" lon="1.18243">
        <ele>222.2</ele>
        <time>2022-11-20T09:17:22Z</time>
      </trkpt>
      <trkpt lat="43.3261" lon="1.18168">
        <ele>222.4</ele>
        <time>2022-11-20T09:17:29Z</time>
      </trkpt>
      <trkpt lat="43.32614" lon="1.18137">
        <ele>222.4</ele>
        <time>2022-11-20T09:17:32Z</time>
      </trkpt>
      <trkpt lat="43.32625" lon="1.18071">
        <ele>222.4</ele>
        <time>2022-11-20T09:17:39Z</time>
      </trkpt>
      <trkpt lat="43.32635" lon="1.18012">
        <ele>222.4</ele>
        <time>2022-11-20T09:17:46Z</time>
      </trkpt>
      <trkpt lat="43.32645" lon="1.1796">
        <ele>222.4</ele>
        <time>2022-11-20T09:17:53Z</time>
      </trkpt>
      <trkpt lat="43.32647" lon="1.17949">
        <ele>222.2</ele>
        <time>2022-11-20T09:17:55Z</time>
      </trkpt>
      <trkpt lat="43.32648" lon="1.17936">
        <ele>222.2</ele>
        <time>2022-11-20T09:17:57Z</time>
      </trkpt>
      <trkpt lat="43.32644" lon="1.17915">
        <ele>222.2</ele>
        <time>2022-11-20T09:18:00Z</time>
      </trkpt>
      <trkpt lat="43.32639" lon="1.17901">
        <ele>222.2</ele>
        <time>2022-11-20T09:18:02Z</time>
      </trkpt>
      <trkpt lat="43.32621" lon="1.17857">
        <ele>222</ele>
        <time>2022-11-20T09:18:08Z</time>
      </trkpt>
      <trkpt lat="43.32602" lon="1.17802">
        <ele>221.8</ele>
        <time>2022-11-20T09:18:14Z</time>
      </trkpt>
      <trkpt lat="43.3258" lon="1.17737">
        <ele>221.8</ele>
        <time>2022-11-20T09:18:21Z</time>
      </trkpt>
      <trkpt lat="43.32562" lon="1.17678">
        <ele>221.6</ele>
        <time>2022-11-20T09:18:28Z</time>
      </trkpt>
      <trkpt lat="43.32549" lon="1.17643">
        <ele>221.2</ele>
        <time>2022-11-20T09:18:32Z</time>
      </trkpt>
      <trkpt lat="43.32541" lon="1.17627">
        <ele>221.2</ele>
        <time>2022-11-20T09:18:34Z</time>
      </trkpt>
      <trkpt lat="43.32513" lon="1.17576">
        <ele>221.4</ele>
        <time>2022-11-20T09:18:41Z</time>
      </trkpt>
      <trkpt lat="43.32505" lon="1.17549">
        <ele>221.4</ele>
        <time>2022-11-20T09:18:45Z</time>
      </trkpt>
      <trkpt lat="43.32505" lon="1.17544">
        <ele>221.4</ele>
        <time>2022-11-20T09:18:46Z</time>
      </trkpt>
      <trkpt lat="43.32505" lon="1.17529">
        <ele>221.4</ele>
        <time>2022-11-20T09:18:50Z</time>
      </trkpt>
      <trkpt lat="43.32513" lon="1.17514">
        <ele>221.4</ele>
        <time>2022-11-20T09:18:55Z</time>
      </trkpt>
      <trkpt lat="43.32516" lon="1.1751">
        <ele>221.4</ele>
        <time>2022-11-20T09:18:56Z</time>
      </trkpt>
      <trkpt lat="43.32527" lon="1.17499">
        <ele>221.4</ele>
        <time>2022-11-20T09:18:59Z</time>
      </trkpt>
      <trkpt lat="43.32532" lon="1.17494">
        <ele>221.4</ele>
        <time>2022-11-20T09:19:00Z</time>
      </trkpt>
      <trkpt lat="43.32549" lon="1.17466">
        <ele>221</ele>
        <time>2022-11-20T09:19:04Z</time>
      </trkpt>
      <trkpt lat="43.32579" lon="1.17405">
        <ele>220.8</ele>
        <time>2022-11-20T09:19:11Z</time>
      </trkpt>
      <trkpt lat="43.32597" lon="1.17367">
        <ele>220.6</ele>
        <time>2022-11-20T09:19:15Z</time>
      </trkpt>
      <trkpt lat="43.32607" lon="1.17348">
        <ele>220.4</ele>
        <time>2022-11-20T09:19:17Z</time>
      </trkpt>
      <trkpt lat="43.3264" lon="1.17278">
        <ele>220.6</ele>
        <time>2022-11-20T09:19:24Z</time>
      </trkpt>
      <trkpt lat="43.32671" lon="1.17226">
        <ele>221</ele>
        <time>2022-11-20T09:19:30Z</time>
      </trkpt>
      <trkpt lat="43.32708" lon="1.17178">
        <ele>221.6</ele>
        <time>2022-11-20T09:19:36Z</time>
      </trkpt>
      <trkpt lat="43.32712" lon="1.17169">
        <ele>221.8</ele>
        <time>2022-11-20T09:19:37Z</time>
      </trkpt>
      <trkpt lat="43.32722" lon="1.17136">
        <ele>221.8</ele>
        <time>2022-11-20T09:19:40Z</time>
      </trkpt>
      <trkpt lat="43.3274" lon="1.17073">
        <ele>221.8</ele>
        <time>2022-11-20T09:19:46Z</time>
      </trkpt>
      <trkpt lat="43.32744" lon="1.17063">
        <ele>221.8</ele>
        <time>2022-11-20T09:19:47Z</time>
      </trkpt>
      <trkpt lat="43.32762" lon="1.17029">
        <ele>221.6</ele>
        <time>2022-11-20T09:19:51Z</time>
      </trkpt>
      <trkpt lat="43.32768" lon="1.17019">
        <ele>221.4</ele>
        <time>2022-11-20T09:19:53Z</time>
      </trkpt>
      <trkpt lat="43.3277" lon="1.17016">
        <ele>221.2</ele>
        <time>2022-11-20T09:19:54Z</time>
      </trkpt>
      <trkpt lat="43.32776" lon="1.17006">
        <ele>221</ele>
        <time>2022-11-20T09:19:58Z</time>
      </trkpt>
      <trkpt lat="43.32786" lon="1.16988">
        <ele>220.8</ele>
        <time>2022-11-20T09:20:03Z</time>
      </trkpt>
      <trkpt lat="43.3279" lon="1.16982">
        <ele>220.6</ele>
        <time>2022-11-20T09:20:04Z</time>
      </trkpt>
      <trkpt lat="43.32793" lon="1.16976">
        <ele>220.4</ele>
        <time>2022-11-20T09:20:05Z</time>
      </trkpt>
      <trkpt lat="43.32796" lon="1.16968">
        <ele>220.4</ele>
        <time>2022-11-20T09:20:06Z</time>
      </trkpt>
      <trkpt lat="43.32799" lon="1.1696">
        <ele>220.4</ele>
        <time>2022-11-20T09:20:07Z</time>
      </trkpt>
      <trkpt lat="43.32809" lon="1.16935">
        <ele>220.2</ele>
        <time>2022-11-20T09:20:10Z</time>
      </trkpt>
      <trkpt lat="43.32815" lon="1.16917">
        <ele>220</ele>
        <time>2022-11-20T09:20:12Z</time>
      </trkpt>
      <trkpt lat="43.32835" lon="1.16858">
        <ele>219.8</ele>
        <time>2022-11-20T09:20:18Z</time>
      </trkpt>
      <trkpt lat="43.3284" lon="1.16849">
        <ele>219.8</ele>
        <time>2022-11-20T09:20:19Z</time>
      </trkpt>
      <trkpt lat="43.32858" lon="1.16823">
        <ele>219.8</ele>
        <time>2022-11-20T09:20:22Z</time>
      </trkpt>
      <trkpt lat="43.32868" lon="1.16804">
        <ele>219.8</ele>
        <time>2022-11-20T09:20:24Z</time>
      </trkpt>
      <trkpt lat="43.32875" lon="1.16781">
        <ele>219.8</ele>
        <time>2022-11-20T09:20:26Z</time>
      </trkpt>
      <trkpt lat="43.32876" lon="1.16757">
        <ele>219.8</ele>
        <time>2022-11-20T09:20:28Z</time>
      </trkpt>
      <trkpt lat="43.32875" lon="1.16733">
        <ele>219.8</ele>
        <time>2022-11-20T09:20:30Z</time>
      </trkpt>
      <trkpt lat="43.32871" lon="1.16649">
        <ele>220</ele>
        <time>2022-11-20T09:20:37Z</time>
      </trkpt>
      <trkpt lat="43.32868" lon="1.16569">
        <ele>220.4</ele>
        <time>2022-11-20T09:20:44Z</time>
      </trkpt>
      <trkpt lat="43.32867" lon="1.16546">
        <ele>220.6</ele>
        <time>2022-11-20T09:20:46Z</time>
      </trkpt>
      <trkpt lat="43.32864" lon="1.16467">
        <ele>221</ele>
        <time>2022-11-20T09:20:53Z</time>
      </trkpt>
      <trkpt lat="43.32863" lon="1.16445">
        <ele>221</ele>
        <time>2022-11-20T09:20:55Z</time>
      </trkpt>
      <trkpt lat="43.32861" lon="1.16391">
        <ele>221</ele>
        <time>2022-11-20T09:21:00Z</time>
      </trkpt>
      <trkpt lat="43.32862" lon="1.1638">
        <ele>221</ele>
        <time>2022-11-20T09:21:01Z</time>
      </trkpt>
      <trkpt lat="43.32864" lon="1.16369">
        <ele>221</ele>
        <time>2022-11-20T09:21:02Z</time>
      </trkpt>
      <trkpt lat="43.32873" lon="1.1634">
        <ele>221.2</ele>
        <time>2022-11-20T09:21:05Z</time>
      </trkpt>
      <trkpt lat="43.32883" lon="1.16312">
        <ele>221.4</ele>
        <time>2022-11-20T09:21:08Z</time>
      </trkpt>
      <trkpt lat="43.32903" lon="1.16255">
        <ele>221.8</ele>
        <time>2022-11-20T09:21:14Z</time>
      </trkpt>
      <trkpt lat="43.32905" lon="1.16246">
        <ele>221.8</ele>
        <time>2022-11-20T09:21:15Z</time>
      </trkpt>
      <trkpt lat="43.32908" lon="1.16215">
        <ele>221.8</ele>
        <time>2022-11-20T09:21:18Z</time>
      </trkpt>
      <trkpt lat="43.32901" lon="1.16144">
        <ele>221.6</ele>
        <time>2022-11-20T09:21:25Z</time>
      </trkpt>
      <trkpt lat="43.32893" lon="1.16062">
        <ele>221.6</ele>
        <time>2022-11-20T09:21:33Z</time>
      </trkpt>
      <trkpt lat="43.32897" lon="1.15986">
        <ele>221.8</ele>
        <time>2022-11-20T09:21:40Z</time>
      </trkpt>
      <trkpt lat="43.32897" lon="1.15908">
        <ele>221.8</ele>
        <time>2022-11-20T09:21:47Z</time>
      </trkpt>
      <trkpt lat="43.32896" lon="1.15897">
        <ele>221.8</ele>
        <time>2022-11-20T09:21:48Z</time>
      </trkpt>
      <trkpt lat="43.32893" lon="1.15821">
        <ele>222.2</ele>
        <time>2022-11-20T09:21:55Z</time>
      </trkpt>
      <trkpt lat="43.32892" lon="1.1581">
        <ele>222.2</ele>
        <time>2022-11-20T09:21:56Z</time>
      </trkpt>
      <trkpt lat="43.32885" lon="1.15746">
        <ele>222.4</ele>
        <time>2022-11-20T09:22:02Z</time>
      </trkpt>
      <trkpt lat="43.32877" lon="1.15717">
        <ele>222.6</ele>
        <time>2022-11-20T09:22:05Z</time>
      </trkpt>
      <trkpt lat="43.32874" lon="1.15707">
        <ele>222.6</ele>
        <time>2022-11-20T09:22:06Z</time>
      </trkpt>
      <trkpt lat="43.3287" lon="1.15684">
        <ele>222.6</ele>
        <time>2022-11-20T09:22:08Z</time>
      </trkpt>
      <trkpt lat="43.32875" lon="1.15631">
        <ele>222.4</ele>
        <time>2022-11-20T09:22:13Z</time>
      </trkpt>
      <trkpt lat="43.32889" lon="1.1555">
        <ele>222.6</ele>
        <time>2022-11-20T09:22:21Z</time>
      </trkpt>
      <trkpt lat="43.32894" lon="1.15518">
        <ele>223</ele>
        <time>2022-11-20T09:22:24Z</time>
      </trkpt>
      <trkpt lat="43.32895" lon="1.155">
        <ele>223.2</ele>
        <time>2022-11-20T09:22:26Z</time>
      </trkpt>
      <trkpt lat="43.32895" lon="1.15468">
        <ele>223.2</ele>
        <time>2022-11-20T09:22:29Z</time>
      </trkpt>
      <trkpt lat="43.3288" lon="1.15391">
        <ele>222.8</ele>
        <time>2022-11-20T09:22:37Z</time>
      </trkpt>
      <trkpt lat="43.32861" lon="1.15313">
        <ele>222.8</ele>
        <time>2022-11-20T09:22:45Z</time>
      </trkpt>
      <trkpt lat="43.32856" lon="1.15294">
        <ele>222.8</ele>
        <time>2022-11-20T09:22:47Z</time>
      </trkpt>
      <trkpt lat="43.32833" lon="1.15219">
        <ele>223</ele>
        <time>2022-11-20T09:22:55Z</time>
      </trkpt>
      <trkpt lat="43.32815" lon="1.15173">
        <ele>223.6</ele>
        <time>2022-11-20T09:23:00Z</time>
      </trkpt>
      <trkpt lat="43.32805" lon="1.15145">
        <ele>224</ele>
        <time>2022-11-20T09:23:03Z</time>
      </trkpt>
      <trkpt lat="43.32797" lon="1.15122">
        <ele>224.2</ele>
        <time>2022-11-20T09:23:06Z</time>
      </trkpt>
      <trkpt lat="43.32795" lon="1.15113">
        <ele>224.2</ele>
        <time>2022-11-20T09:23:07Z</time>
      </trkpt>
      <trkpt lat="43.32782" lon="1.15047">
        <ele>224.2</ele>
        <time>2022-11-20T09:23:14Z</time>
      </trkpt>
      <trkpt lat="43.32776" lon="1.14983">
        <ele>224.6</ele>
        <time>2022-11-20T09:23:21Z</time>
      </trkpt>
      <trkpt lat="43.32773" lon="1.14962">
        <ele>224.8</ele>
        <time>2022-11-20T09:23:25Z</time>
      </trkpt>
      <trkpt lat="43.32774" lon="1.14958">
        <ele>224.8</ele>
        <time>2022-11-20T09:23:27Z</time>
      </trkpt>
      <trkpt lat="43.32774" lon="1.14958">
        <ele>225.2</ele>
        <time>2022-11-20T09:23:29Z</time>
      </trkpt>
      <trkpt lat="43.32774" lon="1.14957">
        <ele>225.2</ele>
        <time>2022-11-20T09:23:34Z</time>
      </trkpt>
      <trkpt lat="43.32773" lon="1.14953">
        <ele>221</ele>
        <time>2022-11-20T09:25:32Z</time>
      </trkpt>
      <trkpt lat="43.32771" lon="1.14947">
        <ele>221.2</ele>
        <time>2022-11-20T09:25:34Z</time>
      </trkpt>
      <trkpt lat="43.32766" lon="1.14927">
        <ele>221.4</ele>
        <time>2022-11-20T09:25:39Z</time>
      </trkpt>
      <trkpt lat="43.32762" lon="1.14905">
        <ele>221.8</ele>
        <time>2022-11-20T09:25:43Z</time>
      </trkpt>
      <trkpt lat="43.3276" lon="1.14899">
        <ele>221.8</ele>
        <time>2022-11-20T09:25:44Z</time>
      </trkpt>
      <trkpt lat="43.32753" lon="1.1488">
        <ele>222</ele>
        <time>2022-11-20T09:25:47Z</time>
      </trkpt>
      <trkpt lat="43.32743" lon="1.14852">
        <ele>222.4</ele>
        <time>2022-11-20T09:25:51Z</time>
      </trkpt>
      <trkpt lat="43.32723" lon="1.1479">
        <ele>223</ele>
        <time>2022-11-20T09:25:59Z</time>
      </trkpt>
      <trkpt lat="43.32714" lon="1.14766">
        <ele>223</ele>
        <time>2022-11-20T09:26:02Z</time>
      </trkpt>
      <trkpt lat="43.32701" lon="1.14723">
        <ele>223.4</ele>
        <time>2022-11-20T09:26:07Z</time>
      </trkpt>
      <trkpt lat="43.32676" lon="1.14653">
        <ele>223.6</ele>
        <time>2022-11-20T09:26:15Z</time>
      </trkpt>
      <trkpt lat="43.3267" lon="1.14635">
        <ele>223.6</ele>
        <time>2022-11-20T09:26:17Z</time>
      </trkpt>
      <trkpt lat="43.32657" lon="1.146">
        <ele>224.2</ele>
        <time>2022-11-20T09:26:21Z</time>
      </trkpt>
      <trkpt lat="43.32633" lon="1.14532">
        <ele>224.2</ele>
        <time>2022-11-20T09:26:29Z</time>
      </trkpt>
      <trkpt lat="43.32616" lon="1.14472">
        <ele>224.6</ele>
        <time>2022-11-20T09:26:36Z</time>
      </trkpt>
      <trkpt lat="43.32594" lon="1.14401">
        <ele>225</ele>
        <time>2022-11-20T09:26:44Z</time>
      </trkpt>
      <trkpt lat="43.3257" lon="1.14333">
        <ele>224.6</ele>
        <time>2022-11-20T09:26:52Z</time>
      </trkpt>
      <trkpt lat="43.32565" lon="1.14316">
        <ele>224.8</ele>
        <time>2022-11-20T09:26:54Z</time>
      </trkpt>
      <trkpt lat="43.32542" lon="1.14246">
        <ele>224.8</ele>
        <time>2022-11-20T09:27:02Z</time>
      </trkpt>
      <trkpt lat="43.32539" lon="1.14238">
        <ele>224.8</ele>
        <time>2022-11-20T09:27:03Z</time>
      </trkpt>
      <trkpt lat="43.32509" lon="1.14175">
        <ele>224.6</ele>
        <time>2022-11-20T09:27:11Z</time>
      </trkpt>
      <trkpt lat="43.32502" lon="1.14159">
        <ele>224.8</ele>
        <time>2022-11-20T09:27:13Z</time>
      </trkpt>
      <trkpt lat="43.32494" lon="1.14134">
        <ele>225.2</ele>
        <time>2022-11-20T09:27:16Z</time>
      </trkpt>
      <trkpt lat="43.32482" lon="1.14091">
        <ele>225.4</ele>
        <time>2022-11-20T09:27:21Z</time>
      </trkpt>
      <trkpt lat="43.32467" lon="1.14019">
        <ele>225.4</ele>
        <time>2022-11-20T09:27:29Z</time>
      </trkpt>
      <trkpt lat="43.32465" lon="1.1401">
        <ele>225.4</ele>
        <time>2022-11-20T09:27:30Z</time>
      </trkpt>
      <trkpt lat="43.32453" lon="1.13945">
        <ele>226.2</ele>
        <time>2022-11-20T09:27:37Z</time>
      </trkpt>
      <trkpt lat="43.32447" lon="1.13907">
        <ele>226.4</ele>
        <time>2022-11-20T09:27:41Z</time>
      </trkpt>
      <trkpt lat="43.32434" lon="1.13832">
        <ele>226.8</ele>
        <time>2022-11-20T09:27:49Z</time>
      </trkpt>
      <trkpt lat="43.32431" lon="1.13813">
        <ele>227</ele>
        <time>2022-11-20T09:27:51Z</time>
      </trkpt>
      <trkpt lat="43.3243" lon="1.13804">
        <ele>227.2</ele>
        <time>2022-11-20T09:27:52Z</time>
      </trkpt>
      <trkpt lat="43.32419" lon="1.1375">
        <ele>227.6</ele>
        <time>2022-11-20T09:27:58Z</time>
      </trkpt>
      <trkpt lat="43.32408" lon="1.13676">
        <ele>227.8</ele>
        <time>2022-11-20T09:28:06Z</time>
      </trkpt>
      <trkpt lat="43.324" lon="1.13599">
        <ele>228</ele>
        <time>2022-11-20T09:28:15Z</time>
      </trkpt>
      <trkpt lat="43.32398" lon="1.13547">
        <ele>228.2</ele>
        <time>2022-11-20T09:28:22Z</time>
      </trkpt>
      <trkpt lat="43.32397" lon="1.13541">
        <ele>228.2</ele>
        <time>2022-11-20T09:28:23Z</time>
      </trkpt>
      <trkpt lat="43.32394" lon="1.13526">
        <ele>228.2</ele>
        <time>2022-11-20T09:28:26Z</time>
      </trkpt>
      <trkpt lat="43.32384" lon="1.13516">
        <ele>228.2</ele>
        <time>2022-11-20T09:28:29Z</time>
      </trkpt>
      <trkpt lat="43.32381" lon="1.1351">
        <ele>228.2</ele>
        <time>2022-11-20T09:28:30Z</time>
      </trkpt>
      <trkpt lat="43.32379" lon="1.13504">
        <ele>228</ele>
        <time>2022-11-20T09:28:31Z</time>
      </trkpt>
      <trkpt lat="43.32375" lon="1.13473">
        <ele>228</ele>
        <time>2022-11-20T09:28:35Z</time>
      </trkpt>
      <trkpt lat="43.32371" lon="1.13409">
        <ele>228</ele>
        <time>2022-11-20T09:28:42Z</time>
      </trkpt>
      <trkpt lat="43.32362" lon="1.1334">
        <ele>228.2</ele>
        <time>2022-11-20T09:28:50Z</time>
      </trkpt>
      <trkpt lat="43.32352" lon="1.13305">
        <ele>228.6</ele>
        <time>2022-11-20T09:28:56Z</time>
      </trkpt>
      <trkpt lat="43.32341" lon="1.13281">
        <ele>229</ele>
        <time>2022-11-20T09:29:02Z</time>
      </trkpt>
      <trkpt lat="43.32331" lon="1.13264">
        <ele>229</ele>
        <time>2022-11-20T09:29:08Z</time>
      </trkpt>
      <trkpt lat="43.3233" lon="1.13264">
        <ele>229</ele>
        <time>2022-11-20T09:29:11Z</time>
      </trkpt>
      <trkpt lat="43.32329" lon="1.13263">
        <ele>225.8</ele>
        <time>2022-11-20T09:32:18Z</time>
      </trkpt>
      <trkpt lat="43.32325" lon="1.1326">
        <ele>225.8</ele>
        <time>2022-11-20T09:32:20Z</time>
      </trkpt>
      <trkpt lat="43.3232" lon="1.13253">
        <ele>226.2</ele>
        <time>2022-11-20T09:32:23Z</time>
      </trkpt>
      <trkpt lat="43.32307" lon="1.13236">
        <ele>226.4</ele>
        <time>2022-11-20T09:32:28Z</time>
      </trkpt>
      <trkpt lat="43.32282" lon="1.13215">
        <ele>226.6</ele>
        <time>2022-11-20T09:32:34Z</time>
      </trkpt>
      <trkpt lat="43.32277" lon="1.13211">
        <ele>227</ele>
        <time>2022-11-20T09:32:35Z</time>
      </trkpt>
      <trkpt lat="43.32252" lon="1.13193">
        <ele>228</ele>
        <time>2022-11-20T09:32:40Z</time>
      </trkpt>
      <trkpt lat="43.32246" lon="1.1319">
        <ele>228.2</ele>
        <time>2022-11-20T09:32:41Z</time>
      </trkpt>
      <trkpt lat="43.32205" lon="1.13161">
        <ele>229.2</ele>
        <time>2022-11-20T09:32:49Z</time>
      </trkpt>
      <trkpt lat="43.32174" lon="1.13136">
        <ele>229.6</ele>
        <time>2022-11-20T09:32:55Z</time>
      </trkpt>
      <trkpt lat="43.3217" lon="1.1313">
        <ele>229.6</ele>
        <time>2022-11-20T09:32:56Z</time>
      </trkpt>
      <trkpt lat="43.32167" lon="1.13122">
        <ele>229.8</ele>
        <time>2022-11-20T09:32:57Z</time>
      </trkpt>
      <trkpt lat="43.32165" lon="1.13106">
        <ele>230</ele>
        <time>2022-11-20T09:32:59Z</time>
      </trkpt>
      <trkpt lat="43.32168" lon="1.13089">
        <ele>230.2</ele>
        <time>2022-11-20T09:33:01Z</time>
      </trkpt>
      <trkpt lat="43.32172" lon="1.13064">
        <ele>230.6</ele>
        <time>2022-11-20T09:33:04Z</time>
      </trkpt>
      <trkpt lat="43.32187" lon="1.12992">
        <ele>231.2</ele>
        <time>2022-11-20T09:33:13Z</time>
      </trkpt>
      <trkpt lat="43.32188" lon="1.12984">
        <ele>231.2</ele>
        <time>2022-11-20T09:33:14Z</time>
      </trkpt>
      <trkpt lat="43.32191" lon="1.12969">
        <ele>231.4</ele>
        <time>2022-11-20T09:33:16Z</time>
      </trkpt>
      <trkpt lat="43.322" lon="1.1292">
        <ele>232.6</ele>
        <time>2022-11-20T09:33:22Z</time>
      </trkpt>
      <trkpt lat="43.32203" lon="1.12902">
        <ele>232.6</ele>
        <time>2022-11-20T09:33:24Z</time>
      </trkpt>
      <trkpt lat="43.32209" lon="1.12833">
        <ele>233</ele>
        <time>2022-11-20T09:33:31Z</time>
      </trkpt>
      <trkpt lat="43.32213" lon="1.12753">
        <ele>233</ele>
        <time>2022-11-20T09:33:39Z</time>
      </trkpt>
      <trkpt lat="43.32214" lon="1.12744">
        <ele>233</ele>
        <time>2022-11-20T09:33:40Z</time>
      </trkpt>
      <trkpt lat="43.32228" lon="1.12669">
        <ele>233</ele>
        <time>2022-11-20T09:33:48Z</time>
      </trkpt>
      <trkpt lat="43.3223" lon="1.1265">
        <ele>233.6</ele>
        <time>2022-11-20T09:33:50Z</time>
      </trkpt>
      <trkpt lat="43.32234" lon="1.12604">
        <ele>233.6</ele>
        <time>2022-11-20T09:33:55Z</time>
      </trkpt>
      <trkpt lat="43.32232" lon="1.12544">
        <ele>234</ele>
        <time>2022-11-20T09:34:02Z</time>
      </trkpt>
      <trkpt lat="43.32223" lon="1.12476">
        <ele>234.4</ele>
        <time>2022-11-20T09:34:10Z</time>
      </trkpt>
      <trkpt lat="43.32211" lon="1.12435">
        <ele>234.6</ele>
        <time>2022-11-20T09:34:16Z</time>
      </trkpt>
      <trkpt lat="43.3221" lon="1.12429">
        <ele>234.8</ele>
        <time>2022-11-20T09:34:17Z</time>
      </trkpt>
      <trkpt lat="43.32211" lon="1.12423">
        <ele>234.8</ele>
        <time>2022-11-20T09:34:18Z</time>
      </trkpt>
      <trkpt lat="43.32213" lon="1.12418">
        <ele>235</ele>
        <time>2022-11-20T09:34:19Z</time>
      </trkpt>
      <trkpt lat="43.32216" lon="1.12416">
        <ele>235</ele>
        <time>2022-11-20T09:34:20Z</time>
      </trkpt>
      <trkpt lat="43.32221" lon="1.12416">
        <ele>235.2</ele>
        <time>2022-11-20T09:34:21Z</time>
      </trkpt>
      <trkpt lat="43.32243" lon="1.12423">
        <ele>235.8</ele>
        <time>2022-11-20T09:34:25Z</time>
      </trkpt>
      <trkpt lat="43.32249" lon="1.12424">
        <ele>236</ele>
        <time>2022-11-20T09:34:26Z</time>
      </trkpt>
      <trkpt lat="43.32292" lon="1.12433">
        <ele>236.8</ele>
        <time>2022-11-20T09:34:33Z</time>
      </trkpt>
      <trkpt lat="43.32299" lon="1.12435">
        <ele>237</ele>
        <time>2022-11-20T09:34:34Z</time>
      </trkpt>
      <trkpt lat="43.32349" lon="1.12444">
        <ele>238</ele>
        <time>2022-11-20T09:34:42Z</time>
      </trkpt>
      <trkpt lat="43.32375" lon="1.12449">
        <ele>238.4</ele>
        <time>2022-11-20T09:34:46Z</time>
      </trkpt>
      <trkpt lat="43.32412" lon="1.12455">
        <ele>238.6</ele>
        <time>2022-11-20T09:34:52Z</time>
      </trkpt>
      <trkpt lat="43.32423" lon="1.12457">
        <ele>238.6</ele>
        <time>2022-11-20T09:34:54Z</time>
      </trkpt>
      <trkpt lat="43.3244" lon="1.1246">
        <ele>239</ele>
        <time>2022-11-20T09:34:57Z</time>
      </trkpt>
      <trkpt lat="43.32457" lon="1.12465">
        <ele>239.8</ele>
        <time>2022-11-20T09:35:00Z</time>
      </trkpt>
      <trkpt lat="43.32467" lon="1.12471">
        <ele>240.2</ele>
        <time>2022-11-20T09:35:02Z</time>
      </trkpt>
      <trkpt lat="43.32482" lon="1.12487">
        <ele>241.2</ele>
        <time>2022-11-20T09:35:06Z</time>
      </trkpt>
      <trkpt lat="43.32487" lon="1.12498">
        <ele>241.6</ele>
        <time>2022-11-20T09:35:08Z</time>
      </trkpt>
      <trkpt lat="43.3249" lon="1.12509">
        <ele>242</ele>
        <time>2022-11-20T09:35:10Z</time>
      </trkpt>
      <trkpt lat="43.32491" lon="1.12514">
        <ele>242.2</ele>
        <time>2022-11-20T09:35:11Z</time>
      </trkpt>
      <trkpt lat="43.32492" lon="1.1252">
        <ele>242.6</ele>
        <time>2022-11-20T09:35:12Z</time>
      </trkpt>
      <trkpt lat="43.32493" lon="1.12526">
        <ele>243.2</ele>
        <time>2022-11-20T09:35:13Z</time>
      </trkpt>
      <trkpt lat="43.32493" lon="1.12538">
        <ele>244</ele>
        <time>2022-11-20T09:35:15Z</time>
      </trkpt>
      <trkpt lat="43.32492" lon="1.12551">
        <ele>244.6</ele>
        <time>2022-11-20T09:35:17Z</time>
      </trkpt>
      <trkpt lat="43.32489" lon="1.12563">
        <ele>245</ele>
        <time>2022-11-20T09:35:19Z</time>
      </trkpt>
      <trkpt lat="43.32486" lon="1.12574">
        <ele>245.6</ele>
        <time>2022-11-20T09:35:21Z</time>
      </trkpt>
      <trkpt lat="43.32484" lon="1.1258">
        <ele>245.8</ele>
        <time>2022-11-20T09:35:22Z</time>
      </trkpt>
      <trkpt lat="43.32479" lon="1.12592">
        <ele>246.2</ele>
        <time>2022-11-20T09:35:24Z</time>
      </trkpt>
      <trkpt lat="43.32475" lon="1.12611">
        <ele>246.8</ele>
        <time>2022-11-20T09:35:27Z</time>
      </trkpt>
      <trkpt lat="43.32476" lon="1.12624">
        <ele>247.2</ele>
        <time>2022-11-20T09:35:29Z</time>
      </trkpt>
      <trkpt lat="43.32479" lon="1.12636">
        <ele>247.8</ele>
        <time>2022-11-20T09:35:31Z</time>
      </trkpt>
      <trkpt lat="43.32484" lon="1.12646">
        <ele>248.2</ele>
        <time>2022-11-20T09:35:33Z</time>
      </trkpt>
      <trkpt lat="43.32487" lon="1.1265">
        <ele>248.6</ele>
        <time>2022-11-20T09:35:34Z</time>
      </trkpt>
      <trkpt lat="43.3249" lon="1.12654">
        <ele>249</ele>
        <time>2022-11-20T09:35:35Z</time>
      </trkpt>
      <trkpt lat="43.32497" lon="1.12661">
        <ele>249.6</ele>
        <time>2022-11-20T09:35:37Z</time>
      </trkpt>
      <trkpt lat="43.32505" lon="1.12665">
        <ele>250.2</ele>
        <time>2022-11-20T09:35:39Z</time>
      </trkpt>
      <trkpt lat="43.32509" lon="1.12666">
        <ele>250.4</ele>
        <time>2022-11-20T09:35:40Z</time>
      </trkpt>
      <trkpt lat="43.32525" lon="1.12667">
        <ele>251.4</ele>
        <time>2022-11-20T09:35:44Z</time>
      </trkpt>
      <trkpt lat="43.32529" lon="1.12667">
        <ele>251.6</ele>
        <time>2022-11-20T09:35:45Z</time>
      </trkpt>
      <trkpt lat="43.32541" lon="1.12661">
        <ele>252.8</ele>
        <time>2022-11-20T09:35:48Z</time>
      </trkpt>
      <trkpt lat="43.32548" lon="1.12655">
        <ele>254</ele>
        <time>2022-11-20T09:35:50Z</time>
      </trkpt>
      <trkpt lat="43.32557" lon="1.12637">
        <ele>255.8</ele>
        <time>2022-11-20T09:35:54Z</time>
      </trkpt>
      <trkpt lat="43.32563" lon="1.12622">
        <ele>256.8</ele>
        <time>2022-11-20T09:35:57Z</time>
      </trkpt>
      <trkpt lat="43.32565" lon="1.12617">
        <ele>257.2</ele>
        <time>2022-11-20T09:35:58Z</time>
      </trkpt>
      <trkpt lat="43.3257" lon="1.12607">
        <ele>257.6</ele>
        <time>2022-11-20T09:36:00Z</time>
      </trkpt>
      <trkpt lat="43.32575" lon="1.12597">
        <ele>258.4</ele>
        <time>2022-11-20T09:36:02Z</time>
      </trkpt>
      <trkpt lat="43.3258" lon="1.12587">
        <ele>258.8</ele>
        <time>2022-11-20T09:36:04Z</time>
      </trkpt>
      <trkpt lat="43.32583" lon="1.12582">
        <ele>259.4</ele>
        <time>2022-11-20T09:36:05Z</time>
      </trkpt>
      <trkpt lat="43.326" lon="1.12561">
        <ele>260.8</ele>
        <time>2022-11-20T09:36:10Z</time>
      </trkpt>
      <trkpt lat="43.32621" lon="1.12544">
        <ele>261.8</ele>
        <time>2022-11-20T09:36:15Z</time>
      </trkpt>
      <trkpt lat="43.32635" lon="1.12534">
        <ele>262.6</ele>
        <time>2022-11-20T09:36:18Z</time>
      </trkpt>
      <trkpt lat="43.3264" lon="1.1253">
        <ele>262.8</ele>
        <time>2022-11-20T09:36:19Z</time>
      </trkpt>
      <trkpt lat="43.32672" lon="1.12511">
        <ele>264</ele>
        <time>2022-11-20T09:36:25Z</time>
      </trkpt>
      <trkpt lat="43.32677" lon="1.12509">
        <ele>264.2</ele>
        <time>2022-11-20T09:36:26Z</time>
      </trkpt>
      <trkpt lat="43.32698" lon="1.125">
        <ele>265</ele>
        <time>2022-11-20T09:36:30Z</time>
      </trkpt>
      <trkpt lat="43.32721" lon="1.12492">
        <ele>265.8</ele>
        <time>2022-11-20T09:36:34Z</time>
      </trkpt>
      <trkpt lat="43.32738" lon="1.12486">
        <ele>266.2</ele>
        <time>2022-11-20T09:36:37Z</time>
      </trkpt>
      <trkpt lat="43.32773" lon="1.12475">
        <ele>266.4</ele>
        <time>2022-11-20T09:36:43Z</time>
      </trkpt>
      <trkpt lat="43.3283" lon="1.12456">
        <ele>266.6</ele>
        <time>2022-11-20T09:36:52Z</time>
      </trkpt>
      <trkpt lat="43.32882" lon="1.12439">
        <ele>266.8</ele>
        <time>2022-11-20T09:37:00Z</time>
      </trkpt>
      <trkpt lat="43.32889" lon="1.12436">
        <ele>266.6</ele>
        <time>2022-11-20T09:37:01Z</time>
      </trkpt>
      <trkpt lat="43.32903" lon="1.12433">
        <ele>266.4</ele>
        <time>2022-11-20T09:37:03Z</time>
      </trkpt>
      <trkpt lat="43.32959" lon="1.12423">
        <ele>266.4</ele>
        <time>2022-11-20T09:37:11Z</time>
      </trkpt>
      <trkpt lat="43.3302" lon="1.12423">
        <ele>266.6</ele>
        <time>2022-11-20T09:37:20Z</time>
      </trkpt>
      <trkpt lat="43.33078" lon="1.12414">
        <ele>266.8</ele>
        <time>2022-11-20T09:37:29Z</time>
      </trkpt>
      <trkpt lat="43.33105" lon="1.12401">
        <ele>267.2</ele>
        <time>2022-11-20T09:37:34Z</time>
      </trkpt>
      <trkpt lat="43.33127" lon="1.12383">
        <ele>267.4</ele>
        <time>2022-11-20T09:37:38Z</time>
      </trkpt>
      <trkpt lat="43.33149" lon="1.12365">
        <ele>267.8</ele>
        <time>2022-11-20T09:37:42Z</time>
      </trkpt>
      <trkpt lat="43.33175" lon="1.12344">
        <ele>268.4</ele>
        <time>2022-11-20T09:37:47Z</time>
      </trkpt>
      <trkpt lat="43.33211" lon="1.12315">
        <ele>269.2</ele>
        <time>2022-11-20T09:37:54Z</time>
      </trkpt>
      <trkpt lat="43.33232" lon="1.12298">
        <ele>269.4</ele>
        <time>2022-11-20T09:37:58Z</time>
      </trkpt>
      <trkpt lat="43.33263" lon="1.12274">
        <ele>270</ele>
        <time>2022-11-20T09:38:04Z</time>
      </trkpt>
      <trkpt lat="43.3328" lon="1.12265">
        <ele>270.2</ele>
        <time>2022-11-20T09:38:07Z</time>
      </trkpt>
      <trkpt lat="43.33293" lon="1.12262">
        <ele>270.4</ele>
        <time>2022-11-20T09:38:09Z</time>
      </trkpt>
      <trkpt lat="43.33328" lon="1.12268">
        <ele>271.2</ele>
        <time>2022-11-20T09:38:15Z</time>
      </trkpt>
      <trkpt lat="43.33345" lon="1.12272">
        <ele>271.6</ele>
        <time>2022-11-20T09:38:18Z</time>
      </trkpt>
      <trkpt lat="43.33378" lon="1.12282">
        <ele>272.8</ele>
        <time>2022-11-20T09:38:24Z</time>
      </trkpt>
      <trkpt lat="43.33399" lon="1.12291">
        <ele>274</ele>
        <time>2022-11-20T09:38:28Z</time>
      </trkpt>
      <trkpt lat="43.33415" lon="1.12298">
        <ele>275</ele>
        <time>2022-11-20T09:38:31Z</time>
      </trkpt>
      <trkpt lat="43.33442" lon="1.12309">
        <ele>276</ele>
        <time>2022-11-20T09:38:36Z</time>
      </trkpt>
      <trkpt lat="43.33448" lon="1.12311">
        <ele>276.2</ele>
        <time>2022-11-20T09:38:37Z</time>
      </trkpt>
      <trkpt lat="43.33494" lon="1.12331">
        <ele>277.2</ele>
        <time>2022-11-20T09:38:45Z</time>
      </trkpt>
      <trkpt lat="43.33505" lon="1.12336">
        <ele>277.6</ele>
        <time>2022-11-20T09:38:47Z</time>
      </trkpt>
      <trkpt lat="43.33541" lon="1.12349">
        <ele>278.4</ele>
        <time>2022-11-20T09:38:53Z</time>
      </trkpt>
      <trkpt lat="43.33553" lon="1.12353">
        <ele>278.6</ele>
        <time>2022-11-20T09:38:55Z</time>
      </trkpt>
      <trkpt lat="43.33605" lon="1.12364">
        <ele>278.8</ele>
        <time>2022-11-20T09:39:03Z</time>
      </trkpt>
      <trkpt lat="43.33661" lon="1.12364">
        <ele>278.8</ele>
        <time>2022-11-20T09:39:11Z</time>
      </trkpt>
      <trkpt lat="43.33686" lon="1.12361">
        <ele>278.2</ele>
        <time>2022-11-20T09:39:14Z</time>
      </trkpt>
      <trkpt lat="43.33704" lon="1.12358">
        <ele>277.8</ele>
        <time>2022-11-20T09:39:16Z</time>
      </trkpt>
      <trkpt lat="43.33723" lon="1.12353">
        <ele>277</ele>
        <time>2022-11-20T09:39:18Z</time>
      </trkpt>
      <trkpt lat="43.33741" lon="1.12347">
        <ele>276.6</ele>
        <time>2022-11-20T09:39:20Z</time>
      </trkpt>
      <trkpt lat="43.3375" lon="1.12345">
        <ele>276.2</ele>
        <time>2022-11-20T09:39:21Z</time>
      </trkpt>
      <trkpt lat="43.33759" lon="1.12343">
        <ele>275.6</ele>
        <time>2022-11-20T09:39:22Z</time>
      </trkpt>
      <trkpt lat="43.33777" lon="1.12338">
        <ele>274.6</ele>
        <time>2022-11-20T09:39:24Z</time>
      </trkpt>
      <trkpt lat="43.33818" lon="1.12326">
        <ele>273.8</ele>
        <time>2022-11-20T09:39:29Z</time>
      </trkpt>
      <trkpt lat="43.33871" lon="1.12311">
        <ele>275</ele>
        <time>2022-11-20T09:39:36Z</time>
      </trkpt>
      <trkpt lat="43.33878" lon="1.12309">
        <ele>275.2</ele>
        <time>2022-11-20T09:39:37Z</time>
      </trkpt>
      <trkpt lat="43.33901" lon="1.12303">
        <ele>275.8</ele>
        <time>2022-11-20T09:39:40Z</time>
      </trkpt>
      <trkpt lat="43.33948" lon="1.12289">
        <ele>276.2</ele>
        <time>2022-11-20T09:39:46Z</time>
      </trkpt>
      <trkpt lat="43.33985" lon="1.12279">
        <ele>276</ele>
        <time>2022-11-20T09:39:50Z</time>
      </trkpt>
      <trkpt lat="43.34042" lon="1.12271">
        <ele>274.8</ele>
        <time>2022-11-20T09:39:56Z</time>
      </trkpt>
      <trkpt lat="43.3405" lon="1.1227">
        <ele>274.6</ele>
        <time>2022-11-20T09:39:57Z</time>
      </trkpt>
      <trkpt lat="43.34084" lon="1.12268">
        <ele>274.6</ele>
        <time>2022-11-20T09:40:01Z</time>
      </trkpt>
      <trkpt lat="43.3414" lon="1.12267">
        <ele>275.4</ele>
        <time>2022-11-20T09:40:08Z</time>
      </trkpt>
      <trkpt lat="43.34155" lon="1.12267">
        <ele>276</ele>
        <time>2022-11-20T09:40:10Z</time>
      </trkpt>
      <trkpt lat="43.34175" lon="1.12266">
        <ele>276.8</ele>
        <time>2022-11-20T09:40:13Z</time>
      </trkpt>
      <trkpt lat="43.34181" lon="1.12266">
        <ele>277</ele>
        <time>2022-11-20T09:40:14Z</time>
      </trkpt>
      <trkpt lat="43.342" lon="1.12265">
        <ele>278.4</ele>
        <time>2022-11-20T09:40:17Z</time>
      </trkpt>
      <trkpt lat="43.34224" lon="1.12264">
        <ele>279.6</ele>
        <time>2022-11-20T09:40:21Z</time>
      </trkpt>
      <trkpt lat="43.34235" lon="1.12263">
        <ele>280.2</ele>
        <time>2022-11-20T09:40:23Z</time>
      </trkpt>
      <trkpt lat="43.3424" lon="1.12263">
        <ele>280.6</ele>
        <time>2022-11-20T09:40:24Z</time>
      </trkpt>
      <trkpt lat="43.34246" lon="1.12263">
        <ele>280.8</ele>
        <time>2022-11-20T09:40:25Z</time>
      </trkpt>
      <trkpt lat="43.34262" lon="1.12261">
        <ele>281.4</ele>
        <time>2022-11-20T09:40:28Z</time>
      </trkpt>
      <trkpt lat="43.34274" lon="1.12262">
        <ele>282</ele>
        <time>2022-11-20T09:40:30Z</time>
      </trkpt>
      <trkpt lat="43.3428" lon="1.12262">
        <ele>282</ele>
        <time>2022-11-20T09:40:31Z</time>
      </trkpt>
      <trkpt lat="43.34313" lon="1.12262">
        <ele>283</ele>
        <time>2022-11-20T09:40:36Z</time>
      </trkpt>
      <trkpt lat="43.3435" lon="1.12261">
        <ele>284</ele>
        <time>2022-11-20T09:40:41Z</time>
      </trkpt>
      <trkpt lat="43.34403" lon="1.1226">
        <ele>284.4</ele>
        <time>2022-11-20T09:40:48Z</time>
      </trkpt>
      <trkpt lat="43.34462" lon="1.12257">
        <ele>285</ele>
        <time>2022-11-20T09:40:56Z</time>
      </trkpt>
      <trkpt lat="43.34469" lon="1.12257">
        <ele>285.2</ele>
        <time>2022-11-20T09:40:57Z</time>
      </trkpt>
      <trkpt lat="43.34476" lon="1.12256">
        <ele>285.2</ele>
        <time>2022-11-20T09:40:58Z</time>
      </trkpt>
      <trkpt lat="43.3453" lon="1.12248">
        <ele>286</ele>
        <time>2022-11-20T09:41:05Z</time>
      </trkpt>
      <trkpt lat="43.34547" lon="1.12245">
        <ele>286</ele>
        <time>2022-11-20T09:41:07Z</time>
      </trkpt>
      <trkpt lat="43.34602" lon="1.12231">
        <ele>284.8</ele>
        <time>2022-11-20T09:41:13Z</time>
      </trkpt>
      <trkpt lat="43.34628" lon="1.12223">
        <ele>284</ele>
        <time>2022-11-20T09:41:16Z</time>
      </trkpt>
      <trkpt lat="43.34659" lon="1.12211">
        <ele>283.4</ele>
        <time>2022-11-20T09:41:20Z</time>
      </trkpt>
      <trkpt lat="43.34709" lon="1.12186">
        <ele>283.4</ele>
        <time>2022-11-20T09:41:27Z</time>
      </trkpt>
      <trkpt lat="43.34722" lon="1.12174">
        <ele>283.6</ele>
        <time>2022-11-20T09:41:29Z</time>
      </trkpt>
      <trkpt lat="43.34732" lon="1.12163">
        <ele>284.6</ele>
        <time>2022-11-20T09:41:31Z</time>
      </trkpt>
      <trkpt lat="43.34748" lon="1.12145">
        <ele>285.2</ele>
        <time>2022-11-20T09:41:34Z</time>
      </trkpt>
      <trkpt lat="43.34757" lon="1.12133">
        <ele>286.4</ele>
        <time>2022-11-20T09:41:36Z</time>
      </trkpt>
      <trkpt lat="43.34766" lon="1.12123">
        <ele>287.4</ele>
        <time>2022-11-20T09:41:38Z</time>
      </trkpt>
      <trkpt lat="43.34771" lon="1.12118">
        <ele>287.8</ele>
        <time>2022-11-20T09:41:39Z</time>
      </trkpt>
      <trkpt lat="43.34786" lon="1.12102">
        <ele>289.2</ele>
        <time>2022-11-20T09:41:43Z</time>
      </trkpt>
      <trkpt lat="43.34791" lon="1.12098">
        <ele>289.6</ele>
        <time>2022-11-20T09:41:44Z</time>
      </trkpt>
      <trkpt lat="43.348" lon="1.12096">
        <ele>290.2</ele>
        <time>2022-11-20T09:41:46Z</time>
      </trkpt>
      <trkpt lat="43.34805" lon="1.12099">
        <ele>290.6</ele>
        <time>2022-11-20T09:41:47Z</time>
      </trkpt>
      <trkpt lat="43.34808" lon="1.12102">
        <ele>290.8</ele>
        <time>2022-11-20T09:41:48Z</time>
      </trkpt>
      <trkpt lat="43.34816" lon="1.12114">
        <ele>291.8</ele>
        <time>2022-11-20T09:41:50Z</time>
      </trkpt>
      <trkpt lat="43.3482" lon="1.1212">
        <ele>291.8</ele>
        <time>2022-11-20T09:41:51Z</time>
      </trkpt>
      <trkpt lat="43.34836" lon="1.12148">
        <ele>293</ele>
        <time>2022-11-20T09:41:56Z</time>
      </trkpt>
      <trkpt lat="43.34845" lon="1.12163">
        <ele>293.6</ele>
        <time>2022-11-20T09:41:59Z</time>
      </trkpt>
      <trkpt lat="43.34862" lon="1.12192">
        <ele>294.2</ele>
        <time>2022-11-20T09:42:05Z</time>
      </trkpt>
      <trkpt lat="43.34872" lon="1.12208">
        <ele>294.4</ele>
        <time>2022-11-20T09:42:08Z</time>
      </trkpt>
      <trkpt lat="43.34881" lon="1.12213">
        <ele>294.4</ele>
        <time>2022-11-20T09:42:10Z</time>
      </trkpt>
      <trkpt lat="43.34885" lon="1.12213">
        <ele>294.4</ele>
        <time>2022-11-20T09:42:11Z</time>
      </trkpt>
      <trkpt lat="43.3489" lon="1.12211">
        <ele>294.6</ele>
        <time>2022-11-20T09:42:12Z</time>
      </trkpt>
      <trkpt lat="43.34898" lon="1.12204">
        <ele>294.6</ele>
        <time>2022-11-20T09:42:14Z</time>
      </trkpt>
      <trkpt lat="43.34902" lon="1.122">
        <ele>294.6</ele>
        <time>2022-11-20T09:42:15Z</time>
      </trkpt>
      <trkpt lat="43.34906" lon="1.12197">
        <ele>294.6</ele>
        <time>2022-11-20T09:42:16Z</time>
      </trkpt>
      <trkpt lat="43.34917" lon="1.12197">
        <ele>294.6</ele>
        <time>2022-11-20T09:42:18Z</time>
      </trkpt>
      <trkpt lat="43.34947" lon="1.12201">
        <ele>294.4</ele>
        <time>2022-11-20T09:42:23Z</time>
      </trkpt>
      <trkpt lat="43.34994" lon="1.12204">
        <ele>293.8</ele>
        <time>2022-11-20T09:42:30Z</time>
      </trkpt>
      <trkpt lat="43.35038" lon="1.12209">
        <ele>293</ele>
        <time>2022-11-20T09:42:36Z</time>
      </trkpt>
      <trkpt lat="43.35066" lon="1.12213">
        <ele>291.8</ele>
        <time>2022-11-20T09:42:40Z</time>
      </trkpt>
      <trkpt lat="43.35092" lon="1.12214">
        <ele>291.4</ele>
        <time>2022-11-20T09:42:43Z</time>
      </trkpt>
      <trkpt lat="43.35126" lon="1.12217">
        <ele>290.8</ele>
        <time>2022-11-20T09:42:47Z</time>
      </trkpt>
      <trkpt lat="43.35153" lon="1.12218">
        <ele>290.4</ele>
        <time>2022-11-20T09:42:50Z</time>
      </trkpt>
      <trkpt lat="43.35178" lon="1.12218">
        <ele>289.6</ele>
        <time>2022-11-20T09:42:53Z</time>
      </trkpt>
      <trkpt lat="43.35212" lon="1.12217">
        <ele>288.6</ele>
        <time>2022-11-20T09:42:57Z</time>
      </trkpt>
      <trkpt lat="43.35228" lon="1.12216">
        <ele>288</ele>
        <time>2022-11-20T09:42:59Z</time>
      </trkpt>
      <trkpt lat="43.35252" lon="1.12215">
        <ele>287.2</ele>
        <time>2022-11-20T09:43:02Z</time>
      </trkpt>
      <trkpt lat="43.35307" lon="1.12213">
        <ele>286</ele>
        <time>2022-11-20T09:43:09Z</time>
      </trkpt>
      <trkpt lat="43.35361" lon="1.1221">
        <ele>285</ele>
        <time>2022-11-20T09:43:16Z</time>
      </trkpt>
      <trkpt lat="43.35401" lon="1.12199">
        <ele>284.4</ele>
        <time>2022-11-20T09:43:21Z</time>
      </trkpt>
      <trkpt lat="43.35409" lon="1.12195">
        <ele>284.2</ele>
        <time>2022-11-20T09:43:22Z</time>
      </trkpt>
      <trkpt lat="43.35431" lon="1.12181">
        <ele>284</ele>
        <time>2022-11-20T09:43:25Z</time>
      </trkpt>
      <trkpt lat="43.35438" lon="1.12176">
        <ele>283.8</ele>
        <time>2022-11-20T09:43:26Z</time>
      </trkpt>
      <trkpt lat="43.35474" lon="1.12148">
        <ele>283</ele>
        <time>2022-11-20T09:43:31Z</time>
      </trkpt>
      <trkpt lat="43.35488" lon="1.12137">
        <ele>282.8</ele>
        <time>2022-11-20T09:43:33Z</time>
      </trkpt>
      <trkpt lat="43.35523" lon="1.12117">
        <ele>282</ele>
        <time>2022-11-20T09:43:37Z</time>
      </trkpt>
      <trkpt lat="43.35532" lon="1.12113">
        <ele>281.6</ele>
        <time>2022-11-20T09:43:38Z</time>
      </trkpt>
      <trkpt lat="43.35575" lon="1.12096">
        <ele>280.6</ele>
        <time>2022-11-20T09:43:43Z</time>
      </trkpt>
      <trkpt lat="43.35596" lon="1.12089">
        <ele>279.8</ele>
        <time>2022-11-20T09:43:45Z</time>
      </trkpt>
      <trkpt lat="43.35604" lon="1.12087">
        <ele>279.2</ele>
        <time>2022-11-20T09:43:46Z</time>
      </trkpt>
      <trkpt lat="43.35636" lon="1.12079">
        <ele>278.2</ele>
        <time>2022-11-20T09:43:49Z</time>
      </trkpt>
      <trkpt lat="43.35656" lon="1.12074">
        <ele>277</ele>
        <time>2022-11-20T09:43:51Z</time>
      </trkpt>
      <trkpt lat="43.35677" lon="1.1207">
        <ele>276.2</ele>
        <time>2022-11-20T09:43:53Z</time>
      </trkpt>
      <trkpt lat="43.35688" lon="1.12069">
        <ele>276</ele>
        <time>2022-11-20T09:43:54Z</time>
      </trkpt>
      <trkpt lat="43.3572" lon="1.12063">
        <ele>274.6</ele>
        <time>2022-11-20T09:43:57Z</time>
      </trkpt>
      <trkpt lat="43.35753" lon="1.12057">
        <ele>273.6</ele>
        <time>2022-11-20T09:44:00Z</time>
      </trkpt>
      <trkpt lat="43.35764" lon="1.12055">
        <ele>273.4</ele>
        <time>2022-11-20T09:44:01Z</time>
      </trkpt>
      <trkpt lat="43.35798" lon="1.1205">
        <ele>272.4</ele>
        <time>2022-11-20T09:44:04Z</time>
      </trkpt>
      <trkpt lat="43.35833" lon="1.12044">
        <ele>271</ele>
        <time>2022-11-20T09:44:07Z</time>
      </trkpt>
      <trkpt lat="43.35858" lon="1.12039">
        <ele>269.8</ele>
        <time>2022-11-20T09:44:09Z</time>
      </trkpt>
      <trkpt lat="43.35881" lon="1.1203">
        <ele>268.6</ele>
        <time>2022-11-20T09:44:11Z</time>
      </trkpt>
      <trkpt lat="43.35905" lon="1.1202">
        <ele>267.2</ele>
        <time>2022-11-20T09:44:13Z</time>
      </trkpt>
      <trkpt lat="43.35926" lon="1.1201">
        <ele>266</ele>
        <time>2022-11-20T09:44:15Z</time>
      </trkpt>
      <trkpt lat="43.35947" lon="1.12">
        <ele>265</ele>
        <time>2022-11-20T09:44:17Z</time>
      </trkpt>
      <trkpt lat="43.35956" lon="1.11995">
        <ele>264.8</ele>
        <time>2022-11-20T09:44:18Z</time>
      </trkpt>
      <trkpt lat="43.35974" lon="1.1198">
        <ele>264.2</ele>
        <time>2022-11-20T09:44:20Z</time>
      </trkpt>
      <trkpt lat="43.3598" lon="1.11968">
        <ele>263.4</ele>
        <time>2022-11-20T09:44:21Z</time>
      </trkpt>
      <trkpt lat="43.35985" lon="1.11955">
        <ele>262.8</ele>
        <time>2022-11-20T09:44:22Z</time>
      </trkpt>
      <trkpt lat="43.35987" lon="1.11927">
        <ele>262.2</ele>
        <time>2022-11-20T09:44:24Z</time>
      </trkpt>
      <trkpt lat="43.3598" lon="1.11896">
        <ele>261.2</ele>
        <time>2022-11-20T09:44:26Z</time>
      </trkpt>
      <trkpt lat="43.35976" lon="1.11881">
        <ele>260.8</ele>
        <time>2022-11-20T09:44:27Z</time>
      </trkpt>
      <trkpt lat="43.35971" lon="1.11866">
        <ele>260</ele>
        <time>2022-11-20T09:44:28Z</time>
      </trkpt>
      <trkpt lat="43.35959" lon="1.11835">
        <ele>258.8</ele>
        <time>2022-11-20T09:44:30Z</time>
      </trkpt>
      <trkpt lat="43.35949" lon="1.11806">
        <ele>258.2</ele>
        <time>2022-11-20T09:44:32Z</time>
      </trkpt>
      <trkpt lat="43.35944" lon="1.11791">
        <ele>257.4</ele>
        <time>2022-11-20T09:44:33Z</time>
      </trkpt>
      <trkpt lat="43.35934" lon="1.11764">
        <ele>255.8</ele>
        <time>2022-11-20T09:44:35Z</time>
      </trkpt>
      <trkpt lat="43.35926" lon="1.1174">
        <ele>254.6</ele>
        <time>2022-11-20T09:44:37Z</time>
      </trkpt>
      <trkpt lat="43.35922" lon="1.1173">
        <ele>254.2</ele>
        <time>2022-11-20T09:44:38Z</time>
      </trkpt>
      <trkpt lat="43.3592" lon="1.11721">
        <ele>253.6</ele>
        <time>2022-11-20T09:44:39Z</time>
      </trkpt>
      <trkpt lat="43.3592" lon="1.11713">
        <ele>253.2</ele>
        <time>2022-11-20T09:44:40Z</time>
      </trkpt>
      <trkpt lat="43.35924" lon="1.11707">
        <ele>252.4</ele>
        <time>2022-11-20T09:44:41Z</time>
      </trkpt>
      <trkpt lat="43.3593" lon="1.11706">
        <ele>251.8</ele>
        <time>2022-11-20T09:44:42Z</time>
      </trkpt>
      <trkpt lat="43.35942" lon="1.11713">
        <ele>250.6</ele>
        <time>2022-11-20T09:44:44Z</time>
      </trkpt>
      <trkpt lat="43.35949" lon="1.11719">
        <ele>250</ele>
        <time>2022-11-20T09:44:45Z</time>
      </trkpt>
      <trkpt lat="43.35956" lon="1.11725">
        <ele>248.8</ele>
        <time>2022-11-20T09:44:46Z</time>
      </trkpt>
      <trkpt lat="43.35972" lon="1.1174">
        <ele>247.6</ele>
        <time>2022-11-20T09:44:48Z</time>
      </trkpt>
      <trkpt lat="43.35988" lon="1.11753">
        <ele>246.6</ele>
        <time>2022-11-20T09:44:50Z</time>
      </trkpt>
      <trkpt lat="43.35997" lon="1.11759">
        <ele>246.4</ele>
        <time>2022-11-20T09:44:51Z</time>
      </trkpt>
      <trkpt lat="43.36015" lon="1.11771">
        <ele>245.2</ele>
        <time>2022-11-20T09:44:53Z</time>
      </trkpt>
      <trkpt lat="43.36035" lon="1.11781">
        <ele>244</ele>
        <time>2022-11-20T09:44:55Z</time>
      </trkpt>
      <trkpt lat="43.36046" lon="1.11786">
        <ele>243.6</ele>
        <time>2022-11-20T09:44:56Z</time>
      </trkpt>
      <trkpt lat="43.36068" lon="1.11794">
        <ele>242.8</ele>
        <time>2022-11-20T09:44:58Z</time>
      </trkpt>
      <trkpt lat="43.36092" lon="1.11796">
        <ele>241.2</ele>
        <time>2022-11-20T09:45:00Z</time>
      </trkpt>
      <trkpt lat="43.36129" lon="1.11787">
        <ele>239</ele>
        <time>2022-11-20T09:45:03Z</time>
      </trkpt>
      <trkpt lat="43.36141" lon="1.11782">
        <ele>238.4</ele>
        <time>2022-11-20T09:45:04Z</time>
      </trkpt>
      <trkpt lat="43.36152" lon="1.11776">
        <ele>237.4</ele>
        <time>2022-11-20T09:45:05Z</time>
      </trkpt>
      <trkpt lat="43.36163" lon="1.11769">
        <ele>236.4</ele>
        <time>2022-11-20T09:45:06Z</time>
      </trkpt>
      <trkpt lat="43.36183" lon="1.11758">
        <ele>234.6</ele>
        <time>2022-11-20T09:45:08Z</time>
      </trkpt>
      <trkpt lat="43.36202" lon="1.11753">
        <ele>232.8</ele>
        <time>2022-11-20T09:45:10Z</time>
      </trkpt>
      <trkpt lat="43.36211" lon="1.11747">
        <ele>232.4</ele>
        <time>2022-11-20T09:45:11Z</time>
      </trkpt>
      <trkpt lat="43.36219" lon="1.11739">
        <ele>231.6</ele>
        <time>2022-11-20T09:45:12Z</time>
      </trkpt>
      <trkpt lat="43.36234" lon="1.11723">
        <ele>230.2</ele>
        <time>2022-11-20T09:45:14Z</time>
      </trkpt>
      <trkpt lat="43.36259" lon="1.11704">
        <ele>229.2</ele>
        <time>2022-11-20T09:45:17Z</time>
      </trkpt>
      <trkpt lat="43.36286" lon="1.11685">
        <ele>228.4</ele>
        <time>2022-11-20T09:45:20Z</time>
      </trkpt>
      <trkpt lat="43.36305" lon="1.11672">
        <ele>228</ele>
        <time>2022-11-20T09:45:22Z</time>
      </trkpt>
      <trkpt lat="43.36332" lon="1.11653">
        <ele>227.6</ele>
        <time>2022-11-20T09:45:25Z</time>
      </trkpt>
      <trkpt lat="43.36385" lon="1.11619">
        <ele>227.4</ele>
        <time>2022-11-20T09:45:31Z</time>
      </trkpt>
      <trkpt lat="43.36402" lon="1.11607">
        <ele>227.2</ele>
        <time>2022-11-20T09:45:33Z</time>
      </trkpt>
      <trkpt lat="43.36448" lon="1.11575">
        <ele>227.2</ele>
        <time>2022-11-20T09:45:39Z</time>
      </trkpt>
      <trkpt lat="43.36476" lon="1.11557">
        <ele>227</ele>
        <time>2022-11-20T09:45:43Z</time>
      </trkpt>
      <trkpt lat="43.36504" lon="1.11537">
        <ele>227</ele>
        <time>2022-11-20T09:45:47Z</time>
      </trkpt>
      <trkpt lat="43.36555" lon="1.11504">
        <ele>226.2</ele>
        <time>2022-11-20T09:45:54Z</time>
      </trkpt>
      <trkpt lat="43.36571" lon="1.11497">
        <ele>226.2</ele>
        <time>2022-11-20T09:45:56Z</time>
      </trkpt>
      <trkpt lat="43.36595" lon="1.11492">
        <ele>225.8</ele>
        <time>2022-11-20T09:45:59Z</time>
      </trkpt>
      <trkpt lat="43.36603" lon="1.11493">
        <ele>225.6</ele>
        <time>2022-11-20T09:46:00Z</time>
      </trkpt>
      <trkpt lat="43.36627" lon="1.115">
        <ele>225</ele>
        <time>2022-11-20T09:46:03Z</time>
      </trkpt>
      <trkpt lat="43.36635" lon="1.11504">
        <ele>225</ele>
        <time>2022-11-20T09:46:04Z</time>
      </trkpt>
      <trkpt lat="43.36643" lon="1.11508">
        <ele>224.6</ele>
        <time>2022-11-20T09:46:05Z</time>
      </trkpt>
      <trkpt lat="43.36671" lon="1.11533">
        <ele>224.2</ele>
        <time>2022-11-20T09:46:09Z</time>
      </trkpt>
      <trkpt lat="43.36707" lon="1.11566">
        <ele>223.8</ele>
        <time>2022-11-20T09:46:14Z</time>
      </trkpt>
      <trkpt lat="43.36756" lon="1.11611">
        <ele>223.6</ele>
        <time>2022-11-20T09:46:21Z</time>
      </trkpt>
      <trkpt lat="43.36804" lon="1.11654">
        <ele>223.4</ele>
        <time>2022-11-20T09:46:28Z</time>
      </trkpt>
      <trkpt lat="43.36824" lon="1.11672">
        <ele>223.4</ele>
        <time>2022-11-20T09:46:31Z</time>
      </trkpt>
      <trkpt lat="43.3687" lon="1.11714">
        <ele>224</ele>
        <time>2022-11-20T09:46:38Z</time>
      </trkpt>
      <trkpt lat="43.36885" lon="1.11727">
        <ele>224.2</ele>
        <time>2022-11-20T09:46:40Z</time>
      </trkpt>
      <trkpt lat="43.36937" lon="1.11774">
        <ele>224.8</ele>
        <time>2022-11-20T09:46:47Z</time>
      </trkpt>
      <trkpt lat="43.36951" lon="1.11788">
        <ele>224.8</ele>
        <time>2022-11-20T09:46:49Z</time>
      </trkpt>
      <trkpt lat="43.36988" lon="1.11821">
        <ele>223.8</ele>
        <time>2022-11-20T09:46:54Z</time>
      </trkpt>
      <trkpt lat="43.37039" lon="1.11867">
        <ele>223</ele>
        <time>2022-11-20T09:47:01Z</time>
      </trkpt>
      <trkpt lat="43.37069" lon="1.11895">
        <ele>223.2</ele>
        <time>2022-11-20T09:47:06Z</time>
      </trkpt>
      <trkpt lat="43.37106" lon="1.11929">
        <ele>225.2</ele>
        <time>2022-11-20T09:47:13Z</time>
      </trkpt>
      <trkpt lat="43.3712" lon="1.11942">
        <ele>226.4</ele>
        <time>2022-11-20T09:47:16Z</time>
      </trkpt>
      <trkpt lat="43.37134" lon="1.11956">
        <ele>227.2</ele>
        <time>2022-11-20T09:47:19Z</time>
      </trkpt>
      <trkpt lat="43.37139" lon="1.11961">
        <ele>227.4</ele>
        <time>2022-11-20T09:47:20Z</time>
      </trkpt>
      <trkpt lat="43.3716" lon="1.11979">
        <ele>228.6</ele>
        <time>2022-11-20T09:47:24Z</time>
      </trkpt>
      <trkpt lat="43.37165" lon="1.11984">
        <ele>228.6</ele>
        <time>2022-11-20T09:47:25Z</time>
      </trkpt>
      <trkpt lat="43.37176" lon="1.11993">
        <ele>230.2</ele>
        <time>2022-11-20T09:47:27Z</time>
      </trkpt>
      <trkpt lat="43.37197" lon="1.12012">
        <ele>231.2</ele>
        <time>2022-11-20T09:47:31Z</time>
      </trkpt>
      <trkpt lat="43.37214" lon="1.12027">
        <ele>231.4</ele>
        <time>2022-11-20T09:47:34Z</time>
      </trkpt>
      <trkpt lat="43.37235" lon="1.12045">
        <ele>232.4</ele>
        <time>2022-11-20T09:47:38Z</time>
      </trkpt>
      <trkpt lat="43.37258" lon="1.12065">
        <ele>233.2</ele>
        <time>2022-11-20T09:47:42Z</time>
      </trkpt>
      <trkpt lat="43.37292" lon="1.12095">
        <ele>234.2</ele>
        <time>2022-11-20T09:47:48Z</time>
      </trkpt>
      <trkpt lat="43.37298" lon="1.121">
        <ele>234.4</ele>
        <time>2022-11-20T09:47:49Z</time>
      </trkpt>
      <trkpt lat="43.37336" lon="1.12134">
        <ele>235.4</ele>
        <time>2022-11-20T09:47:55Z</time>
      </trkpt>
      <trkpt lat="43.37354" lon="1.12151">
        <ele>235.8</ele>
        <time>2022-11-20T09:47:58Z</time>
      </trkpt>
      <trkpt lat="43.37404" lon="1.12196">
        <ele>236</ele>
        <time>2022-11-20T09:48:06Z</time>
      </trkpt>
      <trkpt lat="43.37422" lon="1.12212">
        <ele>235.6</ele>
        <time>2022-11-20T09:48:09Z</time>
      </trkpt>
      <trkpt lat="43.37473" lon="1.12258">
        <ele>236.4</ele>
        <time>2022-11-20T09:48:17Z</time>
      </trkpt>
      <trkpt lat="43.37486" lon="1.12269">
        <ele>236.4</ele>
        <time>2022-11-20T09:48:19Z</time>
      </trkpt>
      <trkpt lat="43.37534" lon="1.12312">
        <ele>236.4</ele>
        <time>2022-11-20T09:48:27Z</time>
      </trkpt>
      <trkpt lat="43.3754" lon="1.12317">
        <ele>236.4</ele>
        <time>2022-11-20T09:48:28Z</time>
      </trkpt>
      <trkpt lat="43.37573" lon="1.12347">
        <ele>237.6</ele>
        <time>2022-11-20T09:48:34Z</time>
      </trkpt>
      <trkpt lat="43.37601" lon="1.12372">
        <ele>238.6</ele>
        <time>2022-11-20T09:48:39Z</time>
      </trkpt>
      <trkpt lat="43.37629" lon="1.12396">
        <ele>240</ele>
        <time>2022-11-20T09:48:44Z</time>
      </trkpt>
      <trkpt lat="43.37645" lon="1.12411">
        <ele>240.2</ele>
        <time>2022-11-20T09:48:47Z</time>
      </trkpt>
      <trkpt lat="43.37661" lon="1.12426">
        <ele>241.4</ele>
        <time>2022-11-20T09:48:50Z</time>
      </trkpt>
      <trkpt lat="43.37677" lon="1.12439">
        <ele>242.6</ele>
        <time>2022-11-20T09:48:53Z</time>
      </trkpt>
      <trkpt lat="43.37687" lon="1.12448">
        <ele>243</ele>
        <time>2022-11-20T09:48:55Z</time>
      </trkpt>
      <trkpt lat="43.37708" lon="1.12464">
        <ele>243.6</ele>
        <time>2022-11-20T09:48:59Z</time>
      </trkpt>
      <trkpt lat="43.37732" lon="1.12478">
        <ele>244.8</ele>
        <time>2022-11-20T09:49:03Z</time>
      </trkpt>
      <trkpt lat="43.37756" lon="1.12488">
        <ele>246.2</ele>
        <time>2022-11-20T09:49:07Z</time>
      </trkpt>
      <trkpt lat="43.37779" lon="1.12497">
        <ele>247.4</ele>
        <time>2022-11-20T09:49:11Z</time>
      </trkpt>
      <trkpt lat="43.37802" lon="1.12505">
        <ele>248.4</ele>
        <time>2022-11-20T09:49:15Z</time>
      </trkpt>
      <trkpt lat="43.37823" lon="1.12513">
        <ele>249.6</ele>
        <time>2022-11-20T09:49:19Z</time>
      </trkpt>
      <trkpt lat="43.37833" lon="1.12516">
        <ele>250.4</ele>
        <time>2022-11-20T09:49:21Z</time>
      </trkpt>
      <trkpt lat="43.37843" lon="1.1252">
        <ele>251</ele>
        <time>2022-11-20T09:49:23Z</time>
      </trkpt>
      <trkpt lat="43.37862" lon="1.12528">
        <ele>252</ele>
        <time>2022-11-20T09:49:27Z</time>
      </trkpt>
      <trkpt lat="43.37889" lon="1.12539">
        <ele>253</ele>
        <time>2022-11-20T09:49:32Z</time>
      </trkpt>
      <trkpt lat="43.37905" lon="1.12548">
        <ele>254.4</ele>
        <time>2022-11-20T09:49:35Z</time>
      </trkpt>
      <trkpt lat="43.37923" lon="1.12559">
        <ele>255</ele>
        <time>2022-11-20T09:49:38Z</time>
      </trkpt>
      <trkpt lat="43.37967" lon="1.12592">
        <ele>255</ele>
        <time>2022-11-20T09:49:45Z</time>
      </trkpt>
      <trkpt lat="43.38005" lon="1.12626">
        <ele>254.8</ele>
        <time>2022-11-20T09:49:51Z</time>
      </trkpt>
      <trkpt lat="43.38016" lon="1.12637">
        <ele>255</ele>
        <time>2022-11-20T09:49:53Z</time>
      </trkpt>
      <trkpt lat="43.38033" lon="1.12653">
        <ele>255.4</ele>
        <time>2022-11-20T09:49:56Z</time>
      </trkpt>
      <trkpt lat="43.3806" lon="1.12681">
        <ele>255.4</ele>
        <time>2022-11-20T09:50:01Z</time>
      </trkpt>
      <trkpt lat="43.38108" lon="1.12728">
        <ele>255.8</ele>
        <time>2022-11-20T09:50:10Z</time>
      </trkpt>
      <trkpt lat="43.38114" lon="1.12734">
        <ele>256</ele>
        <time>2022-11-20T09:50:11Z</time>
      </trkpt>
      <trkpt lat="43.38131" lon="1.1275">
        <ele>256.6</ele>
        <time>2022-11-20T09:50:14Z</time>
      </trkpt>
      <trkpt lat="43.38168" lon="1.1278">
        <ele>257.4</ele>
        <time>2022-11-20T09:50:20Z</time>
      </trkpt>
      <trkpt lat="43.38182" lon="1.1279">
        <ele>257.8</ele>
        <time>2022-11-20T09:50:22Z</time>
      </trkpt>
      <trkpt lat="43.38221" lon="1.12812">
        <ele>258.2</ele>
        <time>2022-11-20T09:50:27Z</time>
      </trkpt>
      <trkpt lat="43.38277" lon="1.12837">
        <ele>258.2</ele>
        <time>2022-11-20T09:50:34Z</time>
      </trkpt>
      <trkpt lat="43.38292" lon="1.12843">
        <ele>258</ele>
        <time>2022-11-20T09:50:36Z</time>
      </trkpt>
      <trkpt lat="43.38346" lon="1.12859">
        <ele>258</ele>
        <time>2022-11-20T09:50:43Z</time>
      </trkpt>
      <trkpt lat="43.384" lon="1.12864">
        <ele>258.8</ele>
        <time>2022-11-20T09:50:50Z</time>
      </trkpt>
      <trkpt lat="43.38415" lon="1.12864">
        <ele>259</ele>
        <time>2022-11-20T09:50:52Z</time>
      </trkpt>
      <trkpt lat="43.38465" lon="1.12866">
        <ele>260</ele>
        <time>2022-11-20T09:50:58Z</time>
      </trkpt>
      <trkpt lat="43.3849" lon="1.12867">
        <ele>260.6</ele>
        <time>2022-11-20T09:51:01Z</time>
      </trkpt>
      <trkpt lat="43.38507" lon="1.12867">
        <ele>261.2</ele>
        <time>2022-11-20T09:51:03Z</time>
      </trkpt>
      <trkpt lat="43.38558" lon="1.12868">
        <ele>262.4</ele>
        <time>2022-11-20T09:51:09Z</time>
      </trkpt>
      <trkpt lat="43.38583" lon="1.12869">
        <ele>262.6</ele>
        <time>2022-11-20T09:51:12Z</time>
      </trkpt>
      <trkpt lat="43.38641" lon="1.12872">
        <ele>262.8</ele>
        <time>2022-11-20T09:51:19Z</time>
      </trkpt>
      <trkpt lat="43.38656" lon="1.12872">
        <ele>262.8</ele>
        <time>2022-11-20T09:51:21Z</time>
      </trkpt>
      <trkpt lat="43.38677" lon="1.12873">
        <ele>263.4</ele>
        <time>2022-11-20T09:51:24Z</time>
      </trkpt>
      <trkpt lat="43.38705" lon="1.12874">
        <ele>264.4</ele>
        <time>2022-11-20T09:51:28Z</time>
      </trkpt>
      <trkpt lat="43.38739" lon="1.12875">
        <ele>265.6</ele>
        <time>2022-11-20T09:51:33Z</time>
      </trkpt>
      <trkpt lat="43.38766" lon="1.12877">
        <ele>266.2</ele>
        <time>2022-11-20T09:51:37Z</time>
      </trkpt>
      <trkpt lat="43.38796" lon="1.12878">
        <ele>266.6</ele>
        <time>2022-11-20T09:51:41Z</time>
      </trkpt>
      <trkpt lat="43.38812" lon="1.12878">
        <ele>267</ele>
        <time>2022-11-20T09:51:43Z</time>
      </trkpt>
      <trkpt lat="43.38867" lon="1.1288">
        <ele>267.2</ele>
        <time>2022-11-20T09:51:49Z</time>
      </trkpt>
      <trkpt lat="43.38922" lon="1.1288">
        <ele>265</ele>
        <time>2022-11-20T09:51:54Z</time>
      </trkpt>
      <trkpt lat="43.38933" lon="1.12881">
        <ele>264.8</ele>
        <time>2022-11-20T09:51:55Z</time>
      </trkpt>
      <trkpt lat="43.38967" lon="1.12881">
        <ele>263.8</ele>
        <time>2022-11-20T09:51:58Z</time>
      </trkpt>
      <trkpt lat="43.39001" lon="1.12882">
        <ele>262.6</ele>
        <time>2022-11-20T09:52:01Z</time>
      </trkpt>
      <trkpt lat="43.39012" lon="1.12882">
        <ele>262</ele>
        <time>2022-11-20T09:52:02Z</time>
      </trkpt>
      <trkpt lat="43.39024" lon="1.12882">
        <ele>261.4</ele>
        <time>2022-11-20T09:52:03Z</time>
      </trkpt>
      <trkpt lat="43.39047" lon="1.12882">
        <ele>259.4</ele>
        <time>2022-11-20T09:52:05Z</time>
      </trkpt>
      <trkpt lat="43.3907" lon="1.12882">
        <ele>258.2</ele>
        <time>2022-11-20T09:52:07Z</time>
      </trkpt>
      <trkpt lat="43.39093" lon="1.12881">
        <ele>257.2</ele>
        <time>2022-11-20T09:52:09Z</time>
      </trkpt>
      <trkpt lat="43.39116" lon="1.12881">
        <ele>256</ele>
        <time>2022-11-20T09:52:11Z</time>
      </trkpt>
      <trkpt lat="43.39139" lon="1.1288">
        <ele>255.2</ele>
        <time>2022-11-20T09:52:13Z</time>
      </trkpt>
      <trkpt lat="43.39151" lon="1.1288">
        <ele>255</ele>
        <time>2022-11-20T09:52:14Z</time>
      </trkpt>
      <trkpt lat="43.39185" lon="1.12878">
        <ele>253.6</ele>
        <time>2022-11-20T09:52:17Z</time>
      </trkpt>
      <trkpt lat="43.39207" lon="1.12876">
        <ele>252.4</ele>
        <time>2022-11-20T09:52:19Z</time>
      </trkpt>
      <trkpt lat="43.3923" lon="1.12873">
        <ele>251.2</ele>
        <time>2022-11-20T09:52:21Z</time>
      </trkpt>
      <trkpt lat="43.3924" lon="1.12872">
        <ele>250.8</ele>
        <time>2022-11-20T09:52:22Z</time>
      </trkpt>
      <trkpt lat="43.39291" lon="1.12864">
        <ele>250.2</ele>
        <time>2022-11-20T09:52:27Z</time>
      </trkpt>
      <trkpt lat="43.39301" lon="1.12863">
        <ele>250.2</ele>
        <time>2022-11-20T09:52:28Z</time>
      </trkpt>
      <trkpt lat="43.39359" lon="1.12857">
        <ele>249.8</ele>
        <time>2022-11-20T09:52:34Z</time>
      </trkpt>
      <trkpt lat="43.39388" lon="1.12853">
        <ele>249.6</ele>
        <time>2022-11-20T09:52:37Z</time>
      </trkpt>
      <trkpt lat="43.39443" lon="1.12846">
        <ele>248.8</ele>
        <time>2022-11-20T09:52:43Z</time>
      </trkpt>
      <trkpt lat="43.3947" lon="1.12843">
        <ele>248.2</ele>
        <time>2022-11-20T09:52:46Z</time>
      </trkpt>
      <trkpt lat="43.39528" lon="1.12835">
        <ele>248</ele>
        <time>2022-11-20T09:52:53Z</time>
      </trkpt>
      <trkpt lat="43.39536" lon="1.12833">
        <ele>248.2</ele>
        <time>2022-11-20T09:52:54Z</time>
      </trkpt>
      <trkpt lat="43.39583" lon="1.12826">
        <ele>248.6</ele>
        <time>2022-11-20T09:53:00Z</time>
      </trkpt>
      <trkpt lat="43.39642" lon="1.12819">
        <ele>249.4</ele>
        <time>2022-11-20T09:53:08Z</time>
      </trkpt>
      <trkpt lat="43.39649" lon="1.12818">
        <ele>249.6</ele>
        <time>2022-11-20T09:53:09Z</time>
      </trkpt>
      <trkpt lat="43.39695" lon="1.1281">
        <ele>249.8</ele>
        <time>2022-11-20T09:53:16Z</time>
      </trkpt>
      <trkpt lat="43.39714" lon="1.12809">
        <ele>250.2</ele>
        <time>2022-11-20T09:53:19Z</time>
      </trkpt>
      <trkpt lat="43.39747" lon="1.12804">
        <ele>251.2</ele>
        <time>2022-11-20T09:53:24Z</time>
      </trkpt>
      <trkpt lat="43.39806" lon="1.12796">
        <ele>251.4</ele>
        <time>2022-11-20T09:53:33Z</time>
      </trkpt>
      <trkpt lat="43.39819" lon="1.12794">
        <ele>251.8</ele>
        <time>2022-11-20T09:53:35Z</time>
      </trkpt>
      <trkpt lat="43.39839" lon="1.12791">
        <ele>252.2</ele>
        <time>2022-11-20T09:53:38Z</time>
      </trkpt>
      <trkpt lat="43.39859" lon="1.12789">
        <ele>252.4</ele>
        <time>2022-11-20T09:53:41Z</time>
      </trkpt>
      <trkpt lat="43.39884" lon="1.12786">
        <ele>252.8</ele>
        <time>2022-11-20T09:53:45Z</time>
      </trkpt>
      <trkpt lat="43.3991" lon="1.12783">
        <ele>253.2</ele>
        <time>2022-11-20T09:53:49Z</time>
      </trkpt>
      <trkpt lat="43.3993" lon="1.1278">
        <ele>254.4</ele>
        <time>2022-11-20T09:53:52Z</time>
      </trkpt>
      <trkpt lat="43.39942" lon="1.12778">
        <ele>254.6</ele>
        <time>2022-11-20T09:53:54Z</time>
      </trkpt>
      <trkpt lat="43.39955" lon="1.12776">
        <ele>255.4</ele>
        <time>2022-11-20T09:53:56Z</time>
      </trkpt>
      <trkpt lat="43.39993" lon="1.12766">
        <ele>256.6</ele>
        <time>2022-11-20T09:54:02Z</time>
      </trkpt>
      <trkpt lat="43.40005" lon="1.12761">
        <ele>256.6</ele>
        <time>2022-11-20T09:54:04Z</time>
      </trkpt>
      <trkpt lat="43.40057" lon="1.12737">
        <ele>257</ele>
        <time>2022-11-20T09:54:12Z</time>
      </trkpt>
      <trkpt lat="43.4007" lon="1.12731">
        <ele>257</ele>
        <time>2022-11-20T09:54:14Z</time>
      </trkpt>
      <trkpt lat="43.40118" lon="1.12707">
        <ele>257.6</ele>
        <time>2022-11-20T09:54:21Z</time>
      </trkpt>
      <trkpt lat="43.40145" lon="1.12694">
        <ele>257.6</ele>
        <time>2022-11-20T09:54:25Z</time>
      </trkpt>
      <trkpt lat="43.40199" lon="1.12667">
        <ele>257.6</ele>
        <time>2022-11-20T09:54:33Z</time>
      </trkpt>
      <trkpt lat="43.40214" lon="1.12661">
        <ele>257.6</ele>
        <time>2022-11-20T09:54:35Z</time>
      </trkpt>
      <trkpt lat="43.40272" lon="1.12639">
        <ele>257</ele>
        <time>2022-11-20T09:54:43Z</time>
      </trkpt>
      <trkpt lat="43.40333" lon="1.12627">
        <ele>256.8</ele>
        <time>2022-11-20T09:54:51Z</time>
      </trkpt>
      <trkpt lat="43.40348" lon="1.12624">
        <ele>256.8</ele>
        <time>2022-11-20T09:54:53Z</time>
      </trkpt>
      <trkpt lat="43.4038" lon="1.12617">
        <ele>256.4</ele>
        <time>2022-11-20T09:54:57Z</time>
      </trkpt>
      <trkpt lat="43.40412" lon="1.12614">
        <ele>255.8</ele>
        <time>2022-11-20T09:55:01Z</time>
      </trkpt>
      <trkpt lat="43.40474" lon="1.12617">
        <ele>255.4</ele>
        <time>2022-11-20T09:55:09Z</time>
      </trkpt>
      <trkpt lat="43.40481" lon="1.12617">
        <ele>255.4</ele>
        <time>2022-11-20T09:55:10Z</time>
      </trkpt>
      <trkpt lat="43.40541" lon="1.12621">
        <ele>256.6</ele>
        <time>2022-11-20T09:55:18Z</time>
      </trkpt>
      <trkpt lat="43.40556" lon="1.12622">
        <ele>256.8</ele>
        <time>2022-11-20T09:55:20Z</time>
      </trkpt>
      <trkpt lat="43.40597" lon="1.12621">
        <ele>258</ele>
        <time>2022-11-20T09:55:26Z</time>
      </trkpt>
      <trkpt lat="43.40604" lon="1.1262">
        <ele>258</ele>
        <time>2022-11-20T09:55:27Z</time>
      </trkpt>
      <trkpt lat="43.40646" lon="1.12612">
        <ele>259</ele>
        <time>2022-11-20T09:55:33Z</time>
      </trkpt>
      <trkpt lat="43.40675" lon="1.12605">
        <ele>259.4</ele>
        <time>2022-11-20T09:55:37Z</time>
      </trkpt>
      <trkpt lat="43.40704" lon="1.12597">
        <ele>260.2</ele>
        <time>2022-11-20T09:55:41Z</time>
      </trkpt>
      <trkpt lat="43.4074" lon="1.12588">
        <ele>261</ele>
        <time>2022-11-20T09:55:46Z</time>
      </trkpt>
      <trkpt lat="43.4076" lon="1.1258">
        <ele>261.2</ele>
        <time>2022-11-20T09:55:49Z</time>
      </trkpt>
      <trkpt lat="43.40784" lon="1.12572">
        <ele>261</ele>
        <time>2022-11-20T09:55:53Z</time>
      </trkpt>
      <trkpt lat="43.40792" lon="1.1256">
        <ele>261</ele>
        <time>2022-11-20T09:55:55Z</time>
      </trkpt>
      <trkpt lat="43.4079" lon="1.12545">
        <ele>261</ele>
        <time>2022-11-20T09:55:57Z</time>
      </trkpt>
      <trkpt lat="43.40781" lon="1.12519">
        <ele>260.8</ele>
        <time>2022-11-20T09:56:01Z</time>
      </trkpt>
      <trkpt lat="43.4078" lon="1.12505">
        <ele>261</ele>
        <time>2022-11-20T09:56:03Z</time>
      </trkpt>
      <trkpt lat="43.4078" lon="1.12491">
        <ele>261</ele>
        <time>2022-11-20T09:56:05Z</time>
      </trkpt>
      <trkpt lat="43.40784" lon="1.12478">
        <ele>261.2</ele>
        <time>2022-11-20T09:56:07Z</time>
      </trkpt>
      <trkpt lat="43.40792" lon="1.12451">
        <ele>262.4</ele>
        <time>2022-11-20T09:56:11Z</time>
      </trkpt>
      <trkpt lat="43.40798" lon="1.1243">
        <ele>263.2</ele>
        <time>2022-11-20T09:56:14Z</time>
      </trkpt>
      <trkpt lat="43.40801" lon="1.12415">
        <ele>263.6</ele>
        <time>2022-11-20T09:56:16Z</time>
      </trkpt>
      <trkpt lat="43.40814" lon="1.12355">
        <ele>264.4</ele>
        <time>2022-11-20T09:56:24Z</time>
      </trkpt>
      <trkpt lat="43.40817" lon="1.12339">
        <ele>264.8</ele>
        <time>2022-11-20T09:56:26Z</time>
      </trkpt>
      <trkpt lat="43.40827" lon="1.12289">
        <ele>265.8</ele>
        <time>2022-11-20T09:56:33Z</time>
      </trkpt>
      <trkpt lat="43.40829" lon="1.12281">
        <ele>265.8</ele>
        <time>2022-11-20T09:56:34Z</time>
      </trkpt>
      <trkpt lat="43.40831" lon="1.12266">
        <ele>266</ele>
        <time>2022-11-20T09:56:36Z</time>
      </trkpt>
      <trkpt lat="43.40834" lon="1.12228">
        <ele>266.6</ele>
        <time>2022-11-20T09:56:41Z</time>
      </trkpt>
      <trkpt lat="43.40834" lon="1.12221">
        <ele>266.8</ele>
        <time>2022-11-20T09:56:42Z</time>
      </trkpt>
      <trkpt lat="43.40837" lon="1.12175">
        <ele>268</ele>
        <time>2022-11-20T09:56:48Z</time>
      </trkpt>
      <trkpt lat="43.40837" lon="1.12167">
        <ele>268.2</ele>
        <time>2022-11-20T09:56:49Z</time>
      </trkpt>
      <trkpt lat="43.40839" lon="1.12129">
        <ele>269.2</ele>
        <time>2022-11-20T09:56:54Z</time>
      </trkpt>
      <trkpt lat="43.40841" lon="1.12098">
        <ele>270</ele>
        <time>2022-11-20T09:56:58Z</time>
      </trkpt>
      <trkpt lat="43.40842" lon="1.12081">
        <ele>270.4</ele>
        <time>2022-11-20T09:57:00Z</time>
      </trkpt>
      <trkpt lat="43.40846" lon="1.12033">
        <ele>271.4</ele>
        <time>2022-11-20T09:57:06Z</time>
      </trkpt>
      <trkpt lat="43.40851" lon="1.1201">
        <ele>271.6</ele>
        <time>2022-11-20T09:57:09Z</time>
      </trkpt>
      <trkpt lat="43.40858" lon="1.11996">
        <ele>272</ele>
        <time>2022-11-20T09:57:11Z</time>
      </trkpt>
      <trkpt lat="43.40866" lon="1.11983">
        <ele>272.4</ele>
        <time>2022-11-20T09:57:13Z</time>
      </trkpt>
      <trkpt lat="43.4088" lon="1.11968">
        <ele>272.8</ele>
        <time>2022-11-20T09:57:16Z</time>
      </trkpt>
      <trkpt lat="43.409" lon="1.11957">
        <ele>273.6</ele>
        <time>2022-11-20T09:57:20Z</time>
      </trkpt>
      <trkpt lat="43.40905" lon="1.11956">
        <ele>273.6</ele>
        <time>2022-11-20T09:57:21Z</time>
      </trkpt>
      <trkpt lat="43.40934" lon="1.11951">
        <ele>274.6</ele>
        <time>2022-11-20T09:57:27Z</time>
      </trkpt>
      <trkpt lat="43.4096" lon="1.11945">
        <ele>275.8</ele>
        <time>2022-11-20T09:57:32Z</time>
      </trkpt>
      <trkpt lat="43.40975" lon="1.11942">
        <ele>276.8</ele>
        <time>2022-11-20T09:57:35Z</time>
      </trkpt>
      <trkpt lat="43.40997" lon="1.11937">
        <ele>277.8</ele>
        <time>2022-11-20T09:57:39Z</time>
      </trkpt>
      <trkpt lat="43.41022" lon="1.11931">
        <ele>278.8</ele>
        <time>2022-11-20T09:57:44Z</time>
      </trkpt>
      <trkpt lat="43.41026" lon="1.1193">
        <ele>278.8</ele>
        <time>2022-11-20T09:57:45Z</time>
      </trkpt>
      <trkpt lat="43.41051" lon="1.11925">
        <ele>280.2</ele>
        <time>2022-11-20T09:57:50Z</time>
      </trkpt>
      <trkpt lat="43.4107" lon="1.1192">
        <ele>281</ele>
        <time>2022-11-20T09:57:54Z</time>
      </trkpt>
      <trkpt lat="43.41075" lon="1.11919">
        <ele>281.2</ele>
        <time>2022-11-20T09:57:55Z</time>
      </trkpt>
      <trkpt lat="43.41091" lon="1.11915">
        <ele>281.8</ele>
        <time>2022-11-20T09:57:58Z</time>
      </trkpt>
      <trkpt lat="43.41111" lon="1.11912">
        <ele>282.4</ele>
        <time>2022-11-20T09:58:02Z</time>
      </trkpt>
      <trkpt lat="43.41131" lon="1.11909">
        <ele>283.2</ele>
        <time>2022-11-20T09:58:06Z</time>
      </trkpt>
      <trkpt lat="43.41146" lon="1.11907">
        <ele>283.4</ele>
        <time>2022-11-20T09:58:09Z</time>
      </trkpt>
      <trkpt lat="43.41151" lon="1.11906">
        <ele>283.6</ele>
        <time>2022-11-20T09:58:10Z</time>
      </trkpt>
      <trkpt lat="43.41188" lon="1.11899">
        <ele>284.2</ele>
        <time>2022-11-20T09:58:18Z</time>
      </trkpt>
      <trkpt lat="43.41211" lon="1.11894">
        <ele>284.2</ele>
        <time>2022-11-20T09:58:24Z</time>
      </trkpt>
      <trkpt lat="43.41215" lon="1.11893">
        <ele>284.4</ele>
        <time>2022-11-20T09:58:27Z</time>
      </trkpt>
      <trkpt lat="43.41216" lon="1.11893">
        <ele>284.4</ele>
        <time>2022-11-20T09:58:28Z</time>
      </trkpt>
      <trkpt lat="43.41217" lon="1.11893">
        <ele>284.6</ele>
        <time>2022-11-20T09:58:31Z</time>
      </trkpt>
      <trkpt lat="43.41222" lon="1.11897">
        <ele>284.2</ele>
        <time>2022-11-20T09:58:43Z</time>
      </trkpt>
      <trkpt lat="43.41227" lon="1.1192">
        <ele>283.8</ele>
        <time>2022-11-20T09:58:49Z</time>
      </trkpt>
      <trkpt lat="43.41235" lon="1.1195">
        <ele>283.6</ele>
        <time>2022-11-20T09:58:55Z</time>
      </trkpt>
      <trkpt lat="43.41239" lon="1.11952">
        <ele>283.6</ele>
        <time>2022-11-20T09:58:56Z</time>
      </trkpt>
      <trkpt lat="43.41245" lon="1.11953">
        <ele>283.6</ele>
        <time>2022-11-20T09:58:58Z</time>
      </trkpt>
      <trkpt lat="43.4127" lon="1.11951">
        <ele>283.4</ele>
        <time>2022-11-20T09:59:04Z</time>
      </trkpt>
      <trkpt lat="43.41273" lon="1.11953">
        <ele>283.4</ele>
        <time>2022-11-20T09:59:05Z</time>
      </trkpt>
      <trkpt lat="43.41285" lon="1.1196">
        <ele>283.2</ele>
        <time>2022-11-20T09:59:08Z</time>
      </trkpt>
      <trkpt lat="43.41293" lon="1.11963">
        <ele>283</ele>
        <time>2022-11-20T09:59:10Z</time>
      </trkpt>
      <trkpt lat="43.41306" lon="1.1197">
        <ele>282.6</ele>
        <time>2022-11-20T09:59:13Z</time>
      </trkpt>
      <trkpt lat="43.41315" lon="1.11974">
        <ele>282.6</ele>
        <time>2022-11-20T09:59:15Z</time>
      </trkpt>
      <trkpt lat="43.41318" lon="1.11976">
        <ele>282.6</ele>
        <time>2022-11-20T09:59:16Z</time>
      </trkpt>
      <trkpt lat="43.41334" lon="1.11983">
        <ele>282.4</ele>
        <time>2022-11-20T09:59:21Z</time>
      </trkpt>
      <trkpt lat="43.41343" lon="1.11988">
        <ele>282.4</ele>
        <time>2022-11-20T09:59:23Z</time>
      </trkpt>
      <trkpt lat="43.41353" lon="1.11991">
        <ele>282.2</ele>
        <time>2022-11-20T09:59:25Z</time>
      </trkpt>
      <trkpt lat="43.41382" lon="1.12006">
        <ele>281.6</ele>
        <time>2022-11-20T09:59:30Z</time>
      </trkpt>
      <trkpt lat="43.41388" lon="1.12009">
        <ele>281.2</ele>
        <time>2022-11-20T09:59:31Z</time>
      </trkpt>
      <trkpt lat="43.41417" lon="1.12022">
        <ele>280.2</ele>
        <time>2022-11-20T09:59:35Z</time>
      </trkpt>
      <trkpt lat="43.41432" lon="1.1203">
        <ele>279.6</ele>
        <time>2022-11-20T09:59:37Z</time>
      </trkpt>
      <trkpt lat="43.41448" lon="1.12038">
        <ele>279.2</ele>
        <time>2022-11-20T09:59:39Z</time>
      </trkpt>
      <trkpt lat="43.41465" lon="1.12048">
        <ele>277.8</ele>
        <time>2022-11-20T09:59:41Z</time>
      </trkpt>
      <trkpt lat="43.41481" lon="1.12056">
        <ele>277.2</ele>
        <time>2022-11-20T09:59:43Z</time>
      </trkpt>
      <trkpt lat="43.41488" lon="1.1206">
        <ele>276.6</ele>
        <time>2022-11-20T09:59:44Z</time>
      </trkpt>
      <trkpt lat="43.41503" lon="1.12066">
        <ele>275.6</ele>
        <time>2022-11-20T09:59:46Z</time>
      </trkpt>
      <trkpt lat="43.41522" lon="1.12075">
        <ele>274.2</ele>
        <time>2022-11-20T09:59:49Z</time>
      </trkpt>
      <trkpt lat="43.41532" lon="1.12079">
        <ele>272.4</ele>
        <time>2022-11-20T09:59:51Z</time>
      </trkpt>
      <trkpt lat="43.41536" lon="1.12082">
        <ele>272</ele>
        <time>2022-11-20T09:59:52Z</time>
      </trkpt>
      <trkpt lat="43.4154" lon="1.12084">
        <ele>271.4</ele>
        <time>2022-11-20T09:59:53Z</time>
      </trkpt>
      <trkpt lat="43.41548" lon="1.12089">
        <ele>270</ele>
        <time>2022-11-20T09:59:55Z</time>
      </trkpt>
      <trkpt lat="43.41562" lon="1.12095">
        <ele>268.6</ele>
        <time>2022-11-20T09:59:58Z</time>
      </trkpt>
      <trkpt lat="43.41572" lon="1.12101">
        <ele>267.6</ele>
        <time>2022-11-20T10:00:00Z</time>
      </trkpt>
      <trkpt lat="43.41585" lon="1.12107">
        <ele>266.4</ele>
        <time>2022-11-20T10:00:02Z</time>
      </trkpt>
      <trkpt lat="43.41592" lon="1.1211">
        <ele>266.2</ele>
        <time>2022-11-20T10:00:03Z</time>
      </trkpt>
      <trkpt lat="43.41607" lon="1.12118">
        <ele>265</ele>
        <time>2022-11-20T10:00:05Z</time>
      </trkpt>
      <trkpt lat="43.41616" lon="1.12123">
        <ele>264</ele>
        <time>2022-11-20T10:00:06Z</time>
      </trkpt>
      <trkpt lat="43.41624" lon="1.12127">
        <ele>263.8</ele>
        <time>2022-11-20T10:00:07Z</time>
      </trkpt>
      <trkpt lat="43.41642" lon="1.12135">
        <ele>262.8</ele>
        <time>2022-11-20T10:00:09Z</time>
      </trkpt>
      <trkpt lat="43.41661" lon="1.12145">
        <ele>261.6</ele>
        <time>2022-11-20T10:00:11Z</time>
      </trkpt>
      <trkpt lat="43.41671" lon="1.1215">
        <ele>260.8</ele>
        <time>2022-11-20T10:00:12Z</time>
      </trkpt>
      <trkpt lat="43.41681" lon="1.12155">
        <ele>260</ele>
        <time>2022-11-20T10:00:13Z</time>
      </trkpt>
      <trkpt lat="43.41703" lon="1.12165">
        <ele>258.6</ele>
        <time>2022-11-20T10:00:15Z</time>
      </trkpt>
      <trkpt lat="43.41726" lon="1.12176">
        <ele>257.4</ele>
        <time>2022-11-20T10:00:17Z</time>
      </trkpt>
      <trkpt lat="43.4175" lon="1.12188">
        <ele>256.4</ele>
        <time>2022-11-20T10:00:19Z</time>
      </trkpt>
      <trkpt lat="43.41774" lon="1.122">
        <ele>255</ele>
        <time>2022-11-20T10:00:21Z</time>
      </trkpt>
      <trkpt lat="43.41786" lon="1.12206">
        <ele>253.8</ele>
        <time>2022-11-20T10:00:22Z</time>
      </trkpt>
      <trkpt lat="43.4181" lon="1.12218">
        <ele>252.6</ele>
        <time>2022-11-20T10:00:24Z</time>
      </trkpt>
      <trkpt lat="43.41842" lon="1.12234">
        <ele>251.4</ele>
        <time>2022-11-20T10:00:27Z</time>
      </trkpt>
      <trkpt lat="43.41852" lon="1.12239">
        <ele>250.4</ele>
        <time>2022-11-20T10:00:28Z</time>
      </trkpt>
      <trkpt lat="43.41862" lon="1.12244">
        <ele>250</ele>
        <time>2022-11-20T10:00:29Z</time>
      </trkpt>
      <trkpt lat="43.41899" lon="1.12262">
        <ele>248.8</ele>
        <time>2022-11-20T10:00:33Z</time>
      </trkpt>
      <trkpt lat="43.41908" lon="1.12266">
        <ele>248.8</ele>
        <time>2022-11-20T10:00:34Z</time>
      </trkpt>
      <trkpt lat="43.41963" lon="1.12294">
        <ele>248.8</ele>
        <time>2022-11-20T10:00:41Z</time>
      </trkpt>
      <trkpt lat="43.42023" lon="1.12323">
        <ele>249.6</ele>
        <time>2022-11-20T10:00:48Z</time>
      </trkpt>
      <trkpt lat="43.42039" lon="1.12331">
        <ele>249.8</ele>
        <time>2022-11-20T10:00:50Z</time>
      </trkpt>
      <trkpt lat="43.42094" lon="1.12359">
        <ele>249.6</ele>
        <time>2022-11-20T10:00:56Z</time>
      </trkpt>
      <trkpt lat="43.42103" lon="1.12364">
        <ele>249.4</ele>
        <time>2022-11-20T10:00:57Z</time>
      </trkpt>
      <trkpt lat="43.42158" lon="1.12395">
        <ele>248</ele>
        <time>2022-11-20T10:01:03Z</time>
      </trkpt>
      <trkpt lat="43.42167" lon="1.12401">
        <ele>247.8</ele>
        <time>2022-11-20T10:01:04Z</time>
      </trkpt>
      <trkpt lat="43.42175" lon="1.12406">
        <ele>247.8</ele>
        <time>2022-11-20T10:01:05Z</time>
      </trkpt>
      <trkpt lat="43.42216" lon="1.12444">
        <ele>246.8</ele>
        <time>2022-11-20T10:01:10Z</time>
      </trkpt>
      <trkpt lat="43.42225" lon="1.12453">
        <ele>246.6</ele>
        <time>2022-11-20T10:01:11Z</time>
      </trkpt>
      <trkpt lat="43.42263" lon="1.12502">
        <ele>245.6</ele>
        <time>2022-11-20T10:01:16Z</time>
      </trkpt>
      <trkpt lat="43.42271" lon="1.12514">
        <ele>245.2</ele>
        <time>2022-11-20T10:01:17Z</time>
      </trkpt>
      <trkpt lat="43.42288" lon="1.12544">
        <ele>244.6</ele>
        <time>2022-11-20T10:01:20Z</time>
      </trkpt>
      <trkpt lat="43.42306" lon="1.12578">
        <ele>244.2</ele>
        <time>2022-11-20T10:01:23Z</time>
      </trkpt>
      <trkpt lat="43.42339" lon="1.12647">
        <ele>243.8</ele>
        <time>2022-11-20T10:01:30Z</time>
      </trkpt>
      <trkpt lat="43.4236" lon="1.1269">
        <ele>244.6</ele>
        <time>2022-11-20T10:01:35Z</time>
      </trkpt>
      <trkpt lat="43.42365" lon="1.12698">
        <ele>244.8</ele>
        <time>2022-11-20T10:01:36Z</time>
      </trkpt>
      <trkpt lat="43.42375" lon="1.12718">
        <ele>245.8</ele>
        <time>2022-11-20T10:01:39Z</time>
      </trkpt>
      <trkpt lat="43.42379" lon="1.12726">
        <ele>246</ele>
        <time>2022-11-20T10:01:40Z</time>
      </trkpt>
      <trkpt lat="43.42397" lon="1.12754">
        <ele>247.2</ele>
        <time>2022-11-20T10:01:44Z</time>
      </trkpt>
      <trkpt lat="43.42403" lon="1.12762">
        <ele>247.4</ele>
        <time>2022-11-20T10:01:45Z</time>
      </trkpt>
      <trkpt lat="43.42417" lon="1.1278">
        <ele>248.4</ele>
        <time>2022-11-20T10:01:48Z</time>
      </trkpt>
      <trkpt lat="43.42433" lon="1.12803">
        <ele>249</ele>
        <time>2022-11-20T10:01:51Z</time>
      </trkpt>
      <trkpt lat="43.42442" lon="1.12816">
        <ele>249.4</ele>
        <time>2022-11-20T10:01:53Z</time>
      </trkpt>
      <trkpt lat="43.42461" lon="1.12844">
        <ele>250.2</ele>
        <time>2022-11-20T10:01:57Z</time>
      </trkpt>
      <trkpt lat="43.42466" lon="1.12851">
        <ele>250.4</ele>
        <time>2022-11-20T10:01:58Z</time>
      </trkpt>
      <trkpt lat="43.42479" lon="1.12873">
        <ele>251.4</ele>
        <time>2022-11-20T10:02:01Z</time>
      </trkpt>
      <trkpt lat="43.42493" lon="1.12892">
        <ele>251.8</ele>
        <time>2022-11-20T10:02:04Z</time>
      </trkpt>
      <trkpt lat="43.42517" lon="1.12928">
        <ele>252.6</ele>
        <time>2022-11-20T10:02:09Z</time>
      </trkpt>
      <trkpt lat="43.42531" lon="1.1295">
        <ele>253.6</ele>
        <time>2022-11-20T10:02:12Z</time>
      </trkpt>
      <trkpt lat="43.42536" lon="1.12957">
        <ele>254</ele>
        <time>2022-11-20T10:02:13Z</time>
      </trkpt>
      <trkpt lat="43.42572" lon="1.13008">
        <ele>255</ele>
        <time>2022-11-20T10:02:20Z</time>
      </trkpt>
      <trkpt lat="43.42583" lon="1.13022">
        <ele>255.2</ele>
        <time>2022-11-20T10:02:22Z</time>
      </trkpt>
      <trkpt lat="43.42619" lon="1.13058">
        <ele>255.4</ele>
        <time>2022-11-20T10:02:28Z</time>
      </trkpt>
      <trkpt lat="43.42669" lon="1.13088">
        <ele>255.2</ele>
        <time>2022-11-20T10:02:35Z</time>
      </trkpt>
      <trkpt lat="43.42677" lon="1.13092">
        <ele>255</ele>
        <time>2022-11-20T10:02:36Z</time>
      </trkpt>
      <trkpt lat="43.42725" lon="1.13117">
        <ele>254.8</ele>
        <time>2022-11-20T10:02:42Z</time>
      </trkpt>
      <trkpt lat="43.42776" lon="1.13144">
        <ele>254.6</ele>
        <time>2022-11-20T10:02:48Z</time>
      </trkpt>
      <trkpt lat="43.42802" lon="1.13158">
        <ele>254.4</ele>
        <time>2022-11-20T10:02:51Z</time>
      </trkpt>
      <trkpt lat="43.42839" lon="1.13173">
        <ele>254</ele>
        <time>2022-11-20T10:02:55Z</time>
      </trkpt>
      <trkpt lat="43.42867" lon="1.13182">
        <ele>253.8</ele>
        <time>2022-11-20T10:02:58Z</time>
      </trkpt>
      <trkpt lat="43.42925" lon="1.132">
        <ele>253.2</ele>
        <time>2022-11-20T10:03:05Z</time>
      </trkpt>
      <trkpt lat="43.42985" lon="1.13217">
        <ele>253</ele>
        <time>2022-11-20T10:03:12Z</time>
      </trkpt>
      <trkpt lat="43.43003" lon="1.13222">
        <ele>253</ele>
        <time>2022-11-20T10:03:14Z</time>
      </trkpt>
      <trkpt lat="43.43011" lon="1.13225">
        <ele>253</ele>
        <time>2022-11-20T10:03:15Z</time>
      </trkpt>
      <trkpt lat="43.43064" lon="1.13241">
        <ele>252.8</ele>
        <time>2022-11-20T10:03:21Z</time>
      </trkpt>
      <trkpt lat="43.4311" lon="1.13254">
        <ele>252.6</ele>
        <time>2022-11-20T10:03:26Z</time>
      </trkpt>
      <trkpt lat="43.43168" lon="1.13271">
        <ele>252</ele>
        <time>2022-11-20T10:03:32Z</time>
      </trkpt>
      <trkpt lat="43.43187" lon="1.13276">
        <ele>251.8</ele>
        <time>2022-11-20T10:03:34Z</time>
      </trkpt>
      <trkpt lat="43.43242" lon="1.13294">
        <ele>251.4</ele>
        <time>2022-11-20T10:03:40Z</time>
      </trkpt>
      <trkpt lat="43.43297" lon="1.1331">
        <ele>250.8</ele>
        <time>2022-11-20T10:03:46Z</time>
      </trkpt>
      <trkpt lat="43.43325" lon="1.13318">
        <ele>250.6</ele>
        <time>2022-11-20T10:03:49Z</time>
      </trkpt>
      <trkpt lat="43.43385" lon="1.13336">
        <ele>250.4</ele>
        <time>2022-11-20T10:03:56Z</time>
      </trkpt>
      <trkpt lat="43.43433" lon="1.13351">
        <ele>250.2</ele>
        <time>2022-11-20T10:04:01Z</time>
      </trkpt>
      <trkpt lat="43.43486" lon="1.13367">
        <ele>249.8</ele>
        <time>2022-11-20T10:04:07Z</time>
      </trkpt>
      <trkpt lat="43.43495" lon="1.1337">
        <ele>249.8</ele>
        <time>2022-11-20T10:04:08Z</time>
      </trkpt>
      <trkpt lat="43.43504" lon="1.13372">
        <ele>249.8</ele>
        <time>2022-11-20T10:04:09Z</time>
      </trkpt>
      <trkpt lat="43.43558" lon="1.13388">
        <ele>249.2</ele>
        <time>2022-11-20T10:04:15Z</time>
      </trkpt>
      <trkpt lat="43.43576" lon="1.13394">
        <ele>248.8</ele>
        <time>2022-11-20T10:04:17Z</time>
      </trkpt>
      <trkpt lat="43.43605" lon="1.13403">
        <ele>248.4</ele>
        <time>2022-11-20T10:04:20Z</time>
      </trkpt>
      <trkpt lat="43.43643" lon="1.13414">
        <ele>248</ele>
        <time>2022-11-20T10:04:24Z</time>
      </trkpt>
      <trkpt lat="43.43672" lon="1.13423">
        <ele>247.8</ele>
        <time>2022-11-20T10:04:27Z</time>
      </trkpt>
      <trkpt lat="43.43702" lon="1.13431">
        <ele>247.6</ele>
        <time>2022-11-20T10:04:30Z</time>
      </trkpt>
      <trkpt lat="43.4376" lon="1.13449">
        <ele>247</ele>
        <time>2022-11-20T10:04:36Z</time>
      </trkpt>
      <trkpt lat="43.43779" lon="1.13454">
        <ele>246.8</ele>
        <time>2022-11-20T10:04:38Z</time>
      </trkpt>
      <trkpt lat="43.43807" lon="1.13463">
        <ele>246.4</ele>
        <time>2022-11-20T10:04:41Z</time>
      </trkpt>
      <trkpt lat="43.43855" lon="1.13477">
        <ele>245.8</ele>
        <time>2022-11-20T10:04:46Z</time>
      </trkpt>
      <trkpt lat="43.43913" lon="1.13494">
        <ele>245.4</ele>
        <time>2022-11-20T10:04:52Z</time>
      </trkpt>
      <trkpt lat="43.43941" lon="1.13502">
        <ele>245.2</ele>
        <time>2022-11-20T10:04:55Z</time>
      </trkpt>
      <trkpt lat="43.4398" lon="1.13515">
        <ele>244.8</ele>
        <time>2022-11-20T10:04:59Z</time>
      </trkpt>
      <trkpt lat="43.44036" lon="1.13532">
        <ele>244.2</ele>
        <time>2022-11-20T10:05:05Z</time>
      </trkpt>
      <trkpt lat="43.44045" lon="1.13534">
        <ele>244.2</ele>
        <time>2022-11-20T10:05:06Z</time>
      </trkpt>
      <trkpt lat="43.44098" lon="1.13551">
        <ele>244.4</ele>
        <time>2022-11-20T10:05:12Z</time>
      </trkpt>
      <trkpt lat="43.44125" lon="1.13559">
        <ele>244.6</ele>
        <time>2022-11-20T10:05:15Z</time>
      </trkpt>
      <trkpt lat="43.4418" lon="1.13576">
        <ele>244.8</ele>
        <time>2022-11-20T10:05:21Z</time>
      </trkpt>
      <trkpt lat="43.44225" lon="1.13589">
        <ele>244.6</ele>
        <time>2022-11-20T10:05:26Z</time>
      </trkpt>
      <trkpt lat="43.44278" lon="1.13605">
        <ele>244.4</ele>
        <time>2022-11-20T10:05:32Z</time>
      </trkpt>
      <trkpt lat="43.44323" lon="1.13618">
        <ele>244.4</ele>
        <time>2022-11-20T10:05:37Z</time>
      </trkpt>
      <trkpt lat="43.44379" lon="1.13636">
        <ele>244.4</ele>
        <time>2022-11-20T10:05:43Z</time>
      </trkpt>
      <trkpt lat="43.44389" lon="1.13639">
        <ele>244.4</ele>
        <time>2022-11-20T10:05:44Z</time>
      </trkpt>
      <trkpt lat="43.44446" lon="1.13656">
        <ele>244.4</ele>
        <time>2022-11-20T10:05:50Z</time>
      </trkpt>
      <trkpt lat="43.44475" lon="1.13665">
        <ele>244.4</ele>
        <time>2022-11-20T10:05:53Z</time>
      </trkpt>
      <trkpt lat="43.4453" lon="1.13681">
        <ele>244</ele>
        <time>2022-11-20T10:05:59Z</time>
      </trkpt>
      <trkpt lat="43.44577" lon="1.13697">
        <ele>244</ele>
        <time>2022-11-20T10:06:04Z</time>
      </trkpt>
      <trkpt lat="43.44596" lon="1.13703">
        <ele>244</ele>
        <time>2022-11-20T10:06:06Z</time>
      </trkpt>
      <trkpt lat="43.44652" lon="1.13721">
        <ele>244</ele>
        <time>2022-11-20T10:06:12Z</time>
      </trkpt>
      <trkpt lat="43.44681" lon="1.1373">
        <ele>243.8</ele>
        <time>2022-11-20T10:06:15Z</time>
      </trkpt>
      <trkpt lat="43.44738" lon="1.13748">
        <ele>243.6</ele>
        <time>2022-11-20T10:06:21Z</time>
      </trkpt>
      <trkpt lat="43.44776" lon="1.13761">
        <ele>243.4</ele>
        <time>2022-11-20T10:06:25Z</time>
      </trkpt>
      <trkpt lat="43.44834" lon="1.1378">
        <ele>243.2</ele>
        <time>2022-11-20T10:06:31Z</time>
      </trkpt>
      <trkpt lat="43.44872" lon="1.13792">
        <ele>243</ele>
        <time>2022-11-20T10:06:35Z</time>
      </trkpt>
      <trkpt lat="43.44901" lon="1.13801">
        <ele>243</ele>
        <time>2022-11-20T10:06:38Z</time>
      </trkpt>
      <trkpt lat="43.44957" lon="1.1382">
        <ele>242.6</ele>
        <time>2022-11-20T10:06:44Z</time>
      </trkpt>
      <trkpt lat="43.44967" lon="1.13823">
        <ele>242.6</ele>
        <time>2022-11-20T10:06:45Z</time>
      </trkpt>
      <trkpt lat="43.44995" lon="1.13833">
        <ele>242.2</ele>
        <time>2022-11-20T10:06:48Z</time>
      </trkpt>
      <trkpt lat="43.45042" lon="1.13848">
        <ele>242</ele>
        <time>2022-11-20T10:06:53Z</time>
      </trkpt>
      <trkpt lat="43.45062" lon="1.13855">
        <ele>242</ele>
        <time>2022-11-20T10:06:55Z</time>
      </trkpt>
      <trkpt lat="43.45119" lon="1.13873">
        <ele>241.8</ele>
        <time>2022-11-20T10:07:01Z</time>
      </trkpt>
      <trkpt lat="43.45137" lon="1.13879">
        <ele>241.8</ele>
        <time>2022-11-20T10:07:03Z</time>
      </trkpt>
      <trkpt lat="43.45193" lon="1.13897">
        <ele>241.2</ele>
        <time>2022-11-20T10:07:09Z</time>
      </trkpt>
      <trkpt lat="43.45242" lon="1.13913">
        <ele>241.2</ele>
        <time>2022-11-20T10:07:14Z</time>
      </trkpt>
      <trkpt lat="43.45301" lon="1.13933">
        <ele>241.4</ele>
        <time>2022-11-20T10:07:20Z</time>
      </trkpt>
      <trkpt lat="43.45329" lon="1.13942">
        <ele>241.4</ele>
        <time>2022-11-20T10:07:23Z</time>
      </trkpt>
      <trkpt lat="43.45389" lon="1.13962">
        <ele>241.2</ele>
        <time>2022-11-20T10:07:29Z</time>
      </trkpt>
      <trkpt lat="43.45399" lon="1.13966">
        <ele>241</ele>
        <time>2022-11-20T10:07:30Z</time>
      </trkpt>
      <trkpt lat="43.45458" lon="1.13992">
        <ele>240.8</ele>
        <time>2022-11-20T10:07:36Z</time>
      </trkpt>
      <trkpt lat="43.45477" lon="1.14">
        <ele>240.8</ele>
        <time>2022-11-20T10:07:38Z</time>
      </trkpt>
      <trkpt lat="43.45531" lon="1.14026">
        <ele>240.2</ele>
        <time>2022-11-20T10:07:44Z</time>
      </trkpt>
      <trkpt lat="43.45549" lon="1.14036">
        <ele>240</ele>
        <time>2022-11-20T10:07:46Z</time>
      </trkpt>
      <trkpt lat="43.45595" lon="1.14066">
        <ele>239.2</ele>
        <time>2022-11-20T10:07:51Z</time>
      </trkpt>
      <trkpt lat="43.45613" lon="1.14081">
        <ele>239</ele>
        <time>2022-11-20T10:07:53Z</time>
      </trkpt>
      <trkpt lat="43.45663" lon="1.14127">
        <ele>238.4</ele>
        <time>2022-11-20T10:07:59Z</time>
      </trkpt>
      <trkpt lat="43.4571" lon="1.14177">
        <ele>237.8</ele>
        <time>2022-11-20T10:08:05Z</time>
      </trkpt>
      <trkpt lat="43.4574" lon="1.1421">
        <ele>237.6</ele>
        <time>2022-11-20T10:08:09Z</time>
      </trkpt>
      <trkpt lat="43.45786" lon="1.1426">
        <ele>237.2</ele>
        <time>2022-11-20T10:08:15Z</time>
      </trkpt>
      <trkpt lat="43.4581" lon="1.14284">
        <ele>237.2</ele>
        <time>2022-11-20T10:08:18Z</time>
      </trkpt>
      <trkpt lat="43.45836" lon="1.14305">
        <ele>236.8</ele>
        <time>2022-11-20T10:08:21Z</time>
      </trkpt>
      <trkpt lat="43.45854" lon="1.14316">
        <ele>236.8</ele>
        <time>2022-11-20T10:08:23Z</time>
      </trkpt>
      <trkpt lat="43.45903" lon="1.1433">
        <ele>236.2</ele>
        <time>2022-11-20T10:08:28Z</time>
      </trkpt>
      <trkpt lat="43.45948" lon="1.14329">
        <ele>235.8</ele>
        <time>2022-11-20T10:08:33Z</time>
      </trkpt>
      <trkpt lat="43.45973" lon="1.14325">
        <ele>235.8</ele>
        <time>2022-11-20T10:08:36Z</time>
      </trkpt>
      <trkpt lat="43.45996" lon="1.1432">
        <ele>235.6</ele>
        <time>2022-11-20T10:08:39Z</time>
      </trkpt>
      <trkpt lat="43.46045" lon="1.14312">
        <ele>235.2</ele>
        <time>2022-11-20T10:08:46Z</time>
      </trkpt>
      <trkpt lat="43.46057" lon="1.1431">
        <ele>235.2</ele>
        <time>2022-11-20T10:08:48Z</time>
      </trkpt>
      <trkpt lat="43.46062" lon="1.14312">
        <ele>235.2</ele>
        <time>2022-11-20T10:08:49Z</time>
      </trkpt>
      <trkpt lat="43.46066" lon="1.14315">
        <ele>235.2</ele>
        <time>2022-11-20T10:08:50Z</time>
      </trkpt>
      <trkpt lat="43.46068" lon="1.14322">
        <ele>235.2</ele>
        <time>2022-11-20T10:08:51Z</time>
      </trkpt>
      <trkpt lat="43.46074" lon="1.14366">
        <ele>235</ele>
        <time>2022-11-20T10:08:56Z</time>
      </trkpt>
      <trkpt lat="43.46076" lon="1.14399">
        <ele>234.8</ele>
        <time>2022-11-20T10:08:59Z</time>
      </trkpt>
      <trkpt lat="43.46077" lon="1.1441">
        <ele>234.8</ele>
        <time>2022-11-20T10:09:00Z</time>
      </trkpt>
      <trkpt lat="43.46084" lon="1.1449">
        <ele>234.2</ele>
        <time>2022-11-20T10:09:07Z</time>
      </trkpt>
      <trkpt lat="43.46087" lon="1.14514">
        <ele>234</ele>
        <time>2022-11-20T10:09:09Z</time>
      </trkpt>
      <trkpt lat="43.46097" lon="1.14595">
        <ele>233.8</ele>
        <time>2022-11-20T10:09:16Z</time>
      </trkpt>
      <trkpt lat="43.46101" lon="1.14617">
        <ele>233.8</ele>
        <time>2022-11-20T10:09:18Z</time>
      </trkpt>
      <trkpt lat="43.46108" lon="1.14649">
        <ele>233.2</ele>
        <time>2022-11-20T10:09:21Z</time>
      </trkpt>
      <trkpt lat="43.46112" lon="1.14704">
        <ele>233</ele>
        <time>2022-11-20T10:09:26Z</time>
      </trkpt>
      <trkpt lat="43.46111" lon="1.1478">
        <ele>233</ele>
        <time>2022-11-20T10:09:32Z</time>
      </trkpt>
      <trkpt lat="43.46112" lon="1.14854">
        <ele>232.8</ele>
        <time>2022-11-20T10:09:38Z</time>
      </trkpt>
      <trkpt lat="43.46112" lon="1.14866">
        <ele>232.6</ele>
        <time>2022-11-20T10:09:39Z</time>
      </trkpt>
      <trkpt lat="43.46116" lon="1.149">
        <ele>232.6</ele>
        <time>2022-11-20T10:09:42Z</time>
      </trkpt>
      <trkpt lat="43.46123" lon="1.14921">
        <ele>232.4</ele>
        <time>2022-11-20T10:09:44Z</time>
      </trkpt>
      <trkpt lat="43.46138" lon="1.1495">
        <ele>231.8</ele>
        <time>2022-11-20T10:09:47Z</time>
      </trkpt>
      <trkpt lat="43.46148" lon="1.14968">
        <ele>231.6</ele>
        <time>2022-11-20T10:09:49Z</time>
      </trkpt>
      <trkpt lat="43.46182" lon="1.15029">
        <ele>231</ele>
        <time>2022-11-20T10:09:56Z</time>
      </trkpt>
      <trkpt lat="43.46192" lon="1.15046">
        <ele>230.8</ele>
        <time>2022-11-20T10:09:58Z</time>
      </trkpt>
      <trkpt lat="43.46196" lon="1.15056">
        <ele>230.6</ele>
        <time>2022-11-20T10:09:59Z</time>
      </trkpt>
      <trkpt lat="43.46213" lon="1.15109">
        <ele>230</ele>
        <time>2022-11-20T10:10:04Z</time>
      </trkpt>
      <trkpt lat="43.46234" lon="1.15188">
        <ele>229.8</ele>
        <time>2022-11-20T10:10:11Z</time>
      </trkpt>
      <trkpt lat="43.46237" lon="1.152">
        <ele>229.6</ele>
        <time>2022-11-20T10:10:12Z</time>
      </trkpt>
      <trkpt lat="43.46254" lon="1.15271">
        <ele>229.2</ele>
        <time>2022-11-20T10:10:18Z</time>
      </trkpt>
      <trkpt lat="43.4626" lon="1.15295">
        <ele>229.2</ele>
        <time>2022-11-20T10:10:20Z</time>
      </trkpt>
      <trkpt lat="43.46278" lon="1.15366">
        <ele>229</ele>
        <time>2022-11-20T10:10:26Z</time>
      </trkpt>
      <trkpt lat="43.46291" lon="1.15425">
        <ele>228.6</ele>
        <time>2022-11-20T10:10:31Z</time>
      </trkpt>
      <trkpt lat="43.4631" lon="1.15507">
        <ele>228.2</ele>
        <time>2022-11-20T10:10:38Z</time>
      </trkpt>
      <trkpt lat="43.46317" lon="1.15541">
        <ele>228.2</ele>
        <time>2022-11-20T10:10:41Z</time>
      </trkpt>
      <trkpt lat="43.46333" lon="1.15613">
        <ele>227.8</ele>
        <time>2022-11-20T10:10:47Z</time>
      </trkpt>
      <trkpt lat="43.46344" lon="1.15662">
        <ele>227.8</ele>
        <time>2022-11-20T10:10:51Z</time>
      </trkpt>
      <trkpt lat="43.46353" lon="1.15737">
        <ele>227.8</ele>
        <time>2022-11-20T10:10:57Z</time>
      </trkpt>
      <trkpt lat="43.46356" lon="1.15813">
        <ele>227.8</ele>
        <time>2022-11-20T10:11:03Z</time>
      </trkpt>
      <trkpt lat="43.46357" lon="1.15838">
        <ele>227.6</ele>
        <time>2022-11-20T10:11:05Z</time>
      </trkpt>
      <trkpt lat="43.46357" lon="1.1585">
        <ele>227.6</ele>
        <time>2022-11-20T10:11:06Z</time>
      </trkpt>
      <trkpt lat="43.46354" lon="1.15936">
        <ele>227</ele>
        <time>2022-11-20T10:11:13Z</time>
      </trkpt>
      <trkpt lat="43.46353" lon="1.15948">
        <ele>226.8</ele>
        <time>2022-11-20T10:11:14Z</time>
      </trkpt>
      <trkpt lat="43.46342" lon="1.1602">
        <ele>226.6</ele>
        <time>2022-11-20T10:11:20Z</time>
      </trkpt>
      <trkpt lat="43.46338" lon="1.16043">
        <ele>226.2</ele>
        <time>2022-11-20T10:11:22Z</time>
      </trkpt>
      <trkpt lat="43.46321" lon="1.16126">
        <ele>226</ele>
        <time>2022-11-20T10:11:29Z</time>
      </trkpt>
      <trkpt lat="43.46306" lon="1.16197">
        <ele>226</ele>
        <time>2022-11-20T10:11:35Z</time>
      </trkpt>
      <trkpt lat="43.46292" lon="1.16269">
        <ele>226.2</ele>
        <time>2022-11-20T10:11:41Z</time>
      </trkpt>
      <trkpt lat="43.4629" lon="1.16281">
        <ele>226</ele>
        <time>2022-11-20T10:11:42Z</time>
      </trkpt>
      <trkpt lat="43.4629" lon="1.16294">
        <ele>225.8</ele>
        <time>2022-11-20T10:11:43Z</time>
      </trkpt>
      <trkpt lat="43.46294" lon="1.16358">
        <ele>225.6</ele>
        <time>2022-11-20T10:11:48Z</time>
      </trkpt>
      <trkpt lat="43.463" lon="1.16419">
        <ele>225.4</ele>
        <time>2022-11-20T10:11:53Z</time>
      </trkpt>
      <trkpt lat="43.46309" lon="1.16493">
        <ele>224.8</ele>
        <time>2022-11-20T10:11:59Z</time>
      </trkpt>
      <trkpt lat="43.46316" lon="1.16541">
        <ele>224.4</ele>
        <time>2022-11-20T10:12:03Z</time>
      </trkpt>
      <trkpt lat="43.46324" lon="1.16589">
        <ele>224.6</ele>
        <time>2022-11-20T10:12:07Z</time>
      </trkpt>
      <trkpt lat="43.4634" lon="1.16669">
        <ele>224.6</ele>
        <time>2022-11-20T10:12:14Z</time>
      </trkpt>
      <trkpt lat="43.46345" lon="1.16692">
        <ele>224.6</ele>
        <time>2022-11-20T10:12:16Z</time>
      </trkpt>
      <trkpt lat="43.46362" lon="1.16769">
        <ele>224.6</ele>
        <time>2022-11-20T10:12:23Z</time>
      </trkpt>
      <trkpt lat="43.46368" lon="1.16802">
        <ele>224.4</ele>
        <time>2022-11-20T10:12:26Z</time>
      </trkpt>
      <trkpt lat="43.46383" lon="1.16878">
        <ele>223.6</ele>
        <time>2022-11-20T10:12:33Z</time>
      </trkpt>
      <trkpt lat="43.46387" lon="1.16901">
        <ele>223.6</ele>
        <time>2022-11-20T10:12:35Z</time>
      </trkpt>
      <trkpt lat="43.46389" lon="1.16911">
        <ele>223.2</ele>
        <time>2022-11-20T10:12:36Z</time>
      </trkpt>
      <trkpt lat="43.46394" lon="1.16955">
        <ele>222.6</ele>
        <time>2022-11-20T10:12:41Z</time>
      </trkpt>
      <trkpt lat="43.46395" lon="1.16974">
        <ele>222.2</ele>
        <time>2022-11-20T10:12:43Z</time>
      </trkpt>
      <trkpt lat="43.46401" lon="1.16989">
        <ele>222</ele>
        <time>2022-11-20T10:12:45Z</time>
      </trkpt>
      <trkpt lat="43.46412" lon="1.16998">
        <ele>221.8</ele>
        <time>2022-11-20T10:12:47Z</time>
      </trkpt>
      <trkpt lat="43.46419" lon="1.17001">
        <ele>221.8</ele>
        <time>2022-11-20T10:12:48Z</time>
      </trkpt>
      <trkpt lat="43.46456" lon="1.1701">
        <ele>221.6</ele>
        <time>2022-11-20T10:12:53Z</time>
      </trkpt>
      <trkpt lat="43.46469" lon="1.17009">
        <ele>221.6</ele>
        <time>2022-11-20T10:12:55Z</time>
      </trkpt>
      <trkpt lat="43.46492" lon="1.17004">
        <ele>222.4</ele>
        <time>2022-11-20T10:12:58Z</time>
      </trkpt>
      <trkpt lat="43.46507" lon="1.17">
        <ele>222.6</ele>
        <time>2022-11-20T10:13:00Z</time>
      </trkpt>
      <trkpt lat="43.46529" lon="1.17002">
        <ele>223</ele>
        <time>2022-11-20T10:13:03Z</time>
      </trkpt>
      <trkpt lat="43.46544" lon="1.17004">
        <ele>223.6</ele>
        <time>2022-11-20T10:13:05Z</time>
      </trkpt>
      <trkpt lat="43.46572" lon="1.17008">
        <ele>224.8</ele>
        <time>2022-11-20T10:13:09Z</time>
      </trkpt>
      <trkpt lat="43.46627" lon="1.17022">
        <ele>225.8</ele>
        <time>2022-11-20T10:13:16Z</time>
      </trkpt>
      <trkpt lat="43.46682" lon="1.17042">
        <ele>226.6</ele>
        <time>2022-11-20T10:13:23Z</time>
      </trkpt>
      <trkpt lat="43.46698" lon="1.17048">
        <ele>226.6</ele>
        <time>2022-11-20T10:13:25Z</time>
      </trkpt>
      <trkpt lat="43.46713" lon="1.17054">
        <ele>227.2</ele>
        <time>2022-11-20T10:13:27Z</time>
      </trkpt>
      <trkpt lat="43.4677" lon="1.17076">
        <ele>227.8</ele>
        <time>2022-11-20T10:13:34Z</time>
      </trkpt>
      <trkpt lat="43.46785" lon="1.17085">
        <ele>227.8</ele>
        <time>2022-11-20T10:13:36Z</time>
      </trkpt>
      <trkpt lat="43.46798" lon="1.17097">
        <ele>227.8</ele>
        <time>2022-11-20T10:13:38Z</time>
      </trkpt>
      <trkpt lat="43.46838" lon="1.17151">
        <ele>227.8</ele>
        <time>2022-11-20T10:13:45Z</time>
      </trkpt>
      <trkpt lat="43.46849" lon="1.17166">
        <ele>227.8</ele>
        <time>2022-11-20T10:13:47Z</time>
      </trkpt>
      <trkpt lat="43.46887" lon="1.17223">
        <ele>227.6</ele>
        <time>2022-11-20T10:13:54Z</time>
      </trkpt>
      <trkpt lat="43.46903" lon="1.17248">
        <ele>227.6</ele>
        <time>2022-11-20T10:13:57Z</time>
      </trkpt>
      <trkpt lat="43.46941" lon="1.17306">
        <ele>227.4</ele>
        <time>2022-11-20T10:14:04Z</time>
      </trkpt>
      <trkpt lat="43.46953" lon="1.17322">
        <ele>227.2</ele>
        <time>2022-11-20T10:14:06Z</time>
      </trkpt>
      <trkpt lat="43.46985" lon="1.1736">
        <ele>226.4</ele>
        <time>2022-11-20T10:14:11Z</time>
      </trkpt>
      <trkpt lat="43.47013" lon="1.17389">
        <ele>226</ele>
        <time>2022-11-20T10:14:15Z</time>
      </trkpt>
      <trkpt lat="43.47039" lon="1.17417">
        <ele>225.8</ele>
        <time>2022-11-20T10:14:19Z</time>
      </trkpt>
      <trkpt lat="43.47084" lon="1.17468">
        <ele>225.4</ele>
        <time>2022-11-20T10:14:26Z</time>
      </trkpt>
      <trkpt lat="43.47095" lon="1.17482">
        <ele>225.6</ele>
        <time>2022-11-20T10:14:28Z</time>
      </trkpt>
      <trkpt lat="43.47113" lon="1.17519">
        <ele>225.8</ele>
        <time>2022-11-20T10:14:32Z</time>
      </trkpt>
      <trkpt lat="43.47145" lon="1.1757">
        <ele>227.2</ele>
        <time>2022-11-20T10:14:38Z</time>
      </trkpt>
      <trkpt lat="43.47151" lon="1.17577">
        <ele>227.2</ele>
        <time>2022-11-20T10:14:39Z</time>
      </trkpt>
      <trkpt lat="43.47192" lon="1.17631">
        <ele>227.4</ele>
        <time>2022-11-20T10:14:46Z</time>
      </trkpt>
      <trkpt lat="43.47204" lon="1.17646">
        <ele>227.2</ele>
        <time>2022-11-20T10:14:48Z</time>
      </trkpt>
      <trkpt lat="43.4721" lon="1.17653">
        <ele>227.2</ele>
        <time>2022-11-20T10:14:49Z</time>
      </trkpt>
      <trkpt lat="43.47225" lon="1.17666">
        <ele>227.2</ele>
        <time>2022-11-20T10:14:51Z</time>
      </trkpt>
      <trkpt lat="43.47233" lon="1.17672">
        <ele>227.2</ele>
        <time>2022-11-20T10:14:52Z</time>
      </trkpt>
      <trkpt lat="43.47272" lon="1.17694">
        <ele>227.4</ele>
        <time>2022-11-20T10:14:57Z</time>
      </trkpt>
      <trkpt lat="43.47303" lon="1.17712">
        <ele>228</ele>
        <time>2022-11-20T10:15:02Z</time>
      </trkpt>
      <trkpt lat="43.47341" lon="1.17748">
        <ele>227.2</ele>
        <time>2022-11-20T10:15:08Z</time>
      </trkpt>
      <trkpt lat="43.47352" lon="1.17762">
        <ele>226.8</ele>
        <time>2022-11-20T10:15:10Z</time>
      </trkpt>
      <trkpt lat="43.47355" lon="1.17771">
        <ele>226.8</ele>
        <time>2022-11-20T10:15:11Z</time>
      </trkpt>
      <trkpt lat="43.47355" lon="1.1778">
        <ele>226.8</ele>
        <time>2022-11-20T10:15:12Z</time>
      </trkpt>
      <trkpt lat="43.47353" lon="1.17801">
        <ele>226.8</ele>
        <time>2022-11-20T10:15:14Z</time>
      </trkpt>
      <trkpt lat="43.47343" lon="1.17861">
        <ele>226.2</ele>
        <time>2022-11-20T10:15:20Z</time>
      </trkpt>
      <trkpt lat="43.47339" lon="1.1788">
        <ele>226</ele>
        <time>2022-11-20T10:15:22Z</time>
      </trkpt>
      <trkpt lat="43.47328" lon="1.17944">
        <ele>225.4</ele>
        <time>2022-11-20T10:15:29Z</time>
      </trkpt>
      <trkpt lat="43.4732" lon="1.1799">
        <ele>225.2</ele>
        <time>2022-11-20T10:15:35Z</time>
      </trkpt>
      <trkpt lat="43.47318" lon="1.18004">
        <ele>225.4</ele>
        <time>2022-11-20T10:15:39Z</time>
      </trkpt>
      <trkpt lat="43.47318" lon="1.1801">
        <ele>225.2</ele>
        <time>2022-11-20T10:15:41Z</time>
      </trkpt>
      <trkpt lat="43.47323" lon="1.18015">
        <ele>225.2</ele>
        <time>2022-11-20T10:15:43Z</time>
      </trkpt>
      <trkpt lat="43.47341" lon="1.18018">
        <ele>225.2</ele>
        <time>2022-11-20T10:15:47Z</time>
      </trkpt>
      <trkpt lat="43.47351" lon="1.18021">
        <ele>225</ele>
        <time>2022-11-20T10:15:49Z</time>
      </trkpt>
      <trkpt lat="43.47368" lon="1.18023">
        <ele>224.6</ele>
        <time>2022-11-20T10:15:52Z</time>
      </trkpt>
      <trkpt lat="43.47386" lon="1.18027">
        <ele>224</ele>
        <time>2022-11-20T10:15:55Z</time>
      </trkpt>
      <trkpt lat="43.47411" lon="1.18034">
        <ele>223.8</ele>
        <time>2022-11-20T10:15:59Z</time>
      </trkpt>
      <trkpt lat="43.47452" lon="1.18053">
        <ele>224</ele>
        <time>2022-11-20T10:16:06Z</time>
      </trkpt>
      <trkpt lat="43.47507" lon="1.18081">
        <ele>223.8</ele>
        <time>2022-11-20T10:16:15Z</time>
      </trkpt>
      <trkpt lat="43.4756" lon="1.18107">
        <ele>223.4</ele>
        <time>2022-11-20T10:16:23Z</time>
      </trkpt>
      <trkpt lat="43.47566" lon="1.18109">
        <ele>223.4</ele>
        <time>2022-11-20T10:16:24Z</time>
      </trkpt>
      <trkpt lat="43.47613" lon="1.18127">
        <ele>223.6</ele>
        <time>2022-11-20T10:16:30Z</time>
      </trkpt>
      <trkpt lat="43.47621" lon="1.18129">
        <ele>223.6</ele>
        <time>2022-11-20T10:16:31Z</time>
      </trkpt>
      <trkpt lat="43.47659" lon="1.18143">
        <ele>223.8</ele>
        <time>2022-11-20T10:16:36Z</time>
      </trkpt>
      <trkpt lat="43.47717" lon="1.18157">
        <ele>223.8</ele>
        <time>2022-11-20T10:16:43Z</time>
      </trkpt>
      <trkpt lat="43.47777" lon="1.18168">
        <ele>223.4</ele>
        <time>2022-11-20T10:16:50Z</time>
      </trkpt>
      <trkpt lat="43.47792" lon="1.18171">
        <ele>223.4</ele>
        <time>2022-11-20T10:16:52Z</time>
      </trkpt>
      <trkpt lat="43.47856" lon="1.18181">
        <ele>223.4</ele>
        <time>2022-11-20T10:16:59Z</time>
      </trkpt>
      <trkpt lat="43.47882" lon="1.18185">
        <ele>223.6</ele>
        <time>2022-11-20T10:17:02Z</time>
      </trkpt>
      <trkpt lat="43.4794" lon="1.18193">
        <ele>223.2</ele>
        <time>2022-11-20T10:17:09Z</time>
      </trkpt>
      <trkpt lat="43.47948" lon="1.18195">
        <ele>223</ele>
        <time>2022-11-20T10:17:10Z</time>
      </trkpt>
      <trkpt lat="43.47973" lon="1.18198">
        <ele>222.8</ele>
        <time>2022-11-20T10:17:13Z</time>
      </trkpt>
      <trkpt lat="43.48025" lon="1.18202">
        <ele>222.4</ele>
        <time>2022-11-20T10:17:19Z</time>
      </trkpt>
      <trkpt lat="43.48063" lon="1.18207">
        <ele>222</ele>
        <time>2022-11-20T10:17:23Z</time>
      </trkpt>
      <trkpt lat="43.48073" lon="1.18208">
        <ele>221.8</ele>
        <time>2022-11-20T10:17:24Z</time>
      </trkpt>
      <trkpt lat="43.48126" lon="1.18219">
        <ele>221</ele>
        <time>2022-11-20T10:17:29Z</time>
      </trkpt>
      <trkpt lat="43.48137" lon="1.18223">
        <ele>220.2</ele>
        <time>2022-11-20T10:17:30Z</time>
      </trkpt>
      <trkpt lat="43.48157" lon="1.18232">
        <ele>218.6</ele>
        <time>2022-11-20T10:17:32Z</time>
      </trkpt>
      <trkpt lat="43.48179" lon="1.18242">
        <ele>217.2</ele>
        <time>2022-11-20T10:17:34Z</time>
      </trkpt>
      <trkpt lat="43.48191" lon="1.18245">
        <ele>216.8</ele>
        <time>2022-11-20T10:17:35Z</time>
      </trkpt>
      <trkpt lat="43.48203" lon="1.18247">
        <ele>215.4</ele>
        <time>2022-11-20T10:17:36Z</time>
      </trkpt>
      <trkpt lat="43.48229" lon="1.18244">
        <ele>214.2</ele>
        <time>2022-11-20T10:17:38Z</time>
      </trkpt>
      <trkpt lat="43.48256" lon="1.18238">
        <ele>212.6</ele>
        <time>2022-11-20T10:17:40Z</time>
      </trkpt>
      <trkpt lat="43.48282" lon="1.18232">
        <ele>211.2</ele>
        <time>2022-11-20T10:17:42Z</time>
      </trkpt>
      <trkpt lat="43.48295" lon="1.18229">
        <ele>210.2</ele>
        <time>2022-11-20T10:17:43Z</time>
      </trkpt>
      <trkpt lat="43.48319" lon="1.18223">
        <ele>208.6</ele>
        <time>2022-11-20T10:17:45Z</time>
      </trkpt>
      <trkpt lat="43.48342" lon="1.18216">
        <ele>207.2</ele>
        <time>2022-11-20T10:17:47Z</time>
      </trkpt>
      <trkpt lat="43.48365" lon="1.18209">
        <ele>206</ele>
        <time>2022-11-20T10:17:49Z</time>
      </trkpt>
      <trkpt lat="43.48388" lon="1.18203">
        <ele>204.8</ele>
        <time>2022-11-20T10:17:51Z</time>
      </trkpt>
      <trkpt lat="43.48398" lon="1.182">
        <ele>204.2</ele>
        <time>2022-11-20T10:17:52Z</time>
      </trkpt>
      <trkpt lat="43.4842" lon="1.18196">
        <ele>203.8</ele>
        <time>2022-11-20T10:17:54Z</time>
      </trkpt>
      <trkpt lat="43.48441" lon="1.18196">
        <ele>203.4</ele>
        <time>2022-11-20T10:17:56Z</time>
      </trkpt>
      <trkpt lat="43.48488" lon="1.182">
        <ele>203.2</ele>
        <time>2022-11-20T10:18:01Z</time>
      </trkpt>
      <trkpt lat="43.48505" lon="1.18202">
        <ele>203.8</ele>
        <time>2022-11-20T10:18:03Z</time>
      </trkpt>
      <trkpt lat="43.4852" lon="1.18204">
        <ele>204.4</ele>
        <time>2022-11-20T10:18:05Z</time>
      </trkpt>
      <trkpt lat="43.48535" lon="1.18206">
        <ele>204.8</ele>
        <time>2022-11-20T10:18:07Z</time>
      </trkpt>
      <trkpt lat="43.48555" lon="1.18209">
        <ele>205.6</ele>
        <time>2022-11-20T10:18:10Z</time>
      </trkpt>
      <trkpt lat="43.48568" lon="1.18212">
        <ele>206.6</ele>
        <time>2022-11-20T10:18:12Z</time>
      </trkpt>
      <trkpt lat="43.48586" lon="1.18213">
        <ele>208</ele>
        <time>2022-11-20T10:18:15Z</time>
      </trkpt>
      <trkpt lat="43.48592" lon="1.18212">
        <ele>208.4</ele>
        <time>2022-11-20T10:18:16Z</time>
      </trkpt>
      <trkpt lat="43.48597" lon="1.18211">
        <ele>209</ele>
        <time>2022-11-20T10:18:17Z</time>
      </trkpt>
      <trkpt lat="43.48612" lon="1.18209">
        <ele>210.6</ele>
        <time>2022-11-20T10:18:20Z</time>
      </trkpt>
      <trkpt lat="43.48621" lon="1.18207">
        <ele>211.6</ele>
        <time>2022-11-20T10:18:22Z</time>
      </trkpt>
      <trkpt lat="43.48629" lon="1.18206">
        <ele>212.6</ele>
        <time>2022-11-20T10:18:24Z</time>
      </trkpt>
      <trkpt lat="43.4864" lon="1.18204">
        <ele>214</ele>
        <time>2022-11-20T10:18:27Z</time>
      </trkpt>
      <trkpt lat="43.48646" lon="1.18203">
        <ele>214.2</ele>
        <time>2022-11-20T10:18:28Z</time>
      </trkpt>
      <trkpt lat="43.48652" lon="1.18203">
        <ele>214.8</ele>
        <time>2022-11-20T10:18:29Z</time>
      </trkpt>
      <trkpt lat="43.48656" lon="1.18202">
        <ele>215</ele>
        <time>2022-11-20T10:18:30Z</time>
      </trkpt>
      <trkpt lat="43.48666" lon="1.18201">
        <ele>216</ele>
        <time>2022-11-20T10:18:32Z</time>
      </trkpt>
      <trkpt lat="43.48685" lon="1.18197">
        <ele>217.2</ele>
        <time>2022-11-20T10:18:36Z</time>
      </trkpt>
      <trkpt lat="43.48706" lon="1.18193">
        <ele>218.6</ele>
        <time>2022-11-20T10:18:40Z</time>
      </trkpt>
      <trkpt lat="43.48717" lon="1.18193">
        <ele>219.8</ele>
        <time>2022-11-20T10:18:42Z</time>
      </trkpt>
      <trkpt lat="43.48728" lon="1.1819">
        <ele>220.2</ele>
        <time>2022-11-20T10:18:44Z</time>
      </trkpt>
      <trkpt lat="43.4875" lon="1.18185">
        <ele>220.8</ele>
        <time>2022-11-20T10:18:48Z</time>
      </trkpt>
      <trkpt lat="43.48766" lon="1.1818">
        <ele>221.8</ele>
        <time>2022-11-20T10:18:51Z</time>
      </trkpt>
      <trkpt lat="43.48772" lon="1.18177">
        <ele>222.2</ele>
        <time>2022-11-20T10:18:52Z</time>
      </trkpt>
      <trkpt lat="43.4879" lon="1.18169">
        <ele>223</ele>
        <time>2022-11-20T10:18:55Z</time>
      </trkpt>
      <trkpt lat="43.48814" lon="1.18158">
        <ele>223.4</ele>
        <time>2022-11-20T10:18:59Z</time>
      </trkpt>
      <trkpt lat="43.48866" lon="1.18134">
        <ele>223.8</ele>
        <time>2022-11-20T10:19:07Z</time>
      </trkpt>
      <trkpt lat="43.48922" lon="1.18107">
        <ele>223.8</ele>
        <time>2022-11-20T10:19:15Z</time>
      </trkpt>
      <trkpt lat="43.48937" lon="1.18101">
        <ele>223.8</ele>
        <time>2022-11-20T10:19:17Z</time>
      </trkpt>
      <trkpt lat="43.48992" lon="1.18082">
        <ele>223.6</ele>
        <time>2022-11-20T10:19:24Z</time>
      </trkpt>
      <trkpt lat="43.48999" lon="1.18079">
        <ele>223.6</ele>
        <time>2022-11-20T10:19:25Z</time>
      </trkpt>
      <trkpt lat="43.49059" lon="1.18061">
        <ele>223.2</ele>
        <time>2022-11-20T10:19:33Z</time>
      </trkpt>
      <trkpt lat="43.49067" lon="1.18059">
        <ele>223.2</ele>
        <time>2022-11-20T10:19:34Z</time>
      </trkpt>
      <trkpt lat="43.49116" lon="1.18054">
        <ele>222.6</ele>
        <time>2022-11-20T10:19:40Z</time>
      </trkpt>
      <trkpt lat="43.49129" lon="1.18047">
        <ele>222.4</ele>
        <time>2022-11-20T10:19:42Z</time>
      </trkpt>
      <trkpt lat="43.49136" lon="1.18041">
        <ele>222.2</ele>
        <time>2022-11-20T10:19:43Z</time>
      </trkpt>
      <trkpt lat="43.49143" lon="1.18032">
        <ele>222.2</ele>
        <time>2022-11-20T10:19:44Z</time>
      </trkpt>
      <trkpt lat="43.49157" lon="1.18007">
        <ele>222</ele>
        <time>2022-11-20T10:19:47Z</time>
      </trkpt>
      <trkpt lat="43.49184" lon="1.17952">
        <ele>221.8</ele>
        <time>2022-11-20T10:19:53Z</time>
      </trkpt>
      <trkpt lat="43.49189" lon="1.17944">
        <ele>221.8</ele>
        <time>2022-11-20T10:19:54Z</time>
      </trkpt>
      <trkpt lat="43.492" lon="1.17931">
        <ele>221.8</ele>
        <time>2022-11-20T10:19:56Z</time>
      </trkpt>
      <trkpt lat="43.49214" lon="1.17924">
        <ele>221.6</ele>
        <time>2022-11-20T10:19:58Z</time>
      </trkpt>
      <trkpt lat="43.4922" lon="1.17922">
        <ele>221.6</ele>
        <time>2022-11-20T10:19:59Z</time>
      </trkpt>
      <trkpt lat="43.49248" lon="1.17916">
        <ele>221.4</ele>
        <time>2022-11-20T10:20:03Z</time>
      </trkpt>
      <trkpt lat="43.49255" lon="1.17913">
        <ele>221.2</ele>
        <time>2022-11-20T10:20:04Z</time>
      </trkpt>
      <trkpt lat="43.49274" lon="1.179">
        <ele>220.8</ele>
        <time>2022-11-20T10:20:07Z</time>
      </trkpt>
      <trkpt lat="43.49302" lon="1.17877">
        <ele>220.8</ele>
        <time>2022-11-20T10:20:11Z</time>
      </trkpt>
      <trkpt lat="43.49322" lon="1.17862">
        <ele>220.8</ele>
        <time>2022-11-20T10:20:14Z</time>
      </trkpt>
      <trkpt lat="43.49338" lon="1.17856">
        <ele>220.8</ele>
        <time>2022-11-20T10:20:16Z</time>
      </trkpt>
      <trkpt lat="43.49379" lon="1.17857">
        <ele>220.8</ele>
        <time>2022-11-20T10:20:21Z</time>
      </trkpt>
      <trkpt lat="43.49434" lon="1.17861">
        <ele>220.4</ele>
        <time>2022-11-20T10:20:28Z</time>
      </trkpt>
      <trkpt lat="43.4945" lon="1.17862">
        <ele>220</ele>
        <time>2022-11-20T10:20:30Z</time>
      </trkpt>
      <trkpt lat="43.49458" lon="1.17863">
        <ele>219.8</ele>
        <time>2022-11-20T10:20:31Z</time>
      </trkpt>
      <trkpt lat="43.49521" lon="1.17867">
        <ele>219</ele>
        <time>2022-11-20T10:20:39Z</time>
      </trkpt>
      <trkpt lat="43.49567" lon="1.17861">
        <ele>219</ele>
        <time>2022-11-20T10:20:45Z</time>
      </trkpt>
      <trkpt lat="43.49581" lon="1.17857">
        <ele>218.8</ele>
        <time>2022-11-20T10:20:47Z</time>
      </trkpt>
      <trkpt lat="43.49636" lon="1.17838">
        <ele>219.2</ele>
        <time>2022-11-20T10:20:54Z</time>
      </trkpt>
      <trkpt lat="43.49695" lon="1.17816">
        <ele>219.2</ele>
        <time>2022-11-20T10:21:02Z</time>
      </trkpt>
      <trkpt lat="43.49719" lon="1.17808">
        <ele>219</ele>
        <time>2022-11-20T10:21:05Z</time>
      </trkpt>
      <trkpt lat="43.49772" lon="1.17789">
        <ele>219</ele>
        <time>2022-11-20T10:21:12Z</time>
      </trkpt>
      <trkpt lat="43.49802" lon="1.17778">
        <ele>219.2</ele>
        <time>2022-11-20T10:21:16Z</time>
      </trkpt>
      <trkpt lat="43.49818" lon="1.1777">
        <ele>219.2</ele>
        <time>2022-11-20T10:21:18Z</time>
      </trkpt>
      <trkpt lat="43.49845" lon="1.17751">
        <ele>218.8</ele>
        <time>2022-11-20T10:21:22Z</time>
      </trkpt>
      <trkpt lat="43.49894" lon="1.17707">
        <ele>218.4</ele>
        <time>2022-11-20T10:21:29Z</time>
      </trkpt>
      <trkpt lat="43.49915" lon="1.17688">
        <ele>218</ele>
        <time>2022-11-20T10:21:32Z</time>
      </trkpt>
      <trkpt lat="43.49963" lon="1.17645">
        <ele>218.4</ele>
        <time>2022-11-20T10:21:38Z</time>
      </trkpt>
      <trkpt lat="43.4998" lon="1.17633">
        <ele>218.4</ele>
        <time>2022-11-20T10:21:40Z</time>
      </trkpt>
      <trkpt lat="43.50014" lon="1.17622">
        <ele>218.2</ele>
        <time>2022-11-20T10:21:44Z</time>
      </trkpt>
      <trkpt lat="43.5007" lon="1.17617">
        <ele>218</ele>
        <time>2022-11-20T10:21:51Z</time>
      </trkpt>
      <trkpt lat="43.50092" lon="1.17615">
        <ele>218</ele>
        <time>2022-11-20T10:21:54Z</time>
      </trkpt>
      <trkpt lat="43.50132" lon="1.17612">
        <ele>217.4</ele>
        <time>2022-11-20T10:21:59Z</time>
      </trkpt>
      <trkpt lat="43.50186" lon="1.17606">
        <ele>217.2</ele>
        <time>2022-11-20T10:22:06Z</time>
      </trkpt>
      <trkpt lat="43.50209" lon="1.17604">
        <ele>216.8</ele>
        <time>2022-11-20T10:22:09Z</time>
      </trkpt>
      <trkpt lat="43.5027" lon="1.176">
        <ele>216.4</ele>
        <time>2022-11-20T10:22:17Z</time>
      </trkpt>
      <trkpt lat="43.50278" lon="1.17601">
        <ele>216.4</ele>
        <time>2022-11-20T10:22:18Z</time>
      </trkpt>
      <trkpt lat="43.50333" lon="1.17609">
        <ele>216.2</ele>
        <time>2022-11-20T10:22:25Z</time>
      </trkpt>
      <trkpt lat="43.5034" lon="1.17612">
        <ele>216.2</ele>
        <time>2022-11-20T10:22:26Z</time>
      </trkpt>
      <trkpt lat="43.50369" lon="1.17631">
        <ele>216.4</ele>
        <time>2022-11-20T10:22:30Z</time>
      </trkpt>
      <trkpt lat="43.50409" lon="1.17681">
        <ele>216.4</ele>
        <time>2022-11-20T10:22:37Z</time>
      </trkpt>
      <trkpt lat="43.50438" lon="1.17719">
        <ele>216.2</ele>
        <time>2022-11-20T10:22:43Z</time>
      </trkpt>
      <trkpt lat="43.50448" lon="1.17729">
        <ele>216.2</ele>
        <time>2022-11-20T10:22:45Z</time>
      </trkpt>
      <trkpt lat="43.50459" lon="1.17733">
        <ele>216.2</ele>
        <time>2022-11-20T10:22:47Z</time>
      </trkpt>
      <trkpt lat="43.50473" lon="1.1773">
        <ele>216.2</ele>
        <time>2022-11-20T10:22:49Z</time>
      </trkpt>
      <trkpt lat="43.5048" lon="1.17727">
        <ele>216.2</ele>
        <time>2022-11-20T10:22:50Z</time>
      </trkpt>
      <trkpt lat="43.50486" lon="1.17721">
        <ele>216.2</ele>
        <time>2022-11-20T10:22:51Z</time>
      </trkpt>
      <trkpt lat="43.50503" lon="1.17701">
        <ele>216.2</ele>
        <time>2022-11-20T10:22:54Z</time>
      </trkpt>
      <trkpt lat="43.50546" lon="1.17656">
        <ele>216</ele>
        <time>2022-11-20T10:23:02Z</time>
      </trkpt>
      <trkpt lat="43.50556" lon="1.17646">
        <ele>216</ele>
        <time>2022-11-20T10:23:04Z</time>
      </trkpt>
      <trkpt lat="43.50568" lon="1.17644">
        <ele>216</ele>
        <time>2022-11-20T10:23:06Z</time>
      </trkpt>
      <trkpt lat="43.50578" lon="1.17653">
        <ele>216</ele>
        <time>2022-11-20T10:23:08Z</time>
      </trkpt>
      <trkpt lat="43.50584" lon="1.17659">
        <ele>216</ele>
        <time>2022-11-20T10:23:09Z</time>
      </trkpt>
      <trkpt lat="43.50617" lon="1.17706">
        <ele>216</ele>
        <time>2022-11-20T10:23:15Z</time>
      </trkpt>
      <trkpt lat="43.50658" lon="1.17761">
        <ele>216</ele>
        <time>2022-11-20T10:23:22Z</time>
      </trkpt>
      <trkpt lat="43.50679" lon="1.17789">
        <ele>215.6</ele>
        <time>2022-11-20T10:23:26Z</time>
      </trkpt>
      <trkpt lat="43.507" lon="1.17818">
        <ele>215.4</ele>
        <time>2022-11-20T10:23:30Z</time>
      </trkpt>
      <trkpt lat="43.50743" lon="1.17876">
        <ele>215.2</ele>
        <time>2022-11-20T10:23:38Z</time>
      </trkpt>
      <trkpt lat="43.50748" lon="1.17883">
        <ele>215.2</ele>
        <time>2022-11-20T10:23:39Z</time>
      </trkpt>
      <trkpt lat="43.50787" lon="1.17935">
        <ele>214.8</ele>
        <time>2022-11-20T10:23:47Z</time>
      </trkpt>
      <trkpt lat="43.50821" lon="1.17981">
        <ele>214.6</ele>
        <time>2022-11-20T10:23:54Z</time>
      </trkpt>
      <trkpt lat="43.50825" lon="1.17987">
        <ele>214.6</ele>
        <time>2022-11-20T10:23:55Z</time>
      </trkpt>
      <trkpt lat="43.50851" lon="1.18022">
        <ele>214.4</ele>
        <time>2022-11-20T10:24:01Z</time>
      </trkpt>
      <trkpt lat="43.50873" lon="1.18052">
        <ele>214.6</ele>
        <time>2022-11-20T10:24:07Z</time>
      </trkpt>
      <trkpt lat="43.5088" lon="1.18063">
        <ele>214.6</ele>
        <time>2022-11-20T10:24:11Z</time>
      </trkpt>
      <trkpt lat="43.50884" lon="1.18069">
        <ele>214.8</ele>
        <time>2022-11-20T10:24:13Z</time>
      </trkpt>
      <trkpt lat="43.50892" lon="1.18069">
        <ele>214.8</ele>
        <time>2022-11-20T10:24:15Z</time>
      </trkpt>
      <trkpt lat="43.50906" lon="1.1806">
        <ele>214.8</ele>
        <time>2022-11-20T10:24:19Z</time>
      </trkpt>
      <trkpt lat="43.50916" lon="1.18055">
        <ele>215</ele>
        <time>2022-11-20T10:24:21Z</time>
      </trkpt>
      <trkpt lat="43.50948" lon="1.18036">
        <ele>215</ele>
        <time>2022-11-20T10:24:27Z</time>
      </trkpt>
      <trkpt lat="43.50977" lon="1.18018">
        <ele>215.2</ele>
        <time>2022-11-20T10:24:32Z</time>
      </trkpt>
      <trkpt lat="43.51017" lon="1.17995">
        <ele>215.4</ele>
        <time>2022-11-20T10:24:40Z</time>
      </trkpt>
      <trkpt lat="43.51047" lon="1.17973">
        <ele>215.4</ele>
        <time>2022-11-20T10:24:46Z</time>
      </trkpt>
      <trkpt lat="43.51089" lon="1.17931">
        <ele>214.8</ele>
        <time>2022-11-20T10:24:54Z</time>
      </trkpt>
      <trkpt lat="43.51121" lon="1.17898">
        <ele>214</ele>
        <time>2022-11-20T10:25:00Z</time>
      </trkpt>
      <trkpt lat="43.51126" lon="1.17893">
        <ele>214</ele>
        <time>2022-11-20T10:25:01Z</time>
      </trkpt>
      <trkpt lat="43.51158" lon="1.17864">
        <ele>213.6</ele>
        <time>2022-11-20T10:25:07Z</time>
      </trkpt>
      <trkpt lat="43.51168" lon="1.17855">
        <ele>213.6</ele>
        <time>2022-11-20T10:25:09Z</time>
      </trkpt>
      <trkpt lat="43.51176" lon="1.17846">
        <ele>213.6</ele>
        <time>2022-11-20T10:25:11Z</time>
      </trkpt>
      <trkpt lat="43.51184" lon="1.17839">
        <ele>213.6</ele>
        <time>2022-11-20T10:25:13Z</time>
      </trkpt>
      <trkpt lat="43.51188" lon="1.1784">
        <ele>213.6</ele>
        <time>2022-11-20T10:25:14Z</time>
      </trkpt>
      <trkpt lat="43.51192" lon="1.17842">
        <ele>213.6</ele>
        <time>2022-11-20T10:25:15Z</time>
      </trkpt>
      <trkpt lat="43.51199" lon="1.17853">
        <ele>213.6</ele>
        <time>2022-11-20T10:25:17Z</time>
      </trkpt>
      <trkpt lat="43.51203" lon="1.17859">
        <ele>213.6</ele>
        <time>2022-11-20T10:25:18Z</time>
      </trkpt>
      <trkpt lat="43.51216" lon="1.17877">
        <ele>213.6</ele>
        <time>2022-11-20T10:25:21Z</time>
      </trkpt>
      <trkpt lat="43.51248" lon="1.17925">
        <ele>213</ele>
        <time>2022-11-20T10:25:29Z</time>
      </trkpt>
      <trkpt lat="43.51273" lon="1.17957">
        <ele>213</ele>
        <time>2022-11-20T10:25:34Z</time>
      </trkpt>
      <trkpt lat="43.51278" lon="1.17961">
        <ele>213</ele>
        <time>2022-11-20T10:25:35Z</time>
      </trkpt>
      <trkpt lat="43.51285" lon="1.17961">
        <ele>213</ele>
        <time>2022-11-20T10:25:36Z</time>
      </trkpt>
      <trkpt lat="43.51291" lon="1.17956">
        <ele>213</ele>
        <time>2022-11-20T10:25:37Z</time>
      </trkpt>
      <trkpt lat="43.51319" lon="1.17918">
        <ele>212.6</ele>
        <time>2022-11-20T10:25:42Z</time>
      </trkpt>
      <trkpt lat="43.51331" lon="1.17902">
        <ele>212.2</ele>
        <time>2022-11-20T10:25:44Z</time>
      </trkpt>
      <trkpt lat="43.51349" lon="1.1788">
        <ele>211.2</ele>
        <time>2022-11-20T10:25:47Z</time>
      </trkpt>
      <trkpt lat="43.5136" lon="1.17866">
        <ele>210.4</ele>
        <time>2022-11-20T10:25:49Z</time>
      </trkpt>
      <trkpt lat="43.5137" lon="1.17852">
        <ele>210</ele>
        <time>2022-11-20T10:25:51Z</time>
      </trkpt>
      <trkpt lat="43.51384" lon="1.17835">
        <ele>210</ele>
        <time>2022-11-20T10:25:54Z</time>
      </trkpt>
      <trkpt lat="43.51409" lon="1.17805">
        <ele>210.6</ele>
        <time>2022-11-20T10:26:00Z</time>
      </trkpt>
      <trkpt lat="43.51414" lon="1.17799">
        <ele>210.8</ele>
        <time>2022-11-20T10:26:01Z</time>
      </trkpt>
      <trkpt lat="43.51418" lon="1.17794">
        <ele>211.2</ele>
        <time>2022-11-20T10:26:02Z</time>
      </trkpt>
      <trkpt lat="43.51427" lon="1.17777">
        <ele>212.2</ele>
        <time>2022-11-20T10:26:05Z</time>
      </trkpt>
      <trkpt lat="43.51431" lon="1.1777">
        <ele>212.4</ele>
        <time>2022-11-20T10:26:06Z</time>
      </trkpt>
      <trkpt lat="43.5144" lon="1.17756">
        <ele>212.8</ele>
        <time>2022-11-20T10:26:09Z</time>
      </trkpt>
      <trkpt lat="43.51447" lon="1.17748">
        <ele>213.2</ele>
        <time>2022-11-20T10:26:11Z</time>
      </trkpt>
      <trkpt lat="43.51456" lon="1.17748">
        <ele>213.4</ele>
        <time>2022-11-20T10:26:13Z</time>
      </trkpt>
      <trkpt lat="43.5147" lon="1.17761">
        <ele>213.6</ele>
        <time>2022-11-20T10:26:16Z</time>
      </trkpt>
      <trkpt lat="43.51495" lon="1.17779">
        <ele>213.6</ele>
        <time>2022-11-20T10:26:20Z</time>
      </trkpt>
      <trkpt lat="43.51535" lon="1.17807">
        <ele>212.8</ele>
        <time>2022-11-20T10:26:25Z</time>
      </trkpt>
      <trkpt lat="43.51552" lon="1.17819">
        <ele>211.8</ele>
        <time>2022-11-20T10:26:27Z</time>
      </trkpt>
      <trkpt lat="43.5158" lon="1.17838">
        <ele>210.8</ele>
        <time>2022-11-20T10:26:30Z</time>
      </trkpt>
      <trkpt lat="43.5159" lon="1.17845">
        <ele>210.2</ele>
        <time>2022-11-20T10:26:31Z</time>
      </trkpt>
      <trkpt lat="43.516" lon="1.17851">
        <ele>209.6</ele>
        <time>2022-11-20T10:26:32Z</time>
      </trkpt>
      <trkpt lat="43.51619" lon="1.17866">
        <ele>208.2</ele>
        <time>2022-11-20T10:26:34Z</time>
      </trkpt>
      <trkpt lat="43.51628" lon="1.17874">
        <ele>207.8</ele>
        <time>2022-11-20T10:26:35Z</time>
      </trkpt>
      <trkpt lat="43.51636" lon="1.17884">
        <ele>207.4</ele>
        <time>2022-11-20T10:26:36Z</time>
      </trkpt>
      <trkpt lat="43.51643" lon="1.17894">
        <ele>207.2</ele>
        <time>2022-11-20T10:26:37Z</time>
      </trkpt>
      <trkpt lat="43.5165" lon="1.17905">
        <ele>206.8</ele>
        <time>2022-11-20T10:26:38Z</time>
      </trkpt>
      <trkpt lat="43.5166" lon="1.17929">
        <ele>205.8</ele>
        <time>2022-11-20T10:26:40Z</time>
      </trkpt>
      <trkpt lat="43.51676" lon="1.17974">
        <ele>204.4</ele>
        <time>2022-11-20T10:26:44Z</time>
      </trkpt>
      <trkpt lat="43.51684" lon="1.17995">
        <ele>203.8</ele>
        <time>2022-11-20T10:26:46Z</time>
      </trkpt>
      <trkpt lat="43.51699" lon="1.18037">
        <ele>203.6</ele>
        <time>2022-11-20T10:26:51Z</time>
      </trkpt>
      <trkpt lat="43.51706" lon="1.18045">
        <ele>203.6</ele>
        <time>2022-11-20T10:26:53Z</time>
      </trkpt>
      <trkpt lat="43.51714" lon="1.18038">
        <ele>203.8</ele>
        <time>2022-11-20T10:26:55Z</time>
      </trkpt>
      <trkpt lat="43.51716" lon="1.18033">
        <ele>204.2</ele>
        <time>2022-11-20T10:26:56Z</time>
      </trkpt>
      <trkpt lat="43.51721" lon="1.1802">
        <ele>204.6</ele>
        <time>2022-11-20T10:26:58Z</time>
      </trkpt>
      <trkpt lat="43.51722" lon="1.18013">
        <ele>204.8</ele>
        <time>2022-11-20T10:26:59Z</time>
      </trkpt>
      <trkpt lat="43.51726" lon="1.17993">
        <ele>205.4</ele>
        <time>2022-11-20T10:27:02Z</time>
      </trkpt>
      <trkpt lat="43.5173" lon="1.17981">
        <ele>206</ele>
        <time>2022-11-20T10:27:04Z</time>
      </trkpt>
      <trkpt lat="43.51733" lon="1.17976">
        <ele>206.4</ele>
        <time>2022-11-20T10:27:05Z</time>
      </trkpt>
      <trkpt lat="43.51735" lon="1.17972">
        <ele>206.6</ele>
        <time>2022-11-20T10:27:06Z</time>
      </trkpt>
      <trkpt lat="43.51745" lon="1.17969">
        <ele>207.2</ele>
        <time>2022-11-20T10:27:08Z</time>
      </trkpt>
      <trkpt lat="43.5175" lon="1.17968">
        <ele>207.4</ele>
        <time>2022-11-20T10:27:09Z</time>
      </trkpt>
      <trkpt lat="43.51755" lon="1.17969">
        <ele>207.4</ele>
        <time>2022-11-20T10:27:10Z</time>
      </trkpt>
      <trkpt lat="43.51772" lon="1.17971">
        <ele>208.2</ele>
        <time>2022-11-20T10:27:13Z</time>
      </trkpt>
      <trkpt lat="43.51777" lon="1.17971">
        <ele>208.4</ele>
        <time>2022-11-20T10:27:14Z</time>
      </trkpt>
      <trkpt lat="43.51783" lon="1.17973">
        <ele>209</ele>
        <time>2022-11-20T10:27:15Z</time>
      </trkpt>
      <trkpt lat="43.51788" lon="1.17974">
        <ele>209.6</ele>
        <time>2022-11-20T10:27:16Z</time>
      </trkpt>
      <trkpt lat="43.51806" lon="1.17978">
        <ele>210.4</ele>
        <time>2022-11-20T10:27:19Z</time>
      </trkpt>
      <trkpt lat="43.51811" lon="1.17978">
        <ele>210.8</ele>
        <time>2022-11-20T10:27:20Z</time>
      </trkpt>
      <trkpt lat="43.51829" lon="1.17981">
        <ele>211.8</ele>
        <time>2022-11-20T10:27:23Z</time>
      </trkpt>
      <trkpt lat="43.51848" lon="1.17984">
        <ele>213</ele>
        <time>2022-11-20T10:27:26Z</time>
      </trkpt>
      <trkpt lat="43.51868" lon="1.17987">
        <ele>213.4</ele>
        <time>2022-11-20T10:27:29Z</time>
      </trkpt>
      <trkpt lat="43.51895" lon="1.17993">
        <ele>214</ele>
        <time>2022-11-20T10:27:33Z</time>
      </trkpt>
      <trkpt lat="43.51927" lon="1.18003">
        <ele>214.8</ele>
        <time>2022-11-20T10:27:38Z</time>
      </trkpt>
      <trkpt lat="43.51948" lon="1.1801">
        <ele>215</ele>
        <time>2022-11-20T10:27:41Z</time>
      </trkpt>
      <trkpt lat="43.51991" lon="1.18026">
        <ele>215.6</ele>
        <time>2022-11-20T10:27:47Z</time>
      </trkpt>
      <trkpt lat="43.5205" lon="1.18048">
        <ele>215.8</ele>
        <time>2022-11-20T10:27:55Z</time>
      </trkpt>
      <trkpt lat="43.52105" lon="1.18068">
        <ele>216</ele>
        <time>2022-11-20T10:28:02Z</time>
      </trkpt>
      <trkpt lat="43.5213" lon="1.18077">
        <ele>216.2</ele>
        <time>2022-11-20T10:28:05Z</time>
      </trkpt>
      <trkpt lat="43.52187" lon="1.18098">
        <ele>216.4</ele>
        <time>2022-11-20T10:28:12Z</time>
      </trkpt>
      <trkpt lat="43.52212" lon="1.18106">
        <ele>216.6</ele>
        <time>2022-11-20T10:28:15Z</time>
      </trkpt>
      <trkpt lat="43.52273" lon="1.18124">
        <ele>216</ele>
        <time>2022-11-20T10:28:22Z</time>
      </trkpt>
      <trkpt lat="43.52281" lon="1.18127">
        <ele>216</ele>
        <time>2022-11-20T10:28:23Z</time>
      </trkpt>
      <trkpt lat="43.52341" lon="1.18145">
        <ele>215.6</ele>
        <time>2022-11-20T10:28:30Z</time>
      </trkpt>
      <trkpt lat="43.52358" lon="1.18152">
        <ele>215.6</ele>
        <time>2022-11-20T10:28:32Z</time>
      </trkpt>
      <trkpt lat="43.52407" lon="1.1817">
        <ele>215.6</ele>
        <time>2022-11-20T10:28:38Z</time>
      </trkpt>
      <trkpt lat="43.52443" lon="1.1818">
        <ele>215.2</ele>
        <time>2022-11-20T10:28:42Z</time>
      </trkpt>
      <trkpt lat="43.52488" lon="1.18189">
        <ele>215</ele>
        <time>2022-11-20T10:28:47Z</time>
      </trkpt>
      <trkpt lat="43.52541" lon="1.18203">
        <ele>214.8</ele>
        <time>2022-11-20T10:28:53Z</time>
      </trkpt>
      <trkpt lat="43.52559" lon="1.18208">
        <ele>214.6</ele>
        <time>2022-11-20T10:28:55Z</time>
      </trkpt>
      <trkpt lat="43.52614" lon="1.18224">
        <ele>214.2</ele>
        <time>2022-11-20T10:29:01Z</time>
      </trkpt>
      <trkpt lat="43.52668" lon="1.18238">
        <ele>214</ele>
        <time>2022-11-20T10:29:07Z</time>
      </trkpt>
      <trkpt lat="43.52729" lon="1.18255">
        <ele>213.6</ele>
        <time>2022-11-20T10:29:14Z</time>
      </trkpt>
      <trkpt lat="43.52737" lon="1.18258">
        <ele>213.6</ele>
        <time>2022-11-20T10:29:15Z</time>
      </trkpt>
      <trkpt lat="43.52796" lon="1.1828">
        <ele>213.6</ele>
        <time>2022-11-20T10:29:22Z</time>
      </trkpt>
      <trkpt lat="43.52828" lon="1.18293">
        <ele>213.6</ele>
        <time>2022-11-20T10:29:26Z</time>
      </trkpt>
      <trkpt lat="43.52887" lon="1.18316">
        <ele>213.6</ele>
        <time>2022-11-20T10:29:33Z</time>
      </trkpt>
      <trkpt lat="43.52912" lon="1.18325">
        <ele>213.4</ele>
        <time>2022-11-20T10:29:36Z</time>
      </trkpt>
      <trkpt lat="43.52929" lon="1.18331">
        <ele>213.2</ele>
        <time>2022-11-20T10:29:38Z</time>
      </trkpt>
      <trkpt lat="43.52978" lon="1.18353">
        <ele>212.4</ele>
        <time>2022-11-20T10:29:44Z</time>
      </trkpt>
      <trkpt lat="43.53037" lon="1.18375">
        <ele>212.2</ele>
        <time>2022-11-20T10:29:51Z</time>
      </trkpt>
      <trkpt lat="43.53055" lon="1.18381">
        <ele>212.2</ele>
        <time>2022-11-20T10:29:53Z</time>
      </trkpt>
      <trkpt lat="43.53071" lon="1.18388">
        <ele>212</ele>
        <time>2022-11-20T10:29:55Z</time>
      </trkpt>
      <trkpt lat="43.53102" lon="1.18401">
        <ele>212</ele>
        <time>2022-11-20T10:29:59Z</time>
      </trkpt>
      <trkpt lat="43.53139" lon="1.18426">
        <ele>211.6</ele>
        <time>2022-11-20T10:30:04Z</time>
      </trkpt>
      <trkpt lat="43.53145" lon="1.18433">
        <ele>211.6</ele>
        <time>2022-11-20T10:30:05Z</time>
      </trkpt>
      <trkpt lat="43.53161" lon="1.18457">
        <ele>211.4</ele>
        <time>2022-11-20T10:30:08Z</time>
      </trkpt>
      <trkpt lat="43.53167" lon="1.18476">
        <ele>211.2</ele>
        <time>2022-11-20T10:30:10Z</time>
      </trkpt>
      <trkpt lat="43.53169" lon="1.18486">
        <ele>211.2</ele>
        <time>2022-11-20T10:30:11Z</time>
      </trkpt>
      <trkpt lat="43.53171" lon="1.18496">
        <ele>211.2</ele>
        <time>2022-11-20T10:30:12Z</time>
      </trkpt>
      <trkpt lat="43.53181" lon="1.18511">
        <ele>211</ele>
        <time>2022-11-20T10:30:14Z</time>
      </trkpt>
      <trkpt lat="43.53194" lon="1.18508">
        <ele>210.8</ele>
        <time>2022-11-20T10:30:16Z</time>
      </trkpt>
      <trkpt lat="43.53203" lon="1.18491">
        <ele>211</ele>
        <time>2022-11-20T10:30:18Z</time>
      </trkpt>
      <trkpt lat="43.53207" lon="1.18481">
        <ele>211</ele>
        <time>2022-11-20T10:30:19Z</time>
      </trkpt>
      <trkpt lat="43.53219" lon="1.18465">
        <ele>211</ele>
        <time>2022-11-20T10:30:21Z</time>
      </trkpt>
      <trkpt lat="43.53237" lon="1.18459">
        <ele>211</ele>
        <time>2022-11-20T10:30:23Z</time>
      </trkpt>
      <trkpt lat="43.53267" lon="1.18468">
        <ele>211</ele>
        <time>2022-11-20T10:30:26Z</time>
      </trkpt>
      <trkpt lat="43.53328" lon="1.18492">
        <ele>211</ele>
        <time>2022-11-20T10:30:32Z</time>
      </trkpt>
      <trkpt lat="43.53349" lon="1.18499">
        <ele>211</ele>
        <time>2022-11-20T10:30:34Z</time>
      </trkpt>
      <trkpt lat="43.53408" lon="1.18522">
        <ele>210.8</ele>
        <time>2022-11-20T10:30:40Z</time>
      </trkpt>
      <trkpt lat="43.53438" lon="1.18533">
        <ele>210.8</ele>
        <time>2022-11-20T10:30:43Z</time>
      </trkpt>
      <trkpt lat="43.53497" lon="1.18557">
        <ele>210.6</ele>
        <time>2022-11-20T10:30:49Z</time>
      </trkpt>
      <trkpt lat="43.53524" lon="1.18569">
        <ele>210.6</ele>
        <time>2022-11-20T10:30:52Z</time>
      </trkpt>
      <trkpt lat="43.5358" lon="1.18596">
        <ele>210.6</ele>
        <time>2022-11-20T10:30:58Z</time>
      </trkpt>
      <trkpt lat="43.53589" lon="1.18601">
        <ele>210.8</ele>
        <time>2022-11-20T10:30:59Z</time>
      </trkpt>
      <trkpt lat="43.53643" lon="1.18627">
        <ele>210.8</ele>
        <time>2022-11-20T10:31:05Z</time>
      </trkpt>
      <trkpt lat="43.53679" lon="1.18643">
        <ele>210.8</ele>
        <time>2022-11-20T10:31:09Z</time>
      </trkpt>
      <trkpt lat="43.53734" lon="1.18672">
        <ele>210.6</ele>
        <time>2022-11-20T10:31:15Z</time>
      </trkpt>
      <trkpt lat="43.53762" lon="1.1869">
        <ele>210.4</ele>
        <time>2022-11-20T10:31:18Z</time>
      </trkpt>
      <trkpt lat="43.53815" lon="1.18728">
        <ele>210</ele>
        <time>2022-11-20T10:31:24Z</time>
      </trkpt>
      <trkpt lat="43.53841" lon="1.18749">
        <ele>209.6</ele>
        <time>2022-11-20T10:31:27Z</time>
      </trkpt>
      <trkpt lat="43.53893" lon="1.18786">
        <ele>209.4</ele>
        <time>2022-11-20T10:31:33Z</time>
      </trkpt>
      <trkpt lat="43.53901" lon="1.18792">
        <ele>209.4</ele>
        <time>2022-11-20T10:31:34Z</time>
      </trkpt>
      <trkpt lat="43.5395" lon="1.18831">
        <ele>209.2</ele>
        <time>2022-11-20T10:31:40Z</time>
      </trkpt>
      <trkpt lat="43.53957" lon="1.18839">
        <ele>209.2</ele>
        <time>2022-11-20T10:31:41Z</time>
      </trkpt>
      <trkpt lat="43.53962" lon="1.18848">
        <ele>209.2</ele>
        <time>2022-11-20T10:31:42Z</time>
      </trkpt>
      <trkpt lat="43.53975" lon="1.18864">
        <ele>209</ele>
        <time>2022-11-20T10:31:44Z</time>
      </trkpt>
      <trkpt lat="43.53991" lon="1.18869">
        <ele>209</ele>
        <time>2022-11-20T10:31:46Z</time>
      </trkpt>
      <trkpt lat="43.54" lon="1.1887">
        <ele>208.8</ele>
        <time>2022-11-20T10:31:47Z</time>
      </trkpt>
      <trkpt lat="43.54008" lon="1.18873">
        <ele>208.8</ele>
        <time>2022-11-20T10:31:48Z</time>
      </trkpt>
      <trkpt lat="43.54034" lon="1.18886">
        <ele>208.8</ele>
        <time>2022-11-20T10:31:51Z</time>
      </trkpt>
      <trkpt lat="43.54087" lon="1.18919">
        <ele>208.6</ele>
        <time>2022-11-20T10:31:57Z</time>
      </trkpt>
      <trkpt lat="43.54096" lon="1.18926">
        <ele>208.6</ele>
        <time>2022-11-20T10:31:58Z</time>
      </trkpt>
      <trkpt lat="43.54147" lon="1.18964">
        <ele>208</ele>
        <time>2022-11-20T10:32:04Z</time>
      </trkpt>
      <trkpt lat="43.54172" lon="1.18984">
        <ele>207.8</ele>
        <time>2022-11-20T10:32:07Z</time>
      </trkpt>
      <trkpt lat="43.54219" lon="1.19023">
        <ele>207.2</ele>
        <time>2022-11-20T10:32:13Z</time>
      </trkpt>
      <trkpt lat="43.54227" lon="1.1903">
        <ele>207.2</ele>
        <time>2022-11-20T10:32:14Z</time>
      </trkpt>
      <trkpt lat="43.54276" lon="1.19061">
        <ele>207.2</ele>
        <time>2022-11-20T10:32:20Z</time>
      </trkpt>
      <trkpt lat="43.54335" lon="1.19086">
        <ele>207.8</ele>
        <time>2022-11-20T10:32:27Z</time>
      </trkpt>
      <trkpt lat="43.54389" lon="1.191">
        <ele>208.2</ele>
        <time>2022-11-20T10:32:33Z</time>
      </trkpt>
      <trkpt lat="43.54407" lon="1.19103">
        <ele>208.2</ele>
        <time>2022-11-20T10:32:35Z</time>
      </trkpt>
      <trkpt lat="43.54466" lon="1.19107">
        <ele>207.4</ele>
        <time>2022-11-20T10:32:42Z</time>
      </trkpt>
      <trkpt lat="43.54474" lon="1.19109">
        <ele>207.4</ele>
        <time>2022-11-20T10:32:43Z</time>
      </trkpt>
      <trkpt lat="43.54481" lon="1.19111">
        <ele>207.4</ele>
        <time>2022-11-20T10:32:44Z</time>
      </trkpt>
      <trkpt lat="43.54487" lon="1.19116">
        <ele>207.2</ele>
        <time>2022-11-20T10:32:45Z</time>
      </trkpt>
      <trkpt lat="43.54494" lon="1.19131">
        <ele>207.2</ele>
        <time>2022-11-20T10:32:47Z</time>
      </trkpt>
      <trkpt lat="43.54493" lon="1.19152">
        <ele>207</ele>
        <time>2022-11-20T10:32:49Z</time>
      </trkpt>
      <trkpt lat="43.5449" lon="1.19162">
        <ele>207</ele>
        <time>2022-11-20T10:32:50Z</time>
      </trkpt>
      <trkpt lat="43.54488" lon="1.19172">
        <ele>207</ele>
        <time>2022-11-20T10:32:51Z</time>
      </trkpt>
      <trkpt lat="43.54481" lon="1.19207">
        <ele>207</ele>
        <time>2022-11-20T10:32:54Z</time>
      </trkpt>
      <trkpt lat="43.54474" lon="1.19272">
        <ele>207</ele>
        <time>2022-11-20T10:32:59Z</time>
      </trkpt>
      <trkpt lat="43.54467" lon="1.19354">
        <ele>206.8</ele>
        <time>2022-11-20T10:33:05Z</time>
      </trkpt>
      <trkpt lat="43.54474" lon="1.19408">
        <ele>206.6</ele>
        <time>2022-11-20T10:33:09Z</time>
      </trkpt>
      <trkpt lat="43.54488" lon="1.19481">
        <ele>206</ele>
        <time>2022-11-20T10:33:15Z</time>
      </trkpt>
      <trkpt lat="43.54489" lon="1.19493">
        <ele>205.8</ele>
        <time>2022-11-20T10:33:16Z</time>
      </trkpt>
      <trkpt lat="43.54493" lon="1.19567">
        <ele>204.8</ele>
        <time>2022-11-20T10:33:22Z</time>
      </trkpt>
      <trkpt lat="43.54496" lon="1.19635">
        <ele>203.8</ele>
        <time>2022-11-20T10:33:27Z</time>
      </trkpt>
      <trkpt lat="43.54498" lon="1.19649">
        <ele>203.4</ele>
        <time>2022-11-20T10:33:28Z</time>
      </trkpt>
      <trkpt lat="43.54504" lon="1.19692">
        <ele>202.8</ele>
        <time>2022-11-20T10:33:31Z</time>
      </trkpt>
      <trkpt lat="43.54512" lon="1.19744">
        <ele>201.6</ele>
        <time>2022-11-20T10:33:35Z</time>
      </trkpt>
      <trkpt lat="43.54521" lon="1.19797">
        <ele>201.4</ele>
        <time>2022-11-20T10:33:40Z</time>
      </trkpt>
      <trkpt lat="43.54533" lon="1.19838">
        <ele>201.6</ele>
        <time>2022-11-20T10:33:45Z</time>
      </trkpt>
      <trkpt lat="43.54544" lon="1.19877">
        <ele>203</ele>
        <time>2022-11-20T10:33:50Z</time>
      </trkpt>
      <trkpt lat="43.54555" lon="1.19918">
        <ele>204.4</ele>
        <time>2022-11-20T10:33:55Z</time>
      </trkpt>
      <trkpt lat="43.54563" lon="1.1995">
        <ele>205.4</ele>
        <time>2022-11-20T10:33:59Z</time>
      </trkpt>
      <trkpt lat="43.54564" lon="1.19965">
        <ele>205.8</ele>
        <time>2022-11-20T10:34:01Z</time>
      </trkpt>
      <trkpt lat="43.54565" lon="1.19971">
        <ele>206</ele>
        <time>2022-11-20T10:34:02Z</time>
      </trkpt>
      <trkpt lat="43.54571" lon="1.19983">
        <ele>206.6</ele>
        <time>2022-11-20T10:34:04Z</time>
      </trkpt>
      <trkpt lat="43.54575" lon="1.19989">
        <ele>206.8</ele>
        <time>2022-11-20T10:34:05Z</time>
      </trkpt>
      <trkpt lat="43.54585" lon="1.19998">
        <ele>207.2</ele>
        <time>2022-11-20T10:34:07Z</time>
      </trkpt>
      <trkpt lat="43.54605" lon="1.20018">
        <ele>207.6</ele>
        <time>2022-11-20T10:34:11Z</time>
      </trkpt>
      <trkpt lat="43.54631" lon="1.20051">
        <ele>207.4</ele>
        <time>2022-11-20T10:34:16Z</time>
      </trkpt>
      <trkpt lat="43.54658" lon="1.201">
        <ele>206.6</ele>
        <time>2022-11-20T10:34:22Z</time>
      </trkpt>
      <trkpt lat="43.54678" lon="1.20157">
        <ele>206.4</ele>
        <time>2022-11-20T10:34:28Z</time>
      </trkpt>
      <trkpt lat="43.54701" lon="1.20231">
        <ele>206.4</ele>
        <time>2022-11-20T10:34:36Z</time>
      </trkpt>
      <trkpt lat="43.54704" lon="1.20241">
        <ele>206.4</ele>
        <time>2022-11-20T10:34:37Z</time>
      </trkpt>
      <trkpt lat="43.54732" lon="1.20312">
        <ele>206.6</ele>
        <time>2022-11-20T10:34:44Z</time>
      </trkpt>
      <trkpt lat="43.54735" lon="1.20322">
        <ele>206.6</ele>
        <time>2022-11-20T10:34:45Z</time>
      </trkpt>
      <trkpt lat="43.54763" lon="1.20393">
        <ele>206.2</ele>
        <time>2022-11-20T10:34:52Z</time>
      </trkpt>
      <trkpt lat="43.54767" lon="1.20402">
        <ele>206</ele>
        <time>2022-11-20T10:34:53Z</time>
      </trkpt>
      <trkpt lat="43.54796" lon="1.20476">
        <ele>205.8</ele>
        <time>2022-11-20T10:35:01Z</time>
      </trkpt>
      <trkpt lat="43.54799" lon="1.20486">
        <ele>205.8</ele>
        <time>2022-11-20T10:35:02Z</time>
      </trkpt>
      <trkpt lat="43.54825" lon="1.20553">
        <ele>206</ele>
        <time>2022-11-20T10:35:09Z</time>
      </trkpt>
      <trkpt lat="43.54829" lon="1.20563">
        <ele>206.2</ele>
        <time>2022-11-20T10:35:10Z</time>
      </trkpt>
      <trkpt lat="43.54853" lon="1.20633">
        <ele>206.4</ele>
        <time>2022-11-20T10:35:17Z</time>
      </trkpt>
      <trkpt lat="43.54863" lon="1.20662">
        <ele>206.4</ele>
        <time>2022-11-20T10:35:20Z</time>
      </trkpt>
      <trkpt lat="43.54887" lon="1.20734">
        <ele>207</ele>
        <time>2022-11-20T10:35:27Z</time>
      </trkpt>
      <trkpt lat="43.54894" lon="1.20754">
        <ele>207</ele>
        <time>2022-11-20T10:35:29Z</time>
      </trkpt>
      <trkpt lat="43.54922" lon="1.20812">
        <ele>207</ele>
        <time>2022-11-20T10:35:35Z</time>
      </trkpt>
      <trkpt lat="43.54955" lon="1.20877">
        <ele>206.6</ele>
        <time>2022-11-20T10:35:42Z</time>
      </trkpt>
      <trkpt lat="43.54958" lon="1.20887">
        <ele>206.6</ele>
        <time>2022-11-20T10:35:43Z</time>
      </trkpt>
      <trkpt lat="43.54962" lon="1.2091">
        <ele>206.6</ele>
        <time>2022-11-20T10:35:45Z</time>
      </trkpt>
      <trkpt lat="43.54962" lon="1.20922">
        <ele>206.4</ele>
        <time>2022-11-20T10:35:46Z</time>
      </trkpt>
      <trkpt lat="43.54961" lon="1.20933">
        <ele>206.4</ele>
        <time>2022-11-20T10:35:47Z</time>
      </trkpt>
      <trkpt lat="43.54954" lon="1.20979">
        <ele>206.4</ele>
        <time>2022-11-20T10:35:51Z</time>
      </trkpt>
      <trkpt lat="43.54941" lon="1.21058">
        <ele>206.6</ele>
        <time>2022-11-20T10:35:58Z</time>
      </trkpt>
      <trkpt lat="43.54936" lon="1.21094">
        <ele>206.6</ele>
        <time>2022-11-20T10:36:01Z</time>
      </trkpt>
      <trkpt lat="43.54931" lon="1.21168">
        <ele>206.8</ele>
        <time>2022-11-20T10:36:07Z</time>
      </trkpt>
      <trkpt lat="43.5493" lon="1.2118">
        <ele>206.6</ele>
        <time>2022-11-20T10:36:08Z</time>
      </trkpt>
      <trkpt lat="43.54929" lon="1.21256">
        <ele>206.4</ele>
        <time>2022-11-20T10:36:14Z</time>
      </trkpt>
      <trkpt lat="43.5493" lon="1.21322">
        <ele>206.4</ele>
        <time>2022-11-20T10:36:19Z</time>
      </trkpt>
      <trkpt lat="43.54931" lon="1.21399">
        <ele>206.2</ele>
        <time>2022-11-20T10:36:25Z</time>
      </trkpt>
      <trkpt lat="43.54934" lon="1.21474">
        <ele>206.2</ele>
        <time>2022-11-20T10:36:31Z</time>
      </trkpt>
      <trkpt lat="43.54937" lon="1.21551">
        <ele>206</ele>
        <time>2022-11-20T10:36:37Z</time>
      </trkpt>
      <trkpt lat="43.54939" lon="1.21614">
        <ele>205.8</ele>
        <time>2022-11-20T10:36:42Z</time>
      </trkpt>
      <trkpt lat="43.54943" lon="1.21697">
        <ele>205.8</ele>
        <time>2022-11-20T10:36:49Z</time>
      </trkpt>
      <trkpt lat="43.54945" lon="1.21709">
        <ele>205.8</ele>
        <time>2022-11-20T10:36:50Z</time>
      </trkpt>
      <trkpt lat="43.54953" lon="1.21788">
        <ele>206.2</ele>
        <time>2022-11-20T10:36:57Z</time>
      </trkpt>
      <trkpt lat="43.54959" lon="1.21821">
        <ele>206.2</ele>
        <time>2022-11-20T10:37:00Z</time>
      </trkpt>
      <trkpt lat="43.54974" lon="1.21897">
        <ele>207.2</ele>
        <time>2022-11-20T10:37:07Z</time>
      </trkpt>
      <trkpt lat="43.5498" lon="1.21918">
        <ele>207.4</ele>
        <time>2022-11-20T10:37:09Z</time>
      </trkpt>
      <trkpt lat="43.54985" lon="1.21939">
        <ele>207.6</ele>
        <time>2022-11-20T10:37:11Z</time>
      </trkpt>
      <trkpt lat="43.55005" lon="1.22014">
        <ele>208</ele>
        <time>2022-11-20T10:37:18Z</time>
      </trkpt>
      <trkpt lat="43.55019" lon="1.22068">
        <ele>207.8</ele>
        <time>2022-11-20T10:37:24Z</time>
      </trkpt>
      <trkpt lat="43.55034" lon="1.22127">
        <ele>207.8</ele>
        <time>2022-11-20T10:37:30Z</time>
      </trkpt>
      <trkpt lat="43.55048" lon="1.22202">
        <ele>207.4</ele>
        <time>2022-11-20T10:37:37Z</time>
      </trkpt>
      <trkpt lat="43.5506" lon="1.22278">
        <ele>207</ele>
        <time>2022-11-20T10:37:44Z</time>
      </trkpt>
      <trkpt lat="43.55065" lon="1.2231">
        <ele>206.8</ele>
        <time>2022-11-20T10:37:47Z</time>
      </trkpt>
      <trkpt lat="43.55067" lon="1.2232">
        <ele>206.6</ele>
        <time>2022-11-20T10:37:48Z</time>
      </trkpt>
      <trkpt lat="43.55079" lon="1.22392">
        <ele>206.4</ele>
        <time>2022-11-20T10:37:55Z</time>
      </trkpt>
      <trkpt lat="43.55093" lon="1.22476">
        <ele>206.4</ele>
        <time>2022-11-20T10:38:03Z</time>
      </trkpt>
      <trkpt lat="43.55096" lon="1.22496">
        <ele>206.6</ele>
        <time>2022-11-20T10:38:05Z</time>
      </trkpt>
      <trkpt lat="43.55105" lon="1.22552">
        <ele>206.6</ele>
        <time>2022-11-20T10:38:11Z</time>
      </trkpt>
      <trkpt lat="43.55112" lon="1.22626">
        <ele>206.8</ele>
        <time>2022-11-20T10:38:18Z</time>
      </trkpt>
      <trkpt lat="43.55113" lon="1.22636">
        <ele>206.8</ele>
        <time>2022-11-20T10:38:19Z</time>
      </trkpt>
      <trkpt lat="43.55111" lon="1.22702">
        <ele>206.8</ele>
        <time>2022-11-20T10:38:26Z</time>
      </trkpt>
      <trkpt lat="43.55108" lon="1.22765">
        <ele>206.6</ele>
        <time>2022-11-20T10:38:33Z</time>
      </trkpt>
      <trkpt lat="43.55106" lon="1.22779">
        <ele>206.2</ele>
        <time>2022-11-20T10:38:36Z</time>
      </trkpt>
      <trkpt lat="43.55106" lon="1.22797">
        <ele>205.8</ele>
        <time>2022-11-20T10:38:40Z</time>
      </trkpt>
      <trkpt lat="43.55107" lon="1.22805">
        <ele>205.6</ele>
        <time>2022-11-20T10:38:41Z</time>
      </trkpt>
      <trkpt lat="43.55109" lon="1.22814">
        <ele>205.6</ele>
        <time>2022-11-20T10:38:42Z</time>
      </trkpt>
      <trkpt lat="43.55117" lon="1.22839">
        <ele>205</ele>
        <time>2022-11-20T10:38:45Z</time>
      </trkpt>
      <trkpt lat="43.5512" lon="1.22849">
        <ele>204.6</ele>
        <time>2022-11-20T10:38:46Z</time>
      </trkpt>
      <trkpt lat="43.55134" lon="1.22899">
        <ele>203.6</ele>
        <time>2022-11-20T10:38:51Z</time>
      </trkpt>
      <trkpt lat="43.55138" lon="1.2291">
        <ele>203</ele>
        <time>2022-11-20T10:38:52Z</time>
      </trkpt>
      <trkpt lat="43.55145" lon="1.22934">
        <ele>201.8</ele>
        <time>2022-11-20T10:38:55Z</time>
      </trkpt>
      <trkpt lat="43.55153" lon="1.2296">
        <ele>201</ele>
        <time>2022-11-20T10:38:58Z</time>
      </trkpt>
      <trkpt lat="43.55156" lon="1.2297">
        <ele>200.8</ele>
        <time>2022-11-20T10:38:59Z</time>
      </trkpt>
      <trkpt lat="43.55179" lon="1.23039">
        <ele>200.4</ele>
        <time>2022-11-20T10:39:07Z</time>
      </trkpt>
      <trkpt lat="43.55185" lon="1.23059">
        <ele>200.2</ele>
        <time>2022-11-20T10:39:09Z</time>
      </trkpt>
      <trkpt lat="43.55194" lon="1.23083">
        <ele>199.8</ele>
        <time>2022-11-20T10:39:12Z</time>
      </trkpt>
      <trkpt lat="43.55203" lon="1.2311">
        <ele>199.6</ele>
        <time>2022-11-20T10:39:15Z</time>
      </trkpt>
      <trkpt lat="43.55226" lon="1.23182">
        <ele>199.4</ele>
        <time>2022-11-20T10:39:23Z</time>
      </trkpt>
      <trkpt lat="43.5525" lon="1.23253">
        <ele>199.4</ele>
        <time>2022-11-20T10:39:31Z</time>
      </trkpt>
      <trkpt lat="43.55253" lon="1.23264">
        <ele>199.2</ele>
        <time>2022-11-20T10:39:32Z</time>
      </trkpt>
      <trkpt lat="43.55259" lon="1.2329">
        <ele>199.2</ele>
        <time>2022-11-20T10:39:35Z</time>
      </trkpt>
      <trkpt lat="43.55259" lon="1.23309">
        <ele>199.2</ele>
        <time>2022-11-20T10:39:37Z</time>
      </trkpt>
      <trkpt lat="43.55253" lon="1.23323">
        <ele>199.2</ele>
        <time>2022-11-20T10:39:39Z</time>
      </trkpt>
      <trkpt lat="43.55251" lon="1.23329">
        <ele>199.2</ele>
        <time>2022-11-20T10:39:40Z</time>
      </trkpt>
      <trkpt lat="43.55248" lon="1.23337">
        <ele>199.2</ele>
        <time>2022-11-20T10:39:41Z</time>
      </trkpt>
      <trkpt lat="43.55249" lon="1.23356">
        <ele>199</ele>
        <time>2022-11-20T10:39:43Z</time>
      </trkpt>
      <trkpt lat="43.55256" lon="1.2337">
        <ele>199</ele>
        <time>2022-11-20T10:39:45Z</time>
      </trkpt>
      <trkpt lat="43.55262" lon="1.23388">
        <ele>199</ele>
        <time>2022-11-20T10:39:47Z</time>
      </trkpt>
      <trkpt lat="43.55269" lon="1.23429">
        <ele>198.8</ele>
        <time>2022-11-20T10:39:51Z</time>
      </trkpt>
      <trkpt lat="43.55271" lon="1.23439">
        <ele>198.6</ele>
        <time>2022-11-20T10:39:52Z</time>
      </trkpt>
      <trkpt lat="43.55282" lon="1.23491">
        <ele>198.4</ele>
        <time>2022-11-20T10:39:57Z</time>
      </trkpt>
      <trkpt lat="43.55285" lon="1.23515">
        <ele>198.2</ele>
        <time>2022-11-20T10:39:59Z</time>
      </trkpt>
      <trkpt lat="43.55286" lon="1.23558">
        <ele>197.8</ele>
        <time>2022-11-20T10:40:03Z</time>
      </trkpt>
      <trkpt lat="43.55287" lon="1.23612">
        <ele>197.2</ele>
        <time>2022-11-20T10:40:08Z</time>
      </trkpt>
      <trkpt lat="43.55288" lon="1.23675">
        <ele>196.6</ele>
        <time>2022-11-20T10:40:13Z</time>
      </trkpt>
      <trkpt lat="43.55286" lon="1.2371">
        <ele>196</ele>
        <time>2022-11-20T10:40:16Z</time>
      </trkpt>
      <trkpt lat="43.55284" lon="1.23734">
        <ele>195.6</ele>
        <time>2022-11-20T10:40:18Z</time>
      </trkpt>
      <trkpt lat="43.55276" lon="1.23816">
        <ele>194.8</ele>
        <time>2022-11-20T10:40:25Z</time>
      </trkpt>
      <trkpt lat="43.55269" lon="1.23892">
        <ele>195</ele>
        <time>2022-11-20T10:40:32Z</time>
      </trkpt>
      <trkpt lat="43.55268" lon="1.23904">
        <ele>195.2</ele>
        <time>2022-11-20T10:40:33Z</time>
      </trkpt>
      <trkpt lat="43.55264" lon="1.23955">
        <ele>196.4</ele>
        <time>2022-11-20T10:40:38Z</time>
      </trkpt>
      <trkpt lat="43.55263" lon="1.23965">
        <ele>196.8</ele>
        <time>2022-11-20T10:40:39Z</time>
      </trkpt>
      <trkpt lat="43.55262" lon="1.23973">
        <ele>197</ele>
        <time>2022-11-20T10:40:40Z</time>
      </trkpt>
      <trkpt lat="43.55258" lon="1.24031">
        <ele>198</ele>
        <time>2022-11-20T10:40:46Z</time>
      </trkpt>
      <trkpt lat="43.55256" lon="1.24052">
        <ele>198.2</ele>
        <time>2022-11-20T10:40:48Z</time>
      </trkpt>
      <trkpt lat="43.55243" lon="1.24128">
        <ele>198.6</ele>
        <time>2022-11-20T10:40:56Z</time>
      </trkpt>
      <trkpt lat="43.55223" lon="1.24203">
        <ele>198.6</ele>
        <time>2022-11-20T10:41:04Z</time>
      </trkpt>
      <trkpt lat="43.55218" lon="1.24222">
        <ele>198.6</ele>
        <time>2022-11-20T10:41:06Z</time>
      </trkpt>
      <trkpt lat="43.552" lon="1.24295">
        <ele>198.8</ele>
        <time>2022-11-20T10:41:14Z</time>
      </trkpt>
      <trkpt lat="43.55184" lon="1.24371">
        <ele>199</ele>
        <time>2022-11-20T10:41:22Z</time>
      </trkpt>
      <trkpt lat="43.55179" lon="1.24389">
        <ele>198.8</ele>
        <time>2022-11-20T10:41:24Z</time>
      </trkpt>
      <trkpt lat="43.55175" lon="1.24397">
        <ele>198.6</ele>
        <time>2022-11-20T10:41:25Z</time>
      </trkpt>
      <trkpt lat="43.55163" lon="1.24419">
        <ele>198.4</ele>
        <time>2022-11-20T10:41:28Z</time>
      </trkpt>
      <trkpt lat="43.55159" lon="1.24425">
        <ele>198.4</ele>
        <time>2022-11-20T10:41:29Z</time>
      </trkpt>
      <trkpt lat="43.55153" lon="1.24431">
        <ele>198.4</ele>
        <time>2022-11-20T10:41:30Z</time>
      </trkpt>
      <trkpt lat="43.55142" lon="1.24438">
        <ele>198.4</ele>
        <time>2022-11-20T10:41:32Z</time>
      </trkpt>
      <trkpt lat="43.55133" lon="1.24451">
        <ele>198.2</ele>
        <time>2022-11-20T10:41:34Z</time>
      </trkpt>
      <trkpt lat="43.55131" lon="1.24459">
        <ele>198.2</ele>
        <time>2022-11-20T10:41:35Z</time>
      </trkpt>
      <trkpt lat="43.55132" lon="1.24468">
        <ele>198.4</ele>
        <time>2022-11-20T10:41:36Z</time>
      </trkpt>
      <trkpt lat="43.55136" lon="1.24475">
        <ele>198.4</ele>
        <time>2022-11-20T10:41:37Z</time>
      </trkpt>
      <trkpt lat="43.55142" lon="1.24482">
        <ele>198.4</ele>
        <time>2022-11-20T10:41:38Z</time>
      </trkpt>
      <trkpt lat="43.5516" lon="1.24501">
        <ele>198.4</ele>
        <time>2022-11-20T10:41:41Z</time>
      </trkpt>
      <trkpt lat="43.55178" lon="1.24525">
        <ele>198.2</ele>
        <time>2022-11-20T10:41:44Z</time>
      </trkpt>
      <trkpt lat="43.55186" lon="1.24544">
        <ele>198.2</ele>
        <time>2022-11-20T10:41:46Z</time>
      </trkpt>
      <trkpt lat="43.55203" lon="1.24602">
        <ele>198.2</ele>
        <time>2022-11-20T10:41:52Z</time>
      </trkpt>
      <trkpt lat="43.55222" lon="1.24672">
        <ele>198.8</ele>
        <time>2022-11-20T10:41:59Z</time>
      </trkpt>
      <trkpt lat="43.5523" lon="1.24703">
        <ele>199</ele>
        <time>2022-11-20T10:42:02Z</time>
      </trkpt>
      <trkpt lat="43.55235" lon="1.24723">
        <ele>199</ele>
        <time>2022-11-20T10:42:04Z</time>
      </trkpt>
      <trkpt lat="43.55256" lon="1.24796">
        <ele>199</ele>
        <time>2022-11-20T10:42:11Z</time>
      </trkpt>
      <trkpt lat="43.55277" lon="1.2488">
        <ele>199.2</ele>
        <time>2022-11-20T10:42:18Z</time>
      </trkpt>
      <trkpt lat="43.55299" lon="1.24954">
        <ele>199.4</ele>
        <time>2022-11-20T10:42:26Z</time>
      </trkpt>
      <trkpt lat="43.5531" lon="1.24984">
        <ele>199.2</ele>
        <time>2022-11-20T10:42:28Z</time>
      </trkpt>
      <trkpt lat="43.55334" lon="1.2504">
        <ele>199.2</ele>
        <time>2022-11-20T10:42:35Z</time>
      </trkpt>
      <trkpt lat="43.55367" lon="1.25105">
        <ele>199</ele>
        <time>2022-11-20T10:42:41Z</time>
      </trkpt>
      <trkpt lat="43.55376" lon="1.25125">
        <ele>199.2</ele>
        <time>2022-11-20T10:42:43Z</time>
      </trkpt>
      <trkpt lat="43.55403" lon="1.25197">
        <ele>199.4</ele>
        <time>2022-11-20T10:42:50Z</time>
      </trkpt>
      <trkpt lat="43.55418" lon="1.25239">
        <ele>199.2</ele>
        <time>2022-11-20T10:42:54Z</time>
      </trkpt>
      <trkpt lat="43.55445" lon="1.25305">
        <ele>199.2</ele>
        <time>2022-11-20T10:43:00Z</time>
      </trkpt>
      <trkpt lat="43.55451" lon="1.25316">
        <ele>199.2</ele>
        <time>2022-11-20T10:43:01Z</time>
      </trkpt>
      <trkpt lat="43.55489" lon="1.25379">
        <ele>199.2</ele>
        <time>2022-11-20T10:43:07Z</time>
      </trkpt>
      <trkpt lat="43.55528" lon="1.25439">
        <ele>199.6</ele>
        <time>2022-11-20T10:43:13Z</time>
      </trkpt>
      <trkpt lat="43.55539" lon="1.2546">
        <ele>199.6</ele>
        <time>2022-11-20T10:43:15Z</time>
      </trkpt>
      <trkpt lat="43.55571" lon="1.25533">
        <ele>199.8</ele>
        <time>2022-11-20T10:43:21Z</time>
      </trkpt>
      <trkpt lat="43.55596" lon="1.25599">
        <ele>199.6</ele>
        <time>2022-11-20T10:43:26Z</time>
      </trkpt>
      <trkpt lat="43.55609" lon="1.25639">
        <ele>199.6</ele>
        <time>2022-11-20T10:43:29Z</time>
      </trkpt>
      <trkpt lat="43.55634" lon="1.25709">
        <ele>199.4</ele>
        <time>2022-11-20T10:43:34Z</time>
      </trkpt>
      <trkpt lat="43.5564" lon="1.25722">
        <ele>199.4</ele>
        <time>2022-11-20T10:43:35Z</time>
      </trkpt>
      <trkpt lat="43.55654" lon="1.25747">
        <ele>199.4</ele>
        <time>2022-11-20T10:43:37Z</time>
      </trkpt>
      <trkpt lat="43.55677" lon="1.25781">
        <ele>199.4</ele>
        <time>2022-11-20T10:43:40Z</time>
      </trkpt>
      <trkpt lat="43.55722" lon="1.25845">
        <ele>199.4</ele>
        <time>2022-11-20T10:43:46Z</time>
      </trkpt>
      <trkpt lat="43.55744" lon="1.25878">
        <ele>199.4</ele>
        <time>2022-11-20T10:43:49Z</time>
      </trkpt>
      <trkpt lat="43.55787" lon="1.25943">
        <ele>199.4</ele>
        <time>2022-11-20T10:43:55Z</time>
      </trkpt>
      <trkpt lat="43.558" lon="1.2596">
        <ele>199.4</ele>
        <time>2022-11-20T10:43:57Z</time>
      </trkpt>
      <trkpt lat="43.5584" lon="1.26012">
        <ele>199.2</ele>
        <time>2022-11-20T10:44:02Z</time>
      </trkpt>
      <trkpt lat="43.55871" lon="1.2605">
        <ele>199.2</ele>
        <time>2022-11-20T10:44:06Z</time>
      </trkpt>
      <trkpt lat="43.55915" lon="1.26108">
        <ele>199.2</ele>
        <time>2022-11-20T10:44:12Z</time>
      </trkpt>
      <trkpt lat="43.5593" lon="1.26126">
        <ele>199.2</ele>
        <time>2022-11-20T10:44:14Z</time>
      </trkpt>
      <trkpt lat="43.55976" lon="1.26182">
        <ele>198.6</ele>
        <time>2022-11-20T10:44:20Z</time>
      </trkpt>
      <trkpt lat="43.55992" lon="1.26201">
        <ele>198.2</ele>
        <time>2022-11-20T10:44:22Z</time>
      </trkpt>
      <trkpt lat="43.56036" lon="1.2626">
        <ele>198</ele>
        <time>2022-11-20T10:44:28Z</time>
      </trkpt>
      <trkpt lat="43.56049" lon="1.26279">
        <ele>198</ele>
        <time>2022-11-20T10:44:30Z</time>
      </trkpt>
      <trkpt lat="43.56088" lon="1.26335">
        <ele>197.4</ele>
        <time>2022-11-20T10:44:36Z</time>
      </trkpt>
      <trkpt lat="43.56108" lon="1.26363">
        <ele>197</ele>
        <time>2022-11-20T10:44:39Z</time>
      </trkpt>
      <trkpt lat="43.56149" lon="1.26414">
        <ele>197</ele>
        <time>2022-11-20T10:44:45Z</time>
      </trkpt>
      <trkpt lat="43.56156" lon="1.26422">
        <ele>197</ele>
        <time>2022-11-20T10:44:46Z</time>
      </trkpt>
      <trkpt lat="43.5617" lon="1.26437">
        <ele>196.8</ele>
        <time>2022-11-20T10:44:48Z</time>
      </trkpt>
      <trkpt lat="43.5622" lon="1.26482">
        <ele>196.4</ele>
        <time>2022-11-20T10:44:55Z</time>
      </trkpt>
      <trkpt lat="43.5624" lon="1.26504">
        <ele>196</ele>
        <time>2022-11-20T10:44:58Z</time>
      </trkpt>
      <trkpt lat="43.56258" lon="1.26527">
        <ele>195.8</ele>
        <time>2022-11-20T10:45:01Z</time>
      </trkpt>
      <trkpt lat="43.56274" lon="1.26548">
        <ele>195.6</ele>
        <time>2022-11-20T10:45:04Z</time>
      </trkpt>
      <trkpt lat="43.56281" lon="1.26553">
        <ele>195.6</ele>
        <time>2022-11-20T10:45:05Z</time>
      </trkpt>
      <trkpt lat="43.56295" lon="1.26559">
        <ele>195.6</ele>
        <time>2022-11-20T10:45:07Z</time>
      </trkpt>
      <trkpt lat="43.56311" lon="1.26562">
        <ele>195.6</ele>
        <time>2022-11-20T10:45:09Z</time>
      </trkpt>
      <trkpt lat="43.56374" lon="1.26568">
        <ele>195.6</ele>
        <time>2022-11-20T10:45:17Z</time>
      </trkpt>
      <trkpt lat="43.56407" lon="1.26568">
        <ele>195.4</ele>
        <time>2022-11-20T10:45:21Z</time>
      </trkpt>
      <trkpt lat="43.56463" lon="1.26572">
        <ele>195.8</ele>
        <time>2022-11-20T10:45:28Z</time>
      </trkpt>
      <trkpt lat="43.56511" lon="1.26578">
        <ele>195.8</ele>
        <time>2022-11-20T10:45:34Z</time>
      </trkpt>
      <trkpt lat="43.56526" lon="1.26577">
        <ele>195.8</ele>
        <time>2022-11-20T10:45:36Z</time>
      </trkpt>
      <trkpt lat="43.56574" lon="1.2658">
        <ele>196</ele>
        <time>2022-11-20T10:45:42Z</time>
      </trkpt>
      <trkpt lat="43.56631" lon="1.26592">
        <ele>195.8</ele>
        <time>2022-11-20T10:45:49Z</time>
      </trkpt>
      <trkpt lat="43.56639" lon="1.26594">
        <ele>195.8</ele>
        <time>2022-11-20T10:45:50Z</time>
      </trkpt>
      <trkpt lat="43.56694" lon="1.26616">
        <ele>195.8</ele>
        <time>2022-11-20T10:45:57Z</time>
      </trkpt>
      <trkpt lat="43.56702" lon="1.26619">
        <ele>195.8</ele>
        <time>2022-11-20T10:45:58Z</time>
      </trkpt>
      <trkpt lat="43.5676" lon="1.26628">
        <ele>196</ele>
        <time>2022-11-20T10:46:05Z</time>
      </trkpt>
      <trkpt lat="43.56808" lon="1.26637">
        <ele>195.8</ele>
        <time>2022-11-20T10:46:11Z</time>
      </trkpt>
      <trkpt lat="43.56861" lon="1.26665">
        <ele>195.6</ele>
        <time>2022-11-20T10:46:18Z</time>
      </trkpt>
      <trkpt lat="43.56868" lon="1.2667">
        <ele>195.6</ele>
        <time>2022-11-20T10:46:19Z</time>
      </trkpt>
      <trkpt lat="43.56912" lon="1.26705">
        <ele>195.8</ele>
        <time>2022-11-20T10:46:25Z</time>
      </trkpt>
      <trkpt lat="43.56956" lon="1.26737">
        <ele>196</ele>
        <time>2022-11-20T10:46:31Z</time>
      </trkpt>
      <trkpt lat="43.57009" lon="1.26777">
        <ele>196.2</ele>
        <time>2022-11-20T10:46:38Z</time>
      </trkpt>
      <trkpt lat="43.57032" lon="1.26795">
        <ele>196.2</ele>
        <time>2022-11-20T10:46:41Z</time>
      </trkpt>
      <trkpt lat="43.57087" lon="1.26835">
        <ele>196.2</ele>
        <time>2022-11-20T10:46:48Z</time>
      </trkpt>
      <trkpt lat="43.5711" lon="1.26852">
        <ele>196.2</ele>
        <time>2022-11-20T10:46:51Z</time>
      </trkpt>
      <trkpt lat="43.57162" lon="1.26891">
        <ele>196.2</ele>
        <time>2022-11-20T10:46:58Z</time>
      </trkpt>
      <trkpt lat="43.57178" lon="1.26902">
        <ele>196</ele>
        <time>2022-11-20T10:47:00Z</time>
      </trkpt>
      <trkpt lat="43.57231" lon="1.26943">
        <ele>195.8</ele>
        <time>2022-11-20T10:47:07Z</time>
      </trkpt>
      <trkpt lat="43.57269" lon="1.26971">
        <ele>195.8</ele>
        <time>2022-11-20T10:47:12Z</time>
      </trkpt>
      <trkpt lat="43.57311" lon="1.27012">
        <ele>195.2</ele>
        <time>2022-11-20T10:47:18Z</time>
      </trkpt>
      <trkpt lat="43.57317" lon="1.27019">
        <ele>195.2</ele>
        <time>2022-11-20T10:47:19Z</time>
      </trkpt>
      <trkpt lat="43.57324" lon="1.27027">
        <ele>195.2</ele>
        <time>2022-11-20T10:47:20Z</time>
      </trkpt>
      <trkpt lat="43.57338" lon="1.2704">
        <ele>195.2</ele>
        <time>2022-11-20T10:47:23Z</time>
      </trkpt>
      <trkpt lat="43.57388" lon="1.27089">
        <ele>195.2</ele>
        <time>2022-11-20T10:47:29Z</time>
      </trkpt>
      <trkpt lat="43.57395" lon="1.27096">
        <ele>195.2</ele>
        <time>2022-11-20T10:47:30Z</time>
      </trkpt>
      <trkpt lat="43.57441" lon="1.2714">
        <ele>195</ele>
        <time>2022-11-20T10:47:36Z</time>
      </trkpt>
      <trkpt lat="43.57465" lon="1.2716">
        <ele>194.8</ele>
        <time>2022-11-20T10:47:39Z</time>
      </trkpt>
      <trkpt lat="43.57521" lon="1.27205">
        <ele>194.6</ele>
        <time>2022-11-20T10:47:46Z</time>
      </trkpt>
      <trkpt lat="43.57544" lon="1.2722">
        <ele>194.6</ele>
        <time>2022-11-20T10:47:49Z</time>
      </trkpt>
      <trkpt lat="43.57599" lon="1.27246">
        <ele>195</ele>
        <time>2022-11-20T10:47:55Z</time>
      </trkpt>
      <trkpt lat="43.57608" lon="1.27249">
        <ele>195</ele>
        <time>2022-11-20T10:47:56Z</time>
      </trkpt>
      <trkpt lat="43.57663" lon="1.2726">
        <ele>195</ele>
        <time>2022-11-20T10:48:02Z</time>
      </trkpt>
      <trkpt lat="43.57672" lon="1.2726">
        <ele>195</ele>
        <time>2022-11-20T10:48:03Z</time>
      </trkpt>
      <trkpt lat="43.57703" lon="1.27262">
        <ele>195</ele>
        <time>2022-11-20T10:48:07Z</time>
      </trkpt>
      <trkpt lat="43.57729" lon="1.27264">
        <ele>194.8</ele>
        <time>2022-11-20T10:48:12Z</time>
      </trkpt>
      <trkpt lat="43.57744" lon="1.2727">
        <ele>194.8</ele>
        <time>2022-11-20T10:48:15Z</time>
      </trkpt>
      <trkpt lat="43.57749" lon="1.27271">
        <ele>194.8</ele>
        <time>2022-11-20T10:48:16Z</time>
      </trkpt>
      <trkpt lat="43.57754" lon="1.27271">
        <ele>194.8</ele>
        <time>2022-11-20T10:48:17Z</time>
      </trkpt>
      <trkpt lat="43.57762" lon="1.27268">
        <ele>194.8</ele>
        <time>2022-11-20T10:48:19Z</time>
      </trkpt>
      <trkpt lat="43.57767" lon="1.27266">
        <ele>194.8</ele>
        <time>2022-11-20T10:48:20Z</time>
      </trkpt>
      <trkpt lat="43.57771" lon="1.27266">
        <ele>194.8</ele>
        <time>2022-11-20T10:48:21Z</time>
      </trkpt>
      <trkpt lat="43.57786" lon="1.2727">
        <ele>194.6</ele>
        <time>2022-11-20T10:48:24Z</time>
      </trkpt>
      <trkpt lat="43.57816" lon="1.27276">
        <ele>194.4</ele>
        <time>2022-11-20T10:48:29Z</time>
      </trkpt>
      <trkpt lat="43.57867" lon="1.27284">
        <ele>194.2</ele>
        <time>2022-11-20T10:48:36Z</time>
      </trkpt>
      <trkpt lat="43.57923" lon="1.27295">
        <ele>194.2</ele>
        <time>2022-11-20T10:48:43Z</time>
      </trkpt>
      <trkpt lat="43.57983" lon="1.27308">
        <ele>194</ele>
        <time>2022-11-20T10:48:50Z</time>
      </trkpt>
      <trkpt lat="43.57992" lon="1.2731">
        <ele>194</ele>
        <time>2022-11-20T10:48:51Z</time>
      </trkpt>
      <trkpt lat="43.58037" lon="1.27315">
        <ele>193.8</ele>
        <time>2022-11-20T10:48:56Z</time>
      </trkpt>
      <trkpt lat="43.58043" lon="1.27317">
        <ele>193.8</ele>
        <time>2022-11-20T10:48:57Z</time>
      </trkpt>
      <trkpt lat="43.58048" lon="1.2732">
        <ele>193.8</ele>
        <time>2022-11-20T10:48:58Z</time>
      </trkpt>
      <trkpt lat="43.58082" lon="1.27334">
        <ele>193.6</ele>
        <time>2022-11-20T10:49:01Z</time>
      </trkpt>
      <trkpt lat="43.58132" lon="1.27368">
        <ele>193.4</ele>
        <time>2022-11-20T10:49:07Z</time>
      </trkpt>
      <trkpt lat="43.58177" lon="1.27413">
        <ele>192.8</ele>
        <time>2022-11-20T10:49:13Z</time>
      </trkpt>
      <trkpt lat="43.58184" lon="1.2742">
        <ele>192.8</ele>
        <time>2022-11-20T10:49:14Z</time>
      </trkpt>
      <trkpt lat="43.58197" lon="1.27436">
        <ele>192.8</ele>
        <time>2022-11-20T10:49:16Z</time>
      </trkpt>
      <trkpt lat="43.58205" lon="1.27453">
        <ele>192.4</ele>
        <time>2022-11-20T10:49:18Z</time>
      </trkpt>
      <trkpt lat="43.5822" lon="1.27486">
        <ele>192.2</ele>
        <time>2022-11-20T10:49:22Z</time>
      </trkpt>
      <trkpt lat="43.58238" lon="1.27538">
        <ele>191.8</ele>
        <time>2022-11-20T10:49:28Z</time>
      </trkpt>
      <trkpt lat="43.58257" lon="1.27587">
        <ele>192</ele>
        <time>2022-11-20T10:49:33Z</time>
      </trkpt>
      <trkpt lat="43.58279" lon="1.27641">
        <ele>192.4</ele>
        <time>2022-11-20T10:49:38Z</time>
      </trkpt>
      <trkpt lat="43.58308" lon="1.27709">
        <ele>192.4</ele>
        <time>2022-11-20T10:49:44Z</time>
      </trkpt>
      <trkpt lat="43.58317" lon="1.27732">
        <ele>192.4</ele>
        <time>2022-11-20T10:49:46Z</time>
      </trkpt>
      <trkpt lat="43.58345" lon="1.27786">
        <ele>192.4</ele>
        <time>2022-11-20T10:49:51Z</time>
      </trkpt>
      <trkpt lat="43.58352" lon="1.27796">
        <ele>192.2</ele>
        <time>2022-11-20T10:49:52Z</time>
      </trkpt>
      <trkpt lat="43.58376" lon="1.27819">
        <ele>192</ele>
        <time>2022-11-20T10:49:55Z</time>
      </trkpt>
      <trkpt lat="43.58422" lon="1.27862">
        <ele>192.2</ele>
        <time>2022-11-20T10:50:01Z</time>
      </trkpt>
      <trkpt lat="43.58437" lon="1.27877">
        <ele>192.2</ele>
        <time>2022-11-20T10:50:03Z</time>
      </trkpt>
      <trkpt lat="43.58483" lon="1.27921">
        <ele>192.4</ele>
        <time>2022-11-20T10:50:09Z</time>
      </trkpt>
      <trkpt lat="43.58522" lon="1.27958">
        <ele>192.6</ele>
        <time>2022-11-20T10:50:14Z</time>
      </trkpt>
      <trkpt lat="43.58569" lon="1.28002">
        <ele>193</ele>
        <time>2022-11-20T10:50:20Z</time>
      </trkpt>
      <trkpt lat="43.58577" lon="1.2801">
        <ele>193</ele>
        <time>2022-11-20T10:50:21Z</time>
      </trkpt>
      <trkpt lat="43.58596" lon="1.28021">
        <ele>192.8</ele>
        <time>2022-11-20T10:50:23Z</time>
      </trkpt>
      <trkpt lat="43.58652" lon="1.28042">
        <ele>192.8</ele>
        <time>2022-11-20T10:50:29Z</time>
      </trkpt>
      <trkpt lat="43.58701" lon="1.28045">
        <ele>192.4</ele>
        <time>2022-11-20T10:50:34Z</time>
      </trkpt>
      <trkpt lat="43.58759" lon="1.28038">
        <ele>192</ele>
        <time>2022-11-20T10:50:40Z</time>
      </trkpt>
      <trkpt lat="43.58809" lon="1.28041">
        <ele>191.8</ele>
        <time>2022-11-20T10:50:45Z</time>
      </trkpt>
      <trkpt lat="43.58854" lon="1.2806">
        <ele>191.8</ele>
        <time>2022-11-20T10:50:50Z</time>
      </trkpt>
      <trkpt lat="43.58896" lon="1.28093">
        <ele>192</ele>
        <time>2022-11-20T10:50:55Z</time>
      </trkpt>
      <trkpt lat="43.58944" lon="1.2814">
        <ele>192</ele>
        <time>2022-11-20T10:51:01Z</time>
      </trkpt>
      <trkpt lat="43.58976" lon="1.28176">
        <ele>191.8</ele>
        <time>2022-11-20T10:51:05Z</time>
      </trkpt>
      <trkpt lat="43.59007" lon="1.28229">
        <ele>191.8</ele>
        <time>2022-11-20T10:51:10Z</time>
      </trkpt>
      <trkpt lat="43.59029" lon="1.2829">
        <ele>191.2</ele>
        <time>2022-11-20T10:51:15Z</time>
      </trkpt>
      <trkpt lat="43.59053" lon="1.28364">
        <ele>191</ele>
        <time>2022-11-20T10:51:21Z</time>
      </trkpt>
      <trkpt lat="43.59057" lon="1.28377">
        <ele>191</ele>
        <time>2022-11-20T10:51:22Z</time>
      </trkpt>
      <trkpt lat="43.59062" lon="1.2839">
        <ele>190.8</ele>
        <time>2022-11-20T10:51:23Z</time>
      </trkpt>
      <trkpt lat="43.59084" lon="1.28437">
        <ele>190.4</ele>
        <time>2022-11-20T10:51:27Z</time>
      </trkpt>
      <trkpt lat="43.59115" lon="1.28474">
        <ele>190</ele>
        <time>2022-11-20T10:51:31Z</time>
      </trkpt>
      <trkpt lat="43.59123" lon="1.28481">
        <ele>189.8</ele>
        <time>2022-11-20T10:51:32Z</time>
      </trkpt>
      <trkpt lat="43.59176" lon="1.28525">
        <ele>189.4</ele>
        <time>2022-11-20T10:51:38Z</time>
      </trkpt>
      <trkpt lat="43.59208" lon="1.28551">
        <ele>188.8</ele>
        <time>2022-11-20T10:51:42Z</time>
      </trkpt>
      <trkpt lat="43.59222" lon="1.28568">
        <ele>188.6</ele>
        <time>2022-11-20T10:51:44Z</time>
      </trkpt>
      <trkpt lat="43.5923" lon="1.28573">
        <ele>188.6</ele>
        <time>2022-11-20T10:51:45Z</time>
      </trkpt>
      <trkpt lat="43.59239" lon="1.28574">
        <ele>188.6</ele>
        <time>2022-11-20T10:51:46Z</time>
      </trkpt>
      <trkpt lat="43.59257" lon="1.28573">
        <ele>188.4</ele>
        <time>2022-11-20T10:51:48Z</time>
      </trkpt>
      <trkpt lat="43.59276" lon="1.28576">
        <ele>188.6</ele>
        <time>2022-11-20T10:51:50Z</time>
      </trkpt>
      <trkpt lat="43.59315" lon="1.28588">
        <ele>189</ele>
        <time>2022-11-20T10:51:54Z</time>
      </trkpt>
      <trkpt lat="43.5937" lon="1.2861">
        <ele>189.4</ele>
        <time>2022-11-20T10:52:00Z</time>
      </trkpt>
      <trkpt lat="43.59379" lon="1.28615">
        <ele>189.6</ele>
        <time>2022-11-20T10:52:01Z</time>
      </trkpt>
      <trkpt lat="43.59421" lon="1.28646">
        <ele>189.8</ele>
        <time>2022-11-20T10:52:06Z</time>
      </trkpt>
      <trkpt lat="43.59451" lon="1.28675">
        <ele>190</ele>
        <time>2022-11-20T10:52:10Z</time>
      </trkpt>
      <trkpt lat="43.5948" lon="1.28709">
        <ele>190</ele>
        <time>2022-11-20T10:52:14Z</time>
      </trkpt>
      <trkpt lat="43.59517" lon="1.28766">
        <ele>189.6</ele>
        <time>2022-11-20T10:52:20Z</time>
      </trkpt>
      <trkpt lat="43.5955" lon="1.28828">
        <ele>189.4</ele>
        <time>2022-11-20T10:52:26Z</time>
      </trkpt>
      <trkpt lat="43.59587" lon="1.2889">
        <ele>189.2</ele>
        <time>2022-11-20T10:52:32Z</time>
      </trkpt>
      <trkpt lat="43.59594" lon="1.289">
        <ele>189.2</ele>
        <time>2022-11-20T10:52:34Z</time>
      </trkpt>
      <trkpt lat="43.59635" lon="1.28957">
        <ele>189.2</ele>
        <time>2022-11-20T10:52:39Z</time>
      </trkpt>
      <trkpt lat="43.59662" lon="1.28993">
        <ele>189</ele>
        <time>2022-11-20T10:52:43Z</time>
      </trkpt>
      <trkpt lat="43.59668" lon="1.29002">
        <ele>189</ele>
        <time>2022-11-20T10:52:44Z</time>
      </trkpt>
      <trkpt lat="43.59678" lon="1.29018">
        <ele>188.8</ele>
        <time>2022-11-20T10:52:46Z</time>
      </trkpt>
      <trkpt lat="43.59681" lon="1.29027">
        <ele>188.6</ele>
        <time>2022-11-20T10:52:47Z</time>
      </trkpt>
      <trkpt lat="43.59686" lon="1.29046">
        <ele>188.4</ele>
        <time>2022-11-20T10:52:49Z</time>
      </trkpt>
      <trkpt lat="43.59696" lon="1.29061">
        <ele>188.2</ele>
        <time>2022-11-20T10:52:51Z</time>
      </trkpt>
      <trkpt lat="43.59712" lon="1.29069">
        <ele>188.2</ele>
        <time>2022-11-20T10:52:53Z</time>
      </trkpt>
      <trkpt lat="43.5972" lon="1.29074">
        <ele>188.2</ele>
        <time>2022-11-20T10:52:54Z</time>
      </trkpt>
      <trkpt lat="43.59727" lon="1.29082">
        <ele>188.4</ele>
        <time>2022-11-20T10:52:55Z</time>
      </trkpt>
      <trkpt lat="43.59747" lon="1.29106">
        <ele>188.6</ele>
        <time>2022-11-20T10:52:58Z</time>
      </trkpt>
      <trkpt lat="43.59787" lon="1.29159">
        <ele>189</ele>
        <time>2022-11-20T10:53:04Z</time>
      </trkpt>
      <trkpt lat="43.59793" lon="1.29169">
        <ele>189</ele>
        <time>2022-11-20T10:53:05Z</time>
      </trkpt>
      <trkpt lat="43.59819" lon="1.29223">
        <ele>188.8</ele>
        <time>2022-11-20T10:53:10Z</time>
      </trkpt>
      <trkpt lat="43.59837" lon="1.2928">
        <ele>188.6</ele>
        <time>2022-11-20T10:53:15Z</time>
      </trkpt>
      <trkpt lat="43.5985" lon="1.29352">
        <ele>188.4</ele>
        <time>2022-11-20T10:53:21Z</time>
      </trkpt>
      <trkpt lat="43.59852" lon="1.29365">
        <ele>188.4</ele>
        <time>2022-11-20T10:53:22Z</time>
      </trkpt>
      <trkpt lat="43.59865" lon="1.29428">
        <ele>188.2</ele>
        <time>2022-11-20T10:53:27Z</time>
      </trkpt>
      <trkpt lat="43.59868" lon="1.2944">
        <ele>188</ele>
        <time>2022-11-20T10:53:28Z</time>
      </trkpt>
      <trkpt lat="43.59889" lon="1.2951">
        <ele>188</ele>
        <time>2022-11-20T10:53:34Z</time>
      </trkpt>
      <trkpt lat="43.59892" lon="1.29522">
        <ele>187.8</ele>
        <time>2022-11-20T10:53:35Z</time>
      </trkpt>
      <trkpt lat="43.59894" lon="1.29546">
        <ele>187.8</ele>
        <time>2022-11-20T10:53:37Z</time>
      </trkpt>
      <trkpt lat="43.59892" lon="1.29558">
        <ele>187.6</ele>
        <time>2022-11-20T10:53:38Z</time>
      </trkpt>
      <trkpt lat="43.59874" lon="1.29637">
        <ele>187.4</ele>
        <time>2022-11-20T10:53:45Z</time>
      </trkpt>
      <trkpt lat="43.59872" lon="1.29648">
        <ele>187.4</ele>
        <time>2022-11-20T10:53:46Z</time>
      </trkpt>
      <trkpt lat="43.59855" lon="1.29725">
        <ele>187.8</ele>
        <time>2022-11-20T10:53:53Z</time>
      </trkpt>
      <trkpt lat="43.5985" lon="1.29747">
        <ele>187.8</ele>
        <time>2022-11-20T10:53:55Z</time>
      </trkpt>
      <trkpt lat="43.59835" lon="1.29822">
        <ele>188</ele>
        <time>2022-11-20T10:54:02Z</time>
      </trkpt>
      <trkpt lat="43.59833" lon="1.29901">
        <ele>188</ele>
        <time>2022-11-20T10:54:09Z</time>
      </trkpt>
      <trkpt lat="43.5983" lon="1.29976">
        <ele>187.8</ele>
        <time>2022-11-20T10:54:16Z</time>
      </trkpt>
      <trkpt lat="43.5983" lon="1.29986">
        <ele>187.8</ele>
        <time>2022-11-20T10:54:17Z</time>
      </trkpt>
      <trkpt lat="43.59829" lon="1.30014">
        <ele>187.8</ele>
        <time>2022-11-20T10:54:20Z</time>
      </trkpt>
      <trkpt lat="43.59827" lon="1.30023">
        <ele>187.8</ele>
        <time>2022-11-20T10:54:21Z</time>
      </trkpt>
      <trkpt lat="43.59825" lon="1.3003">
        <ele>187.8</ele>
        <time>2022-11-20T10:54:22Z</time>
      </trkpt>
      <trkpt lat="43.59825" lon="1.30047">
        <ele>188</ele>
        <time>2022-11-20T10:54:24Z</time>
      </trkpt>
      <trkpt lat="43.59829" lon="1.30064">
        <ele>187.8</ele>
        <time>2022-11-20T10:54:26Z</time>
      </trkpt>
      <trkpt lat="43.59832" lon="1.30083">
        <ele>187.8</ele>
        <time>2022-11-20T10:54:28Z</time>
      </trkpt>
      <trkpt lat="43.59837" lon="1.30102">
        <ele>187.6</ele>
        <time>2022-11-20T10:54:30Z</time>
      </trkpt>
      <trkpt lat="43.59846" lon="1.30119">
        <ele>187.6</ele>
        <time>2022-11-20T10:54:32Z</time>
      </trkpt>
      <trkpt lat="43.59878" lon="1.30179">
        <ele>187.2</ele>
        <time>2022-11-20T10:54:39Z</time>
      </trkpt>
      <trkpt lat="43.59883" lon="1.30188">
        <ele>187.2</ele>
        <time>2022-11-20T10:54:40Z</time>
      </trkpt>
      <trkpt lat="43.59888" lon="1.30196">
        <ele>187</ele>
        <time>2022-11-20T10:54:41Z</time>
      </trkpt>
      <trkpt lat="43.59912" lon="1.3024">
        <ele>186.6</ele>
        <time>2022-11-20T10:54:46Z</time>
      </trkpt>
      <trkpt lat="43.59946" lon="1.30303">
        <ele>186.8</ele>
        <time>2022-11-20T10:54:53Z</time>
      </trkpt>
      <trkpt lat="43.59956" lon="1.30321">
        <ele>186.6</ele>
        <time>2022-11-20T10:54:55Z</time>
      </trkpt>
      <trkpt lat="43.59993" lon="1.30383">
        <ele>187</ele>
        <time>2022-11-20T10:55:02Z</time>
      </trkpt>
      <trkpt lat="43.60006" lon="1.30397">
        <ele>187.2</ele>
        <time>2022-11-20T10:55:04Z</time>
      </trkpt>
      <trkpt lat="43.6002" lon="1.30407">
        <ele>187</ele>
        <time>2022-11-20T10:55:06Z</time>
      </trkpt>
      <trkpt lat="43.60035" lon="1.30415">
        <ele>187.2</ele>
        <time>2022-11-20T10:55:08Z</time>
      </trkpt>
      <trkpt lat="43.60058" lon="1.30423">
        <ele>187.4</ele>
        <time>2022-11-20T10:55:11Z</time>
      </trkpt>
      <trkpt lat="43.60093" lon="1.30436">
        <ele>187.2</ele>
        <time>2022-11-20T10:55:16Z</time>
      </trkpt>
      <trkpt lat="43.60099" lon="1.30441">
        <ele>187.2</ele>
        <time>2022-11-20T10:55:17Z</time>
      </trkpt>
      <trkpt lat="43.60103" lon="1.30448">
        <ele>187.2</ele>
        <time>2022-11-20T10:55:18Z</time>
      </trkpt>
      <trkpt lat="43.60103" lon="1.30455">
        <ele>187</ele>
        <time>2022-11-20T10:55:19Z</time>
      </trkpt>
      <trkpt lat="43.60103" lon="1.30461">
        <ele>187</ele>
        <time>2022-11-20T10:55:20Z</time>
      </trkpt>
      <trkpt lat="43.60103" lon="1.30475">
        <ele>187</ele>
        <time>2022-11-20T10:55:21Z</time>
      </trkpt>
      <trkpt lat="43.60088" lon="1.30549">
        <ele>186.8</ele>
        <time>2022-11-20T10:55:29Z</time>
      </trkpt>
      <trkpt lat="43.60083" lon="1.30578">
        <ele>186.8</ele>
        <time>2022-11-20T10:55:32Z</time>
      </trkpt>
      <trkpt lat="43.60068" lon="1.30657">
        <ele>186.8</ele>
        <time>2022-11-20T10:55:40Z</time>
      </trkpt>
      <trkpt lat="43.60062" lon="1.30687">
        <ele>187</ele>
        <time>2022-11-20T10:55:43Z</time>
      </trkpt>
      <trkpt lat="43.60051" lon="1.30746">
        <ele>187.4</ele>
        <time>2022-11-20T10:55:49Z</time>
      </trkpt>
      <trkpt lat="43.60044" lon="1.30764">
        <ele>187.6</ele>
        <time>2022-11-20T10:55:51Z</time>
      </trkpt>
      <trkpt lat="43.60041" lon="1.30774">
        <ele>187.6</ele>
        <time>2022-11-20T10:55:52Z</time>
      </trkpt>
      <trkpt lat="43.60037" lon="1.30793">
        <ele>187.8</ele>
        <time>2022-11-20T10:55:54Z</time>
      </trkpt>
      <trkpt lat="43.60036" lon="1.30803">
        <ele>187.8</ele>
        <time>2022-11-20T10:55:55Z</time>
      </trkpt>
      <trkpt lat="43.60036" lon="1.30824">
        <ele>188</ele>
        <time>2022-11-20T10:55:57Z</time>
      </trkpt>
      <trkpt lat="43.60031" lon="1.30855">
        <ele>188.2</ele>
        <time>2022-11-20T10:56:00Z</time>
      </trkpt>
      <trkpt lat="43.60019" lon="1.30914">
        <ele>188.2</ele>
        <time>2022-11-20T10:56:06Z</time>
      </trkpt>
      <trkpt lat="43.60006" lon="1.30987">
        <ele>188.2</ele>
        <time>2022-11-20T10:56:13Z</time>
      </trkpt>
      <trkpt lat="43.60001" lon="1.31018">
        <ele>188.2</ele>
        <time>2022-11-20T10:56:16Z</time>
      </trkpt>
      <trkpt lat="43.59988" lon="1.31089">
        <ele>187.8</ele>
        <time>2022-11-20T10:56:24Z</time>
      </trkpt>
      <trkpt lat="43.59973" lon="1.31168">
        <ele>187.8</ele>
        <time>2022-11-20T10:56:31Z</time>
      </trkpt>
      <trkpt lat="43.59971" lon="1.31177">
        <ele>187.8</ele>
        <time>2022-11-20T10:56:32Z</time>
      </trkpt>
      <trkpt lat="43.59958" lon="1.31254">
        <ele>187.6</ele>
        <time>2022-11-20T10:56:40Z</time>
      </trkpt>
      <trkpt lat="43.59957" lon="1.31264">
        <ele>187.6</ele>
        <time>2022-11-20T10:56:41Z</time>
      </trkpt>
      <trkpt lat="43.59949" lon="1.31342">
        <ele>187.6</ele>
        <time>2022-11-20T10:56:49Z</time>
      </trkpt>
      <trkpt lat="43.59947" lon="1.31382">
        <ele>187.8</ele>
        <time>2022-11-20T10:56:53Z</time>
      </trkpt>
      <trkpt lat="43.59946" lon="1.31391">
        <ele>187.6</ele>
        <time>2022-11-20T10:56:54Z</time>
      </trkpt>
      <trkpt lat="43.59944" lon="1.31431">
        <ele>187.8</ele>
        <time>2022-11-20T10:56:58Z</time>
      </trkpt>
      <trkpt lat="43.59942" lon="1.31441">
        <ele>188</ele>
        <time>2022-11-20T10:56:59Z</time>
      </trkpt>
      <trkpt lat="43.59938" lon="1.3146">
        <ele>188</ele>
        <time>2022-11-20T10:57:01Z</time>
      </trkpt>
      <trkpt lat="43.59925" lon="1.31528">
        <ele>188</ele>
        <time>2022-11-20T10:57:08Z</time>
      </trkpt>
      <trkpt lat="43.59923" lon="1.31538">
        <ele>188</ele>
        <time>2022-11-20T10:57:09Z</time>
      </trkpt>
      <trkpt lat="43.59915" lon="1.31555">
        <ele>187.8</ele>
        <time>2022-11-20T10:57:11Z</time>
      </trkpt>
      <trkpt lat="43.59911" lon="1.31563">
        <ele>187.8</ele>
        <time>2022-11-20T10:57:12Z</time>
      </trkpt>
      <trkpt lat="43.59905" lon="1.31582">
        <ele>187.8</ele>
        <time>2022-11-20T10:57:14Z</time>
      </trkpt>
      <trkpt lat="43.59904" lon="1.31591">
        <ele>187.8</ele>
        <time>2022-11-20T10:57:15Z</time>
      </trkpt>
      <trkpt lat="43.59903" lon="1.31612">
        <ele>187.8</ele>
        <time>2022-11-20T10:57:17Z</time>
      </trkpt>
      <trkpt lat="43.59899" lon="1.31631">
        <ele>187.8</ele>
        <time>2022-11-20T10:57:19Z</time>
      </trkpt>
      <trkpt lat="43.59874" lon="1.31692">
        <ele>187.6</ele>
        <time>2022-11-20T10:57:26Z</time>
      </trkpt>
      <trkpt lat="43.59866" lon="1.31709">
        <ele>187.6</ele>
        <time>2022-11-20T10:57:28Z</time>
      </trkpt>
      <trkpt lat="43.59854" lon="1.31745">
        <ele>187.8</ele>
        <time>2022-11-20T10:57:32Z</time>
      </trkpt>
      <trkpt lat="43.59835" lon="1.31813">
        <ele>187.8</ele>
        <time>2022-11-20T10:57:39Z</time>
      </trkpt>
      <trkpt lat="43.59819" lon="1.3189">
        <ele>188</ele>
        <time>2022-11-20T10:57:47Z</time>
      </trkpt>
      <trkpt lat="43.59808" lon="1.3196">
        <ele>187.8</ele>
        <time>2022-11-20T10:57:54Z</time>
      </trkpt>
      <trkpt lat="43.59795" lon="1.32039">
        <ele>187.6</ele>
        <time>2022-11-20T10:58:02Z</time>
      </trkpt>
      <trkpt lat="43.59793" lon="1.32049">
        <ele>187.6</ele>
        <time>2022-11-20T10:58:03Z</time>
      </trkpt>
      <trkpt lat="43.5978" lon="1.3213">
        <ele>187.6</ele>
        <time>2022-11-20T10:58:11Z</time>
      </trkpt>
      <trkpt lat="43.59778" lon="1.32139">
        <ele>187.4</ele>
        <time>2022-11-20T10:58:12Z</time>
      </trkpt>
      <trkpt lat="43.59774" lon="1.32154">
        <ele>187.4</ele>
        <time>2022-11-20T10:58:14Z</time>
      </trkpt>
      <trkpt lat="43.59771" lon="1.32166">
        <ele>187.4</ele>
        <time>2022-11-20T10:58:16Z</time>
      </trkpt>
      <trkpt lat="43.59772" lon="1.32179">
        <ele>187.4</ele>
        <time>2022-11-20T10:58:18Z</time>
      </trkpt>
      <trkpt lat="43.59771" lon="1.32193">
        <ele>187.4</ele>
        <time>2022-11-20T10:58:20Z</time>
      </trkpt>
      <trkpt lat="43.59766" lon="1.32246">
        <ele>187.4</ele>
        <time>2022-11-20T10:58:27Z</time>
      </trkpt>
      <trkpt lat="43.59765" lon="1.32254">
        <ele>187.4</ele>
        <time>2022-11-20T10:58:28Z</time>
      </trkpt>
      <trkpt lat="43.59759" lon="1.32279">
        <ele>187.6</ele>
        <time>2022-11-20T10:58:31Z</time>
      </trkpt>
      <trkpt lat="43.59758" lon="1.32315">
        <ele>187.6</ele>
        <time>2022-11-20T10:58:35Z</time>
      </trkpt>
      <trkpt lat="43.59753" lon="1.32363">
        <ele>187.6</ele>
        <time>2022-11-20T10:58:40Z</time>
      </trkpt>
      <trkpt lat="43.59739" lon="1.32429">
        <ele>187.4</ele>
        <time>2022-11-20T10:58:47Z</time>
      </trkpt>
      <trkpt lat="43.59724" lon="1.32489">
        <ele>186.6</ele>
        <time>2022-11-20T10:58:53Z</time>
      </trkpt>
      <trkpt lat="43.59717" lon="1.32546">
        <ele>186.2</ele>
        <time>2022-11-20T10:58:58Z</time>
      </trkpt>
      <trkpt lat="43.59715" lon="1.32557">
        <ele>186</ele>
        <time>2022-11-20T10:58:59Z</time>
      </trkpt>
      <trkpt lat="43.59707" lon="1.32634">
        <ele>185.2</ele>
        <time>2022-11-20T10:59:06Z</time>
      </trkpt>
      <trkpt lat="43.59706" lon="1.32644">
        <ele>185.2</ele>
        <time>2022-11-20T10:59:07Z</time>
      </trkpt>
      <trkpt lat="43.59706" lon="1.32706">
        <ele>185.4</ele>
        <time>2022-11-20T10:59:13Z</time>
      </trkpt>
      <trkpt lat="43.59706" lon="1.32769">
        <ele>186.2</ele>
        <time>2022-11-20T10:59:20Z</time>
      </trkpt>
      <trkpt lat="43.59704" lon="1.32784">
        <ele>186.4</ele>
        <time>2022-11-20T10:59:23Z</time>
      </trkpt>
      <trkpt lat="43.5971" lon="1.32801">
        <ele>186.4</ele>
        <time>2022-11-20T10:59:27Z</time>
      </trkpt>
      <trkpt lat="43.59733" lon="1.32824">
        <ele>186.8</ele>
        <time>2022-11-20T10:59:32Z</time>
      </trkpt>
      <trkpt lat="43.5977" lon="1.32858">
        <ele>186.8</ele>
        <time>2022-11-20T10:59:38Z</time>
      </trkpt>
      <trkpt lat="43.59808" lon="1.32891">
        <ele>186</ele>
        <time>2022-11-20T10:59:44Z</time>
      </trkpt>
      <trkpt lat="43.59816" lon="1.32897">
        <ele>185.2</ele>
        <time>2022-11-20T10:59:47Z</time>
      </trkpt>
      <trkpt lat="43.59818" lon="1.32899">
        <ele>184.8</ele>
        <time>2022-11-20T10:59:48Z</time>
      </trkpt>
      <trkpt lat="43.59826" lon="1.32906">
        <ele>184</ele>
        <time>2022-11-20T10:59:53Z</time>
      </trkpt>
      <trkpt lat="43.59833" lon="1.32912">
        <ele>183.8</ele>
        <time>2022-11-20T10:59:55Z</time>
      </trkpt>
      <trkpt lat="43.59837" lon="1.32914">
        <ele>183.8</ele>
        <time>2022-11-20T10:59:56Z</time>
      </trkpt>
      <trkpt lat="43.59841" lon="1.32918">
        <ele>183.6</ele>
        <time>2022-11-20T10:59:57Z</time>
      </trkpt>
      <trkpt lat="43.59846" lon="1.32922">
        <ele>183.6</ele>
        <time>2022-11-20T10:59:58Z</time>
      </trkpt>
      <trkpt lat="43.59855" lon="1.32931">
        <ele>183.4</ele>
        <time>2022-11-20T11:00:00Z</time>
      </trkpt>
      <trkpt lat="43.5986" lon="1.32934">
        <ele>183.4</ele>
        <time>2022-11-20T11:00:01Z</time>
      </trkpt>
      <trkpt lat="43.5988" lon="1.32951">
        <ele>183.2</ele>
        <time>2022-11-20T11:00:05Z</time>
      </trkpt>
      <trkpt lat="43.59888" lon="1.32962">
        <ele>183.2</ele>
        <time>2022-11-20T11:00:07Z</time>
      </trkpt>
      <trkpt lat="43.59892" lon="1.32968">
        <ele>183.4</ele>
        <time>2022-11-20T11:00:08Z</time>
      </trkpt>
      <trkpt lat="43.59907" lon="1.32982">
        <ele>183.8</ele>
        <time>2022-11-20T11:00:11Z</time>
      </trkpt>
      <trkpt lat="43.59913" lon="1.32986">
        <ele>183.8</ele>
        <time>2022-11-20T11:00:12Z</time>
      </trkpt>
      <trkpt lat="43.59937" lon="1.33008">
        <ele>184.8</ele>
        <time>2022-11-20T11:00:17Z</time>
      </trkpt>
      <trkpt lat="43.59942" lon="1.33013">
        <ele>185</ele>
        <time>2022-11-20T11:00:18Z</time>
      </trkpt>
      <trkpt lat="43.59951" lon="1.33024">
        <ele>186</ele>
        <time>2022-11-20T11:00:20Z</time>
      </trkpt>
      <trkpt lat="43.59956" lon="1.3303">
        <ele>186.2</ele>
        <time>2022-11-20T11:00:21Z</time>
      </trkpt>
      <trkpt lat="43.59967" lon="1.3304">
        <ele>186.4</ele>
        <time>2022-11-20T11:00:23Z</time>
      </trkpt>
      <trkpt lat="43.60012" lon="1.33082">
        <ele>187.2</ele>
        <time>2022-11-20T11:00:31Z</time>
      </trkpt>
      <trkpt lat="43.6006" lon="1.33127">
        <ele>187.6</ele>
        <time>2022-11-20T11:00:39Z</time>
      </trkpt>
      <trkpt lat="43.60066" lon="1.33134">
        <ele>187.6</ele>
        <time>2022-11-20T11:00:40Z</time>
      </trkpt>
      <trkpt lat="43.60108" lon="1.33182">
        <ele>187.8</ele>
        <time>2022-11-20T11:00:47Z</time>
      </trkpt>
      <trkpt lat="43.60139" lon="1.3323">
        <ele>187.4</ele>
        <time>2022-11-20T11:00:53Z</time>
      </trkpt>
      <trkpt lat="43.60178" lon="1.33296">
        <ele>187</ele>
        <time>2022-11-20T11:01:01Z</time>
      </trkpt>
      <trkpt lat="43.60192" lon="1.33323">
        <ele>187</ele>
        <time>2022-11-20T11:01:04Z</time>
      </trkpt>
      <trkpt lat="43.60222" lon="1.33389">
        <ele>187.2</ele>
        <time>2022-11-20T11:01:11Z</time>
      </trkpt>
      <trkpt lat="43.60227" lon="1.33398">
        <ele>187.2</ele>
        <time>2022-11-20T11:01:12Z</time>
      </trkpt>
      <trkpt lat="43.60245" lon="1.33422">
        <ele>187.2</ele>
        <time>2022-11-20T11:01:15Z</time>
      </trkpt>
      <trkpt lat="43.60255" lon="1.33439">
        <ele>187</ele>
        <time>2022-11-20T11:01:17Z</time>
      </trkpt>
      <trkpt lat="43.60263" lon="1.33459">
        <ele>187</ele>
        <time>2022-11-20T11:01:19Z</time>
      </trkpt>
      <trkpt lat="43.60275" lon="1.33472">
        <ele>186.8</ele>
        <time>2022-11-20T11:01:21Z</time>
      </trkpt>
      <trkpt lat="43.6029" lon="1.3348">
        <ele>186.8</ele>
        <time>2022-11-20T11:01:23Z</time>
      </trkpt>
      <trkpt lat="43.60295" lon="1.33487">
        <ele>186.8</ele>
        <time>2022-11-20T11:01:24Z</time>
      </trkpt>
      <trkpt lat="43.60315" lon="1.33513">
        <ele>186.6</ele>
        <time>2022-11-20T11:01:27Z</time>
      </trkpt>
      <trkpt lat="43.60322" lon="1.33521">
        <ele>186.4</ele>
        <time>2022-11-20T11:01:28Z</time>
      </trkpt>
      <trkpt lat="43.60348" lon="1.33543">
        <ele>185.8</ele>
        <time>2022-11-20T11:01:31Z</time>
      </trkpt>
      <trkpt lat="43.60363" lon="1.33555">
        <ele>185.2</ele>
        <time>2022-11-20T11:01:33Z</time>
      </trkpt>
      <trkpt lat="43.60376" lon="1.33566">
        <ele>184.2</ele>
        <time>2022-11-20T11:01:35Z</time>
      </trkpt>
      <trkpt lat="43.60387" lon="1.33575">
        <ele>183.8</ele>
        <time>2022-11-20T11:01:37Z</time>
      </trkpt>
      <trkpt lat="43.60391" lon="1.3358">
        <ele>183.8</ele>
        <time>2022-11-20T11:01:38Z</time>
      </trkpt>
      <trkpt lat="43.60396" lon="1.33593">
        <ele>183.8</ele>
        <time>2022-11-20T11:01:40Z</time>
      </trkpt>
      <trkpt lat="43.60388" lon="1.33605">
        <ele>184</ele>
        <time>2022-11-20T11:01:42Z</time>
      </trkpt>
      <trkpt lat="43.60384" lon="1.3361">
        <ele>184.4</ele>
        <time>2022-11-20T11:01:43Z</time>
      </trkpt>
      <trkpt lat="43.60379" lon="1.33615">
        <ele>184.6</ele>
        <time>2022-11-20T11:01:44Z</time>
      </trkpt>
      <trkpt lat="43.60357" lon="1.33646">
        <ele>185.4</ele>
        <time>2022-11-20T11:01:49Z</time>
      </trkpt>
      <trkpt lat="43.60352" lon="1.33652">
        <ele>185.4</ele>
        <time>2022-11-20T11:01:50Z</time>
      </trkpt>
      <trkpt lat="43.60342" lon="1.33664">
        <ele>185.4</ele>
        <time>2022-11-20T11:01:52Z</time>
      </trkpt>
      <trkpt lat="43.60328" lon="1.33685">
        <ele>185.8</ele>
        <time>2022-11-20T11:01:55Z</time>
      </trkpt>
      <trkpt lat="43.60316" lon="1.33721">
        <ele>185.4</ele>
        <time>2022-11-20T11:01:59Z</time>
      </trkpt>
      <trkpt lat="43.60314" lon="1.33731">
        <ele>185.4</ele>
        <time>2022-11-20T11:02:00Z</time>
      </trkpt>
      <trkpt lat="43.60297" lon="1.33812">
        <ele>185.2</ele>
        <time>2022-11-20T11:02:08Z</time>
      </trkpt>
      <trkpt lat="43.60284" lon="1.3388">
        <ele>184.6</ele>
        <time>2022-11-20T11:02:14Z</time>
      </trkpt>
      <trkpt lat="43.60278" lon="1.33916">
        <ele>184.4</ele>
        <time>2022-11-20T11:02:17Z</time>
      </trkpt>
      <trkpt lat="43.60267" lon="1.33975">
        <ele>183.2</ele>
        <time>2022-11-20T11:02:22Z</time>
      </trkpt>
      <trkpt lat="43.60253" lon="1.34048">
        <ele>182</ele>
        <time>2022-11-20T11:02:28Z</time>
      </trkpt>
      <trkpt lat="43.60247" lon="1.34085">
        <ele>181.2</ele>
        <time>2022-11-20T11:02:31Z</time>
      </trkpt>
      <trkpt lat="43.60245" lon="1.34097">
        <ele>180.8</ele>
        <time>2022-11-20T11:02:32Z</time>
      </trkpt>
      <trkpt lat="43.60233" lon="1.34158">
        <ele>179.4</ele>
        <time>2022-11-20T11:02:37Z</time>
      </trkpt>
      <trkpt lat="43.60231" lon="1.3417">
        <ele>179.4</ele>
        <time>2022-11-20T11:02:38Z</time>
      </trkpt>
      <trkpt lat="43.60222" lon="1.34229">
        <ele>178.6</ele>
        <time>2022-11-20T11:02:43Z</time>
      </trkpt>
      <trkpt lat="43.60221" lon="1.343">
        <ele>178</ele>
        <time>2022-11-20T11:02:49Z</time>
      </trkpt>
      <trkpt lat="43.60223" lon="1.34323">
        <ele>177.6</ele>
        <time>2022-11-20T11:02:51Z</time>
      </trkpt>
      <trkpt lat="43.60226" lon="1.34346">
        <ele>177.4</ele>
        <time>2022-11-20T11:02:53Z</time>
      </trkpt>
      <trkpt lat="43.60228" lon="1.34358">
        <ele>177.4</ele>
        <time>2022-11-20T11:02:54Z</time>
      </trkpt>
      <trkpt lat="43.60242" lon="1.34439">
        <ele>176.6</ele>
        <time>2022-11-20T11:03:01Z</time>
      </trkpt>
      <trkpt lat="43.60245" lon="1.34462">
        <ele>176.6</ele>
        <time>2022-11-20T11:03:03Z</time>
      </trkpt>
      <trkpt lat="43.60249" lon="1.3449">
        <ele>175.8</ele>
        <time>2022-11-20T11:03:06Z</time>
      </trkpt>
      <trkpt lat="43.6025" lon="1.34496">
        <ele>175.6</ele>
        <time>2022-11-20T11:03:07Z</time>
      </trkpt>
      <trkpt lat="43.60251" lon="1.34501">
        <ele>175.2</ele>
        <time>2022-11-20T11:03:08Z</time>
      </trkpt>
      <trkpt lat="43.60252" lon="1.34508">
        <ele>175</ele>
        <time>2022-11-20T11:03:09Z</time>
      </trkpt>
      <trkpt lat="43.60252" lon="1.34538">
        <ele>174.4</ele>
        <time>2022-11-20T11:03:13Z</time>
      </trkpt>
      <trkpt lat="43.60252" lon="1.34547">
        <ele>174</ele>
        <time>2022-11-20T11:03:14Z</time>
      </trkpt>
      <trkpt lat="43.60256" lon="1.34576">
        <ele>173</ele>
        <time>2022-11-20T11:03:17Z</time>
      </trkpt>
      <trkpt lat="43.60258" lon="1.34586">
        <ele>173</ele>
        <time>2022-11-20T11:03:18Z</time>
      </trkpt>
      <trkpt lat="43.60263" lon="1.34655">
        <ele>172.2</ele>
        <time>2022-11-20T11:03:24Z</time>
      </trkpt>
      <trkpt lat="43.60264" lon="1.34681">
        <ele>171.8</ele>
        <time>2022-11-20T11:03:26Z</time>
      </trkpt>
      <trkpt lat="43.60267" lon="1.34734">
        <ele>171</ele>
        <time>2022-11-20T11:03:30Z</time>
      </trkpt>
      <trkpt lat="43.60269" lon="1.34775">
        <ele>169.6</ele>
        <time>2022-11-20T11:03:33Z</time>
      </trkpt>
      <trkpt lat="43.6027" lon="1.34815">
        <ele>168.4</ele>
        <time>2022-11-20T11:03:36Z</time>
      </trkpt>
      <trkpt lat="43.6027" lon="1.34828">
        <ele>168.2</ele>
        <time>2022-11-20T11:03:37Z</time>
      </trkpt>
      <trkpt lat="43.6027" lon="1.34854">
        <ele>167.2</ele>
        <time>2022-11-20T11:03:39Z</time>
      </trkpt>
      <trkpt lat="43.6027" lon="1.34893">
        <ele>165.8</ele>
        <time>2022-11-20T11:03:42Z</time>
      </trkpt>
      <trkpt lat="43.60269" lon="1.3492">
        <ele>164.6</ele>
        <time>2022-11-20T11:03:44Z</time>
      </trkpt>
      <trkpt lat="43.60269" lon="1.34934">
        <ele>164.4</ele>
        <time>2022-11-20T11:03:45Z</time>
      </trkpt>
      <trkpt lat="43.60268" lon="1.34974">
        <ele>163.4</ele>
        <time>2022-11-20T11:03:48Z</time>
      </trkpt>
      <trkpt lat="43.60269" lon="1.35013">
        <ele>162.4</ele>
        <time>2022-11-20T11:03:51Z</time>
      </trkpt>
      <trkpt lat="43.60271" lon="1.35026">
        <ele>162</ele>
        <time>2022-11-20T11:03:52Z</time>
      </trkpt>
      <trkpt lat="43.60275" lon="1.35048">
        <ele>161.8</ele>
        <time>2022-11-20T11:03:54Z</time>
      </trkpt>
      <trkpt lat="43.60275" lon="1.35057">
        <ele>161.2</ele>
        <time>2022-11-20T11:03:55Z</time>
      </trkpt>
      <trkpt lat="43.60272" lon="1.35066">
        <ele>160.8</ele>
        <time>2022-11-20T11:03:56Z</time>
      </trkpt>
      <trkpt lat="43.60267" lon="1.35072">
        <ele>160.6</ele>
        <time>2022-11-20T11:03:57Z</time>
      </trkpt>
      <trkpt lat="43.60261" lon="1.35077">
        <ele>160.2</ele>
        <time>2022-11-20T11:03:58Z</time>
      </trkpt>
      <trkpt lat="43.60247" lon="1.35083">
        <ele>160</ele>
        <time>2022-11-20T11:04:00Z</time>
      </trkpt>
      <trkpt lat="43.6024" lon="1.35084">
        <ele>159.8</ele>
        <time>2022-11-20T11:04:01Z</time>
      </trkpt>
      <trkpt lat="43.60208" lon="1.35101">
        <ele>159.2</ele>
        <time>2022-11-20T11:04:06Z</time>
      </trkpt>
      <trkpt lat="43.60183" lon="1.35116">
        <ele>158.6</ele>
        <time>2022-11-20T11:04:10Z</time>
      </trkpt>
      <trkpt lat="43.60164" lon="1.35128">
        <ele>158.8</ele>
        <time>2022-11-20T11:04:13Z</time>
      </trkpt>
      <trkpt lat="43.60157" lon="1.35132">
        <ele>158.8</ele>
        <time>2022-11-20T11:04:14Z</time>
      </trkpt>
      <trkpt lat="43.60136" lon="1.35139">
        <ele>159.2</ele>
        <time>2022-11-20T11:04:17Z</time>
      </trkpt>
      <trkpt lat="43.60124" lon="1.3515">
        <ele>159.2</ele>
        <time>2022-11-20T11:04:19Z</time>
      </trkpt>
      <trkpt lat="43.60118" lon="1.35156">
        <ele>159.2</ele>
        <time>2022-11-20T11:04:20Z</time>
      </trkpt>
      <trkpt lat="43.6008" lon="1.3519">
        <ele>159.2</ele>
        <time>2022-11-20T11:04:26Z</time>
      </trkpt>
      <trkpt lat="43.60055" lon="1.35215">
        <ele>159.4</ele>
        <time>2022-11-20T11:04:30Z</time>
      </trkpt>
      <trkpt lat="43.60048" lon="1.35219">
        <ele>159.4</ele>
        <time>2022-11-20T11:04:31Z</time>
      </trkpt>
      <trkpt lat="43.60041" lon="1.35221">
        <ele>159.4</ele>
        <time>2022-11-20T11:04:32Z</time>
      </trkpt>
      <trkpt lat="43.60026" lon="1.35218">
        <ele>159.2</ele>
        <time>2022-11-20T11:04:34Z</time>
      </trkpt>
      <trkpt lat="43.59968" lon="1.35191">
        <ele>159.4</ele>
        <time>2022-11-20T11:04:42Z</time>
      </trkpt>
      <trkpt lat="43.59961" lon="1.35188">
        <ele>159.4</ele>
        <time>2022-11-20T11:04:43Z</time>
      </trkpt>
      <trkpt lat="43.59947" lon="1.3518">
        <ele>159.4</ele>
        <time>2022-11-20T11:04:45Z</time>
      </trkpt>
      <trkpt lat="43.59934" lon="1.35167">
        <ele>159.4</ele>
        <time>2022-11-20T11:04:47Z</time>
      </trkpt>
      <trkpt lat="43.59895" lon="1.35112">
        <ele>159.4</ele>
        <time>2022-11-20T11:04:54Z</time>
      </trkpt>
      <trkpt lat="43.59856" lon="1.3505">
        <ele>159.8</ele>
        <time>2022-11-20T11:05:02Z</time>
      </trkpt>
      <trkpt lat="43.5984" lon="1.35024">
        <ele>160</ele>
        <time>2022-11-20T11:05:06Z</time>
      </trkpt>
      <trkpt lat="43.59837" lon="1.35018">
        <ele>160</ele>
        <time>2022-11-20T11:05:07Z</time>
      </trkpt>
      <trkpt lat="43.59835" lon="1.35013">
        <ele>160</ele>
        <time>2022-11-20T11:05:08Z</time>
      </trkpt>
      <trkpt lat="43.59833" lon="1.35008">
        <ele>160</ele>
        <time>2022-11-20T11:05:09Z</time>
      </trkpt>
      <trkpt lat="43.59828" lon="1.34997">
        <ele>160</ele>
        <time>2022-11-20T11:05:11Z</time>
      </trkpt>
      <trkpt lat="43.59825" lon="1.34992">
        <ele>160</ele>
        <time>2022-11-20T11:05:12Z</time>
      </trkpt>
      <trkpt lat="43.5982" lon="1.34987">
        <ele>160</ele>
        <time>2022-11-20T11:05:13Z</time>
      </trkpt>
      <trkpt lat="43.59809" lon="1.34967">
        <ele>160.2</ele>
        <time>2022-11-20T11:05:16Z</time>
      </trkpt>
      <trkpt lat="43.5978" lon="1.34907">
        <ele>160.4</ele>
        <time>2022-11-20T11:05:24Z</time>
      </trkpt>
      <trkpt lat="43.59766" lon="1.34877">
        <ele>160.4</ele>
        <time>2022-11-20T11:05:28Z</time>
      </trkpt>
      <trkpt lat="43.59758" lon="1.34869">
        <ele>160.4</ele>
        <time>2022-11-20T11:05:30Z</time>
      </trkpt>
      <trkpt lat="43.59749" lon="1.34869">
        <ele>160.4</ele>
        <time>2022-11-20T11:05:33Z</time>
      </trkpt>
      <trkpt lat="43.59742" lon="1.34881">
        <ele>160.4</ele>
        <time>2022-11-20T11:05:36Z</time>
      </trkpt>
      <trkpt lat="43.5974" lon="1.34887">
        <ele>160.4</ele>
        <time>2022-11-20T11:05:37Z</time>
      </trkpt>
      <trkpt lat="43.59729" lon="1.3492">
        <ele>160</ele>
        <time>2022-11-20T11:05:42Z</time>
      </trkpt>
      <trkpt lat="43.59716" lon="1.34962">
        <ele>159.8</ele>
        <time>2022-11-20T11:05:48Z</time>
      </trkpt>
      <trkpt lat="43.59713" lon="1.34965">
        <ele>159.8</ele>
        <time>2022-11-20T11:05:49Z</time>
      </trkpt>
      <trkpt lat="43.59709" lon="1.34965">
        <ele>159.8</ele>
        <time>2022-11-20T11:05:50Z</time>
      </trkpt>
      <trkpt lat="43.59697" lon="1.34962">
        <ele>160</ele>
        <time>2022-11-20T11:05:53Z</time>
      </trkpt>
      <trkpt lat="43.59687" lon="1.34957">
        <ele>160</ele>
        <time>2022-11-20T11:05:55Z</time>
      </trkpt>
      <trkpt lat="43.59677" lon="1.34948">
        <ele>160</ele>
        <time>2022-11-20T11:05:57Z</time>
      </trkpt>
      <trkpt lat="43.59641" lon="1.34909">
        <ele>160</ele>
        <time>2022-11-20T11:06:04Z</time>
      </trkpt>
      <trkpt lat="43.59597" lon="1.34868">
        <ele>160.2</ele>
        <time>2022-11-20T11:06:12Z</time>
      </trkpt>
      <trkpt lat="43.59557" lon="1.34833">
        <ele>160.4</ele>
        <time>2022-11-20T11:06:19Z</time>
      </trkpt>
      <trkpt lat="43.59505" lon="1.34796">
        <ele>160.8</ele>
        <time>2022-11-20T11:06:28Z</time>
      </trkpt>
      <trkpt lat="43.59473" lon="1.34778">
        <ele>161</ele>
        <time>2022-11-20T11:06:33Z</time>
      </trkpt>
      <trkpt lat="43.5944" lon="1.3476">
        <ele>161</ele>
        <time>2022-11-20T11:06:38Z</time>
      </trkpt>
      <trkpt lat="43.59386" lon="1.34733">
        <ele>161</ele>
        <time>2022-11-20T11:06:46Z</time>
      </trkpt>
      <trkpt lat="43.59369" lon="1.34715">
        <ele>161</ele>
        <time>2022-11-20T11:06:49Z</time>
      </trkpt>
      <trkpt lat="43.59363" lon="1.3471">
        <ele>161.2</ele>
        <time>2022-11-20T11:06:50Z</time>
      </trkpt>
      <trkpt lat="43.59357" lon="1.34706">
        <ele>161.2</ele>
        <time>2022-11-20T11:06:51Z</time>
      </trkpt>
      <trkpt lat="43.59343" lon="1.34703">
        <ele>161.2</ele>
        <time>2022-11-20T11:06:53Z</time>
      </trkpt>
      <trkpt lat="43.59312" lon="1.34707">
        <ele>161.2</ele>
        <time>2022-11-20T11:06:58Z</time>
      </trkpt>
      <trkpt lat="43.59266" lon="1.34715">
        <ele>161.2</ele>
        <time>2022-11-20T11:07:05Z</time>
      </trkpt>
      <trkpt lat="43.59258" lon="1.34715">
        <ele>161.2</ele>
        <time>2022-11-20T11:07:06Z</time>
      </trkpt>
      <trkpt lat="43.59201" lon="1.34709">
        <ele>160.6</ele>
        <time>2022-11-20T11:07:14Z</time>
      </trkpt>
      <trkpt lat="43.59193" lon="1.34709">
        <ele>160.6</ele>
        <time>2022-11-20T11:07:15Z</time>
      </trkpt>
      <trkpt lat="43.59154" lon="1.34708">
        <ele>160.4</ele>
        <time>2022-11-20T11:07:21Z</time>
      </trkpt>
      <trkpt lat="43.59148" lon="1.34709">
        <ele>160.4</ele>
        <time>2022-11-20T11:07:22Z</time>
      </trkpt>
      <trkpt lat="43.59136" lon="1.3471">
        <ele>160.4</ele>
        <time>2022-11-20T11:07:24Z</time>
      </trkpt>
      <trkpt lat="43.59123" lon="1.34708">
        <ele>160.4</ele>
        <time>2022-11-20T11:07:26Z</time>
      </trkpt>
      <trkpt lat="43.59078" lon="1.34703">
        <ele>161</ele>
        <time>2022-11-20T11:07:33Z</time>
      </trkpt>
      <trkpt lat="43.59036" lon="1.34699">
        <ele>161.2</ele>
        <time>2022-11-20T11:07:40Z</time>
      </trkpt>
      <trkpt lat="43.59026" lon="1.34698">
        <ele>161.2</ele>
        <time>2022-11-20T11:07:42Z</time>
      </trkpt>
      <trkpt lat="43.59018" lon="1.34692">
        <ele>161.4</ele>
        <time>2022-11-20T11:07:44Z</time>
      </trkpt>
      <trkpt lat="43.59016" lon="1.3468">
        <ele>161.2</ele>
        <time>2022-11-20T11:07:46Z</time>
      </trkpt>
      <trkpt lat="43.59017" lon="1.34672">
        <ele>161.2</ele>
        <time>2022-11-20T11:07:47Z</time>
      </trkpt>
      <trkpt lat="43.59018" lon="1.34664">
        <ele>161.2</ele>
        <time>2022-11-20T11:07:48Z</time>
      </trkpt>
      <trkpt lat="43.59019" lon="1.34629">
        <ele>161</ele>
        <time>2022-11-20T11:07:52Z</time>
      </trkpt>
      <trkpt lat="43.59019" lon="1.3462">
        <ele>161</ele>
        <time>2022-11-20T11:07:53Z</time>
      </trkpt>
      <trkpt lat="43.59013" lon="1.34604">
        <ele>160.6</ele>
        <time>2022-11-20T11:07:55Z</time>
      </trkpt>
      <trkpt lat="43.58978" lon="1.34553">
        <ele>160.8</ele>
        <time>2022-11-20T11:08:02Z</time>
      </trkpt>
      <trkpt lat="43.58951" lon="1.34515">
        <ele>160.4</ele>
        <time>2022-11-20T11:08:07Z</time>
      </trkpt>
      <trkpt lat="43.58913" lon="1.3446">
        <ele>160.6</ele>
        <time>2022-11-20T11:08:15Z</time>
      </trkpt>
      <trkpt lat="43.58878" lon="1.3441">
        <ele>160.8</ele>
        <time>2022-11-20T11:08:23Z</time>
      </trkpt>
      <trkpt lat="43.58876" lon="1.34403">
        <ele>160.8</ele>
        <time>2022-11-20T11:08:24Z</time>
      </trkpt>
      <trkpt lat="43.58876" lon="1.34396">
        <ele>160.8</ele>
        <time>2022-11-20T11:08:25Z</time>
      </trkpt>
      <trkpt lat="43.58881" lon="1.34385">
        <ele>160.8</ele>
        <time>2022-11-20T11:08:27Z</time>
      </trkpt>
      <trkpt lat="43.58889" lon="1.34374">
        <ele>161</ele>
        <time>2022-11-20T11:08:29Z</time>
      </trkpt>
      <trkpt lat="43.58903" lon="1.34357">
        <ele>161.2</ele>
        <time>2022-11-20T11:08:32Z</time>
      </trkpt>
      <trkpt lat="43.58912" lon="1.34344">
        <ele>161.2</ele>
        <time>2022-11-20T11:08:34Z</time>
      </trkpt>
      <trkpt lat="43.58924" lon="1.34323">
        <ele>161.4</ele>
        <time>2022-11-20T11:08:37Z</time>
      </trkpt>
      <trkpt lat="43.58928" lon="1.34315">
        <ele>161.4</ele>
        <time>2022-11-20T11:08:38Z</time>
      </trkpt>
      <trkpt lat="43.58946" lon="1.34274">
        <ele>161.4</ele>
        <time>2022-11-20T11:08:43Z</time>
      </trkpt>
      <trkpt lat="43.58977" lon="1.34207">
        <ele>161.2</ele>
        <time>2022-11-20T11:08:51Z</time>
      </trkpt>
      <trkpt lat="43.59014" lon="1.34148">
        <ele>161.8</ele>
        <time>2022-11-20T11:08:59Z</time>
      </trkpt>
      <trkpt lat="43.59028" lon="1.34125">
        <ele>162.2</ele>
        <time>2022-11-20T11:09:02Z</time>
      </trkpt>
      <trkpt lat="43.59044" lon="1.34095">
        <ele>162.4</ele>
        <time>2022-11-20T11:09:06Z</time>
      </trkpt>
      <trkpt lat="43.59046" lon="1.34088">
        <ele>162.4</ele>
        <time>2022-11-20T11:09:07Z</time>
      </trkpt>
      <trkpt lat="43.59046" lon="1.34082">
        <ele>162.4</ele>
        <time>2022-11-20T11:09:08Z</time>
      </trkpt>
      <trkpt lat="43.59044" lon="1.34077">
        <ele>162.4</ele>
        <time>2022-11-20T11:09:09Z</time>
      </trkpt>
      <trkpt lat="43.59039" lon="1.34075">
        <ele>162.4</ele>
        <time>2022-11-20T11:09:10Z</time>
      </trkpt>
      <trkpt lat="43.59035" lon="1.34077">
        <ele>162.4</ele>
        <time>2022-11-20T11:09:11Z</time>
      </trkpt>
      <trkpt lat="43.5903" lon="1.34079">
        <ele>162.6</ele>
        <time>2022-11-20T11:09:13Z</time>
      </trkpt>
      <trkpt lat="43.59027" lon="1.34077">
        <ele>162.6</ele>
        <time>2022-11-20T11:09:14Z</time>
      </trkpt>
      <trkpt lat="43.59014" lon="1.34061">
        <ele>162.8</ele>
        <time>2022-11-20T11:09:18Z</time>
      </trkpt>
      <trkpt lat="43.58994" lon="1.3404">
        <ele>162.8</ele>
        <time>2022-11-20T11:09:23Z</time>
      </trkpt>
      <trkpt lat="43.5899" lon="1.34034">
        <ele>162.8</ele>
        <time>2022-11-20T11:09:24Z</time>
      </trkpt>
      <trkpt lat="43.58967" lon="1.34008">
        <ele>162.6</ele>
        <time>2022-11-20T11:09:29Z</time>
      </trkpt>
      <trkpt lat="43.58956" lon="1.33995">
        <ele>163</ele>
        <time>2022-11-20T11:09:33Z</time>
      </trkpt>
      <trkpt lat="43.58943" lon="1.33978">
        <ele>163</ele>
        <time>2022-11-20T11:09:37Z</time>
      </trkpt>
      <trkpt lat="43.58939" lon="1.33974">
        <ele>163</ele>
        <time>2022-11-20T11:09:38Z</time>
      </trkpt>
      <trkpt lat="43.58925" lon="1.33961">
        <ele>163</ele>
        <time>2022-11-20T11:09:41Z</time>
      </trkpt>
      <trkpt lat="43.58895" lon="1.33928">
        <ele>163</ele>
        <time>2022-11-20T11:09:47Z</time>
      </trkpt>
      <trkpt lat="43.58884" lon="1.33925">
        <ele>163.2</ele>
        <time>2022-11-20T11:09:49Z</time>
      </trkpt>
      <trkpt lat="43.58878" lon="1.33926">
        <ele>163.2</ele>
        <time>2022-11-20T11:09:50Z</time>
      </trkpt>
      <trkpt lat="43.58874" lon="1.33925">
        <ele>163.2</ele>
        <time>2022-11-20T11:09:51Z</time>
      </trkpt>
      <trkpt lat="43.58868" lon="1.33917">
        <ele>163</ele>
        <time>2022-11-20T11:09:53Z</time>
      </trkpt>
      <trkpt lat="43.58866" lon="1.33899">
        <ele>163</ele>
        <time>2022-11-20T11:09:56Z</time>
      </trkpt>
      <trkpt lat="43.58863" lon="1.33893">
        <ele>163</ele>
        <time>2022-11-20T11:09:57Z</time>
      </trkpt>
      <trkpt lat="43.58841" lon="1.33866">
        <ele>162.8</ele>
        <time>2022-11-20T11:10:02Z</time>
      </trkpt>
      <trkpt lat="43.58817" lon="1.3384">
        <ele>162.8</ele>
        <time>2022-11-20T11:10:07Z</time>
      </trkpt>
      <trkpt lat="43.58812" lon="1.33837">
        <ele>162.8</ele>
        <time>2022-11-20T11:10:08Z</time>
      </trkpt>
      <trkpt lat="43.58807" lon="1.33837">
        <ele>162.8</ele>
        <time>2022-11-20T11:10:09Z</time>
      </trkpt>
      <trkpt lat="43.58797" lon="1.33839">
        <ele>162.8</ele>
        <time>2022-11-20T11:10:11Z</time>
      </trkpt>
      <trkpt lat="43.5879" lon="1.33833">
        <ele>163</ele>
        <time>2022-11-20T11:10:13Z</time>
      </trkpt>
      <trkpt lat="43.58787" lon="1.33829">
        <ele>163</ele>
        <time>2022-11-20T11:10:14Z</time>
      </trkpt>
      <trkpt lat="43.58785" lon="1.33824">
        <ele>163</ele>
        <time>2022-11-20T11:10:15Z</time>
      </trkpt>
      <trkpt lat="43.58785" lon="1.33812">
        <ele>163</ele>
        <time>2022-11-20T11:10:17Z</time>
      </trkpt>
      <trkpt lat="43.58782" lon="1.33798">
        <ele>163.2</ele>
        <time>2022-11-20T11:10:19Z</time>
      </trkpt>
      <trkpt lat="43.58778" lon="1.33792">
        <ele>163.2</ele>
        <time>2022-11-20T11:10:20Z</time>
      </trkpt>
      <trkpt lat="43.58754" lon="1.33754">
        <ele>163.2</ele>
        <time>2022-11-20T11:10:26Z</time>
      </trkpt>
      <trkpt lat="43.5873" lon="1.33708">
        <ele>163.2</ele>
        <time>2022-11-20T11:10:32Z</time>
      </trkpt>
      <trkpt lat="43.58725" lon="1.33701">
        <ele>163.2</ele>
        <time>2022-11-20T11:10:33Z</time>
      </trkpt>
      <trkpt lat="43.58682" lon="1.33647">
        <ele>163</ele>
        <time>2022-11-20T11:10:41Z</time>
      </trkpt>
      <trkpt lat="43.58677" lon="1.33641">
        <ele>163</ele>
        <time>2022-11-20T11:10:42Z</time>
      </trkpt>
      <trkpt lat="43.58645" lon="1.336">
        <ele>163</ele>
        <time>2022-11-20T11:10:48Z</time>
      </trkpt>
      <trkpt lat="43.58625" lon="1.3357">
        <ele>163.2</ele>
        <time>2022-11-20T11:10:52Z</time>
      </trkpt>
      <trkpt lat="43.58618" lon="1.33555">
        <ele>163.2</ele>
        <time>2022-11-20T11:10:54Z</time>
      </trkpt>
      <trkpt lat="43.58608" lon="1.33544">
        <ele>163.2</ele>
        <time>2022-11-20T11:10:56Z</time>
      </trkpt>
      <trkpt lat="43.58603" lon="1.33541">
        <ele>163.2</ele>
        <time>2022-11-20T11:10:57Z</time>
      </trkpt>
      <trkpt lat="43.58599" lon="1.33537">
        <ele>163.2</ele>
        <time>2022-11-20T11:10:58Z</time>
      </trkpt>
      <trkpt lat="43.58595" lon="1.33525">
        <ele>163.2</ele>
        <time>2022-11-20T11:11:00Z</time>
      </trkpt>
      <trkpt lat="43.58589" lon="1.33515">
        <ele>163.2</ele>
        <time>2022-11-20T11:11:02Z</time>
      </trkpt>
      <trkpt lat="43.58585" lon="1.33512">
        <ele>163.2</ele>
        <time>2022-11-20T11:11:03Z</time>
      </trkpt>
      <trkpt lat="43.58581" lon="1.3351">
        <ele>163.2</ele>
        <time>2022-11-20T11:11:04Z</time>
      </trkpt>
      <trkpt lat="43.58573" lon="1.33504">
        <ele>163.2</ele>
        <time>2022-11-20T11:11:06Z</time>
      </trkpt>
      <trkpt lat="43.58569" lon="1.33499">
        <ele>163.2</ele>
        <time>2022-11-20T11:11:07Z</time>
      </trkpt>
      <trkpt lat="43.58548" lon="1.33469">
        <ele>163</ele>
        <time>2022-11-20T11:11:12Z</time>
      </trkpt>
      <trkpt lat="43.58516" lon="1.33426">
        <ele>163</ele>
        <time>2022-11-20T11:11:19Z</time>
      </trkpt>
      <trkpt lat="43.58504" lon="1.33417">
        <ele>163</ele>
        <time>2022-11-20T11:11:21Z</time>
      </trkpt>
      <trkpt lat="43.5849" lon="1.33411">
        <ele>163</ele>
        <time>2022-11-20T11:11:23Z</time>
      </trkpt>
      <trkpt lat="43.58463" lon="1.3341">
        <ele>163</ele>
        <time>2022-11-20T11:11:27Z</time>
      </trkpt>
      <trkpt lat="43.58456" lon="1.33413">
        <ele>162.8</ele>
        <time>2022-11-20T11:11:28Z</time>
      </trkpt>
      <trkpt lat="43.58451" lon="1.33417">
        <ele>162.8</ele>
        <time>2022-11-20T11:11:29Z</time>
      </trkpt>
      <trkpt lat="43.5844" lon="1.33426">
        <ele>162.8</ele>
        <time>2022-11-20T11:11:31Z</time>
      </trkpt>
      <trkpt lat="43.58434" lon="1.33429">
        <ele>162.6</ele>
        <time>2022-11-20T11:11:32Z</time>
      </trkpt>
      <trkpt lat="43.58429" lon="1.33433">
        <ele>162.6</ele>
        <time>2022-11-20T11:11:33Z</time>
      </trkpt>
      <trkpt lat="43.58421" lon="1.33439">
        <ele>162.6</ele>
        <time>2022-11-20T11:11:35Z</time>
      </trkpt>
      <trkpt lat="43.5841" lon="1.3344">
        <ele>162.6</ele>
        <time>2022-11-20T11:11:38Z</time>
      </trkpt>
      <trkpt lat="43.58402" lon="1.33457">
        <ele>162.4</ele>
        <time>2022-11-20T11:11:41Z</time>
      </trkpt>
      <trkpt lat="43.58396" lon="1.3347">
        <ele>162.4</ele>
        <time>2022-11-20T11:11:43Z</time>
      </trkpt>
      <trkpt lat="43.58379" lon="1.33515">
        <ele>162.2</ele>
        <time>2022-11-20T11:11:49Z</time>
      </trkpt>
      <trkpt lat="43.58361" lon="1.33563">
        <ele>162.2</ele>
        <time>2022-11-20T11:11:55Z</time>
      </trkpt>
      <trkpt lat="43.58357" lon="1.33568">
        <ele>162.2</ele>
        <time>2022-11-20T11:11:56Z</time>
      </trkpt>
      <trkpt lat="43.58352" lon="1.33571">
        <ele>162.2</ele>
        <time>2022-11-20T11:11:57Z</time>
      </trkpt>
      <trkpt lat="43.58342" lon="1.33565">
        <ele>162.2</ele>
        <time>2022-11-20T11:11:59Z</time>
      </trkpt>
      <trkpt lat="43.58338" lon="1.33557">
        <ele>162.2</ele>
        <time>2022-11-20T11:12:00Z</time>
      </trkpt>
      <trkpt lat="43.58334" lon="1.3355">
        <ele>162.2</ele>
        <time>2022-11-20T11:12:01Z</time>
      </trkpt>
      <trkpt lat="43.5832" lon="1.33517">
        <ele>162.4</ele>
        <time>2022-11-20T11:12:05Z</time>
      </trkpt>
      <trkpt lat="43.58293" lon="1.33459">
        <ele>162</ele>
        <time>2022-11-20T11:12:12Z</time>
      </trkpt>
      <trkpt lat="43.58264" lon="1.33393">
        <ele>162</ele>
        <time>2022-11-20T11:12:20Z</time>
      </trkpt>
      <trkpt lat="43.58257" lon="1.33377">
        <ele>162.2</ele>
        <time>2022-11-20T11:12:22Z</time>
      </trkpt>
      <trkpt lat="43.58236" lon="1.33321">
        <ele>162.4</ele>
        <time>2022-11-20T11:12:29Z</time>
      </trkpt>
      <trkpt lat="43.58221" lon="1.33284">
        <ele>162.6</ele>
        <time>2022-11-20T11:12:34Z</time>
      </trkpt>
      <trkpt lat="43.58206" lon="1.33253">
        <ele>163</ele>
        <time>2022-11-20T11:12:38Z</time>
      </trkpt>
      <trkpt lat="43.58196" lon="1.33239">
        <ele>163</ele>
        <time>2022-11-20T11:12:40Z</time>
      </trkpt>
      <trkpt lat="43.5817" lon="1.33178">
        <ele>163</ele>
        <time>2022-11-20T11:12:47Z</time>
      </trkpt>
      <trkpt lat="43.58139" lon="1.33109">
        <ele>163.4</ele>
        <time>2022-11-20T11:12:55Z</time>
      </trkpt>
      <trkpt lat="43.58123" lon="1.33074">
        <ele>163.2</ele>
        <time>2022-11-20T11:12:59Z</time>
      </trkpt>
      <trkpt lat="43.58095" lon="1.33011">
        <ele>163.4</ele>
        <time>2022-11-20T11:13:06Z</time>
      </trkpt>
      <trkpt lat="43.58087" lon="1.32994">
        <ele>163.6</ele>
        <time>2022-11-20T11:13:08Z</time>
      </trkpt>
      <trkpt lat="43.58057" lon="1.32932">
        <ele>163.6</ele>
        <time>2022-11-20T11:13:15Z</time>
      </trkpt>
      <trkpt lat="43.5804" lon="1.32892">
        <ele>163.6</ele>
        <time>2022-11-20T11:13:20Z</time>
      </trkpt>
      <trkpt lat="43.58018" lon="1.32844">
        <ele>163.6</ele>
        <time>2022-11-20T11:13:26Z</time>
      </trkpt>
      <trkpt lat="43.57995" lon="1.32797">
        <ele>163.8</ele>
        <time>2022-11-20T11:13:32Z</time>
      </trkpt>
      <trkpt lat="43.57992" lon="1.32788">
        <ele>163.8</ele>
        <time>2022-11-20T11:13:33Z</time>
      </trkpt>
      <trkpt lat="43.57989" lon="1.3277">
        <ele>163.8</ele>
        <time>2022-11-20T11:13:35Z</time>
      </trkpt>
      <trkpt lat="43.57987" lon="1.32749">
        <ele>163.4</ele>
        <time>2022-11-20T11:13:37Z</time>
      </trkpt>
      <trkpt lat="43.57984" lon="1.32739">
        <ele>163.4</ele>
        <time>2022-11-20T11:13:38Z</time>
      </trkpt>
      <trkpt lat="43.57981" lon="1.32732">
        <ele>163.2</ele>
        <time>2022-11-20T11:13:39Z</time>
      </trkpt>
      <trkpt lat="43.57973" lon="1.3272">
        <ele>163</ele>
        <time>2022-11-20T11:13:41Z</time>
      </trkpt>
      <trkpt lat="43.57964" lon="1.32709">
        <ele>162.8</ele>
        <time>2022-11-20T11:13:43Z</time>
      </trkpt>
      <trkpt lat="43.57953" lon="1.32692">
        <ele>162.8</ele>
        <time>2022-11-20T11:13:46Z</time>
      </trkpt>
      <trkpt lat="43.57934" lon="1.32645">
        <ele>163.4</ele>
        <time>2022-11-20T11:13:53Z</time>
      </trkpt>
      <trkpt lat="43.57916" lon="1.32601">
        <ele>164.2</ele>
        <time>2022-11-20T11:13:59Z</time>
      </trkpt>
      <trkpt lat="43.57915" lon="1.32593">
        <ele>164.2</ele>
        <time>2022-11-20T11:14:00Z</time>
      </trkpt>
      <trkpt lat="43.57916" lon="1.32585">
        <ele>164.2</ele>
        <time>2022-11-20T11:14:01Z</time>
      </trkpt>
      <trkpt lat="43.5792" lon="1.32568">
        <ele>164.4</ele>
        <time>2022-11-20T11:14:03Z</time>
      </trkpt>
      <trkpt lat="43.57923" lon="1.3256">
        <ele>164.6</ele>
        <time>2022-11-20T11:14:04Z</time>
      </trkpt>
      <trkpt lat="43.57926" lon="1.32553">
        <ele>164.6</ele>
        <time>2022-11-20T11:14:05Z</time>
      </trkpt>
      <trkpt lat="43.57927" lon="1.3254">
        <ele>164.6</ele>
        <time>2022-11-20T11:14:07Z</time>
      </trkpt>
      <trkpt lat="43.57918" lon="1.32517">
        <ele>164.6</ele>
        <time>2022-11-20T11:14:10Z</time>
      </trkpt>
      <trkpt lat="43.57914" lon="1.32509">
        <ele>164.6</ele>
        <time>2022-11-20T11:14:11Z</time>
      </trkpt>
      <trkpt lat="43.57909" lon="1.32492">
        <ele>164.6</ele>
        <time>2022-11-20T11:14:13Z</time>
      </trkpt>
      <trkpt lat="43.57908" lon="1.32484">
        <ele>164.6</ele>
        <time>2022-11-20T11:14:14Z</time>
      </trkpt>
      <trkpt lat="43.57909" lon="1.32436">
        <ele>164.6</ele>
        <time>2022-11-20T11:14:19Z</time>
      </trkpt>
      <trkpt lat="43.5791" lon="1.32428">
        <ele>164.6</ele>
        <time>2022-11-20T11:14:20Z</time>
      </trkpt>
      <trkpt lat="43.5791" lon="1.3242">
        <ele>164.6</ele>
        <time>2022-11-20T11:14:21Z</time>
      </trkpt>
      <trkpt lat="43.57906" lon="1.32407">
        <ele>164.6</ele>
        <time>2022-11-20T11:14:23Z</time>
      </trkpt>
      <trkpt lat="43.57896" lon="1.32402">
        <ele>164.6</ele>
        <time>2022-11-20T11:14:25Z</time>
      </trkpt>
      <trkpt lat="43.57884" lon="1.32407">
        <ele>164.6</ele>
        <time>2022-11-20T11:14:27Z</time>
      </trkpt>
      <trkpt lat="43.57879" lon="1.32412">
        <ele>164.6</ele>
        <time>2022-11-20T11:14:28Z</time>
      </trkpt>
      <trkpt lat="43.57874" lon="1.32414">
        <ele>164.6</ele>
        <time>2022-11-20T11:14:29Z</time>
      </trkpt>
      <trkpt lat="43.57863" lon="1.32413">
        <ele>164.6</ele>
        <time>2022-11-20T11:14:31Z</time>
      </trkpt>
      <trkpt lat="43.57859" lon="1.32401">
        <ele>164.6</ele>
        <time>2022-11-20T11:14:33Z</time>
      </trkpt>
      <trkpt lat="43.57853" lon="1.3236">
        <ele>164.4</ele>
        <time>2022-11-20T11:14:38Z</time>
      </trkpt>
      <trkpt lat="43.57848" lon="1.32343">
        <ele>164.4</ele>
        <time>2022-11-20T11:14:40Z</time>
      </trkpt>
      <trkpt lat="43.57835" lon="1.32291">
        <ele>164.4</ele>
        <time>2022-11-20T11:14:46Z</time>
      </trkpt>
      <trkpt lat="43.57828" lon="1.32266">
        <ele>164.4</ele>
        <time>2022-11-20T11:14:49Z</time>
      </trkpt>
      <trkpt lat="43.57818" lon="1.3224">
        <ele>164.4</ele>
        <time>2022-11-20T11:14:52Z</time>
      </trkpt>
      <trkpt lat="43.57794" lon="1.32176">
        <ele>164.6</ele>
        <time>2022-11-20T11:14:59Z</time>
      </trkpt>
      <trkpt lat="43.57765" lon="1.321">
        <ele>164.4</ele>
        <time>2022-11-20T11:15:07Z</time>
      </trkpt>
      <trkpt lat="43.57762" lon="1.32091">
        <ele>164.4</ele>
        <time>2022-11-20T11:15:08Z</time>
      </trkpt>
      <trkpt lat="43.57736" lon="1.32024">
        <ele>164.4</ele>
        <time>2022-11-20T11:15:15Z</time>
      </trkpt>
      <trkpt lat="43.5773" lon="1.32007">
        <ele>164.6</ele>
        <time>2022-11-20T11:15:17Z</time>
      </trkpt>
      <trkpt lat="43.57719" lon="1.3198">
        <ele>164.8</ele>
        <time>2022-11-20T11:15:20Z</time>
      </trkpt>
      <trkpt lat="43.57695" lon="1.31913">
        <ele>165</ele>
        <time>2022-11-20T11:15:28Z</time>
      </trkpt>
      <trkpt lat="43.57679" lon="1.31874">
        <ele>165.4</ele>
        <time>2022-11-20T11:15:33Z</time>
      </trkpt>
      <trkpt lat="43.57657" lon="1.31808">
        <ele>165.4</ele>
        <time>2022-11-20T11:15:41Z</time>
      </trkpt>
      <trkpt lat="43.57632" lon="1.3174">
        <ele>165.4</ele>
        <time>2022-11-20T11:15:49Z</time>
      </trkpt>
      <trkpt lat="43.57605" lon="1.31669">
        <ele>165.4</ele>
        <time>2022-11-20T11:15:57Z</time>
      </trkpt>
      <trkpt lat="43.57587" lon="1.31613">
        <ele>165.4</ele>
        <time>2022-11-20T11:16:03Z</time>
      </trkpt>
      <trkpt lat="43.57565" lon="1.31551">
        <ele>165.4</ele>
        <time>2022-11-20T11:16:10Z</time>
      </trkpt>
      <trkpt lat="43.57567" lon="1.31524">
        <ele>165.4</ele>
        <time>2022-11-20T11:16:13Z</time>
      </trkpt>
      <trkpt lat="43.57568" lon="1.31515">
        <ele>165.6</ele>
        <time>2022-11-20T11:16:14Z</time>
      </trkpt>
      <trkpt lat="43.57571" lon="1.31506">
        <ele>165.6</ele>
        <time>2022-11-20T11:16:15Z</time>
      </trkpt>
      <trkpt lat="43.57574" lon="1.31498">
        <ele>165.6</ele>
        <time>2022-11-20T11:16:16Z</time>
      </trkpt>
      <trkpt lat="43.5758" lon="1.31492">
        <ele>165.6</ele>
        <time>2022-11-20T11:16:17Z</time>
      </trkpt>
      <trkpt lat="43.57593" lon="1.31483">
        <ele>165.8</ele>
        <time>2022-11-20T11:16:19Z</time>
      </trkpt>
      <trkpt lat="43.57607" lon="1.31475">
        <ele>166</ele>
        <time>2022-11-20T11:16:21Z</time>
      </trkpt>
      <trkpt lat="43.5762" lon="1.31465">
        <ele>166</ele>
        <time>2022-11-20T11:16:23Z</time>
      </trkpt>
      <trkpt lat="43.57667" lon="1.31423">
        <ele>166</ele>
        <time>2022-11-20T11:16:30Z</time>
      </trkpt>
      <trkpt lat="43.57681" lon="1.31412">
        <ele>166.2</ele>
        <time>2022-11-20T11:16:32Z</time>
      </trkpt>
      <trkpt lat="43.57696" lon="1.31402">
        <ele>166.2</ele>
        <time>2022-11-20T11:16:34Z</time>
      </trkpt>
      <trkpt lat="43.57704" lon="1.314">
        <ele>166.2</ele>
        <time>2022-11-20T11:16:35Z</time>
      </trkpt>
      <trkpt lat="43.57719" lon="1.31395">
        <ele>166.2</ele>
        <time>2022-11-20T11:16:37Z</time>
      </trkpt>
      <trkpt lat="43.57725" lon="1.3139">
        <ele>166.2</ele>
        <time>2022-11-20T11:16:38Z</time>
      </trkpt>
      <trkpt lat="43.57729" lon="1.31383">
        <ele>166.2</ele>
        <time>2022-11-20T11:16:39Z</time>
      </trkpt>
      <trkpt lat="43.57733" lon="1.31362">
        <ele>166.2</ele>
        <time>2022-11-20T11:16:41Z</time>
      </trkpt>
      <trkpt lat="43.57736" lon="1.31342">
        <ele>166.2</ele>
        <time>2022-11-20T11:16:43Z</time>
      </trkpt>
      <trkpt lat="43.57746" lon="1.31314">
        <ele>166</ele>
        <time>2022-11-20T11:16:46Z</time>
      </trkpt>
      <trkpt lat="43.57779" lon="1.31246">
        <ele>166</ele>
        <time>2022-11-20T11:16:54Z</time>
      </trkpt>
      <trkpt lat="43.57806" lon="1.31194">
        <ele>166</ele>
        <time>2022-11-20T11:17:00Z</time>
      </trkpt>
      <trkpt lat="43.57834" lon="1.31132">
        <ele>166</ele>
        <time>2022-11-20T11:17:07Z</time>
      </trkpt>
      <trkpt lat="43.57861" lon="1.31075">
        <ele>166</ele>
        <time>2022-11-20T11:17:14Z</time>
      </trkpt>
      <trkpt lat="43.57869" lon="1.3106">
        <ele>166.2</ele>
        <time>2022-11-20T11:17:16Z</time>
      </trkpt>
      <trkpt lat="43.57874" lon="1.31056">
        <ele>166.2</ele>
        <time>2022-11-20T11:17:17Z</time>
      </trkpt>
      <trkpt lat="43.57885" lon="1.3106">
        <ele>166.2</ele>
        <time>2022-11-20T11:17:19Z</time>
      </trkpt>
      <trkpt lat="43.57906" lon="1.31082">
        <ele>166.8</ele>
        <time>2022-11-20T11:17:23Z</time>
      </trkpt>
      <trkpt lat="43.57918" lon="1.31094">
        <ele>167</ele>
        <time>2022-11-20T11:17:25Z</time>
      </trkpt>
      <trkpt lat="43.57963" lon="1.31146">
        <ele>167</ele>
        <time>2022-11-20T11:17:33Z</time>
      </trkpt>
      <trkpt lat="43.58008" lon="1.31199">
        <ele>167.2</ele>
        <time>2022-11-20T11:17:41Z</time>
      </trkpt>
      <trkpt lat="43.58019" lon="1.31213">
        <ele>167.4</ele>
        <time>2022-11-20T11:17:43Z</time>
      </trkpt>
      <trkpt lat="43.58034" lon="1.31237">
        <ele>167.6</ele>
        <time>2022-11-20T11:17:46Z</time>
      </trkpt>
      <trkpt lat="43.58046" lon="1.31251">
        <ele>167.6</ele>
        <time>2022-11-20T11:17:48Z</time>
      </trkpt>
      <trkpt lat="43.58078" lon="1.31294">
        <ele>167.6</ele>
        <time>2022-11-20T11:17:54Z</time>
      </trkpt>
      <trkpt lat="43.58116" lon="1.31346">
        <ele>167.8</ele>
        <time>2022-11-20T11:18:01Z</time>
      </trkpt>
      <trkpt lat="43.58158" lon="1.31404">
        <ele>168.2</ele>
        <time>2022-11-20T11:18:09Z</time>
      </trkpt>
      <trkpt lat="43.58173" lon="1.31425">
        <ele>168.4</ele>
        <time>2022-11-20T11:18:12Z</time>
      </trkpt>
      <trkpt lat="43.58209" lon="1.31471">
        <ele>168.6</ele>
        <time>2022-11-20T11:18:19Z</time>
      </trkpt>
      <trkpt lat="43.58222" lon="1.31488">
        <ele>168.8</ele>
        <time>2022-11-20T11:18:22Z</time>
      </trkpt>
      <trkpt lat="43.58226" lon="1.31493">
        <ele>169</ele>
        <time>2022-11-20T11:18:23Z</time>
      </trkpt>
      <trkpt lat="43.58236" lon="1.315">
        <ele>169.4</ele>
        <time>2022-11-20T11:18:25Z</time>
      </trkpt>
      <trkpt lat="43.5825" lon="1.3151">
        <ele>170.2</ele>
        <time>2022-11-20T11:18:28Z</time>
      </trkpt>
      <trkpt lat="43.58262" lon="1.31521">
        <ele>170.8</ele>
        <time>2022-11-20T11:18:31Z</time>
      </trkpt>
      <trkpt lat="43.58266" lon="1.31524">
        <ele>171.4</ele>
        <time>2022-11-20T11:18:32Z</time>
      </trkpt>
      <trkpt lat="43.58286" lon="1.31542">
        <ele>172.4</ele>
        <time>2022-11-20T11:18:37Z</time>
      </trkpt>
      <trkpt lat="43.58294" lon="1.31549">
        <ele>172.6</ele>
        <time>2022-11-20T11:18:39Z</time>
      </trkpt>
      <trkpt lat="43.5831" lon="1.31565">
        <ele>173.6</ele>
        <time>2022-11-20T11:18:44Z</time>
      </trkpt>
      <trkpt lat="43.58316" lon="1.31568">
        <ele>174.4</ele>
        <time>2022-11-20T11:18:47Z</time>
      </trkpt>
      <trkpt lat="43.58318" lon="1.3157">
        <ele>174.8</ele>
        <time>2022-11-20T11:18:48Z</time>
      </trkpt>
      <trkpt lat="43.58324" lon="1.31579">
        <ele>176</ele>
        <time>2022-11-20T11:18:53Z</time>
      </trkpt>
      <trkpt lat="43.58325" lon="1.31581">
        <ele>176</ele>
        <time>2022-11-20T11:18:54Z</time>
      </trkpt>
      <trkpt lat="43.58334" lon="1.3159">
        <ele>177.2</ele>
        <time>2022-11-20T11:18:59Z</time>
      </trkpt>
      <trkpt lat="43.58336" lon="1.31592">
        <ele>177.8</ele>
        <time>2022-11-20T11:19:00Z</time>
      </trkpt>
      <trkpt lat="43.58337" lon="1.31593">
        <ele>178.4</ele>
        <time>2022-11-20T11:19:01Z</time>
      </trkpt>
      <trkpt lat="43.58343" lon="1.316">
        <ele>179.4</ele>
        <time>2022-11-20T11:19:05Z</time>
      </trkpt>
      <trkpt lat="43.58347" lon="1.31603">
        <ele>180.2</ele>
        <time>2022-11-20T11:19:07Z</time>
      </trkpt>
      <trkpt lat="43.5835" lon="1.31605">
        <ele>180.6</ele>
        <time>2022-11-20T11:19:08Z</time>
      </trkpt>
      <trkpt lat="43.58356" lon="1.31611">
        <ele>181.8</ele>
        <time>2022-11-20T11:19:11Z</time>
      </trkpt>
      <trkpt lat="43.5836" lon="1.31616">
        <ele>182.6</ele>
        <time>2022-11-20T11:19:13Z</time>
      </trkpt>
      <trkpt lat="43.58362" lon="1.31618">
        <ele>183</ele>
        <time>2022-11-20T11:19:14Z</time>
      </trkpt>
      <trkpt lat="43.58372" lon="1.3163">
        <ele>184.4</ele>
        <time>2022-11-20T11:19:18Z</time>
      </trkpt>
      <trkpt lat="43.58377" lon="1.31635">
        <ele>186</ele>
        <time>2022-11-20T11:19:20Z</time>
      </trkpt>
      <trkpt lat="43.58379" lon="1.31636">
        <ele>186.2</ele>
        <time>2022-11-20T11:19:21Z</time>
      </trkpt>
      <trkpt lat="43.5839" lon="1.31647">
        <ele>187</ele>
        <time>2022-11-20T11:19:24Z</time>
      </trkpt>
      <trkpt lat="43.58399" lon="1.31653">
        <ele>188</ele>
        <time>2022-11-20T11:19:28Z</time>
      </trkpt>
      <trkpt lat="43.58401" lon="1.31656">
        <ele>188</ele>
        <time>2022-11-20T11:19:29Z</time>
      </trkpt>
      <trkpt lat="43.58413" lon="1.3167">
        <ele>189.4</ele>
        <time>2022-11-20T11:19:33Z</time>
      </trkpt>
      <trkpt lat="43.58416" lon="1.31673">
        <ele>189.4</ele>
        <time>2022-11-20T11:19:34Z</time>
      </trkpt>
      <trkpt lat="43.58431" lon="1.3169">
        <ele>190.6</ele>
        <time>2022-11-20T11:19:39Z</time>
      </trkpt>
      <trkpt lat="43.58438" lon="1.31697">
        <ele>190.8</ele>
        <time>2022-11-20T11:19:41Z</time>
      </trkpt>
      <trkpt lat="43.58454" lon="1.31718">
        <ele>191.6</ele>
        <time>2022-11-20T11:19:46Z</time>
      </trkpt>
      <trkpt lat="43.58474" lon="1.31741">
        <ele>191.8</ele>
        <time>2022-11-20T11:19:51Z</time>
      </trkpt>
      <trkpt lat="43.58484" lon="1.31744">
        <ele>191.8</ele>
        <time>2022-11-20T11:19:53Z</time>
      </trkpt>
      <trkpt lat="43.58489" lon="1.31741">
        <ele>191.8</ele>
        <time>2022-11-20T11:19:54Z</time>
      </trkpt>
      <trkpt lat="43.58493" lon="1.31736">
        <ele>191.8</ele>
        <time>2022-11-20T11:19:55Z</time>
      </trkpt>
      <trkpt lat="43.585" lon="1.31724">
        <ele>191.8</ele>
        <time>2022-11-20T11:19:57Z</time>
      </trkpt>
      <trkpt lat="43.58504" lon="1.31719">
        <ele>191.8</ele>
        <time>2022-11-20T11:19:58Z</time>
      </trkpt>
      <trkpt lat="43.58513" lon="1.31717">
        <ele>191.8</ele>
        <time>2022-11-20T11:20:00Z</time>
      </trkpt>
      <trkpt lat="43.58524" lon="1.3172">
        <ele>191.8</ele>
        <time>2022-11-20T11:20:02Z</time>
      </trkpt>
      <trkpt lat="43.5853" lon="1.31719">
        <ele>191.8</ele>
        <time>2022-11-20T11:20:03Z</time>
      </trkpt>
      <trkpt lat="43.58535" lon="1.31715">
        <ele>191.8</ele>
        <time>2022-11-20T11:20:04Z</time>
      </trkpt>
      <trkpt lat="43.58545" lon="1.31704">
        <ele>191.6</ele>
        <time>2022-11-20T11:20:06Z</time>
      </trkpt>
      <trkpt lat="43.58581" lon="1.31649">
        <ele>191.6</ele>
        <time>2022-11-20T11:20:14Z</time>
      </trkpt>
      <trkpt lat="43.58613" lon="1.31599">
        <ele>191.6</ele>
        <time>2022-11-20T11:20:21Z</time>
      </trkpt>
      <trkpt lat="43.58617" lon="1.31594">
        <ele>191.6</ele>
        <time>2022-11-20T11:20:22Z</time>
      </trkpt>
      <trkpt lat="43.58625" lon="1.31592">
        <ele>191.8</ele>
        <time>2022-11-20T11:20:24Z</time>
      </trkpt>
      <trkpt lat="43.58628" lon="1.31603">
        <ele>191.8</ele>
        <time>2022-11-20T11:20:26Z</time>
      </trkpt>
      <trkpt lat="43.58632" lon="1.31645">
        <ele>191.6</ele>
        <time>2022-11-20T11:20:31Z</time>
      </trkpt>
      <trkpt lat="43.58637" lon="1.3169">
        <ele>191.6</ele>
        <time>2022-11-20T11:20:36Z</time>
      </trkpt>
      <trkpt lat="43.58638" lon="1.31699">
        <ele>191.6</ele>
        <time>2022-11-20T11:20:37Z</time>
      </trkpt>
      <trkpt lat="43.58645" lon="1.31708">
        <ele>191.6</ele>
        <time>2022-11-20T11:20:39Z</time>
      </trkpt>
      <trkpt lat="43.58652" lon="1.317">
        <ele>191.4</ele>
        <time>2022-11-20T11:20:41Z</time>
      </trkpt>
      <trkpt lat="43.58657" lon="1.31668">
        <ele>191.2</ele>
        <time>2022-11-20T11:20:45Z</time>
      </trkpt>
      <trkpt lat="43.58666" lon="1.31611">
        <ele>191.2</ele>
        <time>2022-11-20T11:20:51Z</time>
      </trkpt>
      <trkpt lat="43.58673" lon="1.31564">
        <ele>191.2</ele>
        <time>2022-11-20T11:20:56Z</time>
      </trkpt>
      <trkpt lat="43.58685" lon="1.31558">
        <ele>191.2</ele>
        <time>2022-11-20T11:20:58Z</time>
      </trkpt>
      <trkpt lat="43.58691" lon="1.31561">
        <ele>191.2</ele>
        <time>2022-11-20T11:20:59Z</time>
      </trkpt>
      <trkpt lat="43.58702" lon="1.31572">
        <ele>191.2</ele>
        <time>2022-11-20T11:21:01Z</time>
      </trkpt>
      <trkpt lat="43.58744" lon="1.31619">
        <ele>191.2</ele>
        <time>2022-11-20T11:21:08Z</time>
      </trkpt>
      <trkpt lat="43.58787" lon="1.31667">
        <ele>191.2</ele>
        <time>2022-11-20T11:21:15Z</time>
      </trkpt>
      <trkpt lat="43.58793" lon="1.31674">
        <ele>191.2</ele>
        <time>2022-11-20T11:21:16Z</time>
      </trkpt>
      <trkpt lat="43.58838" lon="1.31731">
        <ele>191</ele>
        <time>2022-11-20T11:21:24Z</time>
      </trkpt>
      <trkpt lat="43.58849" lon="1.31745">
        <ele>191</ele>
        <time>2022-11-20T11:21:26Z</time>
      </trkpt>
      <trkpt lat="43.58878" lon="1.31785">
        <ele>191.2</ele>
        <time>2022-11-20T11:21:32Z</time>
      </trkpt>
      <trkpt lat="43.58887" lon="1.3182">
        <ele>191.2</ele>
        <time>2022-11-20T11:21:36Z</time>
      </trkpt>
      <trkpt lat="43.5891" lon="1.31872">
        <ele>191.2</ele>
        <time>2022-11-20T11:21:42Z</time>
      </trkpt>
      <trkpt lat="43.58936" lon="1.31923">
        <ele>191</ele>
        <time>2022-11-20T11:21:48Z</time>
      </trkpt>
      <trkpt lat="43.58939" lon="1.31933">
        <ele>191</ele>
        <time>2022-11-20T11:21:49Z</time>
      </trkpt>
      <trkpt lat="43.58941" lon="1.31943">
        <ele>191</ele>
        <time>2022-11-20T11:21:50Z</time>
      </trkpt>
      <trkpt lat="43.58942" lon="1.31975">
        <ele>191</ele>
        <time>2022-11-20T11:21:53Z</time>
      </trkpt>
      <trkpt lat="43.58942" lon="1.31997">
        <ele>190.8</ele>
        <time>2022-11-20T11:21:55Z</time>
      </trkpt>
      <trkpt lat="43.58937" lon="1.32017">
        <ele>190.8</ele>
        <time>2022-11-20T11:21:57Z</time>
      </trkpt>
      <trkpt lat="43.58926" lon="1.3203">
        <ele>190.6</ele>
        <time>2022-11-20T11:21:59Z</time>
      </trkpt>
      <trkpt lat="43.58904" lon="1.32044">
        <ele>190.4</ele>
        <time>2022-11-20T11:22:02Z</time>
      </trkpt>
      <trkpt lat="43.5889" lon="1.32055">
        <ele>190.4</ele>
        <time>2022-11-20T11:22:04Z</time>
      </trkpt>
      <trkpt lat="43.58846" lon="1.32101">
        <ele>190.2</ele>
        <time>2022-11-20T11:22:11Z</time>
      </trkpt>
      <trkpt lat="43.58841" lon="1.32109">
        <ele>190.2</ele>
        <time>2022-11-20T11:22:12Z</time>
      </trkpt>
      <trkpt lat="43.5883" lon="1.32135">
        <ele>190.2</ele>
        <time>2022-11-20T11:22:15Z</time>
      </trkpt>
      <trkpt lat="43.58826" lon="1.32142">
        <ele>190.2</ele>
        <time>2022-11-20T11:22:16Z</time>
      </trkpt>
      <trkpt lat="43.58818" lon="1.32149">
        <ele>190.4</ele>
        <time>2022-11-20T11:22:18Z</time>
      </trkpt>
      <trkpt lat="43.58817" lon="1.3215">
        <ele>190.4</ele>
        <time>2022-11-20T11:22:19Z</time>
      </trkpt>
      <trkpt lat="43.58815" lon="1.32148">
        <ele>190.4</ele>
        <time>2022-11-20T11:22:22Z</time>
      </trkpt>
      <trkpt lat="43.58806" lon="1.32155">
        <ele>190.4</ele>
        <time>2022-11-20T11:22:26Z</time>
      </trkpt>
      <trkpt lat="43.58801" lon="1.32162">
        <ele>190.2</ele>
        <time>2022-11-20T11:22:28Z</time>
      </trkpt>
      <trkpt lat="43.58789" lon="1.32175">
        <ele>190.2</ele>
        <time>2022-11-20T11:22:31Z</time>
      </trkpt>
      <trkpt lat="43.58764" lon="1.32201">
        <ele>190</ele>
        <time>2022-11-20T11:22:36Z</time>
      </trkpt>
      <trkpt lat="43.58725" lon="1.32242">
        <ele>190</ele>
        <time>2022-11-20T11:22:43Z</time>
      </trkpt>
      <trkpt lat="43.5872" lon="1.32248">
        <ele>190</ele>
        <time>2022-11-20T11:22:44Z</time>
      </trkpt>
      <trkpt lat="43.58686" lon="1.32282">
        <ele>189.8</ele>
        <time>2022-11-20T11:22:50Z</time>
      </trkpt>
      <trkpt lat="43.58682" lon="1.32285">
        <ele>189.8</ele>
        <time>2022-11-20T11:22:51Z</time>
      </trkpt>
      <trkpt lat="43.58676" lon="1.32285">
        <ele>189.4</ele>
        <time>2022-11-20T11:22:53Z</time>
      </trkpt>
      <trkpt lat="43.58676" lon="1.32271">
        <ele>189</ele>
        <time>2022-11-20T11:22:56Z</time>
      </trkpt>
      <trkpt lat="43.58678" lon="1.3225">
        <ele>188.6</ele>
        <time>2022-11-20T11:23:00Z</time>
      </trkpt>
      <trkpt lat="43.58679" lon="1.32241">
        <ele>188.2</ele>
        <time>2022-11-20T11:23:02Z</time>
      </trkpt>
      <trkpt lat="43.5868" lon="1.32233">
        <ele>187.8</ele>
        <time>2022-11-20T11:23:06Z</time>
      </trkpt>
      <trkpt lat="43.5868" lon="1.32233">
        <ele>187.8</ele>
        <time>2022-11-20T11:23:07Z</time>
      </trkpt>
    </trkseg>
  </trk>
</gpx>